<?xml version="1.0" encoding="UTF-8" standalone="no" ?>
<gpx xmlns="http://www.topografix.com/GPX/1/1" xmlns:xsi="http://www.w3.org/2001/XMLSchema-instance" xsi:schemaLocation="http://www.topografix.com/GPX/1/1 http://www.topografix.com/GPX/1/1/gpx.xsd" version="1.1" creator="VisuGPX - https://www.visugpx.com">
  <metadata>
    <name>Pornichet 18/11/2021</name>
    <desc><![CDATA[Sorie vtt jeudi 18 novembre 2021]]></desc>
  </metadata>
  <trk>
    <name><![CDATA[Pornichet Cyclisme]]></name>
    <trkseg>
      <trkpt lat="47.2638" lon="-2.31566">
        <ele>8.7</ele>
        <time>2021-11-18T08:12:58.000Z</time>
      </trkpt>
      <trkpt lat="47.26377" lon="-2.31581">
        <ele>8.6</ele>
        <time>2021-11-18T08:13:02.000Z</time>
      </trkpt>
      <trkpt lat="47.26377" lon="-2.31585">
        <ele>-0.40000000596046</ele>
        <time>2021-11-18T08:13:03.000Z</time>
      </trkpt>
      <trkpt lat="47.26384" lon="-2.31593">
        <ele>-0.40000000596046</ele>
        <time>2021-11-18T08:13:04.000Z</time>
      </trkpt>
      <trkpt lat="47.26395" lon="-2.31625">
        <ele>-0.40000000596046</ele>
        <time>2021-11-18T08:13:11.000Z</time>
      </trkpt>
      <trkpt lat="47.26402" lon="-2.31662">
        <ele>-0.40000000596046</ele>
        <time>2021-11-18T08:13:17.000Z</time>
      </trkpt>
      <trkpt lat="47.264" lon="-2.31676">
        <ele>-0.40000000596046</ele>
        <time>2021-11-18T08:13:20.000Z</time>
      </trkpt>
      <trkpt lat="47.26398" lon="-2.31679">
        <ele>-0.40000000596046</ele>
        <time>2021-11-18T08:13:21.000Z</time>
      </trkpt>
      <trkpt lat="47.2639" lon="-2.31685">
        <ele>-0.40000000596046</ele>
        <time>2021-11-18T08:13:24.000Z</time>
      </trkpt>
      <trkpt lat="47.26387" lon="-2.31688">
        <ele>-0.40000000596046</ele>
        <time>2021-11-18T08:13:25.000Z</time>
      </trkpt>
      <trkpt lat="47.26369" lon="-2.31701">
        <ele>-0.40000000596046</ele>
        <time>2021-11-18T08:13:30.000Z</time>
      </trkpt>
      <trkpt lat="47.26365" lon="-2.31704">
        <ele>-0.40000000596046</ele>
        <time>2021-11-18T08:13:31.000Z</time>
      </trkpt>
      <trkpt lat="47.26361" lon="-2.31706">
        <ele>-0.80000001192093</ele>
        <time>2021-11-18T08:13:32.000Z</time>
      </trkpt>
      <trkpt lat="47.26356" lon="-2.31709">
        <ele>-1.2000000476837</ele>
        <time>2021-11-18T08:13:33.000Z</time>
      </trkpt>
      <trkpt lat="47.26352" lon="-2.31712">
        <ele>-1.7999999523163</ele>
        <time>2021-11-18T08:13:34.000Z</time>
      </trkpt>
      <trkpt lat="47.26348" lon="-2.31715">
        <ele>-2.2000000476837</ele>
        <time>2021-11-18T08:13:35.000Z</time>
      </trkpt>
      <trkpt lat="47.26344" lon="-2.31717">
        <ele>-2.5999999046326</ele>
        <time>2021-11-18T08:13:36.000Z</time>
      </trkpt>
      <trkpt lat="47.26335" lon="-2.31722">
        <ele>-2.5999999046326</ele>
        <time>2021-11-18T08:13:38.000Z</time>
      </trkpt>
      <trkpt lat="47.26307" lon="-2.31736">
        <ele>-3</ele>
        <time>2021-11-18T08:13:44.000Z</time>
      </trkpt>
      <trkpt lat="47.26304" lon="-2.31739">
        <ele>-3.4000000953674</ele>
        <time>2021-11-18T08:13:45.000Z</time>
      </trkpt>
      <trkpt lat="47.26302" lon="-2.31744">
        <ele>-3.7999999523163</ele>
        <time>2021-11-18T08:13:46.000Z</time>
      </trkpt>
      <trkpt lat="47.26301" lon="-2.3175">
        <ele>-4.1999998092651</ele>
        <time>2021-11-18T08:13:47.000Z</time>
      </trkpt>
      <trkpt lat="47.26301" lon="-2.31756">
        <ele>-4.5999999046326</ele>
        <time>2021-11-18T08:13:48.000Z</time>
      </trkpt>
      <trkpt lat="47.26302" lon="-2.31768">
        <ele>-4.5999999046326</ele>
        <time>2021-11-18T08:13:50.000Z</time>
      </trkpt>
      <trkpt lat="47.26305" lon="-2.31791">
        <ele>-4.5999999046326</ele>
        <time>2021-11-18T08:13:54.000Z</time>
      </trkpt>
      <trkpt lat="47.26307" lon="-2.31806">
        <ele>-4.5999999046326</ele>
        <time>2021-11-18T08:13:57.000Z</time>
      </trkpt>
      <trkpt lat="47.26307" lon="-2.31816">
        <ele>-4.5999999046326</ele>
        <time>2021-11-18T08:13:59.000Z</time>
      </trkpt>
      <trkpt lat="47.26308" lon="-2.31823">
        <ele>-4.5999999046326</ele>
        <time>2021-11-18T08:14:00.000Z</time>
      </trkpt>
      <trkpt lat="47.26306" lon="-2.31841">
        <ele>-4.5999999046326</ele>
        <time>2021-11-18T08:14:03.000Z</time>
      </trkpt>
      <trkpt lat="47.26303" lon="-2.31879">
        <ele>-4.5999999046326</ele>
        <time>2021-11-18T08:14:10.000Z</time>
      </trkpt>
      <trkpt lat="47.26302" lon="-2.31906">
        <ele>-4.5999999046326</ele>
        <time>2021-11-18T08:14:17.000Z</time>
      </trkpt>
      <trkpt lat="47.26296" lon="-2.31913">
        <ele>-4.5999999046326</ele>
        <time>2021-11-18T08:14:20.000Z</time>
      </trkpt>
      <trkpt lat="47.26294" lon="-2.31915">
        <ele>-4.5999999046326</ele>
        <time>2021-11-18T08:14:21.000Z</time>
      </trkpt>
      <trkpt lat="47.26282" lon="-2.31931">
        <ele>-5</ele>
        <time>2021-11-18T08:14:26.000Z</time>
      </trkpt>
      <trkpt lat="47.26279" lon="-2.31934">
        <ele>-5.4000000953674</ele>
        <time>2021-11-18T08:14:27.000Z</time>
      </trkpt>
      <trkpt lat="47.26278" lon="-2.31938">
        <ele>-5.8000001907349</ele>
        <time>2021-11-18T08:14:28.000Z</time>
      </trkpt>
      <trkpt lat="47.26276" lon="-2.31942">
        <ele>-6.1999998092651</ele>
        <time>2021-11-18T08:14:29.000Z</time>
      </trkpt>
      <trkpt lat="47.26274" lon="-2.31946">
        <ele>-6.5999999046326</ele>
        <time>2021-11-18T08:14:30.000Z</time>
      </trkpt>
      <trkpt lat="47.26272" lon="-2.31953">
        <ele>-6.5999999046326</ele>
        <time>2021-11-18T08:14:32.000Z</time>
      </trkpt>
      <trkpt lat="47.26268" lon="-2.3196">
        <ele>-6.5999999046326</ele>
        <time>2021-11-18T08:14:34.000Z</time>
      </trkpt>
      <trkpt lat="47.26262" lon="-2.31975">
        <ele>-6.5999999046326</ele>
        <time>2021-11-18T08:14:38.000Z</time>
      </trkpt>
      <trkpt lat="47.26256" lon="-2.31994">
        <ele>-6.5999999046326</ele>
        <time>2021-11-18T08:14:43.000Z</time>
      </trkpt>
      <trkpt lat="47.26254" lon="-2.31995">
        <ele>-6.5999999046326</ele>
        <time>2021-11-18T08:14:44.000Z</time>
      </trkpt>
      <trkpt lat="47.26247" lon="-2.31997">
        <ele>-6.5999999046326</ele>
        <time>2021-11-18T08:14:47.000Z</time>
      </trkpt>
      <trkpt lat="47.26236" lon="-2.3201">
        <ele>-6.5999999046326</ele>
        <time>2021-11-18T08:14:52.000Z</time>
      </trkpt>
      <trkpt lat="47.26223" lon="-2.32024">
        <ele>-6.5999999046326</ele>
        <time>2021-11-18T08:14:58.000Z</time>
      </trkpt>
      <trkpt lat="47.26222" lon="-2.32029">
        <ele>-6.5999999046326</ele>
        <time>2021-11-18T08:15:00.000Z</time>
      </trkpt>
      <trkpt lat="47.2622" lon="-2.32034">
        <ele>-6.5999999046326</ele>
        <time>2021-11-18T08:15:02.000Z</time>
      </trkpt>
      <trkpt lat="47.26217" lon="-2.32042">
        <ele>-6.5999999046326</ele>
        <time>2021-11-18T08:15:06.000Z</time>
      </trkpt>
      <trkpt lat="47.26216" lon="-2.32043">
        <ele>-6.5999999046326</ele>
        <time>2021-11-18T08:15:07.000Z</time>
      </trkpt>
      <trkpt lat="47.26213" lon="-2.32043">
        <ele>-6.5999999046326</ele>
        <time>2021-11-18T08:15:09.000Z</time>
      </trkpt>
      <trkpt lat="47.26202" lon="-2.32041">
        <ele>-6.5999999046326</ele>
        <time>2021-11-18T08:15:12.000Z</time>
      </trkpt>
      <trkpt lat="47.26195" lon="-2.32044">
        <ele>-6.5999999046326</ele>
        <time>2021-11-18T08:15:14.000Z</time>
      </trkpt>
      <trkpt lat="47.26192" lon="-2.32045">
        <ele>-6.5999999046326</ele>
        <time>2021-11-18T08:15:15.000Z</time>
      </trkpt>
      <trkpt lat="47.26185" lon="-2.32049">
        <ele>-6.5999999046326</ele>
        <time>2021-11-18T08:15:17.000Z</time>
      </trkpt>
      <trkpt lat="47.2617" lon="-2.32068">
        <ele>-6.5999999046326</ele>
        <time>2021-11-18T08:15:22.000Z</time>
      </trkpt>
      <trkpt lat="47.26158" lon="-2.32102">
        <ele>-6.5999999046326</ele>
        <time>2021-11-18T08:15:29.000Z</time>
      </trkpt>
      <trkpt lat="47.26145" lon="-2.32142">
        <ele>-6.5999999046326</ele>
        <time>2021-11-18T08:15:37.000Z</time>
      </trkpt>
      <trkpt lat="47.26136" lon="-2.32169">
        <ele>-6.5999999046326</ele>
        <time>2021-11-18T08:15:43.000Z</time>
      </trkpt>
      <trkpt lat="47.26122" lon="-2.32201">
        <ele>-6.5999999046326</ele>
        <time>2021-11-18T08:15:50.000Z</time>
      </trkpt>
      <trkpt lat="47.26107" lon="-2.32234">
        <ele>-6.5999999046326</ele>
        <time>2021-11-18T08:15:57.000Z</time>
      </trkpt>
      <trkpt lat="47.26098" lon="-2.3225">
        <ele>-6.5999999046326</ele>
        <time>2021-11-18T08:16:01.000Z</time>
      </trkpt>
      <trkpt lat="47.26092" lon="-2.32258">
        <ele>-6.5999999046326</ele>
        <time>2021-11-18T08:16:03.000Z</time>
      </trkpt>
      <trkpt lat="47.26073" lon="-2.32281">
        <ele>-6.5999999046326</ele>
        <time>2021-11-18T08:16:09.000Z</time>
      </trkpt>
      <trkpt lat="47.26048" lon="-2.32312">
        <ele>-6.5999999046326</ele>
        <time>2021-11-18T08:16:17.000Z</time>
      </trkpt>
      <trkpt lat="47.26036" lon="-2.32324">
        <ele>-6.5999999046326</ele>
        <time>2021-11-18T08:16:20.000Z</time>
      </trkpt>
      <trkpt lat="47.26023" lon="-2.32339">
        <ele>-6.5999999046326</ele>
        <time>2021-11-18T08:16:24.000Z</time>
      </trkpt>
      <trkpt lat="47.26001" lon="-2.32373">
        <ele>-6.5999999046326</ele>
        <time>2021-11-18T08:16:31.000Z</time>
      </trkpt>
      <trkpt lat="47.25978" lon="-2.32404">
        <ele>-6.5999999046326</ele>
        <time>2021-11-18T08:16:38.000Z</time>
      </trkpt>
      <trkpt lat="47.25949" lon="-2.32444">
        <ele>-6.5999999046326</ele>
        <time>2021-11-18T08:16:47.000Z</time>
      </trkpt>
      <trkpt lat="47.25922" lon="-2.32478">
        <ele>-6.5999999046326</ele>
        <time>2021-11-18T08:16:55.000Z</time>
      </trkpt>
      <trkpt lat="47.25917" lon="-2.32488">
        <ele>-6.5999999046326</ele>
        <time>2021-11-18T08:16:58.000Z</time>
      </trkpt>
      <trkpt lat="47.25923" lon="-2.3249">
        <ele>-6.5999999046326</ele>
        <time>2021-11-18T08:17:01.000Z</time>
      </trkpt>
      <trkpt lat="47.25927" lon="-2.32495">
        <ele>-6.5999999046326</ele>
        <time>2021-11-18T08:17:03.000Z</time>
      </trkpt>
      <trkpt lat="47.25931" lon="-2.32506">
        <ele>-6.5999999046326</ele>
        <time>2021-11-18T08:17:05.000Z</time>
      </trkpt>
      <trkpt lat="47.25942" lon="-2.32546">
        <ele>-6.5999999046326</ele>
        <time>2021-11-18T08:17:12.000Z</time>
      </trkpt>
      <trkpt lat="47.25953" lon="-2.32586">
        <ele>-6.5999999046326</ele>
        <time>2021-11-18T08:17:19.000Z</time>
      </trkpt>
      <trkpt lat="47.25954" lon="-2.32592">
        <ele>-6.5999999046326</ele>
        <time>2021-11-18T08:17:20.000Z</time>
      </trkpt>
      <trkpt lat="47.25957" lon="-2.32616">
        <ele>-6.5999999046326</ele>
        <time>2021-11-18T08:17:24.000Z</time>
      </trkpt>
      <trkpt lat="47.25958" lon="-2.32628">
        <ele>-6.5999999046326</ele>
        <time>2021-11-18T08:17:26.000Z</time>
      </trkpt>
      <trkpt lat="47.2596" lon="-2.32651">
        <ele>-6.5999999046326</ele>
        <time>2021-11-18T08:17:30.000Z</time>
      </trkpt>
      <trkpt lat="47.25963" lon="-2.32657">
        <ele>-6.5999999046326</ele>
        <time>2021-11-18T08:17:32.000Z</time>
      </trkpt>
      <trkpt lat="47.25967" lon="-2.32657">
        <ele>-6.5999999046326</ele>
        <time>2021-11-18T08:17:33.000Z</time>
      </trkpt>
      <trkpt lat="47.25982" lon="-2.32658">
        <ele>-6.5999999046326</ele>
        <time>2021-11-18T08:17:37.000Z</time>
      </trkpt>
      <trkpt lat="47.26002" lon="-2.32655">
        <ele>-6.5999999046326</ele>
        <time>2021-11-18T08:17:42.000Z</time>
      </trkpt>
      <trkpt lat="47.26034" lon="-2.32651">
        <ele>-6.5999999046326</ele>
        <time>2021-11-18T08:17:50.000Z</time>
      </trkpt>
      <trkpt lat="47.26066" lon="-2.32644">
        <ele>-6.1999998092651</ele>
        <time>2021-11-18T08:17:58.000Z</time>
      </trkpt>
      <trkpt lat="47.2607" lon="-2.32643">
        <ele>-5.8000001907349</ele>
        <time>2021-11-18T08:17:59.000Z</time>
      </trkpt>
      <trkpt lat="47.26074" lon="-2.32642">
        <ele>-5</ele>
        <time>2021-11-18T08:18:00.000Z</time>
      </trkpt>
      <trkpt lat="47.26078" lon="-2.32642">
        <ele>-4.5999999046326</ele>
        <time>2021-11-18T08:18:01.000Z</time>
      </trkpt>
      <trkpt lat="47.26098" lon="-2.32638">
        <ele>-4.5999999046326</ele>
        <time>2021-11-18T08:18:06.000Z</time>
      </trkpt>
      <trkpt lat="47.26127" lon="-2.32636">
        <ele>-4.5999999046326</ele>
        <time>2021-11-18T08:18:13.000Z</time>
      </trkpt>
      <trkpt lat="47.26151" lon="-2.32643">
        <ele>-4.5999999046326</ele>
        <time>2021-11-18T08:18:19.000Z</time>
      </trkpt>
      <trkpt lat="47.26182" lon="-2.32663">
        <ele>-4.5999999046326</ele>
        <time>2021-11-18T08:18:26.000Z</time>
      </trkpt>
      <trkpt lat="47.26206" lon="-2.32685">
        <ele>-4.5999999046326</ele>
        <time>2021-11-18T08:18:32.000Z</time>
      </trkpt>
      <trkpt lat="47.2621" lon="-2.32689">
        <ele>-4.5999999046326</ele>
        <time>2021-11-18T08:18:33.000Z</time>
      </trkpt>
      <trkpt lat="47.26229" lon="-2.32713">
        <ele>-4.5999999046326</ele>
        <time>2021-11-18T08:18:38.000Z</time>
      </trkpt>
      <trkpt lat="47.26232" lon="-2.32718">
        <ele>-4.5999999046326</ele>
        <time>2021-11-18T08:18:39.000Z</time>
      </trkpt>
      <trkpt lat="47.26264" lon="-2.32768">
        <ele>-4.5999999046326</ele>
        <time>2021-11-18T08:18:48.000Z</time>
      </trkpt>
      <trkpt lat="47.26276" lon="-2.32791">
        <ele>-4.5999999046326</ele>
        <time>2021-11-18T08:18:52.000Z</time>
      </trkpt>
      <trkpt lat="47.26283" lon="-2.32811">
        <ele>-4.5999999046326</ele>
        <time>2021-11-18T08:18:55.000Z</time>
      </trkpt>
      <trkpt lat="47.26287" lon="-2.32833">
        <ele>-4.5999999046326</ele>
        <time>2021-11-18T08:18:58.000Z</time>
      </trkpt>
      <trkpt lat="47.26289" lon="-2.32847">
        <ele>-4.5999999046326</ele>
        <time>2021-11-18T08:19:00.000Z</time>
      </trkpt>
      <trkpt lat="47.263" lon="-2.32862">
        <ele>-4.5999999046326</ele>
        <time>2021-11-18T08:19:03.000Z</time>
      </trkpt>
      <trkpt lat="47.26315" lon="-2.32868">
        <ele>-4.5999999046326</ele>
        <time>2021-11-18T08:19:06.000Z</time>
      </trkpt>
      <trkpt lat="47.26318" lon="-2.32874">
        <ele>-4.5999999046326</ele>
        <time>2021-11-18T08:19:07.000Z</time>
      </trkpt>
      <trkpt lat="47.26327" lon="-2.329">
        <ele>-4.5999999046326</ele>
        <time>2021-11-18T08:19:11.000Z</time>
      </trkpt>
      <trkpt lat="47.26344" lon="-2.32951">
        <ele>-4.5999999046326</ele>
        <time>2021-11-18T08:19:19.000Z</time>
      </trkpt>
      <trkpt lat="47.26351" lon="-2.3297">
        <ele>-4.5999999046326</ele>
        <time>2021-11-18T08:19:22.000Z</time>
      </trkpt>
      <trkpt lat="47.26354" lon="-2.32975">
        <ele>-4.5999999046326</ele>
        <time>2021-11-18T08:19:23.000Z</time>
      </trkpt>
      <trkpt lat="47.26361" lon="-2.32984">
        <ele>-4.5999999046326</ele>
        <time>2021-11-18T08:19:25.000Z</time>
      </trkpt>
      <trkpt lat="47.26368" lon="-2.3301">
        <ele>-4.5999999046326</ele>
        <time>2021-11-18T08:19:29.000Z</time>
      </trkpt>
      <trkpt lat="47.26368" lon="-2.33024">
        <ele>-4.5999999046326</ele>
        <time>2021-11-18T08:19:31.000Z</time>
      </trkpt>
      <trkpt lat="47.26369" lon="-2.33059">
        <ele>-4.5999999046326</ele>
        <time>2021-11-18T08:19:36.000Z</time>
      </trkpt>
      <trkpt lat="47.26372" lon="-2.33101">
        <ele>-4.5999999046326</ele>
        <time>2021-11-18T08:19:42.000Z</time>
      </trkpt>
      <trkpt lat="47.26374" lon="-2.33122">
        <ele>-4.5999999046326</ele>
        <time>2021-11-18T08:19:45.000Z</time>
      </trkpt>
      <trkpt lat="47.26377" lon="-2.33192">
        <ele>-4.5999999046326</ele>
        <time>2021-11-18T08:19:55.000Z</time>
      </trkpt>
      <trkpt lat="47.26382" lon="-2.33247">
        <ele>-4.5999999046326</ele>
        <time>2021-11-18T08:20:03.000Z</time>
      </trkpt>
      <trkpt lat="47.26383" lon="-2.33253">
        <ele>-4.5999999046326</ele>
        <time>2021-11-18T08:20:04.000Z</time>
      </trkpt>
      <trkpt lat="47.26394" lon="-2.33265">
        <ele>-4.5999999046326</ele>
        <time>2021-11-18T08:20:07.000Z</time>
      </trkpt>
      <trkpt lat="47.26413" lon="-2.33268">
        <ele>-4.5999999046326</ele>
        <time>2021-11-18T08:20:11.000Z</time>
      </trkpt>
      <trkpt lat="47.26455" lon="-2.33273">
        <ele>-4.5999999046326</ele>
        <time>2021-11-18T08:20:20.000Z</time>
      </trkpt>
      <trkpt lat="47.26459" lon="-2.33274">
        <ele>-4.5999999046326</ele>
        <time>2021-11-18T08:20:21.000Z</time>
      </trkpt>
      <trkpt lat="47.26495" lon="-2.33279">
        <ele>-4.5999999046326</ele>
        <time>2021-11-18T08:20:30.000Z</time>
      </trkpt>
      <trkpt lat="47.26505" lon="-2.33278">
        <ele>-4.5999999046326</ele>
        <time>2021-11-18T08:20:34.000Z</time>
      </trkpt>
      <trkpt lat="47.26507" lon="-2.3328">
        <ele>-4.5999999046326</ele>
        <time>2021-11-18T08:20:35.000Z</time>
      </trkpt>
      <trkpt lat="47.2651" lon="-2.33282">
        <ele>-4.5999999046326</ele>
        <time>2021-11-18T08:20:37.000Z</time>
      </trkpt>
      <trkpt lat="47.26522" lon="-2.33279">
        <ele>-4.5999999046326</ele>
        <time>2021-11-18T08:20:43.000Z</time>
      </trkpt>
      <trkpt lat="47.26526" lon="-2.33279">
        <ele>-4.5999999046326</ele>
        <time>2021-11-18T08:20:45.000Z</time>
      </trkpt>
      <trkpt lat="47.26527" lon="-2.3328">
        <ele>-4.5999999046326</ele>
        <time>2021-11-18T08:20:48.000Z</time>
      </trkpt>
      <trkpt lat="47.26527" lon="-2.3328">
        <ele>-4.5999999046326</ele>
        <time>2021-11-18T08:20:53.000Z</time>
      </trkpt>
      <trkpt lat="47.2653" lon="-2.33286">
        <ele>-4.5999999046326</ele>
        <time>2021-11-18T08:20:55.000Z</time>
      </trkpt>
      <trkpt lat="47.26536" lon="-2.33295">
        <ele>-4.5999999046326</ele>
        <time>2021-11-18T08:20:58.000Z</time>
      </trkpt>
      <trkpt lat="47.2654" lon="-2.33295">
        <ele>-4.5999999046326</ele>
        <time>2021-11-18T08:20:59.000Z</time>
      </trkpt>
      <trkpt lat="47.26548" lon="-2.33287">
        <ele>-4.5999999046326</ele>
        <time>2021-11-18T08:21:02.000Z</time>
      </trkpt>
      <trkpt lat="47.2655" lon="-2.33284">
        <ele>-4.5999999046326</ele>
        <time>2021-11-18T08:21:03.000Z</time>
      </trkpt>
      <trkpt lat="47.26572" lon="-2.33259">
        <ele>-4.5999999046326</ele>
        <time>2021-11-18T08:21:10.000Z</time>
      </trkpt>
      <trkpt lat="47.26598" lon="-2.33235">
        <ele>-3.7999999523163</ele>
        <time>2021-11-18T08:21:17.000Z</time>
      </trkpt>
      <trkpt lat="47.26601" lon="-2.33231">
        <ele>-3.4000000953674</ele>
        <time>2021-11-18T08:21:18.000Z</time>
      </trkpt>
      <trkpt lat="47.26604" lon="-2.33228">
        <ele>-3</ele>
        <time>2021-11-18T08:21:19.000Z</time>
      </trkpt>
      <trkpt lat="47.26607" lon="-2.33224">
        <ele>-2.5999999046326</ele>
        <time>2021-11-18T08:21:20.000Z</time>
      </trkpt>
      <trkpt lat="47.26626" lon="-2.33207">
        <ele>-2.5999999046326</ele>
        <time>2021-11-18T08:21:25.000Z</time>
      </trkpt>
      <trkpt lat="47.2663" lon="-2.33203">
        <ele>-2.5999999046326</ele>
        <time>2021-11-18T08:21:26.000Z</time>
      </trkpt>
      <trkpt lat="47.26642" lon="-2.3319">
        <ele>-2.5999999046326</ele>
        <time>2021-11-18T08:21:30.000Z</time>
      </trkpt>
      <trkpt lat="47.26653" lon="-2.3318">
        <ele>-2.5999999046326</ele>
        <time>2021-11-18T08:21:33.000Z</time>
      </trkpt>
      <trkpt lat="47.26674" lon="-2.33157">
        <ele>-2.5999999046326</ele>
        <time>2021-11-18T08:21:40.000Z</time>
      </trkpt>
      <trkpt lat="47.26701" lon="-2.33129">
        <ele>-2.5999999046326</ele>
        <time>2021-11-18T08:21:48.000Z</time>
      </trkpt>
      <trkpt lat="47.26731" lon="-2.33099">
        <ele>-2.5999999046326</ele>
        <time>2021-11-18T08:21:57.000Z</time>
      </trkpt>
      <trkpt lat="47.26746" lon="-2.33085">
        <ele>-2.5999999046326</ele>
        <time>2021-11-18T08:22:02.000Z</time>
      </trkpt>
      <trkpt lat="47.2675" lon="-2.33085">
        <ele>-2.5999999046326</ele>
        <time>2021-11-18T08:22:03.000Z</time>
      </trkpt>
      <trkpt lat="47.26762" lon="-2.33098">
        <ele>-2.5999999046326</ele>
        <time>2021-11-18T08:22:06.000Z</time>
      </trkpt>
      <trkpt lat="47.26765" lon="-2.33119">
        <ele>-2.5999999046326</ele>
        <time>2021-11-18T08:22:09.000Z</time>
      </trkpt>
      <trkpt lat="47.26765" lon="-2.33126">
        <ele>-2.5999999046326</ele>
        <time>2021-11-18T08:22:10.000Z</time>
      </trkpt>
      <trkpt lat="47.26756" lon="-2.33167">
        <ele>-2.5999999046326</ele>
        <time>2021-11-18T08:22:16.000Z</time>
      </trkpt>
      <trkpt lat="47.26745" lon="-2.33205">
        <ele>-2.5999999046326</ele>
        <time>2021-11-18T08:22:23.000Z</time>
      </trkpt>
      <trkpt lat="47.26744" lon="-2.33211">
        <ele>-2.5999999046326</ele>
        <time>2021-11-18T08:22:24.000Z</time>
      </trkpt>
      <trkpt lat="47.26736" lon="-2.33237">
        <ele>-2.5999999046326</ele>
        <time>2021-11-18T08:22:28.000Z</time>
      </trkpt>
      <trkpt lat="47.26731" lon="-2.33263">
        <ele>-2.5999999046326</ele>
        <time>2021-11-18T08:22:32.000Z</time>
      </trkpt>
      <trkpt lat="47.26731" lon="-2.33276">
        <ele>-2.5999999046326</ele>
        <time>2021-11-18T08:22:34.000Z</time>
      </trkpt>
      <trkpt lat="47.26742" lon="-2.33323">
        <ele>-2.5999999046326</ele>
        <time>2021-11-18T08:22:41.000Z</time>
      </trkpt>
      <trkpt lat="47.2675" lon="-2.33358">
        <ele>-2.5999999046326</ele>
        <time>2021-11-18T08:22:46.000Z</time>
      </trkpt>
      <trkpt lat="47.26751" lon="-2.33366">
        <ele>-2.5999999046326</ele>
        <time>2021-11-18T08:22:47.000Z</time>
      </trkpt>
      <trkpt lat="47.26758" lon="-2.33428">
        <ele>-2.5999999046326</ele>
        <time>2021-11-18T08:22:56.000Z</time>
      </trkpt>
      <trkpt lat="47.26766" lon="-2.3348">
        <ele>-2.5999999046326</ele>
        <time>2021-11-18T08:23:04.000Z</time>
      </trkpt>
      <trkpt lat="47.26774" lon="-2.33518">
        <ele>-2.5999999046326</ele>
        <time>2021-11-18T08:23:10.000Z</time>
      </trkpt>
      <trkpt lat="47.26775" lon="-2.33524">
        <ele>-2.5999999046326</ele>
        <time>2021-11-18T08:23:11.000Z</time>
      </trkpt>
      <trkpt lat="47.26779" lon="-2.3355">
        <ele>-2.5999999046326</ele>
        <time>2021-11-18T08:23:15.000Z</time>
      </trkpt>
      <trkpt lat="47.2678" lon="-2.33569">
        <ele>-2.5999999046326</ele>
        <time>2021-11-18T08:23:18.000Z</time>
      </trkpt>
      <trkpt lat="47.26781" lon="-2.33581">
        <ele>-2.5999999046326</ele>
        <time>2021-11-18T08:23:20.000Z</time>
      </trkpt>
      <trkpt lat="47.26781" lon="-2.33607">
        <ele>-2.5999999046326</ele>
        <time>2021-11-18T08:23:24.000Z</time>
      </trkpt>
      <trkpt lat="47.2678" lon="-2.33626">
        <ele>-2.2000000476837</ele>
        <time>2021-11-18T08:23:27.000Z</time>
      </trkpt>
      <trkpt lat="47.2678" lon="-2.33632">
        <ele>-1.7999999523163</ele>
        <time>2021-11-18T08:23:28.000Z</time>
      </trkpt>
      <trkpt lat="47.2678" lon="-2.33638">
        <ele>-1.3999999761581</ele>
        <time>2021-11-18T08:23:29.000Z</time>
      </trkpt>
      <trkpt lat="47.2678" lon="-2.33644">
        <ele>-1</ele>
        <time>2021-11-18T08:23:30.000Z</time>
      </trkpt>
      <trkpt lat="47.2678" lon="-2.3365">
        <ele>-0.60000002384186</ele>
        <time>2021-11-18T08:23:31.000Z</time>
      </trkpt>
      <trkpt lat="47.26779" lon="-2.33688">
        <ele>-0.60000002384186</ele>
        <time>2021-11-18T08:23:38.000Z</time>
      </trkpt>
      <trkpt lat="47.26782" lon="-2.33698">
        <ele>-0.20000000298023</ele>
        <time>2021-11-18T08:23:40.000Z</time>
      </trkpt>
      <trkpt lat="47.26783" lon="-2.33702">
        <ele>0.20000000298023</ele>
        <time>2021-11-18T08:23:41.000Z</time>
      </trkpt>
      <trkpt lat="47.26785" lon="-2.33706">
        <ele>0.60000002384186</ele>
        <time>2021-11-18T08:23:42.000Z</time>
      </trkpt>
      <trkpt lat="47.26788" lon="-2.3371">
        <ele>1</ele>
        <time>2021-11-18T08:23:43.000Z</time>
      </trkpt>
      <trkpt lat="47.26791" lon="-2.33714">
        <ele>1.3999999761581</ele>
        <time>2021-11-18T08:23:44.000Z</time>
      </trkpt>
      <trkpt lat="47.26804" lon="-2.33728">
        <ele>1.3999999761581</ele>
        <time>2021-11-18T08:23:48.000Z</time>
      </trkpt>
      <trkpt lat="47.26826" lon="-2.33753">
        <ele>1.3999999761581</ele>
        <time>2021-11-18T08:23:55.000Z</time>
      </trkpt>
      <trkpt lat="47.26843" lon="-2.33772">
        <ele>1.3999999761581</ele>
        <time>2021-11-18T08:24:00.000Z</time>
      </trkpt>
      <trkpt lat="47.26847" lon="-2.33774">
        <ele>1.3999999761581</ele>
        <time>2021-11-18T08:24:01.000Z</time>
      </trkpt>
      <trkpt lat="47.26875" lon="-2.33786">
        <ele>1.3999999761581</ele>
        <time>2021-11-18T08:24:08.000Z</time>
      </trkpt>
      <trkpt lat="47.26897" lon="-2.33801">
        <ele>1.3999999761581</ele>
        <time>2021-11-18T08:24:14.000Z</time>
      </trkpt>
      <trkpt lat="47.26903" lon="-2.33823">
        <ele>1.3999999761581</ele>
        <time>2021-11-18T08:24:18.000Z</time>
      </trkpt>
      <trkpt lat="47.26909" lon="-2.33846">
        <ele>1.7999999523163</ele>
        <time>2021-11-18T08:24:22.000Z</time>
      </trkpt>
      <trkpt lat="47.2691" lon="-2.33852">
        <ele>2.2000000476837</ele>
        <time>2021-11-18T08:24:23.000Z</time>
      </trkpt>
      <trkpt lat="47.26911" lon="-2.33857">
        <ele>2.5999999046326</ele>
        <time>2021-11-18T08:24:24.000Z</time>
      </trkpt>
      <trkpt lat="47.26913" lon="-2.33863">
        <ele>3</ele>
        <time>2021-11-18T08:24:25.000Z</time>
      </trkpt>
      <trkpt lat="47.26914" lon="-2.33869">
        <ele>3.4000000953674</ele>
        <time>2021-11-18T08:24:26.000Z</time>
      </trkpt>
      <trkpt lat="47.26915" lon="-2.33874">
        <ele>3.4000000953674</ele>
        <time>2021-11-18T08:24:27.000Z</time>
      </trkpt>
      <trkpt lat="47.26926" lon="-2.33925">
        <ele>3.4000000953674</ele>
        <time>2021-11-18T08:24:36.000Z</time>
      </trkpt>
      <trkpt lat="47.26934" lon="-2.33963">
        <ele>3.4000000953674</ele>
        <time>2021-11-18T08:24:43.000Z</time>
      </trkpt>
      <trkpt lat="47.26943" lon="-2.33996">
        <ele>3.4000000953674</ele>
        <time>2021-11-18T08:24:49.000Z</time>
      </trkpt>
      <trkpt lat="47.26954" lon="-2.34042">
        <ele>3.4000000953674</ele>
        <time>2021-11-18T08:24:57.000Z</time>
      </trkpt>
      <trkpt lat="47.26959" lon="-2.3407">
        <ele>3.7999999523163</ele>
        <time>2021-11-18T08:25:02.000Z</time>
      </trkpt>
      <trkpt lat="47.2696" lon="-2.34076">
        <ele>4.1999998092651</ele>
        <time>2021-11-18T08:25:03.000Z</time>
      </trkpt>
      <trkpt lat="47.26961" lon="-2.34081">
        <ele>4.5999999046326</ele>
        <time>2021-11-18T08:25:04.000Z</time>
      </trkpt>
      <trkpt lat="47.26963" lon="-2.34087">
        <ele>5.1999998092651</ele>
        <time>2021-11-18T08:25:05.000Z</time>
      </trkpt>
      <trkpt lat="47.26964" lon="-2.34093">
        <ele>5.5999999046326</ele>
        <time>2021-11-18T08:25:06.000Z</time>
      </trkpt>
      <trkpt lat="47.26971" lon="-2.34123">
        <ele>5.5999999046326</ele>
        <time>2021-11-18T08:25:11.000Z</time>
      </trkpt>
      <trkpt lat="47.26982" lon="-2.34169">
        <ele>5.5999999046326</ele>
        <time>2021-11-18T08:25:19.000Z</time>
      </trkpt>
      <trkpt lat="47.26991" lon="-2.34211">
        <ele>5.5999999046326</ele>
        <time>2021-11-18T08:25:26.000Z</time>
      </trkpt>
      <trkpt lat="47.27001" lon="-2.34256">
        <ele>5.5999999046326</ele>
        <time>2021-11-18T08:25:34.000Z</time>
      </trkpt>
      <trkpt lat="47.27009" lon="-2.34293">
        <ele>5.5999999046326</ele>
        <time>2021-11-18T08:25:41.000Z</time>
      </trkpt>
      <trkpt lat="47.27009" lon="-2.34314">
        <ele>5.5999999046326</ele>
        <time>2021-11-18T08:25:47.000Z</time>
      </trkpt>
      <trkpt lat="47.2701" lon="-2.34315">
        <ele>5.5999999046326</ele>
        <time>2021-11-18T08:25:48.000Z</time>
      </trkpt>
      <trkpt lat="47.27014" lon="-2.34319">
        <ele>5.5999999046326</ele>
        <time>2021-11-18T08:25:51.000Z</time>
      </trkpt>
      <trkpt lat="47.27017" lon="-2.3432">
        <ele>5.5999999046326</ele>
        <time>2021-11-18T08:25:52.000Z</time>
      </trkpt>
      <trkpt lat="47.27034" lon="-2.34324">
        <ele>5.5999999046326</ele>
        <time>2021-11-18T08:25:57.000Z</time>
      </trkpt>
      <trkpt lat="47.2704" lon="-2.34329">
        <ele>5.5999999046326</ele>
        <time>2021-11-18T08:25:59.000Z</time>
      </trkpt>
      <trkpt lat="47.27044" lon="-2.34339">
        <ele>5.5999999046326</ele>
        <time>2021-11-18T08:26:01.000Z</time>
      </trkpt>
      <trkpt lat="47.27055" lon="-2.34385">
        <ele>5.5999999046326</ele>
        <time>2021-11-18T08:26:09.000Z</time>
      </trkpt>
      <trkpt lat="47.27056" lon="-2.34391">
        <ele>5.5999999046326</ele>
        <time>2021-11-18T08:26:10.000Z</time>
      </trkpt>
      <trkpt lat="47.27059" lon="-2.34408">
        <ele>6.4000000953674</ele>
        <time>2021-11-18T08:26:13.000Z</time>
      </trkpt>
      <trkpt lat="47.2706" lon="-2.34414">
        <ele>6.8000001907349</ele>
        <time>2021-11-18T08:26:14.000Z</time>
      </trkpt>
      <trkpt lat="47.27062" lon="-2.3442">
        <ele>7.1999998092651</ele>
        <time>2021-11-18T08:26:15.000Z</time>
      </trkpt>
      <trkpt lat="47.27063" lon="-2.34425">
        <ele>7.5999999046326</ele>
        <time>2021-11-18T08:26:16.000Z</time>
      </trkpt>
      <trkpt lat="47.27068" lon="-2.34441">
        <ele>7.5999999046326</ele>
        <time>2021-11-18T08:26:19.000Z</time>
      </trkpt>
      <trkpt lat="47.27069" lon="-2.34447">
        <ele>7.5999999046326</ele>
        <time>2021-11-18T08:26:20.000Z</time>
      </trkpt>
      <trkpt lat="47.27078" lon="-2.34487">
        <ele>7.5999999046326</ele>
        <time>2021-11-18T08:26:27.000Z</time>
      </trkpt>
      <trkpt lat="47.27087" lon="-2.3453">
        <ele>7.5999999046326</ele>
        <time>2021-11-18T08:26:34.000Z</time>
      </trkpt>
      <trkpt lat="47.27097" lon="-2.34575">
        <ele>7.5999999046326</ele>
        <time>2021-11-18T08:26:41.000Z</time>
      </trkpt>
      <trkpt lat="47.27111" lon="-2.34633">
        <ele>7.5999999046326</ele>
        <time>2021-11-18T08:26:49.000Z</time>
      </trkpt>
      <trkpt lat="47.27123" lon="-2.34686">
        <ele>7.5999999046326</ele>
        <time>2021-11-18T08:26:56.000Z</time>
      </trkpt>
      <trkpt lat="47.27135" lon="-2.34736">
        <ele>7.5999999046326</ele>
        <time>2021-11-18T08:27:03.000Z</time>
      </trkpt>
      <trkpt lat="47.27147" lon="-2.34799">
        <ele>7.5999999046326</ele>
        <time>2021-11-18T08:27:12.000Z</time>
      </trkpt>
      <trkpt lat="47.27162" lon="-2.34868">
        <ele>7.5999999046326</ele>
        <time>2021-11-18T08:27:22.000Z</time>
      </trkpt>
      <trkpt lat="47.2717" lon="-2.349">
        <ele>8.3999996185303</ele>
        <time>2021-11-18T08:27:27.000Z</time>
      </trkpt>
      <trkpt lat="47.27172" lon="-2.34906">
        <ele>8.8000001907349</ele>
        <time>2021-11-18T08:27:28.000Z</time>
      </trkpt>
      <trkpt lat="47.27174" lon="-2.34912">
        <ele>9.1999998092651</ele>
        <time>2021-11-18T08:27:29.000Z</time>
      </trkpt>
      <trkpt lat="47.27176" lon="-2.34918">
        <ele>9.6000003814697</ele>
        <time>2021-11-18T08:27:30.000Z</time>
      </trkpt>
      <trkpt lat="47.27186" lon="-2.3495">
        <ele>9.6000003814697</ele>
        <time>2021-11-18T08:27:35.000Z</time>
      </trkpt>
      <trkpt lat="47.27202" lon="-2.34999">
        <ele>9.6000003814697</ele>
        <time>2021-11-18T08:27:43.000Z</time>
      </trkpt>
      <trkpt lat="47.27221" lon="-2.35049">
        <ele>9.6000003814697</ele>
        <time>2021-11-18T08:27:51.000Z</time>
      </trkpt>
      <trkpt lat="47.27239" lon="-2.35094">
        <ele>9.6000003814697</ele>
        <time>2021-11-18T08:27:58.000Z</time>
      </trkpt>
      <trkpt lat="47.27256" lon="-2.35121">
        <ele>9.6000003814697</ele>
        <time>2021-11-18T08:28:04.000Z</time>
      </trkpt>
      <trkpt lat="47.27267" lon="-2.35117">
        <ele>9.6000003814697</ele>
        <time>2021-11-18T08:28:07.000Z</time>
      </trkpt>
      <trkpt lat="47.27288" lon="-2.35108">
        <ele>10</ele>
        <time>2021-11-18T08:28:13.000Z</time>
      </trkpt>
      <trkpt lat="47.2729" lon="-2.35107">
        <ele>10.39999961853</ele>
        <time>2021-11-18T08:28:14.000Z</time>
      </trkpt>
      <trkpt lat="47.27293" lon="-2.35105">
        <ele>10.800000190735</ele>
        <time>2021-11-18T08:28:15.000Z</time>
      </trkpt>
      <trkpt lat="47.27296" lon="-2.35105">
        <ele>11.60000038147</ele>
        <time>2021-11-18T08:28:16.000Z</time>
      </trkpt>
      <trkpt lat="47.27298" lon="-2.35105">
        <ele>11.60000038147</ele>
        <time>2021-11-18T08:28:17.000Z</time>
      </trkpt>
      <trkpt lat="47.27307" lon="-2.35096">
        <ele>11.60000038147</ele>
        <time>2021-11-18T08:28:22.000Z</time>
      </trkpt>
      <trkpt lat="47.2732" lon="-2.35088">
        <ele>12.199999809265</ele>
        <time>2021-11-18T08:28:27.000Z</time>
      </trkpt>
      <trkpt lat="47.27323" lon="-2.35087">
        <ele>12.60000038147</ele>
        <time>2021-11-18T08:28:28.000Z</time>
      </trkpt>
      <trkpt lat="47.27326" lon="-2.35086">
        <ele>13</ele>
        <time>2021-11-18T08:28:29.000Z</time>
      </trkpt>
      <trkpt lat="47.2733" lon="-2.35085">
        <ele>13.39999961853</ele>
        <time>2021-11-18T08:28:30.000Z</time>
      </trkpt>
      <trkpt lat="47.27333" lon="-2.35084">
        <ele>13.800000190735</ele>
        <time>2021-11-18T08:28:31.000Z</time>
      </trkpt>
      <trkpt lat="47.27341" lon="-2.35079">
        <ele>13.800000190735</ele>
        <time>2021-11-18T08:28:34.000Z</time>
      </trkpt>
      <trkpt lat="47.27344" lon="-2.35077">
        <ele>14.199999809265</ele>
        <time>2021-11-18T08:28:35.000Z</time>
      </trkpt>
      <trkpt lat="47.27347" lon="-2.35076">
        <ele>14.60000038147</ele>
        <time>2021-11-18T08:28:36.000Z</time>
      </trkpt>
      <trkpt lat="47.2735" lon="-2.35075">
        <ele>15</ele>
        <time>2021-11-18T08:28:37.000Z</time>
      </trkpt>
      <trkpt lat="47.27353" lon="-2.35073">
        <ele>15.39999961853</ele>
        <time>2021-11-18T08:28:38.000Z</time>
      </trkpt>
      <trkpt lat="47.27355" lon="-2.35071">
        <ele>15.800000190735</ele>
        <time>2021-11-18T08:28:39.000Z</time>
      </trkpt>
      <trkpt lat="47.27357" lon="-2.35068">
        <ele>15.800000190735</ele>
        <time>2021-11-18T08:28:40.000Z</time>
      </trkpt>
      <trkpt lat="47.27375" lon="-2.35058">
        <ele>16.200000762939</ele>
        <time>2021-11-18T08:28:46.000Z</time>
      </trkpt>
      <trkpt lat="47.27378" lon="-2.35056">
        <ele>16.60000038147</ele>
        <time>2021-11-18T08:28:47.000Z</time>
      </trkpt>
      <trkpt lat="47.27381" lon="-2.35056">
        <ele>17</ele>
        <time>2021-11-18T08:28:48.000Z</time>
      </trkpt>
      <trkpt lat="47.27384" lon="-2.35055">
        <ele>17.39999961853</ele>
        <time>2021-11-18T08:28:49.000Z</time>
      </trkpt>
      <trkpt lat="47.27387" lon="-2.35055">
        <ele>17.799999237061</ele>
        <time>2021-11-18T08:28:50.000Z</time>
      </trkpt>
      <trkpt lat="47.2739" lon="-2.35055">
        <ele>17.799999237061</ele>
        <time>2021-11-18T08:28:51.000Z</time>
      </trkpt>
      <trkpt lat="47.27397" lon="-2.35061">
        <ele>17.799999237061</ele>
        <time>2021-11-18T08:28:54.000Z</time>
      </trkpt>
      <trkpt lat="47.27401" lon="-2.35068">
        <ele>17.799999237061</ele>
        <time>2021-11-18T08:28:56.000Z</time>
      </trkpt>
      <trkpt lat="47.27411" lon="-2.35098">
        <ele>17.799999237061</ele>
        <time>2021-11-18T08:29:03.000Z</time>
      </trkpt>
      <trkpt lat="47.27418" lon="-2.35132">
        <ele>17.799999237061</ele>
        <time>2021-11-18T08:29:10.000Z</time>
      </trkpt>
      <trkpt lat="47.27429" lon="-2.35168">
        <ele>17.799999237061</ele>
        <time>2021-11-18T08:29:18.000Z</time>
      </trkpt>
      <trkpt lat="47.27431" lon="-2.3517">
        <ele>17.799999237061</ele>
        <time>2021-11-18T08:29:20.000Z</time>
      </trkpt>
      <trkpt lat="47.27437" lon="-2.35169">
        <ele>17.799999237061</ele>
        <time>2021-11-18T08:29:35.000Z</time>
      </trkpt>
      <trkpt lat="47.27451" lon="-2.35163">
        <ele>18.200000762939</ele>
        <time>2021-11-18T08:29:40.000Z</time>
      </trkpt>
      <trkpt lat="47.27454" lon="-2.35162">
        <ele>18.799999237061</ele>
        <time>2021-11-18T08:29:41.000Z</time>
      </trkpt>
      <trkpt lat="47.27457" lon="-2.3516">
        <ele>19.200000762939</ele>
        <time>2021-11-18T08:29:42.000Z</time>
      </trkpt>
      <trkpt lat="47.2746" lon="-2.35158">
        <ele>19.60000038147</ele>
        <time>2021-11-18T08:29:43.000Z</time>
      </trkpt>
      <trkpt lat="47.27463" lon="-2.35156">
        <ele>20</ele>
        <time>2021-11-18T08:29:44.000Z</time>
      </trkpt>
      <trkpt lat="47.27476" lon="-2.3515">
        <ele>20</ele>
        <time>2021-11-18T08:29:48.000Z</time>
      </trkpt>
      <trkpt lat="47.27485" lon="-2.35147">
        <ele>20.39999961853</ele>
        <time>2021-11-18T08:29:51.000Z</time>
      </trkpt>
      <trkpt lat="47.27488" lon="-2.35145">
        <ele>20.799999237061</ele>
        <time>2021-11-18T08:29:52.000Z</time>
      </trkpt>
      <trkpt lat="47.27491" lon="-2.35144">
        <ele>21.200000762939</ele>
        <time>2021-11-18T08:29:53.000Z</time>
      </trkpt>
      <trkpt lat="47.27495" lon="-2.35143">
        <ele>21.60000038147</ele>
        <time>2021-11-18T08:29:54.000Z</time>
      </trkpt>
      <trkpt lat="47.27498" lon="-2.35141">
        <ele>22</ele>
        <time>2021-11-18T08:29:55.000Z</time>
      </trkpt>
      <trkpt lat="47.27508" lon="-2.3513">
        <ele>22</ele>
        <time>2021-11-18T08:29:59.000Z</time>
      </trkpt>
      <trkpt lat="47.27522" lon="-2.35133">
        <ele>22</ele>
        <time>2021-11-18T08:30:03.000Z</time>
      </trkpt>
      <trkpt lat="47.27542" lon="-2.35138">
        <ele>22</ele>
        <time>2021-11-18T08:30:09.000Z</time>
      </trkpt>
      <trkpt lat="47.27563" lon="-2.35134">
        <ele>22</ele>
        <time>2021-11-18T08:30:15.000Z</time>
      </trkpt>
      <trkpt lat="47.27589" lon="-2.35134">
        <ele>22</ele>
        <time>2021-11-18T08:30:21.000Z</time>
      </trkpt>
      <trkpt lat="47.27597" lon="-2.35134">
        <ele>22</ele>
        <time>2021-11-18T08:30:23.000Z</time>
      </trkpt>
      <trkpt lat="47.2761" lon="-2.35141">
        <ele>22</ele>
        <time>2021-11-18T08:30:26.000Z</time>
      </trkpt>
      <trkpt lat="47.27618" lon="-2.35145">
        <ele>22</ele>
        <time>2021-11-18T08:30:29.000Z</time>
      </trkpt>
      <trkpt lat="47.27622" lon="-2.35145">
        <ele>22</ele>
        <time>2021-11-18T08:30:30.000Z</time>
      </trkpt>
      <trkpt lat="47.27637" lon="-2.35147">
        <ele>22</ele>
        <time>2021-11-18T08:30:34.000Z</time>
      </trkpt>
      <trkpt lat="47.27651" lon="-2.35145">
        <ele>22</ele>
        <time>2021-11-18T08:30:38.000Z</time>
      </trkpt>
      <trkpt lat="47.27665" lon="-2.35151">
        <ele>22</ele>
        <time>2021-11-18T08:30:42.000Z</time>
      </trkpt>
      <trkpt lat="47.27672" lon="-2.35157">
        <ele>22</ele>
        <time>2021-11-18T08:30:44.000Z</time>
      </trkpt>
      <trkpt lat="47.27674" lon="-2.35163">
        <ele>22</ele>
        <time>2021-11-18T08:30:45.000Z</time>
      </trkpt>
      <trkpt lat="47.27674" lon="-2.35179">
        <ele>22</ele>
        <time>2021-11-18T08:30:48.000Z</time>
      </trkpt>
      <trkpt lat="47.27676" lon="-2.35213">
        <ele>21.60000038147</ele>
        <time>2021-11-18T08:30:53.000Z</time>
      </trkpt>
      <trkpt lat="47.27677" lon="-2.35218">
        <ele>21.200000762939</ele>
        <time>2021-11-18T08:30:54.000Z</time>
      </trkpt>
      <trkpt lat="47.27679" lon="-2.35221">
        <ele>20.60000038147</ele>
        <time>2021-11-18T08:30:55.000Z</time>
      </trkpt>
      <trkpt lat="47.27682" lon="-2.35221">
        <ele>20.200000762939</ele>
        <time>2021-11-18T08:30:56.000Z</time>
      </trkpt>
      <trkpt lat="47.27686" lon="-2.3522">
        <ele>19.799999237061</ele>
        <time>2021-11-18T08:30:57.000Z</time>
      </trkpt>
      <trkpt lat="47.27718" lon="-2.35211">
        <ele>19.799999237061</ele>
        <time>2021-11-18T08:31:04.000Z</time>
      </trkpt>
      <trkpt lat="47.27743" lon="-2.35204">
        <ele>19.39999961853</ele>
        <time>2021-11-18T08:31:09.000Z</time>
      </trkpt>
      <trkpt lat="47.27748" lon="-2.35203">
        <ele>18.60000038147</ele>
        <time>2021-11-18T08:31:10.000Z</time>
      </trkpt>
      <trkpt lat="47.27753" lon="-2.35201">
        <ele>18.200000762939</ele>
        <time>2021-11-18T08:31:11.000Z</time>
      </trkpt>
      <trkpt lat="47.27758" lon="-2.352">
        <ele>17.799999237061</ele>
        <time>2021-11-18T08:31:12.000Z</time>
      </trkpt>
      <trkpt lat="47.27772" lon="-2.35198">
        <ele>17.799999237061</ele>
        <time>2021-11-18T08:31:16.000Z</time>
      </trkpt>
      <trkpt lat="47.27775" lon="-2.35201">
        <ele>17.799999237061</ele>
        <time>2021-11-18T08:31:18.000Z</time>
      </trkpt>
      <trkpt lat="47.27776" lon="-2.35205">
        <ele>17.799999237061</ele>
        <time>2021-11-18T08:31:19.000Z</time>
      </trkpt>
      <trkpt lat="47.27781" lon="-2.35237">
        <ele>17.799999237061</ele>
        <time>2021-11-18T08:31:25.000Z</time>
      </trkpt>
      <trkpt lat="47.2779" lon="-2.3529">
        <ele>17.799999237061</ele>
        <time>2021-11-18T08:31:33.000Z</time>
      </trkpt>
      <trkpt lat="47.27801" lon="-2.35337">
        <ele>17.799999237061</ele>
        <time>2021-11-18T08:31:40.000Z</time>
      </trkpt>
      <trkpt lat="47.27805" lon="-2.35351">
        <ele>17.799999237061</ele>
        <time>2021-11-18T08:31:42.000Z</time>
      </trkpt>
      <trkpt lat="47.27812" lon="-2.35359">
        <ele>17.799999237061</ele>
        <time>2021-11-18T08:31:44.000Z</time>
      </trkpt>
      <trkpt lat="47.27825" lon="-2.35361">
        <ele>17.799999237061</ele>
        <time>2021-11-18T08:31:47.000Z</time>
      </trkpt>
      <trkpt lat="47.27829" lon="-2.35361">
        <ele>17.799999237061</ele>
        <time>2021-11-18T08:31:48.000Z</time>
      </trkpt>
      <trkpt lat="47.27856" lon="-2.35359">
        <ele>17.799999237061</ele>
        <time>2021-11-18T08:31:54.000Z</time>
      </trkpt>
      <trkpt lat="47.27874" lon="-2.35361">
        <ele>17.799999237061</ele>
        <time>2021-11-18T08:31:58.000Z</time>
      </trkpt>
      <trkpt lat="47.27878" lon="-2.35363">
        <ele>17.799999237061</ele>
        <time>2021-11-18T08:31:59.000Z</time>
      </trkpt>
      <trkpt lat="47.27893" lon="-2.35381">
        <ele>17.799999237061</ele>
        <time>2021-11-18T08:32:03.000Z</time>
      </trkpt>
      <trkpt lat="47.27919" lon="-2.35416">
        <ele>17.799999237061</ele>
        <time>2021-11-18T08:32:11.000Z</time>
      </trkpt>
      <trkpt lat="47.27942" lon="-2.35446">
        <ele>17.799999237061</ele>
        <time>2021-11-18T08:32:18.000Z</time>
      </trkpt>
      <trkpt lat="47.27945" lon="-2.35449">
        <ele>17.799999237061</ele>
        <time>2021-11-18T08:32:19.000Z</time>
      </trkpt>
      <trkpt lat="47.27952" lon="-2.35455">
        <ele>17.799999237061</ele>
        <time>2021-11-18T08:32:21.000Z</time>
      </trkpt>
      <trkpt lat="47.27964" lon="-2.3546">
        <ele>17.799999237061</ele>
        <time>2021-11-18T08:32:24.000Z</time>
      </trkpt>
      <trkpt lat="47.27976" lon="-2.35468">
        <ele>17.799999237061</ele>
        <time>2021-11-18T08:32:27.000Z</time>
      </trkpt>
      <trkpt lat="47.27983" lon="-2.35478">
        <ele>17.799999237061</ele>
        <time>2021-11-18T08:32:29.000Z</time>
      </trkpt>
      <trkpt lat="47.27988" lon="-2.35488">
        <ele>17.799999237061</ele>
        <time>2021-11-18T08:32:31.000Z</time>
      </trkpt>
      <trkpt lat="47.27994" lon="-2.35504">
        <ele>17.799999237061</ele>
        <time>2021-11-18T08:32:34.000Z</time>
      </trkpt>
      <trkpt lat="47.28006" lon="-2.35535">
        <ele>18.200000762939</ele>
        <time>2021-11-18T08:32:40.000Z</time>
      </trkpt>
      <trkpt lat="47.28007" lon="-2.3554">
        <ele>18.60000038147</ele>
        <time>2021-11-18T08:32:41.000Z</time>
      </trkpt>
      <trkpt lat="47.28008" lon="-2.35543">
        <ele>19</ele>
        <time>2021-11-18T08:32:42.000Z</time>
      </trkpt>
      <trkpt lat="47.28009" lon="-2.35547">
        <ele>19.39999961853</ele>
        <time>2021-11-18T08:32:43.000Z</time>
      </trkpt>
      <trkpt lat="47.2801" lon="-2.35549">
        <ele>19.799999237061</ele>
        <time>2021-11-18T08:32:44.000Z</time>
      </trkpt>
      <trkpt lat="47.28014" lon="-2.35553">
        <ele>19.799999237061</ele>
        <time>2021-11-18T08:32:46.000Z</time>
      </trkpt>
      <trkpt lat="47.28032" lon="-2.35564">
        <ele>19.799999237061</ele>
        <time>2021-11-18T08:32:51.000Z</time>
      </trkpt>
      <trkpt lat="47.2804" lon="-2.35573">
        <ele>20.200000762939</ele>
        <time>2021-11-18T08:32:54.000Z</time>
      </trkpt>
      <trkpt lat="47.28043" lon="-2.35574">
        <ele>20.60000038147</ele>
        <time>2021-11-18T08:32:55.000Z</time>
      </trkpt>
      <trkpt lat="47.28046" lon="-2.35575">
        <ele>21.200000762939</ele>
        <time>2021-11-18T08:32:56.000Z</time>
      </trkpt>
      <trkpt lat="47.2805" lon="-2.35575">
        <ele>21.60000038147</ele>
        <time>2021-11-18T08:32:57.000Z</time>
      </trkpt>
      <trkpt lat="47.28053" lon="-2.35576">
        <ele>22</ele>
        <time>2021-11-18T08:32:58.000Z</time>
      </trkpt>
      <trkpt lat="47.28067" lon="-2.35584">
        <ele>22</ele>
        <time>2021-11-18T08:33:03.000Z</time>
      </trkpt>
      <trkpt lat="47.28078" lon="-2.35601">
        <ele>22</ele>
        <time>2021-11-18T08:33:09.000Z</time>
      </trkpt>
      <trkpt lat="47.28083" lon="-2.3561">
        <ele>22.39999961853</ele>
        <time>2021-11-18T08:33:13.000Z</time>
      </trkpt>
      <trkpt lat="47.28083" lon="-2.3561">
        <ele>22.799999237061</ele>
        <time>2021-11-18T08:33:14.000Z</time>
      </trkpt>
      <trkpt lat="47.28083" lon="-2.35611">
        <ele>23.200000762939</ele>
        <time>2021-11-18T08:33:15.000Z</time>
      </trkpt>
      <trkpt lat="47.28081" lon="-2.35613">
        <ele>26</ele>
        <time>2021-11-18T08:41:58.000Z</time>
      </trkpt>
      <trkpt lat="47.28077" lon="-2.35617">
        <ele>26</ele>
        <time>2021-11-18T08:42:00.000Z</time>
      </trkpt>
      <trkpt lat="47.2808" lon="-2.35627">
        <ele>26</ele>
        <time>2021-11-18T08:42:04.000Z</time>
      </trkpt>
      <trkpt lat="47.28083" lon="-2.35639">
        <ele>26</ele>
        <time>2021-11-18T08:42:08.000Z</time>
      </trkpt>
      <trkpt lat="47.28084" lon="-2.35641">
        <ele>26.39999961853</ele>
        <time>2021-11-18T08:42:09.000Z</time>
      </trkpt>
      <trkpt lat="47.28085" lon="-2.35644">
        <ele>26.799999237061</ele>
        <time>2021-11-18T08:42:10.000Z</time>
      </trkpt>
      <trkpt lat="47.28086" lon="-2.35646">
        <ele>27.39999961853</ele>
        <time>2021-11-18T08:42:11.000Z</time>
      </trkpt>
      <trkpt lat="47.28086" lon="-2.35649">
        <ele>27.799999237061</ele>
        <time>2021-11-18T08:42:12.000Z</time>
      </trkpt>
      <trkpt lat="47.28088" lon="-2.35652">
        <ele>28.200000762939</ele>
        <time>2021-11-18T08:42:13.000Z</time>
      </trkpt>
      <trkpt lat="47.28089" lon="-2.35658">
        <ele>29</ele>
        <time>2021-11-18T08:42:15.000Z</time>
      </trkpt>
      <trkpt lat="47.28089" lon="-2.35662">
        <ele>29.39999961853</ele>
        <time>2021-11-18T08:42:16.000Z</time>
      </trkpt>
      <trkpt lat="47.2809" lon="-2.35666">
        <ele>29.799999237061</ele>
        <time>2021-11-18T08:42:17.000Z</time>
      </trkpt>
      <trkpt lat="47.28091" lon="-2.35671">
        <ele>30.200000762939</ele>
        <time>2021-11-18T08:42:18.000Z</time>
      </trkpt>
      <trkpt lat="47.28091" lon="-2.35679">
        <ele>30.200000762939</ele>
        <time>2021-11-18T08:42:20.000Z</time>
      </trkpt>
      <trkpt lat="47.28093" lon="-2.35695">
        <ele>30.60000038147</ele>
        <time>2021-11-18T08:42:25.000Z</time>
      </trkpt>
      <trkpt lat="47.28093" lon="-2.35698">
        <ele>31</ele>
        <time>2021-11-18T08:42:26.000Z</time>
      </trkpt>
      <trkpt lat="47.28094" lon="-2.35701">
        <ele>31.60000038147</ele>
        <time>2021-11-18T08:42:27.000Z</time>
      </trkpt>
      <trkpt lat="47.28095" lon="-2.35705">
        <ele>32</ele>
        <time>2021-11-18T08:42:28.000Z</time>
      </trkpt>
      <trkpt lat="47.28095" lon="-2.35708">
        <ele>32.400001525879</ele>
        <time>2021-11-18T08:42:29.000Z</time>
      </trkpt>
      <trkpt lat="47.28094" lon="-2.35722">
        <ele>32.400001525879</ele>
        <time>2021-11-18T08:42:33.000Z</time>
      </trkpt>
      <trkpt lat="47.28084" lon="-2.35755">
        <ele>32.400001525879</ele>
        <time>2021-11-18T08:42:39.000Z</time>
      </trkpt>
      <trkpt lat="47.28076" lon="-2.35783">
        <ele>32</ele>
        <time>2021-11-18T08:42:44.000Z</time>
      </trkpt>
      <trkpt lat="47.28075" lon="-2.35789">
        <ele>31.60000038147</ele>
        <time>2021-11-18T08:42:45.000Z</time>
      </trkpt>
      <trkpt lat="47.28074" lon="-2.35795">
        <ele>31</ele>
        <time>2021-11-18T08:42:46.000Z</time>
      </trkpt>
      <trkpt lat="47.28075" lon="-2.35801">
        <ele>30.60000038147</ele>
        <time>2021-11-18T08:42:47.000Z</time>
      </trkpt>
      <trkpt lat="47.28078" lon="-2.35807">
        <ele>30.200000762939</ele>
        <time>2021-11-18T08:42:48.000Z</time>
      </trkpt>
      <trkpt lat="47.28085" lon="-2.3582">
        <ele>30.200000762939</ele>
        <time>2021-11-18T08:42:50.000Z</time>
      </trkpt>
      <trkpt lat="47.28089" lon="-2.35825">
        <ele>29.799999237061</ele>
        <time>2021-11-18T08:42:51.000Z</time>
      </trkpt>
      <trkpt lat="47.28092" lon="-2.35831">
        <ele>29.39999961853</ele>
        <time>2021-11-18T08:42:52.000Z</time>
      </trkpt>
      <trkpt lat="47.28095" lon="-2.35835">
        <ele>29</ele>
        <time>2021-11-18T08:42:53.000Z</time>
      </trkpt>
      <trkpt lat="47.28098" lon="-2.35839">
        <ele>28.60000038147</ele>
        <time>2021-11-18T08:42:54.000Z</time>
      </trkpt>
      <trkpt lat="47.281" lon="-2.35841">
        <ele>28.200000762939</ele>
        <time>2021-11-18T08:42:55.000Z</time>
      </trkpt>
      <trkpt lat="47.28105" lon="-2.35847">
        <ele>28.200000762939</ele>
        <time>2021-11-18T08:42:57.000Z</time>
      </trkpt>
      <trkpt lat="47.28126" lon="-2.35876">
        <ele>28.200000762939</ele>
        <time>2021-11-18T08:43:04.000Z</time>
      </trkpt>
      <trkpt lat="47.28137" lon="-2.35895">
        <ele>28.200000762939</ele>
        <time>2021-11-18T08:43:10.000Z</time>
      </trkpt>
      <trkpt lat="47.28144" lon="-2.35902">
        <ele>28.60000038147</ele>
        <time>2021-11-18T08:43:13.000Z</time>
      </trkpt>
      <trkpt lat="47.28146" lon="-2.35905">
        <ele>29</ele>
        <time>2021-11-18T08:43:14.000Z</time>
      </trkpt>
      <trkpt lat="47.28147" lon="-2.35909">
        <ele>29.39999961853</ele>
        <time>2021-11-18T08:43:15.000Z</time>
      </trkpt>
      <trkpt lat="47.28149" lon="-2.35913">
        <ele>29.799999237061</ele>
        <time>2021-11-18T08:43:16.000Z</time>
      </trkpt>
      <trkpt lat="47.2815" lon="-2.35916">
        <ele>30.200000762939</ele>
        <time>2021-11-18T08:43:17.000Z</time>
      </trkpt>
      <trkpt lat="47.28164" lon="-2.35936">
        <ele>29.799999237061</ele>
        <time>2021-11-18T08:43:21.000Z</time>
      </trkpt>
      <trkpt lat="47.28166" lon="-2.35939">
        <ele>29.39999961853</ele>
        <time>2021-11-18T08:43:22.000Z</time>
      </trkpt>
      <trkpt lat="47.28169" lon="-2.35942">
        <ele>29</ele>
        <time>2021-11-18T08:43:23.000Z</time>
      </trkpt>
      <trkpt lat="47.28171" lon="-2.35944">
        <ele>28.60000038147</ele>
        <time>2021-11-18T08:43:24.000Z</time>
      </trkpt>
      <trkpt lat="47.28173" lon="-2.35945">
        <ele>28.200000762939</ele>
        <time>2021-11-18T08:43:25.000Z</time>
      </trkpt>
      <trkpt lat="47.28176" lon="-2.35944">
        <ele>28.200000762939</ele>
        <time>2021-11-18T08:43:30.000Z</time>
      </trkpt>
      <trkpt lat="47.28179" lon="-2.35947">
        <ele>28.200000762939</ele>
        <time>2021-11-18T08:43:35.000Z</time>
      </trkpt>
      <trkpt lat="47.2818" lon="-2.3595">
        <ele>28.200000762939</ele>
        <time>2021-11-18T08:43:36.000Z</time>
      </trkpt>
      <trkpt lat="47.28183" lon="-2.35967">
        <ele>27.799999237061</ele>
        <time>2021-11-18T08:43:39.000Z</time>
      </trkpt>
      <trkpt lat="47.28185" lon="-2.35973">
        <ele>27.39999961853</ele>
        <time>2021-11-18T08:43:40.000Z</time>
      </trkpt>
      <trkpt lat="47.28188" lon="-2.35978">
        <ele>27</ele>
        <time>2021-11-18T08:43:41.000Z</time>
      </trkpt>
      <trkpt lat="47.28192" lon="-2.35983">
        <ele>26.60000038147</ele>
        <time>2021-11-18T08:43:42.000Z</time>
      </trkpt>
      <trkpt lat="47.28195" lon="-2.35988">
        <ele>26</ele>
        <time>2021-11-18T08:43:43.000Z</time>
      </trkpt>
      <trkpt lat="47.28199" lon="-2.35995">
        <ele>26</ele>
        <time>2021-11-18T08:43:45.000Z</time>
      </trkpt>
      <trkpt lat="47.28204" lon="-2.36004">
        <ele>26</ele>
        <time>2021-11-18T08:43:48.000Z</time>
      </trkpt>
      <trkpt lat="47.28214" lon="-2.3602">
        <ele>26</ele>
        <time>2021-11-18T08:43:54.000Z</time>
      </trkpt>
      <trkpt lat="47.28223" lon="-2.36025">
        <ele>26</ele>
        <time>2021-11-18T08:43:57.000Z</time>
      </trkpt>
      <trkpt lat="47.28225" lon="-2.36023">
        <ele>26</ele>
        <time>2021-11-18T08:43:58.000Z</time>
      </trkpt>
      <trkpt lat="47.28246" lon="-2.36015">
        <ele>26</ele>
        <time>2021-11-18T08:44:04.000Z</time>
      </trkpt>
      <trkpt lat="47.28255" lon="-2.36018">
        <ele>26</ele>
        <time>2021-11-18T08:44:07.000Z</time>
      </trkpt>
      <trkpt lat="47.28256" lon="-2.3602">
        <ele>26</ele>
        <time>2021-11-18T08:44:08.000Z</time>
      </trkpt>
      <trkpt lat="47.28253" lon="-2.36026">
        <ele>26.60000038147</ele>
        <time>2021-11-18T08:44:10.000Z</time>
      </trkpt>
      <trkpt lat="47.28251" lon="-2.3603">
        <ele>27</ele>
        <time>2021-11-18T08:44:11.000Z</time>
      </trkpt>
      <trkpt lat="47.28251" lon="-2.36035">
        <ele>27.39999961853</ele>
        <time>2021-11-18T08:44:12.000Z</time>
      </trkpt>
      <trkpt lat="47.2825" lon="-2.36039">
        <ele>27.799999237061</ele>
        <time>2021-11-18T08:44:13.000Z</time>
      </trkpt>
      <trkpt lat="47.2825" lon="-2.36043">
        <ele>28.200000762939</ele>
        <time>2021-11-18T08:44:14.000Z</time>
      </trkpt>
      <trkpt lat="47.28247" lon="-2.3605">
        <ele>28.200000762939</ele>
        <time>2021-11-18T08:44:16.000Z</time>
      </trkpt>
      <trkpt lat="47.28247" lon="-2.36057">
        <ele>28.60000038147</ele>
        <time>2021-11-18T08:44:18.000Z</time>
      </trkpt>
      <trkpt lat="47.28247" lon="-2.3606">
        <ele>29</ele>
        <time>2021-11-18T08:44:19.000Z</time>
      </trkpt>
      <trkpt lat="47.28248" lon="-2.36062">
        <ele>29.39999961853</ele>
        <time>2021-11-18T08:44:20.000Z</time>
      </trkpt>
      <trkpt lat="47.28248" lon="-2.36064">
        <ele>29.799999237061</ele>
        <time>2021-11-18T08:44:21.000Z</time>
      </trkpt>
      <trkpt lat="47.28248" lon="-2.36067">
        <ele>30.200000762939</ele>
        <time>2021-11-18T08:44:22.000Z</time>
      </trkpt>
      <trkpt lat="47.28246" lon="-2.36082">
        <ele>30.200000762939</ele>
        <time>2021-11-18T08:44:28.000Z</time>
      </trkpt>
      <trkpt lat="47.28244" lon="-2.36093">
        <ele>30.200000762939</ele>
        <time>2021-11-18T08:44:32.000Z</time>
      </trkpt>
      <trkpt lat="47.28243" lon="-2.36104">
        <ele>30.200000762939</ele>
        <time>2021-11-18T08:44:40.000Z</time>
      </trkpt>
      <trkpt lat="47.28245" lon="-2.36111">
        <ele>30.200000762939</ele>
        <time>2021-11-18T08:44:47.000Z</time>
      </trkpt>
      <trkpt lat="47.28243" lon="-2.36114">
        <ele>30.200000762939</ele>
        <time>2021-11-18T08:44:48.000Z</time>
      </trkpt>
      <trkpt lat="47.28239" lon="-2.36123">
        <ele>30.200000762939</ele>
        <time>2021-11-18T08:44:51.000Z</time>
      </trkpt>
      <trkpt lat="47.2824" lon="-2.36135">
        <ele>29.799999237061</ele>
        <time>2021-11-18T08:44:54.000Z</time>
      </trkpt>
      <trkpt lat="47.28241" lon="-2.36141">
        <ele>29.39999961853</ele>
        <time>2021-11-18T08:44:55.000Z</time>
      </trkpt>
      <trkpt lat="47.28242" lon="-2.36147">
        <ele>29</ele>
        <time>2021-11-18T08:44:56.000Z</time>
      </trkpt>
      <trkpt lat="47.28244" lon="-2.36155">
        <ele>28.60000038147</ele>
        <time>2021-11-18T08:44:57.000Z</time>
      </trkpt>
      <trkpt lat="47.28246" lon="-2.36163">
        <ele>28</ele>
        <time>2021-11-18T08:44:58.000Z</time>
      </trkpt>
      <trkpt lat="47.28248" lon="-2.36169">
        <ele>27.60000038147</ele>
        <time>2021-11-18T08:44:59.000Z</time>
      </trkpt>
      <trkpt lat="47.28249" lon="-2.36175">
        <ele>27</ele>
        <time>2021-11-18T08:45:00.000Z</time>
      </trkpt>
      <trkpt lat="47.28251" lon="-2.36181">
        <ele>26.60000038147</ele>
        <time>2021-11-18T08:45:01.000Z</time>
      </trkpt>
      <trkpt lat="47.28253" lon="-2.36186">
        <ele>26</ele>
        <time>2021-11-18T08:45:02.000Z</time>
      </trkpt>
      <trkpt lat="47.28263" lon="-2.3621">
        <ele>26</ele>
        <time>2021-11-18T08:45:06.000Z</time>
      </trkpt>
      <trkpt lat="47.28271" lon="-2.36228">
        <ele>26</ele>
        <time>2021-11-18T08:45:09.000Z</time>
      </trkpt>
      <trkpt lat="47.2828" lon="-2.36234">
        <ele>26</ele>
        <time>2021-11-18T08:45:11.000Z</time>
      </trkpt>
      <trkpt lat="47.28302" lon="-2.36241">
        <ele>26</ele>
        <time>2021-11-18T08:45:16.000Z</time>
      </trkpt>
      <trkpt lat="47.28306" lon="-2.36242">
        <ele>26</ele>
        <time>2021-11-18T08:45:17.000Z</time>
      </trkpt>
      <trkpt lat="47.28327" lon="-2.36247">
        <ele>26.39999961853</ele>
        <time>2021-11-18T08:45:22.000Z</time>
      </trkpt>
      <trkpt lat="47.28331" lon="-2.36249">
        <ele>27</ele>
        <time>2021-11-18T08:45:23.000Z</time>
      </trkpt>
      <trkpt lat="47.28335" lon="-2.3625">
        <ele>27.39999961853</ele>
        <time>2021-11-18T08:45:24.000Z</time>
      </trkpt>
      <trkpt lat="47.28338" lon="-2.36252">
        <ele>27.799999237061</ele>
        <time>2021-11-18T08:45:25.000Z</time>
      </trkpt>
      <trkpt lat="47.28341" lon="-2.36254">
        <ele>28.200000762939</ele>
        <time>2021-11-18T08:45:26.000Z</time>
      </trkpt>
      <trkpt lat="47.28347" lon="-2.36256">
        <ele>28.200000762939</ele>
        <time>2021-11-18T08:45:28.000Z</time>
      </trkpt>
      <trkpt lat="47.28361" lon="-2.36265">
        <ele>28.200000762939</ele>
        <time>2021-11-18T08:45:33.000Z</time>
      </trkpt>
      <trkpt lat="47.28366" lon="-2.36267">
        <ele>28.60000038147</ele>
        <time>2021-11-18T08:45:35.000Z</time>
      </trkpt>
      <trkpt lat="47.28368" lon="-2.36268">
        <ele>29.200000762939</ele>
        <time>2021-11-18T08:45:36.000Z</time>
      </trkpt>
      <trkpt lat="47.2837" lon="-2.36269">
        <ele>29.60000038147</ele>
        <time>2021-11-18T08:45:37.000Z</time>
      </trkpt>
      <trkpt lat="47.28374" lon="-2.36269">
        <ele>30</ele>
        <time>2021-11-18T08:45:38.000Z</time>
      </trkpt>
      <trkpt lat="47.28377" lon="-2.3627">
        <ele>30.39999961853</ele>
        <time>2021-11-18T08:45:39.000Z</time>
      </trkpt>
      <trkpt lat="47.28395" lon="-2.36276">
        <ele>30.39999961853</ele>
        <time>2021-11-18T08:45:45.000Z</time>
      </trkpt>
      <trkpt lat="47.28399" lon="-2.36278">
        <ele>30.799999237061</ele>
        <time>2021-11-18T08:45:46.000Z</time>
      </trkpt>
      <trkpt lat="47.28403" lon="-2.3628">
        <ele>31.200000762939</ele>
        <time>2021-11-18T08:45:47.000Z</time>
      </trkpt>
      <trkpt lat="47.28406" lon="-2.36282">
        <ele>31.60000038147</ele>
        <time>2021-11-18T08:45:48.000Z</time>
      </trkpt>
      <trkpt lat="47.28409" lon="-2.36282">
        <ele>32.200000762939</ele>
        <time>2021-11-18T08:45:49.000Z</time>
      </trkpt>
      <trkpt lat="47.28412" lon="-2.36283">
        <ele>32.599998474121</ele>
        <time>2021-11-18T08:45:50.000Z</time>
      </trkpt>
      <trkpt lat="47.2843" lon="-2.36288">
        <ele>33</ele>
        <time>2021-11-18T08:45:56.000Z</time>
      </trkpt>
      <trkpt lat="47.28434" lon="-2.3629">
        <ele>33.799999237061</ele>
        <time>2021-11-18T08:45:57.000Z</time>
      </trkpt>
      <trkpt lat="47.28438" lon="-2.36291">
        <ele>34.200000762939</ele>
        <time>2021-11-18T08:45:58.000Z</time>
      </trkpt>
      <trkpt lat="47.28441" lon="-2.36292">
        <ele>34.599998474121</ele>
        <time>2021-11-18T08:45:59.000Z</time>
      </trkpt>
      <trkpt lat="47.28453" lon="-2.36299">
        <ele>34.599998474121</ele>
        <time>2021-11-18T08:46:02.000Z</time>
      </trkpt>
      <trkpt lat="47.28462" lon="-2.36304">
        <ele>34.599998474121</ele>
        <time>2021-11-18T08:46:07.000Z</time>
      </trkpt>
      <trkpt lat="47.2847" lon="-2.3631">
        <ele>34.599998474121</ele>
        <time>2021-11-18T08:46:12.000Z</time>
      </trkpt>
      <trkpt lat="47.28469" lon="-2.36316">
        <ele>34.599998474121</ele>
        <time>2021-11-18T08:46:17.000Z</time>
      </trkpt>
      <trkpt lat="47.28468" lon="-2.36313">
        <ele>34.599998474121</ele>
        <time>2021-11-18T08:46:20.000Z</time>
      </trkpt>
      <trkpt lat="47.28467" lon="-2.36301">
        <ele>34.599998474121</ele>
        <time>2021-11-18T08:46:23.000Z</time>
      </trkpt>
      <trkpt lat="47.28463" lon="-2.36276">
        <ele>34.599998474121</ele>
        <time>2021-11-18T08:46:29.000Z</time>
      </trkpt>
      <trkpt lat="47.2846" lon="-2.36246">
        <ele>34.599998474121</ele>
        <time>2021-11-18T08:46:36.000Z</time>
      </trkpt>
      <trkpt lat="47.28457" lon="-2.36226">
        <ele>35</ele>
        <time>2021-11-18T08:46:41.000Z</time>
      </trkpt>
      <trkpt lat="47.28456" lon="-2.36223">
        <ele>35.400001525879</ele>
        <time>2021-11-18T08:46:42.000Z</time>
      </trkpt>
      <trkpt lat="47.28456" lon="-2.36221">
        <ele>35.799999237061</ele>
        <time>2021-11-18T08:46:43.000Z</time>
      </trkpt>
      <trkpt lat="47.28457" lon="-2.36218">
        <ele>36.200000762939</ele>
        <time>2021-11-18T08:46:44.000Z</time>
      </trkpt>
      <trkpt lat="47.28457" lon="-2.36215">
        <ele>36.599998474121</ele>
        <time>2021-11-18T08:46:45.000Z</time>
      </trkpt>
      <trkpt lat="47.28459" lon="-2.36208">
        <ele>36.599998474121</ele>
        <time>2021-11-18T08:46:47.000Z</time>
      </trkpt>
      <trkpt lat="47.28472" lon="-2.36187">
        <ele>37</ele>
        <time>2021-11-18T08:46:53.000Z</time>
      </trkpt>
      <trkpt lat="47.28474" lon="-2.36184">
        <ele>37.400001525879</ele>
        <time>2021-11-18T08:46:54.000Z</time>
      </trkpt>
      <trkpt lat="47.28477" lon="-2.3618">
        <ele>37.799999237061</ele>
        <time>2021-11-18T08:46:55.000Z</time>
      </trkpt>
      <trkpt lat="47.2848" lon="-2.36176">
        <ele>38.400001525879</ele>
        <time>2021-11-18T08:46:56.000Z</time>
      </trkpt>
      <trkpt lat="47.28482" lon="-2.36173">
        <ele>38.799999237061</ele>
        <time>2021-11-18T08:46:57.000Z</time>
      </trkpt>
      <trkpt lat="47.28487" lon="-2.36164">
        <ele>38.799999237061</ele>
        <time>2021-11-18T08:47:00.000Z</time>
      </trkpt>
      <trkpt lat="47.285" lon="-2.36153">
        <ele>38.799999237061</ele>
        <time>2021-11-18T08:47:06.000Z</time>
      </trkpt>
      <trkpt lat="47.28502" lon="-2.36152">
        <ele>39.200000762939</ele>
        <time>2021-11-18T08:47:07.000Z</time>
      </trkpt>
      <trkpt lat="47.28504" lon="-2.36151">
        <ele>39.599998474121</ele>
        <time>2021-11-18T08:47:08.000Z</time>
      </trkpt>
      <trkpt lat="47.28506" lon="-2.36151">
        <ele>40</ele>
        <time>2021-11-18T08:47:09.000Z</time>
      </trkpt>
      <trkpt lat="47.28508" lon="-2.36151">
        <ele>40.400001525879</ele>
        <time>2021-11-18T08:47:10.000Z</time>
      </trkpt>
      <trkpt lat="47.2851" lon="-2.36151">
        <ele>40.799999237061</ele>
        <time>2021-11-18T08:47:11.000Z</time>
      </trkpt>
      <trkpt lat="47.28512" lon="-2.36151">
        <ele>40.799999237061</ele>
        <time>2021-11-18T08:47:12.000Z</time>
      </trkpt>
      <trkpt lat="47.28524" lon="-2.36155">
        <ele>41.200000762939</ele>
        <time>2021-11-18T08:47:16.000Z</time>
      </trkpt>
      <trkpt lat="47.28525" lon="-2.36157">
        <ele>41.799999237061</ele>
        <time>2021-11-18T08:47:17.000Z</time>
      </trkpt>
      <trkpt lat="47.28528" lon="-2.36157">
        <ele>42.200000762939</ele>
        <time>2021-11-18T08:47:18.000Z</time>
      </trkpt>
      <trkpt lat="47.2853" lon="-2.36157">
        <ele>42.599998474121</ele>
        <time>2021-11-18T08:47:19.000Z</time>
      </trkpt>
      <trkpt lat="47.28532" lon="-2.36158">
        <ele>43</ele>
        <time>2021-11-18T08:47:20.000Z</time>
      </trkpt>
      <trkpt lat="47.2854" lon="-2.3616">
        <ele>43</ele>
        <time>2021-11-18T08:47:24.000Z</time>
      </trkpt>
      <trkpt lat="47.28541" lon="-2.3616">
        <ele>43.400001525879</ele>
        <time>2021-11-18T08:47:25.000Z</time>
      </trkpt>
      <trkpt lat="47.28543" lon="-2.36161">
        <ele>43.799999237061</ele>
        <time>2021-11-18T08:47:26.000Z</time>
      </trkpt>
      <trkpt lat="47.28545" lon="-2.36163">
        <ele>44.200000762939</ele>
        <time>2021-11-18T08:47:27.000Z</time>
      </trkpt>
      <trkpt lat="47.28547" lon="-2.36164">
        <ele>44.599998474121</ele>
        <time>2021-11-18T08:47:28.000Z</time>
      </trkpt>
      <trkpt lat="47.2855" lon="-2.36165">
        <ele>45</ele>
        <time>2021-11-18T08:47:29.000Z</time>
      </trkpt>
      <trkpt lat="47.28554" lon="-2.36166">
        <ele>45</ele>
        <time>2021-11-18T08:47:31.000Z</time>
      </trkpt>
      <trkpt lat="47.28558" lon="-2.36169">
        <ele>45.400001525879</ele>
        <time>2021-11-18T08:47:33.000Z</time>
      </trkpt>
      <trkpt lat="47.28559" lon="-2.3617">
        <ele>45.799999237061</ele>
        <time>2021-11-18T08:47:34.000Z</time>
      </trkpt>
      <trkpt lat="47.2856" lon="-2.36172">
        <ele>46.599998474121</ele>
        <time>2021-11-18T08:47:35.000Z</time>
      </trkpt>
      <trkpt lat="47.28561" lon="-2.36174">
        <ele>47.200000762939</ele>
        <time>2021-11-18T08:47:36.000Z</time>
      </trkpt>
      <trkpt lat="47.28561" lon="-2.36189">
        <ele>47.200000762939</ele>
        <time>2021-11-18T08:47:41.000Z</time>
      </trkpt>
      <trkpt lat="47.28555" lon="-2.36212">
        <ele>47.200000762939</ele>
        <time>2021-11-18T08:47:46.000Z</time>
      </trkpt>
      <trkpt lat="47.28552" lon="-2.36236">
        <ele>47.200000762939</ele>
        <time>2021-11-18T08:47:51.000Z</time>
      </trkpt>
      <trkpt lat="47.28553" lon="-2.36266">
        <ele>47.200000762939</ele>
        <time>2021-11-18T08:47:57.000Z</time>
      </trkpt>
      <trkpt lat="47.28552" lon="-2.36292">
        <ele>47.200000762939</ele>
        <time>2021-11-18T08:48:03.000Z</time>
      </trkpt>
      <trkpt lat="47.28546" lon="-2.36315">
        <ele>47.200000762939</ele>
        <time>2021-11-18T08:48:09.000Z</time>
      </trkpt>
      <trkpt lat="47.28542" lon="-2.36337">
        <ele>47.200000762939</ele>
        <time>2021-11-18T08:48:15.000Z</time>
      </trkpt>
      <trkpt lat="47.28542" lon="-2.3634">
        <ele>47.200000762939</ele>
        <time>2021-11-18T08:48:16.000Z</time>
      </trkpt>
      <trkpt lat="47.28546" lon="-2.36348">
        <ele>47.200000762939</ele>
        <time>2021-11-18T08:48:20.000Z</time>
      </trkpt>
      <trkpt lat="47.28553" lon="-2.36349">
        <ele>48</ele>
        <time>2021-11-18T08:48:25.000Z</time>
      </trkpt>
      <trkpt lat="47.28555" lon="-2.36348">
        <ele>48.400001525879</ele>
        <time>2021-11-18T08:48:26.000Z</time>
      </trkpt>
      <trkpt lat="47.28557" lon="-2.36347">
        <ele>48.799999237061</ele>
        <time>2021-11-18T08:48:27.000Z</time>
      </trkpt>
      <trkpt lat="47.28558" lon="-2.36345">
        <ele>49.400001525879</ele>
        <time>2021-11-18T08:48:28.000Z</time>
      </trkpt>
      <trkpt lat="47.28559" lon="-2.36341">
        <ele>49.799999237061</ele>
        <time>2021-11-18T08:48:30.000Z</time>
      </trkpt>
      <trkpt lat="47.28559" lon="-2.36338">
        <ele>50.200000762939</ele>
        <time>2021-11-18T08:48:31.000Z</time>
      </trkpt>
      <trkpt lat="47.2856" lon="-2.36336">
        <ele>50.599998474121</ele>
        <time>2021-11-18T08:48:32.000Z</time>
      </trkpt>
      <trkpt lat="47.28561" lon="-2.36334">
        <ele>51</ele>
        <time>2021-11-18T08:48:33.000Z</time>
      </trkpt>
      <trkpt lat="47.28561" lon="-2.36332">
        <ele>51.400001525879</ele>
        <time>2021-11-18T08:48:34.000Z</time>
      </trkpt>
      <trkpt lat="47.28564" lon="-2.36324">
        <ele>51.400001525879</ele>
        <time>2021-11-18T08:48:38.000Z</time>
      </trkpt>
      <trkpt lat="47.28568" lon="-2.36315">
        <ele>51.799999237061</ele>
        <time>2021-11-18T08:48:42.000Z</time>
      </trkpt>
      <trkpt lat="47.28569" lon="-2.36312">
        <ele>52.200000762939</ele>
        <time>2021-11-18T08:48:43.000Z</time>
      </trkpt>
      <trkpt lat="47.28569" lon="-2.36309">
        <ele>52.599998474121</ele>
        <time>2021-11-18T08:48:44.000Z</time>
      </trkpt>
      <trkpt lat="47.2857" lon="-2.36306">
        <ele>53</ele>
        <time>2021-11-18T08:48:45.000Z</time>
      </trkpt>
      <trkpt lat="47.28569" lon="-2.36302">
        <ele>53.400001525879</ele>
        <time>2021-11-18T08:48:46.000Z</time>
      </trkpt>
      <trkpt lat="47.28571" lon="-2.3629">
        <ele>53.400001525879</ele>
        <time>2021-11-18T08:48:49.000Z</time>
      </trkpt>
      <trkpt lat="47.28573" lon="-2.3628">
        <ele>53.400001525879</ele>
        <time>2021-11-18T08:48:52.000Z</time>
      </trkpt>
      <trkpt lat="47.28582" lon="-2.36258">
        <ele>53.400001525879</ele>
        <time>2021-11-18T08:49:00.000Z</time>
      </trkpt>
      <trkpt lat="47.28587" lon="-2.36232">
        <ele>53.400001525879</ele>
        <time>2021-11-18T08:49:06.000Z</time>
      </trkpt>
      <trkpt lat="47.28588" lon="-2.36226">
        <ele>53</ele>
        <time>2021-11-18T08:49:07.000Z</time>
      </trkpt>
      <trkpt lat="47.28589" lon="-2.36221">
        <ele>52.599998474121</ele>
        <time>2021-11-18T08:49:08.000Z</time>
      </trkpt>
      <trkpt lat="47.2859" lon="-2.36216">
        <ele>52.200000762939</ele>
        <time>2021-11-18T08:49:09.000Z</time>
      </trkpt>
      <trkpt lat="47.28591" lon="-2.36211">
        <ele>51.799999237061</ele>
        <time>2021-11-18T08:49:10.000Z</time>
      </trkpt>
      <trkpt lat="47.28594" lon="-2.36206">
        <ele>51.400001525879</ele>
        <time>2021-11-18T08:49:11.000Z</time>
      </trkpt>
      <trkpt lat="47.28596" lon="-2.362">
        <ele>51.400001525879</ele>
        <time>2021-11-18T08:49:12.000Z</time>
      </trkpt>
      <trkpt lat="47.28604" lon="-2.36185">
        <ele>51.400001525879</ele>
        <time>2021-11-18T08:49:17.000Z</time>
      </trkpt>
      <trkpt lat="47.28602" lon="-2.36159">
        <ele>51.400001525879</ele>
        <time>2021-11-18T08:50:34.000Z</time>
      </trkpt>
      <trkpt lat="47.28594" lon="-2.36156">
        <ele>51.799999237061</ele>
        <time>2021-11-18T08:50:38.000Z</time>
      </trkpt>
      <trkpt lat="47.28592" lon="-2.36155">
        <ele>52.200000762939</ele>
        <time>2021-11-18T08:50:39.000Z</time>
      </trkpt>
      <trkpt lat="47.2859" lon="-2.36153">
        <ele>52.599998474121</ele>
        <time>2021-11-18T08:50:40.000Z</time>
      </trkpt>
      <trkpt lat="47.28587" lon="-2.36153">
        <ele>53</ele>
        <time>2021-11-18T08:50:41.000Z</time>
      </trkpt>
      <trkpt lat="47.28583" lon="-2.36154">
        <ele>53.400001525879</ele>
        <time>2021-11-18T08:50:42.000Z</time>
      </trkpt>
      <trkpt lat="47.28572" lon="-2.3616">
        <ele>53.400001525879</ele>
        <time>2021-11-18T08:50:45.000Z</time>
      </trkpt>
      <trkpt lat="47.28569" lon="-2.36162">
        <ele>52.799999237061</ele>
        <time>2021-11-18T08:50:46.000Z</time>
      </trkpt>
      <trkpt lat="47.28566" lon="-2.36163">
        <ele>52.400001525879</ele>
        <time>2021-11-18T08:50:47.000Z</time>
      </trkpt>
      <trkpt lat="47.28564" lon="-2.36163">
        <ele>51.799999237061</ele>
        <time>2021-11-18T08:50:48.000Z</time>
      </trkpt>
      <trkpt lat="47.28563" lon="-2.36163">
        <ele>51.400001525879</ele>
        <time>2021-11-18T08:50:49.000Z</time>
      </trkpt>
      <trkpt lat="47.28561" lon="-2.36161">
        <ele>50.799999237061</ele>
        <time>2021-11-18T08:50:50.000Z</time>
      </trkpt>
      <trkpt lat="47.2856" lon="-2.36158">
        <ele>50.400001525879</ele>
        <time>2021-11-18T08:50:51.000Z</time>
      </trkpt>
      <trkpt lat="47.28559" lon="-2.36156">
        <ele>49.599998474121</ele>
        <time>2021-11-18T08:50:52.000Z</time>
      </trkpt>
      <trkpt lat="47.28558" lon="-2.36153">
        <ele>49.200000762939</ele>
        <time>2021-11-18T08:50:53.000Z</time>
      </trkpt>
      <trkpt lat="47.28557" lon="-2.36151">
        <ele>48.799999237061</ele>
        <time>2021-11-18T08:50:54.000Z</time>
      </trkpt>
      <trkpt lat="47.28555" lon="-2.36145">
        <ele>48.799999237061</ele>
        <time>2021-11-18T08:50:56.000Z</time>
      </trkpt>
      <trkpt lat="47.28549" lon="-2.36126">
        <ele>48.799999237061</ele>
        <time>2021-11-18T08:51:01.000Z</time>
      </trkpt>
      <trkpt lat="47.28542" lon="-2.36099">
        <ele>48.799999237061</ele>
        <time>2021-11-18T08:51:06.000Z</time>
      </trkpt>
      <trkpt lat="47.28535" lon="-2.36082">
        <ele>48.799999237061</ele>
        <time>2021-11-18T08:51:11.000Z</time>
      </trkpt>
      <trkpt lat="47.28524" lon="-2.36066">
        <ele>48.799999237061</ele>
        <time>2021-11-18T08:51:16.000Z</time>
      </trkpt>
      <trkpt lat="47.28507" lon="-2.3605">
        <ele>48.799999237061</ele>
        <time>2021-11-18T08:51:22.000Z</time>
      </trkpt>
      <trkpt lat="47.28487" lon="-2.36038">
        <ele>48.799999237061</ele>
        <time>2021-11-18T08:51:27.000Z</time>
      </trkpt>
      <trkpt lat="47.28471" lon="-2.36012">
        <ele>48.799999237061</ele>
        <time>2021-11-18T08:51:33.000Z</time>
      </trkpt>
      <trkpt lat="47.28466" lon="-2.36004">
        <ele>48.799999237061</ele>
        <time>2021-11-18T08:51:38.000Z</time>
      </trkpt>
      <trkpt lat="47.28463" lon="-2.35992">
        <ele>48.799999237061</ele>
        <time>2021-11-18T08:52:00.000Z</time>
      </trkpt>
      <trkpt lat="47.28464" lon="-2.35982">
        <ele>48.799999237061</ele>
        <time>2021-11-18T08:52:03.000Z</time>
      </trkpt>
      <trkpt lat="47.28468" lon="-2.35958">
        <ele>48.400001525879</ele>
        <time>2021-11-18T08:52:08.000Z</time>
      </trkpt>
      <trkpt lat="47.28469" lon="-2.35952">
        <ele>48</ele>
        <time>2021-11-18T08:52:09.000Z</time>
      </trkpt>
      <trkpt lat="47.28471" lon="-2.35946">
        <ele>47.400001525879</ele>
        <time>2021-11-18T08:52:10.000Z</time>
      </trkpt>
      <trkpt lat="47.28472" lon="-2.3594">
        <ele>47</ele>
        <time>2021-11-18T08:52:11.000Z</time>
      </trkpt>
      <trkpt lat="47.28473" lon="-2.35935">
        <ele>46.400001525879</ele>
        <time>2021-11-18T08:52:12.000Z</time>
      </trkpt>
      <trkpt lat="47.28475" lon="-2.35929">
        <ele>46</ele>
        <time>2021-11-18T08:52:13.000Z</time>
      </trkpt>
      <trkpt lat="47.28476" lon="-2.35923">
        <ele>45.400001525879</ele>
        <time>2021-11-18T08:52:14.000Z</time>
      </trkpt>
      <trkpt lat="47.28477" lon="-2.3592">
        <ele>44.799999237061</ele>
        <time>2021-11-18T08:52:15.000Z</time>
      </trkpt>
      <trkpt lat="47.28478" lon="-2.35916">
        <ele>44.200000762939</ele>
        <time>2021-11-18T08:52:16.000Z</time>
      </trkpt>
      <trkpt lat="47.28478" lon="-2.35912">
        <ele>43.799999237061</ele>
        <time>2021-11-18T08:52:17.000Z</time>
      </trkpt>
      <trkpt lat="47.28477" lon="-2.35907">
        <ele>43.200000762939</ele>
        <time>2021-11-18T08:52:18.000Z</time>
      </trkpt>
      <trkpt lat="47.28476" lon="-2.35903">
        <ele>42.799999237061</ele>
        <time>2021-11-18T08:52:19.000Z</time>
      </trkpt>
      <trkpt lat="47.28475" lon="-2.35899">
        <ele>42.200000762939</ele>
        <time>2021-11-18T08:52:20.000Z</time>
      </trkpt>
      <trkpt lat="47.28473" lon="-2.35896">
        <ele>41.599998474121</ele>
        <time>2021-11-18T08:52:21.000Z</time>
      </trkpt>
      <trkpt lat="47.2847" lon="-2.35894">
        <ele>41</ele>
        <time>2021-11-18T08:52:22.000Z</time>
      </trkpt>
      <trkpt lat="47.28466" lon="-2.35892">
        <ele>40.599998474121</ele>
        <time>2021-11-18T08:52:23.000Z</time>
      </trkpt>
      <trkpt lat="47.28461" lon="-2.35891">
        <ele>40</ele>
        <time>2021-11-18T08:52:24.000Z</time>
      </trkpt>
      <trkpt lat="47.28458" lon="-2.35889">
        <ele>39.400001525879</ele>
        <time>2021-11-18T08:52:25.000Z</time>
      </trkpt>
      <trkpt lat="47.28453" lon="-2.35879">
        <ele>39.400001525879</ele>
        <time>2021-11-18T08:52:28.000Z</time>
      </trkpt>
      <trkpt lat="47.28453" lon="-2.35865">
        <ele>39.400001525879</ele>
        <time>2021-11-18T08:52:32.000Z</time>
      </trkpt>
      <trkpt lat="47.28459" lon="-2.35851">
        <ele>39.400001525879</ele>
        <time>2021-11-18T08:52:36.000Z</time>
      </trkpt>
      <trkpt lat="47.28472" lon="-2.35838">
        <ele>39.400001525879</ele>
        <time>2021-11-18T08:52:43.000Z</time>
      </trkpt>
      <trkpt lat="47.28476" lon="-2.35832">
        <ele>39.400001525879</ele>
        <time>2021-11-18T08:52:47.000Z</time>
      </trkpt>
      <trkpt lat="47.28477" lon="-2.35829">
        <ele>39.400001525879</ele>
        <time>2021-11-18T08:52:48.000Z</time>
      </trkpt>
      <trkpt lat="47.28485" lon="-2.35813">
        <ele>39.400001525879</ele>
        <time>2021-11-18T08:52:53.000Z</time>
      </trkpt>
      <trkpt lat="47.28486" lon="-2.358">
        <ele>39.400001525879</ele>
        <time>2021-11-18T08:52:56.000Z</time>
      </trkpt>
      <trkpt lat="47.28485" lon="-2.35796">
        <ele>39.400001525879</ele>
        <time>2021-11-18T08:52:57.000Z</time>
      </trkpt>
      <trkpt lat="47.28481" lon="-2.3577">
        <ele>39.400001525879</ele>
        <time>2021-11-18T08:53:03.000Z</time>
      </trkpt>
      <trkpt lat="47.28484" lon="-2.35753">
        <ele>39.400001525879</ele>
        <time>2021-11-18T08:53:07.000Z</time>
      </trkpt>
      <trkpt lat="47.28487" lon="-2.35744">
        <ele>39</ele>
        <time>2021-11-18T08:53:09.000Z</time>
      </trkpt>
      <trkpt lat="47.28489" lon="-2.3574">
        <ele>38.599998474121</ele>
        <time>2021-11-18T08:53:10.000Z</time>
      </trkpt>
      <trkpt lat="47.28491" lon="-2.35735">
        <ele>38.200000762939</ele>
        <time>2021-11-18T08:53:11.000Z</time>
      </trkpt>
      <trkpt lat="47.28494" lon="-2.3573">
        <ele>37.799999237061</ele>
        <time>2021-11-18T08:53:12.000Z</time>
      </trkpt>
      <trkpt lat="47.28495" lon="-2.35726">
        <ele>37.400001525879</ele>
        <time>2021-11-18T08:53:13.000Z</time>
      </trkpt>
      <trkpt lat="47.28507" lon="-2.35706">
        <ele>37.400001525879</ele>
        <time>2021-11-18T08:53:19.000Z</time>
      </trkpt>
      <trkpt lat="47.28505" lon="-2.35701">
        <ele>37.400001525879</ele>
        <time>2021-11-18T08:53:21.000Z</time>
      </trkpt>
      <trkpt lat="47.28502" lon="-2.35695">
        <ele>37.400001525879</ele>
        <time>2021-11-18T08:53:23.000Z</time>
      </trkpt>
      <trkpt lat="47.28498" lon="-2.35689">
        <ele>37.400001525879</ele>
        <time>2021-11-18T08:53:25.000Z</time>
      </trkpt>
      <trkpt lat="47.28492" lon="-2.35682">
        <ele>37.400001525879</ele>
        <time>2021-11-18T08:53:28.000Z</time>
      </trkpt>
      <trkpt lat="47.28475" lon="-2.35661">
        <ele>37.400001525879</ele>
        <time>2021-11-18T08:53:35.000Z</time>
      </trkpt>
      <trkpt lat="47.28457" lon="-2.35645">
        <ele>37.400001525879</ele>
        <time>2021-11-18T08:53:42.000Z</time>
      </trkpt>
      <trkpt lat="47.28452" lon="-2.35646">
        <ele>37.400001525879</ele>
        <time>2021-11-18T08:53:44.000Z</time>
      </trkpt>
      <trkpt lat="47.28448" lon="-2.3565">
        <ele>37.400001525879</ele>
        <time>2021-11-18T08:53:46.000Z</time>
      </trkpt>
      <trkpt lat="47.28437" lon="-2.35663">
        <ele>37.400001525879</ele>
        <time>2021-11-18T08:53:50.000Z</time>
      </trkpt>
      <trkpt lat="47.2843" lon="-2.35674">
        <ele>37.400001525879</ele>
        <time>2021-11-18T08:53:52.000Z</time>
      </trkpt>
      <trkpt lat="47.28416" lon="-2.3569">
        <ele>37.400001525879</ele>
        <time>2021-11-18T08:53:57.000Z</time>
      </trkpt>
      <trkpt lat="47.28411" lon="-2.35681">
        <ele>37.400001525879</ele>
        <time>2021-11-18T08:54:01.000Z</time>
      </trkpt>
      <trkpt lat="47.28413" lon="-2.35655">
        <ele>37.400001525879</ele>
        <time>2021-11-18T08:54:06.000Z</time>
      </trkpt>
      <trkpt lat="47.28403" lon="-2.35634">
        <ele>37.400001525879</ele>
        <time>2021-11-18T08:54:11.000Z</time>
      </trkpt>
      <trkpt lat="47.284" lon="-2.3563">
        <ele>37.400001525879</ele>
        <time>2021-11-18T08:54:12.000Z</time>
      </trkpt>
      <trkpt lat="47.28398" lon="-2.35621">
        <ele>37.400001525879</ele>
        <time>2021-11-18T08:54:14.000Z</time>
      </trkpt>
      <trkpt lat="47.28399" lon="-2.35596">
        <ele>37.400001525879</ele>
        <time>2021-11-18T08:54:18.000Z</time>
      </trkpt>
      <trkpt lat="47.28399" lon="-2.35561">
        <ele>37.400001525879</ele>
        <time>2021-11-18T08:54:23.000Z</time>
      </trkpt>
      <trkpt lat="47.28406" lon="-2.35526">
        <ele>37.400001525879</ele>
        <time>2021-11-18T08:54:29.000Z</time>
      </trkpt>
      <trkpt lat="47.28411" lon="-2.35496">
        <ele>37.400001525879</ele>
        <time>2021-11-18T08:54:34.000Z</time>
      </trkpt>
      <trkpt lat="47.28408" lon="-2.35462">
        <ele>37.400001525879</ele>
        <time>2021-11-18T08:54:40.000Z</time>
      </trkpt>
      <trkpt lat="47.28407" lon="-2.35448">
        <ele>37.799999237061</ele>
        <time>2021-11-18T08:54:43.000Z</time>
      </trkpt>
      <trkpt lat="47.28408" lon="-2.35444">
        <ele>38.200000762939</ele>
        <time>2021-11-18T08:54:44.000Z</time>
      </trkpt>
      <trkpt lat="47.28408" lon="-2.35441">
        <ele>38.799999237061</ele>
        <time>2021-11-18T08:54:45.000Z</time>
      </trkpt>
      <trkpt lat="47.28408" lon="-2.35439">
        <ele>39.200000762939</ele>
        <time>2021-11-18T08:54:46.000Z</time>
      </trkpt>
      <trkpt lat="47.28408" lon="-2.35439">
        <ele>39.599998474121</ele>
        <time>2021-11-18T08:54:47.000Z</time>
      </trkpt>
      <trkpt lat="47.28409" lon="-2.35438">
        <ele>39.599998474121</ele>
        <time>2021-11-18T08:54:48.000Z</time>
      </trkpt>
      <trkpt lat="47.28412" lon="-2.35436">
        <ele>39.599998474121</ele>
        <time>2021-11-18T08:54:50.000Z</time>
      </trkpt>
      <trkpt lat="47.28415" lon="-2.3543">
        <ele>39.599998474121</ele>
        <time>2021-11-18T08:54:52.000Z</time>
      </trkpt>
      <trkpt lat="47.28419" lon="-2.35422">
        <ele>39.599998474121</ele>
        <time>2021-11-18T08:54:55.000Z</time>
      </trkpt>
      <trkpt lat="47.28423" lon="-2.35419">
        <ele>40</ele>
        <time>2021-11-18T08:54:57.000Z</time>
      </trkpt>
      <trkpt lat="47.28426" lon="-2.35417">
        <ele>40.400001525879</ele>
        <time>2021-11-18T08:54:58.000Z</time>
      </trkpt>
      <trkpt lat="47.28428" lon="-2.35415">
        <ele>41.400001525879</ele>
        <time>2021-11-18T08:54:59.000Z</time>
      </trkpt>
      <trkpt lat="47.28431" lon="-2.35414">
        <ele>41.799999237061</ele>
        <time>2021-11-18T08:55:00.000Z</time>
      </trkpt>
      <trkpt lat="47.28442" lon="-2.35414">
        <ele>41.799999237061</ele>
        <time>2021-11-18T08:55:04.000Z</time>
      </trkpt>
      <trkpt lat="47.28446" lon="-2.35413">
        <ele>41.799999237061</ele>
        <time>2021-11-18T08:55:05.000Z</time>
      </trkpt>
      <trkpt lat="47.28454" lon="-2.35404">
        <ele>41.799999237061</ele>
        <time>2021-11-18T08:55:08.000Z</time>
      </trkpt>
      <trkpt lat="47.28456" lon="-2.354">
        <ele>41.799999237061</ele>
        <time>2021-11-18T08:55:09.000Z</time>
      </trkpt>
      <trkpt lat="47.28458" lon="-2.35396">
        <ele>41.400001525879</ele>
        <time>2021-11-18T08:55:10.000Z</time>
      </trkpt>
      <trkpt lat="47.2846" lon="-2.35392">
        <ele>40.799999237061</ele>
        <time>2021-11-18T08:55:11.000Z</time>
      </trkpt>
      <trkpt lat="47.28461" lon="-2.35389">
        <ele>40.400001525879</ele>
        <time>2021-11-18T08:55:12.000Z</time>
      </trkpt>
      <trkpt lat="47.28461" lon="-2.35382">
        <ele>40</ele>
        <time>2021-11-18T08:55:13.000Z</time>
      </trkpt>
      <trkpt lat="47.28462" lon="-2.35378">
        <ele>39.400001525879</ele>
        <time>2021-11-18T08:55:14.000Z</time>
      </trkpt>
      <trkpt lat="47.28463" lon="-2.35375">
        <ele>39</ele>
        <time>2021-11-18T08:55:15.000Z</time>
      </trkpt>
      <trkpt lat="47.28463" lon="-2.3537">
        <ele>38.400001525879</ele>
        <time>2021-11-18T08:55:16.000Z</time>
      </trkpt>
      <trkpt lat="47.28463" lon="-2.35365">
        <ele>38</ele>
        <time>2021-11-18T08:55:17.000Z</time>
      </trkpt>
      <trkpt lat="47.28463" lon="-2.3536">
        <ele>37.400001525879</ele>
        <time>2021-11-18T08:55:18.000Z</time>
      </trkpt>
      <trkpt lat="47.28464" lon="-2.35357">
        <ele>36.799999237061</ele>
        <time>2021-11-18T08:55:19.000Z</time>
      </trkpt>
      <trkpt lat="47.28464" lon="-2.35353">
        <ele>36.400001525879</ele>
        <time>2021-11-18T08:55:20.000Z</time>
      </trkpt>
      <trkpt lat="47.28466" lon="-2.35351">
        <ele>35.799999237061</ele>
        <time>2021-11-18T08:55:21.000Z</time>
      </trkpt>
      <trkpt lat="47.28468" lon="-2.35352">
        <ele>35.200000762939</ele>
        <time>2021-11-18T08:55:22.000Z</time>
      </trkpt>
      <trkpt lat="47.2847" lon="-2.35354">
        <ele>34.200000762939</ele>
        <time>2021-11-18T08:55:23.000Z</time>
      </trkpt>
      <trkpt lat="47.28472" lon="-2.35357">
        <ele>33.799999237061</ele>
        <time>2021-11-18T08:55:24.000Z</time>
      </trkpt>
      <trkpt lat="47.28474" lon="-2.35361">
        <ele>33.200000762939</ele>
        <time>2021-11-18T08:55:25.000Z</time>
      </trkpt>
      <trkpt lat="47.28479" lon="-2.35367">
        <ele>33.200000762939</ele>
        <time>2021-11-18T08:55:27.000Z</time>
      </trkpt>
      <trkpt lat="47.28488" lon="-2.35388">
        <ele>33.200000762939</ele>
        <time>2021-11-18T08:55:32.000Z</time>
      </trkpt>
      <trkpt lat="47.28493" lon="-2.35409">
        <ele>33.200000762939</ele>
        <time>2021-11-18T08:55:37.000Z</time>
      </trkpt>
      <trkpt lat="47.28493" lon="-2.3542">
        <ele>33.599998474121</ele>
        <time>2021-11-18T08:55:41.000Z</time>
      </trkpt>
      <trkpt lat="47.28492" lon="-2.35422">
        <ele>34</ele>
        <time>2021-11-18T08:55:42.000Z</time>
      </trkpt>
      <trkpt lat="47.28491" lon="-2.35423">
        <ele>34.599998474121</ele>
        <time>2021-11-18T08:55:43.000Z</time>
      </trkpt>
      <trkpt lat="47.2849" lon="-2.35425">
        <ele>35</ele>
        <time>2021-11-18T08:55:44.000Z</time>
      </trkpt>
      <trkpt lat="47.28489" lon="-2.35426">
        <ele>35.400001525879</ele>
        <time>2021-11-18T08:55:45.000Z</time>
      </trkpt>
      <trkpt lat="47.28487" lon="-2.35428">
        <ele>35.400001525879</ele>
        <time>2021-11-18T08:55:47.000Z</time>
      </trkpt>
      <trkpt lat="47.28486" lon="-2.35429">
        <ele>35.799999237061</ele>
        <time>2021-11-18T08:55:48.000Z</time>
      </trkpt>
      <trkpt lat="47.28486" lon="-2.35431">
        <ele>36.200000762939</ele>
        <time>2021-11-18T08:55:49.000Z</time>
      </trkpt>
      <trkpt lat="47.28485" lon="-2.35432">
        <ele>36.599998474121</ele>
        <time>2021-11-18T08:55:50.000Z</time>
      </trkpt>
      <trkpt lat="47.28483" lon="-2.35433">
        <ele>37</ele>
        <time>2021-11-18T08:55:51.000Z</time>
      </trkpt>
      <trkpt lat="47.28482" lon="-2.35434">
        <ele>37.400001525879</ele>
        <time>2021-11-18T08:55:52.000Z</time>
      </trkpt>
      <trkpt lat="47.2848" lon="-2.35435">
        <ele>37.400001525879</ele>
        <time>2021-11-18T08:55:54.000Z</time>
      </trkpt>
      <trkpt lat="47.28478" lon="-2.35435">
        <ele>38</ele>
        <time>2021-11-18T08:55:57.000Z</time>
      </trkpt>
      <trkpt lat="47.28477" lon="-2.35435">
        <ele>38.400001525879</ele>
        <time>2021-11-18T08:55:58.000Z</time>
      </trkpt>
      <trkpt lat="47.28475" lon="-2.35435">
        <ele>38.799999237061</ele>
        <time>2021-11-18T08:55:59.000Z</time>
      </trkpt>
      <trkpt lat="47.28475" lon="-2.35435">
        <ele>39.200000762939</ele>
        <time>2021-11-18T08:56:00.000Z</time>
      </trkpt>
      <trkpt lat="47.28474" lon="-2.35434">
        <ele>39.599998474121</ele>
        <time>2021-11-18T08:56:01.000Z</time>
      </trkpt>
      <trkpt lat="47.28473" lon="-2.35432">
        <ele>39.599998474121</ele>
        <time>2021-11-18T08:56:02.000Z</time>
      </trkpt>
      <trkpt lat="47.28467" lon="-2.3543">
        <ele>39.599998474121</ele>
        <time>2021-11-18T08:56:08.000Z</time>
      </trkpt>
      <trkpt lat="47.28466" lon="-2.3543">
        <ele>40</ele>
        <time>2021-11-18T08:56:09.000Z</time>
      </trkpt>
      <trkpt lat="47.28464" lon="-2.35431">
        <ele>40.400001525879</ele>
        <time>2021-11-18T08:56:10.000Z</time>
      </trkpt>
      <trkpt lat="47.28462" lon="-2.35432">
        <ele>40.799999237061</ele>
        <time>2021-11-18T08:56:11.000Z</time>
      </trkpt>
      <trkpt lat="47.28458" lon="-2.35434">
        <ele>41.200000762939</ele>
        <time>2021-11-18T08:56:12.000Z</time>
      </trkpt>
      <trkpt lat="47.28455" lon="-2.35436">
        <ele>41.599998474121</ele>
        <time>2021-11-18T08:56:13.000Z</time>
      </trkpt>
      <trkpt lat="47.28453" lon="-2.35439">
        <ele>41.599998474121</ele>
        <time>2021-11-18T08:56:14.000Z</time>
      </trkpt>
      <trkpt lat="47.28452" lon="-2.35441">
        <ele>41.599998474121</ele>
        <time>2021-11-18T08:56:15.000Z</time>
      </trkpt>
      <trkpt lat="47.28452" lon="-2.35443">
        <ele>41.599998474121</ele>
        <time>2021-11-18T08:56:17.000Z</time>
      </trkpt>
      <trkpt lat="47.28453" lon="-2.35447">
        <ele>41.599998474121</ele>
        <time>2021-11-18T08:56:19.000Z</time>
      </trkpt>
      <trkpt lat="47.28453" lon="-2.35449">
        <ele>42</ele>
        <time>2021-11-18T08:56:20.000Z</time>
      </trkpt>
      <trkpt lat="47.28453" lon="-2.35451">
        <ele>42.599998474121</ele>
        <time>2021-11-18T08:56:21.000Z</time>
      </trkpt>
      <trkpt lat="47.28454" lon="-2.35454">
        <ele>43</ele>
        <time>2021-11-18T08:56:22.000Z</time>
      </trkpt>
      <trkpt lat="47.28454" lon="-2.35456">
        <ele>43.400001525879</ele>
        <time>2021-11-18T08:56:23.000Z</time>
      </trkpt>
      <trkpt lat="47.28455" lon="-2.35459">
        <ele>43.799999237061</ele>
        <time>2021-11-18T08:56:24.000Z</time>
      </trkpt>
      <trkpt lat="47.28455" lon="-2.35465">
        <ele>43.799999237061</ele>
        <time>2021-11-18T08:56:26.000Z</time>
      </trkpt>
      <trkpt lat="47.28456" lon="-2.35468">
        <ele>44.200000762939</ele>
        <time>2021-11-18T08:56:27.000Z</time>
      </trkpt>
      <trkpt lat="47.28456" lon="-2.3547">
        <ele>44.599998474121</ele>
        <time>2021-11-18T08:56:28.000Z</time>
      </trkpt>
      <trkpt lat="47.28457" lon="-2.35473">
        <ele>45</ele>
        <time>2021-11-18T08:56:29.000Z</time>
      </trkpt>
      <trkpt lat="47.28459" lon="-2.35476">
        <ele>45.599998474121</ele>
        <time>2021-11-18T08:56:30.000Z</time>
      </trkpt>
      <trkpt lat="47.2846" lon="-2.35478">
        <ele>46</ele>
        <time>2021-11-18T08:56:31.000Z</time>
      </trkpt>
      <trkpt lat="47.28461" lon="-2.3548">
        <ele>46</ele>
        <time>2021-11-18T08:56:32.000Z</time>
      </trkpt>
      <trkpt lat="47.28471" lon="-2.35492">
        <ele>46.400001525879</ele>
        <time>2021-11-18T08:56:37.000Z</time>
      </trkpt>
      <trkpt lat="47.28472" lon="-2.35494">
        <ele>46.799999237061</ele>
        <time>2021-11-18T08:56:38.000Z</time>
      </trkpt>
      <trkpt lat="47.28474" lon="-2.35496">
        <ele>47.200000762939</ele>
        <time>2021-11-18T08:56:39.000Z</time>
      </trkpt>
      <trkpt lat="47.28475" lon="-2.35498">
        <ele>47.799999237061</ele>
        <time>2021-11-18T08:56:40.000Z</time>
      </trkpt>
      <trkpt lat="47.28476" lon="-2.355">
        <ele>48.200000762939</ele>
        <time>2021-11-18T08:56:41.000Z</time>
      </trkpt>
      <trkpt lat="47.28479" lon="-2.35511">
        <ele>48.599998474121</ele>
        <time>2021-11-18T08:56:45.000Z</time>
      </trkpt>
      <trkpt lat="47.2848" lon="-2.35513">
        <ele>49</ele>
        <time>2021-11-18T08:56:46.000Z</time>
      </trkpt>
      <trkpt lat="47.2848" lon="-2.35517">
        <ele>49.400001525879</ele>
        <time>2021-11-18T08:56:47.000Z</time>
      </trkpt>
      <trkpt lat="47.28481" lon="-2.35521">
        <ele>50</ele>
        <time>2021-11-18T08:56:48.000Z</time>
      </trkpt>
      <trkpt lat="47.28482" lon="-2.35525">
        <ele>50.400001525879</ele>
        <time>2021-11-18T08:56:49.000Z</time>
      </trkpt>
      <trkpt lat="47.28483" lon="-2.35538">
        <ele>50.400001525879</ele>
        <time>2021-11-18T08:56:52.000Z</time>
      </trkpt>
      <trkpt lat="47.28489" lon="-2.3556">
        <ele>50.400001525879</ele>
        <time>2021-11-18T08:56:57.000Z</time>
      </trkpt>
      <trkpt lat="47.28496" lon="-2.35582">
        <ele>50.400001525879</ele>
        <time>2021-11-18T08:57:01.000Z</time>
      </trkpt>
      <trkpt lat="47.28497" lon="-2.35589">
        <ele>49.799999237061</ele>
        <time>2021-11-18T08:57:02.000Z</time>
      </trkpt>
      <trkpt lat="47.28498" lon="-2.35595">
        <ele>49.400001525879</ele>
        <time>2021-11-18T08:57:03.000Z</time>
      </trkpt>
      <trkpt lat="47.28501" lon="-2.356">
        <ele>49</ele>
        <time>2021-11-18T08:57:04.000Z</time>
      </trkpt>
      <trkpt lat="47.28504" lon="-2.35604">
        <ele>48.599998474121</ele>
        <time>2021-11-18T08:57:05.000Z</time>
      </trkpt>
      <trkpt lat="47.28508" lon="-2.35605">
        <ele>48.200000762939</ele>
        <time>2021-11-18T08:57:06.000Z</time>
      </trkpt>
      <trkpt lat="47.28515" lon="-2.35604">
        <ele>47.599998474121</ele>
        <time>2021-11-18T08:57:08.000Z</time>
      </trkpt>
      <trkpt lat="47.28519" lon="-2.35602">
        <ele>47.200000762939</ele>
        <time>2021-11-18T08:57:09.000Z</time>
      </trkpt>
      <trkpt lat="47.28522" lon="-2.35598">
        <ele>46.799999237061</ele>
        <time>2021-11-18T08:57:10.000Z</time>
      </trkpt>
      <trkpt lat="47.28526" lon="-2.35593">
        <ele>46.400001525879</ele>
        <time>2021-11-18T08:57:11.000Z</time>
      </trkpt>
      <trkpt lat="47.2853" lon="-2.35588">
        <ele>46</ele>
        <time>2021-11-18T08:57:12.000Z</time>
      </trkpt>
      <trkpt lat="47.28533" lon="-2.35583">
        <ele>45.400001525879</ele>
        <time>2021-11-18T08:57:13.000Z</time>
      </trkpt>
      <trkpt lat="47.28536" lon="-2.35577">
        <ele>45</ele>
        <time>2021-11-18T08:57:14.000Z</time>
      </trkpt>
      <trkpt lat="47.28539" lon="-2.35571">
        <ele>44.599998474121</ele>
        <time>2021-11-18T08:57:15.000Z</time>
      </trkpt>
      <trkpt lat="47.28541" lon="-2.35566">
        <ele>44.200000762939</ele>
        <time>2021-11-18T08:57:16.000Z</time>
      </trkpt>
      <trkpt lat="47.28543" lon="-2.35561">
        <ele>43.599998474121</ele>
        <time>2021-11-18T08:57:17.000Z</time>
      </trkpt>
      <trkpt lat="47.28543" lon="-2.35556">
        <ele>43.200000762939</ele>
        <time>2021-11-18T08:57:18.000Z</time>
      </trkpt>
      <trkpt lat="47.28542" lon="-2.35551">
        <ele>42.799999237061</ele>
        <time>2021-11-18T08:57:19.000Z</time>
      </trkpt>
      <trkpt lat="47.28542" lon="-2.35546">
        <ele>42.400001525879</ele>
        <time>2021-11-18T08:57:20.000Z</time>
      </trkpt>
      <trkpt lat="47.28541" lon="-2.3554">
        <ele>41.799999237061</ele>
        <time>2021-11-18T08:57:21.000Z</time>
      </trkpt>
      <trkpt lat="47.28541" lon="-2.35534">
        <ele>41.400001525879</ele>
        <time>2021-11-18T08:57:22.000Z</time>
      </trkpt>
      <trkpt lat="47.28542" lon="-2.35528">
        <ele>41</ele>
        <time>2021-11-18T08:57:23.000Z</time>
      </trkpt>
      <trkpt lat="47.28543" lon="-2.35522">
        <ele>40.599998474121</ele>
        <time>2021-11-18T08:57:24.000Z</time>
      </trkpt>
      <trkpt lat="47.28544" lon="-2.35515">
        <ele>40.200000762939</ele>
        <time>2021-11-18T08:57:25.000Z</time>
      </trkpt>
      <trkpt lat="47.28546" lon="-2.35509">
        <ele>39.599998474121</ele>
        <time>2021-11-18T08:57:26.000Z</time>
      </trkpt>
      <trkpt lat="47.28547" lon="-2.35504">
        <ele>38.400001525879</ele>
        <time>2021-11-18T08:57:27.000Z</time>
      </trkpt>
      <trkpt lat="47.2855" lon="-2.35502">
        <ele>37.799999237061</ele>
        <time>2021-11-18T08:57:28.000Z</time>
      </trkpt>
      <trkpt lat="47.28553" lon="-2.35501">
        <ele>37.200000762939</ele>
        <time>2021-11-18T08:57:29.000Z</time>
      </trkpt>
      <trkpt lat="47.28564" lon="-2.355">
        <ele>37.200000762939</ele>
        <time>2021-11-18T08:57:32.000Z</time>
      </trkpt>
      <trkpt lat="47.28574" lon="-2.35497">
        <ele>37.200000762939</ele>
        <time>2021-11-18T08:57:36.000Z</time>
      </trkpt>
      <trkpt lat="47.28576" lon="-2.35499">
        <ele>37.200000762939</ele>
        <time>2021-11-18T08:57:38.000Z</time>
      </trkpt>
      <trkpt lat="47.28577" lon="-2.35504">
        <ele>37.200000762939</ele>
        <time>2021-11-18T08:57:40.000Z</time>
      </trkpt>
      <trkpt lat="47.2858" lon="-2.35519">
        <ele>37.200000762939</ele>
        <time>2021-11-18T08:57:45.000Z</time>
      </trkpt>
      <trkpt lat="47.28589" lon="-2.35548">
        <ele>37.200000762939</ele>
        <time>2021-11-18T08:57:52.000Z</time>
      </trkpt>
      <trkpt lat="47.28593" lon="-2.35597">
        <ele>37.200000762939</ele>
        <time>2021-11-18T08:58:00.000Z</time>
      </trkpt>
      <trkpt lat="47.28593" lon="-2.35615">
        <ele>37.200000762939</ele>
        <time>2021-11-18T08:58:03.000Z</time>
      </trkpt>
      <trkpt lat="47.28596" lon="-2.35638">
        <ele>37.200000762939</ele>
        <time>2021-11-18T08:58:07.000Z</time>
      </trkpt>
      <trkpt lat="47.28604" lon="-2.35686">
        <ele>37.200000762939</ele>
        <time>2021-11-18T08:58:16.000Z</time>
      </trkpt>
      <trkpt lat="47.28608" lon="-2.35722">
        <ele>37.200000762939</ele>
        <time>2021-11-18T08:58:23.000Z</time>
      </trkpt>
      <trkpt lat="47.28617" lon="-2.35736">
        <ele>37.200000762939</ele>
        <time>2021-11-18T08:58:27.000Z</time>
      </trkpt>
      <trkpt lat="47.2863" lon="-2.35756">
        <ele>37.200000762939</ele>
        <time>2021-11-18T08:58:32.000Z</time>
      </trkpt>
      <trkpt lat="47.28637" lon="-2.35784">
        <ele>37.200000762939</ele>
        <time>2021-11-18T08:58:38.000Z</time>
      </trkpt>
      <trkpt lat="47.28642" lon="-2.35806">
        <ele>37.200000762939</ele>
        <time>2021-11-18T08:58:44.000Z</time>
      </trkpt>
      <trkpt lat="47.28642" lon="-2.35829">
        <ele>37.200000762939</ele>
        <time>2021-11-18T08:58:51.000Z</time>
      </trkpt>
      <trkpt lat="47.28645" lon="-2.3584">
        <ele>37.799999237061</ele>
        <time>2021-11-18T08:58:53.000Z</time>
      </trkpt>
      <trkpt lat="47.28646" lon="-2.35845">
        <ele>38.200000762939</ele>
        <time>2021-11-18T08:58:54.000Z</time>
      </trkpt>
      <trkpt lat="47.28648" lon="-2.3585">
        <ele>38.599998474121</ele>
        <time>2021-11-18T08:58:55.000Z</time>
      </trkpt>
      <trkpt lat="47.28651" lon="-2.35855">
        <ele>39</ele>
        <time>2021-11-18T08:58:56.000Z</time>
      </trkpt>
      <trkpt lat="47.28653" lon="-2.35859">
        <ele>39.400001525879</ele>
        <time>2021-11-18T08:58:57.000Z</time>
      </trkpt>
      <trkpt lat="47.28662" lon="-2.35881">
        <ele>39.400001525879</ele>
        <time>2021-11-18T08:59:02.000Z</time>
      </trkpt>
      <trkpt lat="47.28672" lon="-2.35912">
        <ele>39.400001525879</ele>
        <time>2021-11-18T08:59:09.000Z</time>
      </trkpt>
      <trkpt lat="47.28676" lon="-2.35917">
        <ele>39.400001525879</ele>
        <time>2021-11-18T08:59:11.000Z</time>
      </trkpt>
      <trkpt lat="47.28678" lon="-2.35917">
        <ele>39.400001525879</ele>
        <time>2021-11-18T08:59:12.000Z</time>
      </trkpt>
      <trkpt lat="47.28689" lon="-2.35903">
        <ele>39.400001525879</ele>
        <time>2021-11-18T08:59:16.000Z</time>
      </trkpt>
      <trkpt lat="47.28702" lon="-2.35887">
        <ele>39.799999237061</ele>
        <time>2021-11-18T08:59:20.000Z</time>
      </trkpt>
      <trkpt lat="47.28705" lon="-2.35883">
        <ele>40.200000762939</ele>
        <time>2021-11-18T08:59:21.000Z</time>
      </trkpt>
      <trkpt lat="47.28707" lon="-2.35879">
        <ele>40.599998474121</ele>
        <time>2021-11-18T08:59:22.000Z</time>
      </trkpt>
      <trkpt lat="47.2871" lon="-2.35875">
        <ele>41</ele>
        <time>2021-11-18T08:59:23.000Z</time>
      </trkpt>
      <trkpt lat="47.28712" lon="-2.35871">
        <ele>41.400001525879</ele>
        <time>2021-11-18T08:59:24.000Z</time>
      </trkpt>
      <trkpt lat="47.28715" lon="-2.35866">
        <ele>41.400001525879</ele>
        <time>2021-11-18T08:59:25.000Z</time>
      </trkpt>
      <trkpt lat="47.28735" lon="-2.35828">
        <ele>41.400001525879</ele>
        <time>2021-11-18T08:59:33.000Z</time>
      </trkpt>
      <trkpt lat="47.28757" lon="-2.35786">
        <ele>41.400001525879</ele>
        <time>2021-11-18T08:59:41.000Z</time>
      </trkpt>
      <trkpt lat="47.28783" lon="-2.35735">
        <ele>41.400001525879</ele>
        <time>2021-11-18T08:59:50.000Z</time>
      </trkpt>
      <trkpt lat="47.28811" lon="-2.35681">
        <ele>41.400001525879</ele>
        <time>2021-11-18T08:59:59.000Z</time>
      </trkpt>
      <trkpt lat="47.28814" lon="-2.35676">
        <ele>41.400001525879</ele>
        <time>2021-11-18T09:00:00.000Z</time>
      </trkpt>
      <trkpt lat="47.28822" lon="-2.35665">
        <ele>41.400001525879</ele>
        <time>2021-11-18T09:00:02.000Z</time>
      </trkpt>
      <trkpt lat="47.28831" lon="-2.35655">
        <ele>41.400001525879</ele>
        <time>2021-11-18T09:00:04.000Z</time>
      </trkpt>
      <trkpt lat="47.28868" lon="-2.35614">
        <ele>41.400001525879</ele>
        <time>2021-11-18T09:00:13.000Z</time>
      </trkpt>
      <trkpt lat="47.28903" lon="-2.35575">
        <ele>41.400001525879</ele>
        <time>2021-11-18T09:00:22.000Z</time>
      </trkpt>
      <trkpt lat="47.28919" lon="-2.35557">
        <ele>41.400001525879</ele>
        <time>2021-11-18T09:00:28.000Z</time>
      </trkpt>
      <trkpt lat="47.28925" lon="-2.35556">
        <ele>41.400001525879</ele>
        <time>2021-11-18T09:00:30.000Z</time>
      </trkpt>
      <trkpt lat="47.28928" lon="-2.35559">
        <ele>41.400001525879</ele>
        <time>2021-11-18T09:00:31.000Z</time>
      </trkpt>
      <trkpt lat="47.28938" lon="-2.35585">
        <ele>41.400001525879</ele>
        <time>2021-11-18T09:00:36.000Z</time>
      </trkpt>
      <trkpt lat="47.28948" lon="-2.35608">
        <ele>41.799999237061</ele>
        <time>2021-11-18T09:00:40.000Z</time>
      </trkpt>
      <trkpt lat="47.2895" lon="-2.35614">
        <ele>42.200000762939</ele>
        <time>2021-11-18T09:00:41.000Z</time>
      </trkpt>
      <trkpt lat="47.28952" lon="-2.3562">
        <ele>42.799999237061</ele>
        <time>2021-11-18T09:00:42.000Z</time>
      </trkpt>
      <trkpt lat="47.28954" lon="-2.35626">
        <ele>43.200000762939</ele>
        <time>2021-11-18T09:00:43.000Z</time>
      </trkpt>
      <trkpt lat="47.28957" lon="-2.35631">
        <ele>43.599998474121</ele>
        <time>2021-11-18T09:00:44.000Z</time>
      </trkpt>
      <trkpt lat="47.28976" lon="-2.35674">
        <ele>43.599998474121</ele>
        <time>2021-11-18T09:00:52.000Z</time>
      </trkpt>
      <trkpt lat="47.28989" lon="-2.35693">
        <ele>43.599998474121</ele>
        <time>2021-11-18T09:00:56.000Z</time>
      </trkpt>
      <trkpt lat="47.28996" lon="-2.357">
        <ele>43.599998474121</ele>
        <time>2021-11-18T09:00:58.000Z</time>
      </trkpt>
      <trkpt lat="47.29015" lon="-2.35703">
        <ele>43.599998474121</ele>
        <time>2021-11-18T09:01:02.000Z</time>
      </trkpt>
      <trkpt lat="47.29034" lon="-2.35692">
        <ele>43.599998474121</ele>
        <time>2021-11-18T09:01:06.000Z</time>
      </trkpt>
      <trkpt lat="47.29042" lon="-2.35682">
        <ele>43.599998474121</ele>
        <time>2021-11-18T09:01:08.000Z</time>
      </trkpt>
      <trkpt lat="47.29063" lon="-2.35659">
        <ele>43.599998474121</ele>
        <time>2021-11-18T09:01:13.000Z</time>
      </trkpt>
      <trkpt lat="47.2908" lon="-2.35643">
        <ele>43.599998474121</ele>
        <time>2021-11-18T09:01:18.000Z</time>
      </trkpt>
      <trkpt lat="47.29083" lon="-2.35637">
        <ele>43.599998474121</ele>
        <time>2021-11-18T09:01:20.000Z</time>
      </trkpt>
      <trkpt lat="47.29082" lon="-2.35633">
        <ele>43.599998474121</ele>
        <time>2021-11-18T09:01:21.000Z</time>
      </trkpt>
      <trkpt lat="47.29072" lon="-2.35612">
        <ele>43.599998474121</ele>
        <time>2021-11-18T09:01:25.000Z</time>
      </trkpt>
      <trkpt lat="47.2905" lon="-2.35561">
        <ele>43.599998474121</ele>
        <time>2021-11-18T09:01:33.000Z</time>
      </trkpt>
      <trkpt lat="47.2904" lon="-2.35529">
        <ele>43.599998474121</ele>
        <time>2021-11-18T09:01:38.000Z</time>
      </trkpt>
      <trkpt lat="47.29041" lon="-2.35514">
        <ele>43.599998474121</ele>
        <time>2021-11-18T09:01:40.000Z</time>
      </trkpt>
      <trkpt lat="47.2905" lon="-2.35498">
        <ele>43.599998474121</ele>
        <time>2021-11-18T09:01:43.000Z</time>
      </trkpt>
      <trkpt lat="47.29075" lon="-2.3546">
        <ele>43.599998474121</ele>
        <time>2021-11-18T09:01:51.000Z</time>
      </trkpt>
      <trkpt lat="47.29085" lon="-2.35446">
        <ele>43.599998474121</ele>
        <time>2021-11-18T09:01:56.000Z</time>
      </trkpt>
      <trkpt lat="47.29087" lon="-2.35445">
        <ele>43.599998474121</ele>
        <time>2021-11-18T09:01:57.000Z</time>
      </trkpt>
      <trkpt lat="47.2909" lon="-2.3545">
        <ele>43.599998474121</ele>
        <time>2021-11-18T09:01:59.000Z</time>
      </trkpt>
      <trkpt lat="47.29093" lon="-2.35463">
        <ele>43.599998474121</ele>
        <time>2021-11-18T09:02:03.000Z</time>
      </trkpt>
      <trkpt lat="47.29094" lon="-2.35466">
        <ele>43.599998474121</ele>
        <time>2021-11-18T09:02:04.000Z</time>
      </trkpt>
      <trkpt lat="47.29096" lon="-2.3547">
        <ele>43.599998474121</ele>
        <time>2021-11-18T09:02:06.000Z</time>
      </trkpt>
      <trkpt lat="47.29101" lon="-2.35471">
        <ele>43.599998474121</ele>
        <time>2021-11-18T09:02:09.000Z</time>
      </trkpt>
      <trkpt lat="47.29103" lon="-2.35466">
        <ele>43.599998474121</ele>
        <time>2021-11-18T09:02:13.000Z</time>
      </trkpt>
      <trkpt lat="47.29104" lon="-2.35465">
        <ele>43.599998474121</ele>
        <time>2021-11-18T09:02:14.000Z</time>
      </trkpt>
      <trkpt lat="47.29104" lon="-2.35465">
        <ele>43.599998474121</ele>
        <time>2021-11-18T09:02:20.000Z</time>
      </trkpt>
      <trkpt lat="47.29105" lon="-2.35463">
        <ele>43.599998474121</ele>
        <time>2021-11-18T09:02:21.000Z</time>
      </trkpt>
      <trkpt lat="47.29109" lon="-2.35464">
        <ele>43.599998474121</ele>
        <time>2021-11-18T09:02:23.000Z</time>
      </trkpt>
      <trkpt lat="47.29124" lon="-2.35464">
        <ele>43.599998474121</ele>
        <time>2021-11-18T09:02:29.000Z</time>
      </trkpt>
      <trkpt lat="47.29134" lon="-2.35458">
        <ele>43.599998474121</ele>
        <time>2021-11-18T09:02:32.000Z</time>
      </trkpt>
      <trkpt lat="47.29141" lon="-2.35455">
        <ele>43.599998474121</ele>
        <time>2021-11-18T09:02:34.000Z</time>
      </trkpt>
      <trkpt lat="47.29172" lon="-2.35444">
        <ele>43.599998474121</ele>
        <time>2021-11-18T09:02:42.000Z</time>
      </trkpt>
      <trkpt lat="47.29208" lon="-2.35432">
        <ele>43.599998474121</ele>
        <time>2021-11-18T09:02:51.000Z</time>
      </trkpt>
      <trkpt lat="47.29216" lon="-2.35428">
        <ele>44</ele>
        <time>2021-11-18T09:02:53.000Z</time>
      </trkpt>
      <trkpt lat="47.29221" lon="-2.35427">
        <ele>44.400001525879</ele>
        <time>2021-11-18T09:02:54.000Z</time>
      </trkpt>
      <trkpt lat="47.29225" lon="-2.35425">
        <ele>44.799999237061</ele>
        <time>2021-11-18T09:02:55.000Z</time>
      </trkpt>
      <trkpt lat="47.29229" lon="-2.35423">
        <ele>45.200000762939</ele>
        <time>2021-11-18T09:02:56.000Z</time>
      </trkpt>
      <trkpt lat="47.29233" lon="-2.35421">
        <ele>45.599998474121</ele>
        <time>2021-11-18T09:02:57.000Z</time>
      </trkpt>
      <trkpt lat="47.29237" lon="-2.35419">
        <ele>45.599998474121</ele>
        <time>2021-11-18T09:02:58.000Z</time>
      </trkpt>
      <trkpt lat="47.29268" lon="-2.35403">
        <ele>45.599998474121</ele>
        <time>2021-11-18T09:03:05.000Z</time>
      </trkpt>
      <trkpt lat="47.29285" lon="-2.3539">
        <ele>45.599998474121</ele>
        <time>2021-11-18T09:03:09.000Z</time>
      </trkpt>
      <trkpt lat="47.29297" lon="-2.35378">
        <ele>45.599998474121</ele>
        <time>2021-11-18T09:03:12.000Z</time>
      </trkpt>
      <trkpt lat="47.29335" lon="-2.35341">
        <ele>45.599998474121</ele>
        <time>2021-11-18T09:03:20.000Z</time>
      </trkpt>
      <trkpt lat="47.29339" lon="-2.35336">
        <ele>45.599998474121</ele>
        <time>2021-11-18T09:03:21.000Z</time>
      </trkpt>
      <trkpt lat="47.29353" lon="-2.3532">
        <ele>45.599998474121</ele>
        <time>2021-11-18T09:03:24.000Z</time>
      </trkpt>
      <trkpt lat="47.29359" lon="-2.35315">
        <ele>45.200000762939</ele>
        <time>2021-11-18T09:03:25.000Z</time>
      </trkpt>
      <trkpt lat="47.29363" lon="-2.35309">
        <ele>44.799999237061</ele>
        <time>2021-11-18T09:03:26.000Z</time>
      </trkpt>
      <trkpt lat="47.29368" lon="-2.35303">
        <ele>44.400001525879</ele>
        <time>2021-11-18T09:03:27.000Z</time>
      </trkpt>
      <trkpt lat="47.29373" lon="-2.35298">
        <ele>44</ele>
        <time>2021-11-18T09:03:28.000Z</time>
      </trkpt>
      <trkpt lat="47.29377" lon="-2.35292">
        <ele>43.599998474121</ele>
        <time>2021-11-18T09:03:29.000Z</time>
      </trkpt>
      <trkpt lat="47.2939" lon="-2.35276">
        <ele>43.599998474121</ele>
        <time>2021-11-18T09:03:32.000Z</time>
      </trkpt>
      <trkpt lat="47.29412" lon="-2.35241">
        <ele>43.599998474121</ele>
        <time>2021-11-18T09:03:38.000Z</time>
      </trkpt>
      <trkpt lat="47.29437" lon="-2.35198">
        <ele>43.599998474121</ele>
        <time>2021-11-18T09:03:44.000Z</time>
      </trkpt>
      <trkpt lat="47.29454" lon="-2.35157">
        <ele>43.200000762939</ele>
        <time>2021-11-18T09:03:49.000Z</time>
      </trkpt>
      <trkpt lat="47.29457" lon="-2.35149">
        <ele>42.799999237061</ele>
        <time>2021-11-18T09:03:50.000Z</time>
      </trkpt>
      <trkpt lat="47.2946" lon="-2.35142">
        <ele>42.400001525879</ele>
        <time>2021-11-18T09:03:51.000Z</time>
      </trkpt>
      <trkpt lat="47.29462" lon="-2.35134">
        <ele>42</ele>
        <time>2021-11-18T09:03:52.000Z</time>
      </trkpt>
      <trkpt lat="47.29464" lon="-2.35127">
        <ele>41.599998474121</ele>
        <time>2021-11-18T09:03:53.000Z</time>
      </trkpt>
      <trkpt lat="47.29471" lon="-2.35104">
        <ele>41.599998474121</ele>
        <time>2021-11-18T09:03:56.000Z</time>
      </trkpt>
      <trkpt lat="47.29485" lon="-2.35051">
        <ele>41.599998474121</ele>
        <time>2021-11-18T09:04:03.000Z</time>
      </trkpt>
      <trkpt lat="47.29499" lon="-2.35009">
        <ele>41.200000762939</ele>
        <time>2021-11-18T09:04:08.000Z</time>
      </trkpt>
      <trkpt lat="47.29502" lon="-2.34999">
        <ele>40.599998474121</ele>
        <time>2021-11-18T09:04:09.000Z</time>
      </trkpt>
      <trkpt lat="47.29507" lon="-2.34989">
        <ele>40.200000762939</ele>
        <time>2021-11-18T09:04:10.000Z</time>
      </trkpt>
      <trkpt lat="47.29512" lon="-2.34979">
        <ele>39.799999237061</ele>
        <time>2021-11-18T09:04:11.000Z</time>
      </trkpt>
      <trkpt lat="47.29517" lon="-2.34971">
        <ele>39.400001525879</ele>
        <time>2021-11-18T09:04:12.000Z</time>
      </trkpt>
      <trkpt lat="47.29522" lon="-2.34962">
        <ele>39.400001525879</ele>
        <time>2021-11-18T09:04:13.000Z</time>
      </trkpt>
      <trkpt lat="47.29537" lon="-2.34937">
        <ele>39.400001525879</ele>
        <time>2021-11-18T09:04:16.000Z</time>
      </trkpt>
      <trkpt lat="47.29555" lon="-2.34914">
        <ele>39.400001525879</ele>
        <time>2021-11-18T09:04:19.000Z</time>
      </trkpt>
      <trkpt lat="47.29583" lon="-2.3488">
        <ele>39.400001525879</ele>
        <time>2021-11-18T09:04:25.000Z</time>
      </trkpt>
      <trkpt lat="47.29614" lon="-2.34838">
        <ele>39.400001525879</ele>
        <time>2021-11-18T09:04:32.000Z</time>
      </trkpt>
      <trkpt lat="47.29631" lon="-2.34837">
        <ele>39.400001525879</ele>
        <time>2021-11-18T09:04:35.000Z</time>
      </trkpt>
      <trkpt lat="47.29648" lon="-2.3485">
        <ele>39.400001525879</ele>
        <time>2021-11-18T09:04:38.000Z</time>
      </trkpt>
      <trkpt lat="47.29654" lon="-2.34856">
        <ele>39.400001525879</ele>
        <time>2021-11-18T09:04:39.000Z</time>
      </trkpt>
      <trkpt lat="47.29684" lon="-2.34888">
        <ele>39.400001525879</ele>
        <time>2021-11-18T09:04:45.000Z</time>
      </trkpt>
      <trkpt lat="47.29694" lon="-2.34893">
        <ele>39.400001525879</ele>
        <time>2021-11-18T09:04:47.000Z</time>
      </trkpt>
      <trkpt lat="47.29699" lon="-2.34894">
        <ele>39.400001525879</ele>
        <time>2021-11-18T09:04:48.000Z</time>
      </trkpt>
      <trkpt lat="47.29715" lon="-2.34887">
        <ele>39.400001525879</ele>
        <time>2021-11-18T09:04:51.000Z</time>
      </trkpt>
      <trkpt lat="47.29727" lon="-2.34881">
        <ele>39.400001525879</ele>
        <time>2021-11-18T09:04:53.000Z</time>
      </trkpt>
      <trkpt lat="47.29739" lon="-2.34876">
        <ele>39.400001525879</ele>
        <time>2021-11-18T09:04:55.000Z</time>
      </trkpt>
      <trkpt lat="47.2975" lon="-2.34872">
        <ele>39.400001525879</ele>
        <time>2021-11-18T09:04:57.000Z</time>
      </trkpt>
      <trkpt lat="47.29781" lon="-2.34863">
        <ele>39.400001525879</ele>
        <time>2021-11-18T09:05:03.000Z</time>
      </trkpt>
      <trkpt lat="47.2982" lon="-2.34852">
        <ele>39.400001525879</ele>
        <time>2021-11-18T09:05:10.000Z</time>
      </trkpt>
      <trkpt lat="47.29859" lon="-2.34843">
        <ele>39.400001525879</ele>
        <time>2021-11-18T09:05:17.000Z</time>
      </trkpt>
      <trkpt lat="47.29865" lon="-2.34842">
        <ele>39.400001525879</ele>
        <time>2021-11-18T09:05:18.000Z</time>
      </trkpt>
      <trkpt lat="47.29898" lon="-2.34835">
        <ele>39.400001525879</ele>
        <time>2021-11-18T09:05:24.000Z</time>
      </trkpt>
      <trkpt lat="47.29913" lon="-2.34832">
        <ele>39.799999237061</ele>
        <time>2021-11-18T09:05:27.000Z</time>
      </trkpt>
      <trkpt lat="47.29917" lon="-2.34831">
        <ele>40.200000762939</ele>
        <time>2021-11-18T09:05:28.000Z</time>
      </trkpt>
      <trkpt lat="47.29922" lon="-2.3483">
        <ele>40.599998474121</ele>
        <time>2021-11-18T09:05:29.000Z</time>
      </trkpt>
      <trkpt lat="47.29927" lon="-2.34829">
        <ele>41.200000762939</ele>
        <time>2021-11-18T09:05:30.000Z</time>
      </trkpt>
      <trkpt lat="47.29932" lon="-2.34828">
        <ele>41.599998474121</ele>
        <time>2021-11-18T09:05:31.000Z</time>
      </trkpt>
      <trkpt lat="47.29961" lon="-2.34823">
        <ele>41.599998474121</ele>
        <time>2021-11-18T09:05:38.000Z</time>
      </trkpt>
      <trkpt lat="47.29981" lon="-2.34824">
        <ele>41.599998474121</ele>
        <time>2021-11-18T09:05:44.000Z</time>
      </trkpt>
      <trkpt lat="47.29983" lon="-2.34828">
        <ele>41.599998474121</ele>
        <time>2021-11-18T09:05:45.000Z</time>
      </trkpt>
      <trkpt lat="47.29986" lon="-2.34837">
        <ele>41.599998474121</ele>
        <time>2021-11-18T09:05:47.000Z</time>
      </trkpt>
      <trkpt lat="47.29989" lon="-2.34854">
        <ele>41.599998474121</ele>
        <time>2021-11-18T09:05:50.000Z</time>
      </trkpt>
      <trkpt lat="47.2999" lon="-2.34861">
        <ele>42</ele>
        <time>2021-11-18T09:05:51.000Z</time>
      </trkpt>
      <trkpt lat="47.2999" lon="-2.34867">
        <ele>42.400001525879</ele>
        <time>2021-11-18T09:05:52.000Z</time>
      </trkpt>
      <trkpt lat="47.29991" lon="-2.34873">
        <ele>42.799999237061</ele>
        <time>2021-11-18T09:05:53.000Z</time>
      </trkpt>
      <trkpt lat="47.29992" lon="-2.34879">
        <ele>43.200000762939</ele>
        <time>2021-11-18T09:05:54.000Z</time>
      </trkpt>
      <trkpt lat="47.29992" lon="-2.34885">
        <ele>43.599998474121</ele>
        <time>2021-11-18T09:05:55.000Z</time>
      </trkpt>
      <trkpt lat="47.29995" lon="-2.3491">
        <ele>43.599998474121</ele>
        <time>2021-11-18T09:05:59.000Z</time>
      </trkpt>
      <trkpt lat="47.29995" lon="-2.34916">
        <ele>43.599998474121</ele>
        <time>2021-11-18T09:06:00.000Z</time>
      </trkpt>
      <trkpt lat="47.29994" lon="-2.34972">
        <ele>43.599998474121</ele>
        <time>2021-11-18T09:06:08.000Z</time>
      </trkpt>
      <trkpt lat="47.2999" lon="-2.35035">
        <ele>43.599998474121</ele>
        <time>2021-11-18T09:06:16.000Z</time>
      </trkpt>
      <trkpt lat="47.29986" lon="-2.35095">
        <ele>43.599998474121</ele>
        <time>2021-11-18T09:06:23.000Z</time>
      </trkpt>
      <trkpt lat="47.29983" lon="-2.35169">
        <ele>43.599998474121</ele>
        <time>2021-11-18T09:06:31.000Z</time>
      </trkpt>
      <trkpt lat="47.29987" lon="-2.35196">
        <ele>43.599998474121</ele>
        <time>2021-11-18T09:06:34.000Z</time>
      </trkpt>
      <trkpt lat="47.29992" lon="-2.35213">
        <ele>43.599998474121</ele>
        <time>2021-11-18T09:06:36.000Z</time>
      </trkpt>
      <trkpt lat="47.30003" lon="-2.35247">
        <ele>43.599998474121</ele>
        <time>2021-11-18T09:06:41.000Z</time>
      </trkpt>
      <trkpt lat="47.30008" lon="-2.35256">
        <ele>43.599998474121</ele>
        <time>2021-11-18T09:06:44.000Z</time>
      </trkpt>
      <trkpt lat="47.30011" lon="-2.35257">
        <ele>43.599998474121</ele>
        <time>2021-11-18T09:06:45.000Z</time>
      </trkpt>
      <trkpt lat="47.30016" lon="-2.35254">
        <ele>43.599998474121</ele>
        <time>2021-11-18T09:06:49.000Z</time>
      </trkpt>
      <trkpt lat="47.30017" lon="-2.35253">
        <ele>43.599998474121</ele>
        <time>2021-11-18T09:06:50.000Z</time>
      </trkpt>
      <trkpt lat="47.30024" lon="-2.35247">
        <ele>43.599998474121</ele>
        <time>2021-11-18T09:06:56.000Z</time>
      </trkpt>
      <trkpt lat="47.30026" lon="-2.35247">
        <ele>43.599998474121</ele>
        <time>2021-11-18T09:06:58.000Z</time>
      </trkpt>
      <trkpt lat="47.30032" lon="-2.35242">
        <ele>43.599998474121</ele>
        <time>2021-11-18T09:07:01.000Z</time>
      </trkpt>
      <trkpt lat="47.30047" lon="-2.35233">
        <ele>43.599998474121</ele>
        <time>2021-11-18T09:07:06.000Z</time>
      </trkpt>
      <trkpt lat="47.30056" lon="-2.35227">
        <ele>43.599998474121</ele>
        <time>2021-11-18T09:07:11.000Z</time>
      </trkpt>
      <trkpt lat="47.30059" lon="-2.35225">
        <ele>43.599998474121</ele>
        <time>2021-11-18T09:07:13.000Z</time>
      </trkpt>
      <trkpt lat="47.30066" lon="-2.35224">
        <ele>43.599998474121</ele>
        <time>2021-11-18T09:07:16.000Z</time>
      </trkpt>
      <trkpt lat="47.30078" lon="-2.35217">
        <ele>43.599998474121</ele>
        <time>2021-11-18T09:07:20.000Z</time>
      </trkpt>
      <trkpt lat="47.30083" lon="-2.35215">
        <ele>43.599998474121</ele>
        <time>2021-11-18T09:07:21.000Z</time>
      </trkpt>
      <trkpt lat="47.30087" lon="-2.35213">
        <ele>43.599998474121</ele>
        <time>2021-11-18T09:07:22.000Z</time>
      </trkpt>
      <trkpt lat="47.30096" lon="-2.3521">
        <ele>43.599998474121</ele>
        <time>2021-11-18T09:07:24.000Z</time>
      </trkpt>
      <trkpt lat="47.30101" lon="-2.35208">
        <ele>43.599998474121</ele>
        <time>2021-11-18T09:07:25.000Z</time>
      </trkpt>
      <trkpt lat="47.30127" lon="-2.35196">
        <ele>43.599998474121</ele>
        <time>2021-11-18T09:07:30.000Z</time>
      </trkpt>
      <trkpt lat="47.30143" lon="-2.35194">
        <ele>43.599998474121</ele>
        <time>2021-11-18T09:07:34.000Z</time>
      </trkpt>
      <trkpt lat="47.30155" lon="-2.35189">
        <ele>43.599998474121</ele>
        <time>2021-11-18T09:07:39.000Z</time>
      </trkpt>
      <trkpt lat="47.30169" lon="-2.35178">
        <ele>43.599998474121</ele>
        <time>2021-11-18T09:07:43.000Z</time>
      </trkpt>
      <trkpt lat="47.30182" lon="-2.35175">
        <ele>43.599998474121</ele>
        <time>2021-11-18T09:07:46.000Z</time>
      </trkpt>
      <trkpt lat="47.30196" lon="-2.35168">
        <ele>43.599998474121</ele>
        <time>2021-11-18T09:07:49.000Z</time>
      </trkpt>
      <trkpt lat="47.30206" lon="-2.35146">
        <ele>43.599998474121</ele>
        <time>2021-11-18T09:07:53.000Z</time>
      </trkpt>
      <trkpt lat="47.30206" lon="-2.35119">
        <ele>43.599998474121</ele>
        <time>2021-11-18T09:07:57.000Z</time>
      </trkpt>
      <trkpt lat="47.30206" lon="-2.35112">
        <ele>43.599998474121</ele>
        <time>2021-11-18T09:07:58.000Z</time>
      </trkpt>
      <trkpt lat="47.30208" lon="-2.35098">
        <ele>43.599998474121</ele>
        <time>2021-11-18T09:08:00.000Z</time>
      </trkpt>
      <trkpt lat="47.30208" lon="-2.35063">
        <ele>43.599998474121</ele>
        <time>2021-11-18T09:08:05.000Z</time>
      </trkpt>
      <trkpt lat="47.30208" lon="-2.35056">
        <ele>44</ele>
        <time>2021-11-18T09:08:06.000Z</time>
      </trkpt>
      <trkpt lat="47.30208" lon="-2.35049">
        <ele>44.400001525879</ele>
        <time>2021-11-18T09:08:07.000Z</time>
      </trkpt>
      <trkpt lat="47.30208" lon="-2.35042">
        <ele>45.200000762939</ele>
        <time>2021-11-18T09:08:08.000Z</time>
      </trkpt>
      <trkpt lat="47.30208" lon="-2.35036">
        <ele>45.599998474121</ele>
        <time>2021-11-18T09:08:09.000Z</time>
      </trkpt>
      <trkpt lat="47.30209" lon="-2.35022">
        <ele>45.599998474121</ele>
        <time>2021-11-18T09:08:11.000Z</time>
      </trkpt>
      <trkpt lat="47.30208" lon="-2.35015">
        <ele>45.599998474121</ele>
        <time>2021-11-18T09:08:12.000Z</time>
      </trkpt>
      <trkpt lat="47.30207" lon="-2.34993">
        <ele>45.599998474121</ele>
        <time>2021-11-18T09:08:16.000Z</time>
      </trkpt>
      <trkpt lat="47.30207" lon="-2.34981">
        <ele>46</ele>
        <time>2021-11-18T09:08:18.000Z</time>
      </trkpt>
      <trkpt lat="47.30207" lon="-2.34975">
        <ele>46.400001525879</ele>
        <time>2021-11-18T09:08:19.000Z</time>
      </trkpt>
      <trkpt lat="47.30207" lon="-2.34969">
        <ele>46.799999237061</ele>
        <time>2021-11-18T09:08:20.000Z</time>
      </trkpt>
      <trkpt lat="47.30207" lon="-2.34963">
        <ele>47.200000762939</ele>
        <time>2021-11-18T09:08:21.000Z</time>
      </trkpt>
      <trkpt lat="47.30207" lon="-2.34958">
        <ele>47.599998474121</ele>
        <time>2021-11-18T09:08:22.000Z</time>
      </trkpt>
      <trkpt lat="47.30207" lon="-2.34924">
        <ele>47.599998474121</ele>
        <time>2021-11-18T09:08:28.000Z</time>
      </trkpt>
      <trkpt lat="47.30214" lon="-2.34899">
        <ele>47.599998474121</ele>
        <time>2021-11-18T09:08:33.000Z</time>
      </trkpt>
      <trkpt lat="47.30234" lon="-2.34882">
        <ele>47.599998474121</ele>
        <time>2021-11-18T09:08:38.000Z</time>
      </trkpt>
      <trkpt lat="47.30239" lon="-2.3488">
        <ele>47.599998474121</ele>
        <time>2021-11-18T09:08:39.000Z</time>
      </trkpt>
      <trkpt lat="47.30255" lon="-2.3487">
        <ele>47.599998474121</ele>
        <time>2021-11-18T09:08:43.000Z</time>
      </trkpt>
      <trkpt lat="47.30272" lon="-2.3486">
        <ele>48</ele>
        <time>2021-11-18T09:08:47.000Z</time>
      </trkpt>
      <trkpt lat="47.30276" lon="-2.34858">
        <ele>48.400001525879</ele>
        <time>2021-11-18T09:08:48.000Z</time>
      </trkpt>
      <trkpt lat="47.3028" lon="-2.34856">
        <ele>48.799999237061</ele>
        <time>2021-11-18T09:08:49.000Z</time>
      </trkpt>
      <trkpt lat="47.30284" lon="-2.34854">
        <ele>49.200000762939</ele>
        <time>2021-11-18T09:08:50.000Z</time>
      </trkpt>
      <trkpt lat="47.30288" lon="-2.34851">
        <ele>49.599998474121</ele>
        <time>2021-11-18T09:08:51.000Z</time>
      </trkpt>
      <trkpt lat="47.30299" lon="-2.3484">
        <ele>49.599998474121</ele>
        <time>2021-11-18T09:08:54.000Z</time>
      </trkpt>
      <trkpt lat="47.30318" lon="-2.34813">
        <ele>49.599998474121</ele>
        <time>2021-11-18T09:09:00.000Z</time>
      </trkpt>
      <trkpt lat="47.30334" lon="-2.34782">
        <ele>49.599998474121</ele>
        <time>2021-11-18T09:09:06.000Z</time>
      </trkpt>
      <trkpt lat="47.30342" lon="-2.34776">
        <ele>49.599998474121</ele>
        <time>2021-11-18T09:09:08.000Z</time>
      </trkpt>
      <trkpt lat="47.30354" lon="-2.34768">
        <ele>49.599998474121</ele>
        <time>2021-11-18T09:09:11.000Z</time>
      </trkpt>
      <trkpt lat="47.30363" lon="-2.34763">
        <ele>49.599998474121</ele>
        <time>2021-11-18T09:09:13.000Z</time>
      </trkpt>
      <trkpt lat="47.30381" lon="-2.3475">
        <ele>49.599998474121</ele>
        <time>2021-11-18T09:09:17.000Z</time>
      </trkpt>
      <trkpt lat="47.30411" lon="-2.34732">
        <ele>49.599998474121</ele>
        <time>2021-11-18T09:09:23.000Z</time>
      </trkpt>
      <trkpt lat="47.30425" lon="-2.3472">
        <ele>49.599998474121</ele>
        <time>2021-11-18T09:09:26.000Z</time>
      </trkpt>
      <trkpt lat="47.30439" lon="-2.34706">
        <ele>49.599998474121</ele>
        <time>2021-11-18T09:09:29.000Z</time>
      </trkpt>
      <trkpt lat="47.30444" lon="-2.34701">
        <ele>49.599998474121</ele>
        <time>2021-11-18T09:09:30.000Z</time>
      </trkpt>
      <trkpt lat="47.30468" lon="-2.34681">
        <ele>49.599998474121</ele>
        <time>2021-11-18T09:09:35.000Z</time>
      </trkpt>
      <trkpt lat="47.30493" lon="-2.34652">
        <ele>49.599998474121</ele>
        <time>2021-11-18T09:09:41.000Z</time>
      </trkpt>
      <trkpt lat="47.30508" lon="-2.34623">
        <ele>49.599998474121</ele>
        <time>2021-11-18T09:09:47.000Z</time>
      </trkpt>
      <trkpt lat="47.3052" lon="-2.34605">
        <ele>49.599998474121</ele>
        <time>2021-11-18T09:09:51.000Z</time>
      </trkpt>
      <trkpt lat="47.30545" lon="-2.34566">
        <ele>49.599998474121</ele>
        <time>2021-11-18T09:09:58.000Z</time>
      </trkpt>
      <trkpt lat="47.30552" lon="-2.34554">
        <ele>49.599998474121</ele>
        <time>2021-11-18T09:10:00.000Z</time>
      </trkpt>
      <trkpt lat="47.30561" lon="-2.34538">
        <ele>49.599998474121</ele>
        <time>2021-11-18T09:10:03.000Z</time>
      </trkpt>
      <trkpt lat="47.30577" lon="-2.34508">
        <ele>50</ele>
        <time>2021-11-18T09:10:08.000Z</time>
      </trkpt>
      <trkpt lat="47.3058" lon="-2.34503">
        <ele>50.400001525879</ele>
        <time>2021-11-18T09:10:09.000Z</time>
      </trkpt>
      <trkpt lat="47.30583" lon="-2.34497">
        <ele>50.799999237061</ele>
        <time>2021-11-18T09:10:10.000Z</time>
      </trkpt>
      <trkpt lat="47.30585" lon="-2.34492">
        <ele>51.200000762939</ele>
        <time>2021-11-18T09:10:11.000Z</time>
      </trkpt>
      <trkpt lat="47.30588" lon="-2.34486">
        <ele>51.599998474121</ele>
        <time>2021-11-18T09:10:12.000Z</time>
      </trkpt>
      <trkpt lat="47.30605" lon="-2.34452">
        <ele>51.599998474121</ele>
        <time>2021-11-18T09:10:18.000Z</time>
      </trkpt>
      <trkpt lat="47.30608" lon="-2.34447">
        <ele>51.599998474121</ele>
        <time>2021-11-18T09:10:19.000Z</time>
      </trkpt>
      <trkpt lat="47.30623" lon="-2.34429">
        <ele>51.599998474121</ele>
        <time>2021-11-18T09:10:23.000Z</time>
      </trkpt>
      <trkpt lat="47.30654" lon="-2.34388">
        <ele>51.599998474121</ele>
        <time>2021-11-18T09:10:31.000Z</time>
      </trkpt>
      <trkpt lat="47.3067" lon="-2.34366">
        <ele>51.599998474121</ele>
        <time>2021-11-18T09:10:35.000Z</time>
      </trkpt>
      <trkpt lat="47.30682" lon="-2.34346">
        <ele>51.599998474121</ele>
        <time>2021-11-18T09:10:38.000Z</time>
      </trkpt>
      <trkpt lat="47.30707" lon="-2.34304">
        <ele>51.599998474121</ele>
        <time>2021-11-18T09:10:45.000Z</time>
      </trkpt>
      <trkpt lat="47.30722" lon="-2.34269">
        <ele>51.599998474121</ele>
        <time>2021-11-18T09:10:50.000Z</time>
      </trkpt>
      <trkpt lat="47.30724" lon="-2.34261">
        <ele>51.599998474121</ele>
        <time>2021-11-18T09:10:51.000Z</time>
      </trkpt>
      <trkpt lat="47.30727" lon="-2.34234">
        <ele>51.599998474121</ele>
        <time>2021-11-18T09:10:55.000Z</time>
      </trkpt>
      <trkpt lat="47.30739" lon="-2.34225">
        <ele>51.599998474121</ele>
        <time>2021-11-18T09:10:58.000Z</time>
      </trkpt>
      <trkpt lat="47.30747" lon="-2.34224">
        <ele>51.599998474121</ele>
        <time>2021-11-18T09:11:00.000Z</time>
      </trkpt>
      <trkpt lat="47.3076" lon="-2.34221">
        <ele>51.599998474121</ele>
        <time>2021-11-18T09:11:03.000Z</time>
      </trkpt>
      <trkpt lat="47.30763" lon="-2.34218">
        <ele>51.599998474121</ele>
        <time>2021-11-18T09:11:04.000Z</time>
      </trkpt>
      <trkpt lat="47.30768" lon="-2.342">
        <ele>51.599998474121</ele>
        <time>2021-11-18T09:11:07.000Z</time>
      </trkpt>
      <trkpt lat="47.30768" lon="-2.34187">
        <ele>51.599998474121</ele>
        <time>2021-11-18T09:11:09.000Z</time>
      </trkpt>
      <trkpt lat="47.30768" lon="-2.34164">
        <ele>51.599998474121</ele>
        <time>2021-11-18T09:11:12.000Z</time>
      </trkpt>
      <trkpt lat="47.30772" lon="-2.34119">
        <ele>51.599998474121</ele>
        <time>2021-11-18T09:11:18.000Z</time>
      </trkpt>
      <trkpt lat="47.30774" lon="-2.34099">
        <ele>51.599998474121</ele>
        <time>2021-11-18T09:11:21.000Z</time>
      </trkpt>
      <trkpt lat="47.30774" lon="-2.34091">
        <ele>51.599998474121</ele>
        <time>2021-11-18T09:11:22.000Z</time>
      </trkpt>
      <trkpt lat="47.30776" lon="-2.34043">
        <ele>51.599998474121</ele>
        <time>2021-11-18T09:11:28.000Z</time>
      </trkpt>
      <trkpt lat="47.30778" lon="-2.33996">
        <ele>51.599998474121</ele>
        <time>2021-11-18T09:11:34.000Z</time>
      </trkpt>
      <trkpt lat="47.30784" lon="-2.33974">
        <ele>51.599998474121</ele>
        <time>2021-11-18T09:11:38.000Z</time>
      </trkpt>
      <trkpt lat="47.30788" lon="-2.33971">
        <ele>51.599998474121</ele>
        <time>2021-11-18T09:11:39.000Z</time>
      </trkpt>
      <trkpt lat="47.30798" lon="-2.33968">
        <ele>51.599998474121</ele>
        <time>2021-11-18T09:11:41.000Z</time>
      </trkpt>
      <trkpt lat="47.30832" lon="-2.33958">
        <ele>51.599998474121</ele>
        <time>2021-11-18T09:11:47.000Z</time>
      </trkpt>
      <trkpt lat="47.30875" lon="-2.33951">
        <ele>51.599998474121</ele>
        <time>2021-11-18T09:11:54.000Z</time>
      </trkpt>
      <trkpt lat="47.30906" lon="-2.33949">
        <ele>51.599998474121</ele>
        <time>2021-11-18T09:11:59.000Z</time>
      </trkpt>
      <trkpt lat="47.30955" lon="-2.33955">
        <ele>51.599998474121</ele>
        <time>2021-11-18T09:12:07.000Z</time>
      </trkpt>
      <trkpt lat="47.30986" lon="-2.33955">
        <ele>51.599998474121</ele>
        <time>2021-11-18T09:12:12.000Z</time>
      </trkpt>
      <trkpt lat="47.31016" lon="-2.33952">
        <ele>51.200000762939</ele>
        <time>2021-11-18T09:12:17.000Z</time>
      </trkpt>
      <trkpt lat="47.31021" lon="-2.33951">
        <ele>50.799999237061</ele>
        <time>2021-11-18T09:12:18.000Z</time>
      </trkpt>
      <trkpt lat="47.31026" lon="-2.3395">
        <ele>50.400001525879</ele>
        <time>2021-11-18T09:12:19.000Z</time>
      </trkpt>
      <trkpt lat="47.3103" lon="-2.3395">
        <ele>50</ele>
        <time>2021-11-18T09:12:20.000Z</time>
      </trkpt>
      <trkpt lat="47.31034" lon="-2.33949">
        <ele>49.599998474121</ele>
        <time>2021-11-18T09:12:21.000Z</time>
      </trkpt>
      <trkpt lat="47.31043" lon="-2.33946">
        <ele>49.599998474121</ele>
        <time>2021-11-18T09:12:24.000Z</time>
      </trkpt>
      <trkpt lat="47.31049" lon="-2.33945">
        <ele>49.599998474121</ele>
        <time>2021-11-18T09:12:28.000Z</time>
      </trkpt>
      <trkpt lat="47.31056" lon="-2.33943">
        <ele>49.599998474121</ele>
        <time>2021-11-18T09:13:00.000Z</time>
      </trkpt>
      <trkpt lat="47.31059" lon="-2.33946">
        <ele>49.599998474121</ele>
        <time>2021-11-18T09:13:02.000Z</time>
      </trkpt>
      <trkpt lat="47.31062" lon="-2.33953">
        <ele>49.599998474121</ele>
        <time>2021-11-18T09:13:04.000Z</time>
      </trkpt>
      <trkpt lat="47.31065" lon="-2.33982">
        <ele>49.599998474121</ele>
        <time>2021-11-18T09:13:09.000Z</time>
      </trkpt>
      <trkpt lat="47.31066" lon="-2.34032">
        <ele>49.599998474121</ele>
        <time>2021-11-18T09:13:16.000Z</time>
      </trkpt>
      <trkpt lat="47.31071" lon="-2.34065">
        <ele>49.200000762939</ele>
        <time>2021-11-18T09:13:20.000Z</time>
      </trkpt>
      <trkpt lat="47.31073" lon="-2.34073">
        <ele>48.799999237061</ele>
        <time>2021-11-18T09:13:21.000Z</time>
      </trkpt>
      <trkpt lat="47.31076" lon="-2.34082">
        <ele>48.400001525879</ele>
        <time>2021-11-18T09:13:22.000Z</time>
      </trkpt>
      <trkpt lat="47.31078" lon="-2.3409">
        <ele>48</ele>
        <time>2021-11-18T09:13:23.000Z</time>
      </trkpt>
      <trkpt lat="47.31081" lon="-2.34098">
        <ele>47.599998474121</ele>
        <time>2021-11-18T09:13:24.000Z</time>
      </trkpt>
      <trkpt lat="47.31092" lon="-2.34123">
        <ele>47.599998474121</ele>
        <time>2021-11-18T09:13:27.000Z</time>
      </trkpt>
      <trkpt lat="47.31096" lon="-2.34132">
        <ele>47.200000762939</ele>
        <time>2021-11-18T09:13:28.000Z</time>
      </trkpt>
      <trkpt lat="47.31101" lon="-2.3414">
        <ele>46.799999237061</ele>
        <time>2021-11-18T09:13:29.000Z</time>
      </trkpt>
      <trkpt lat="47.31106" lon="-2.3415">
        <ele>46.400001525879</ele>
        <time>2021-11-18T09:13:30.000Z</time>
      </trkpt>
      <trkpt lat="47.31111" lon="-2.34159">
        <ele>46</ele>
        <time>2021-11-18T09:13:31.000Z</time>
      </trkpt>
      <trkpt lat="47.31117" lon="-2.34168">
        <ele>45.400001525879</ele>
        <time>2021-11-18T09:13:32.000Z</time>
      </trkpt>
      <trkpt lat="47.31122" lon="-2.34178">
        <ele>45</ele>
        <time>2021-11-18T09:13:33.000Z</time>
      </trkpt>
      <trkpt lat="47.31127" lon="-2.34188">
        <ele>44.599998474121</ele>
        <time>2021-11-18T09:13:34.000Z</time>
      </trkpt>
      <trkpt lat="47.31133" lon="-2.34198">
        <ele>44.200000762939</ele>
        <time>2021-11-18T09:13:35.000Z</time>
      </trkpt>
      <trkpt lat="47.31139" lon="-2.34208">
        <ele>43.799999237061</ele>
        <time>2021-11-18T09:13:36.000Z</time>
      </trkpt>
      <trkpt lat="47.31144" lon="-2.34219">
        <ele>43.400001525879</ele>
        <time>2021-11-18T09:13:37.000Z</time>
      </trkpt>
      <trkpt lat="47.3115" lon="-2.3423">
        <ele>42.799999237061</ele>
        <time>2021-11-18T09:13:38.000Z</time>
      </trkpt>
      <trkpt lat="47.31155" lon="-2.34241">
        <ele>42.400001525879</ele>
        <time>2021-11-18T09:13:39.000Z</time>
      </trkpt>
      <trkpt lat="47.3116" lon="-2.34251">
        <ele>41.799999237061</ele>
        <time>2021-11-18T09:13:40.000Z</time>
      </trkpt>
      <trkpt lat="47.31165" lon="-2.34262">
        <ele>41.400001525879</ele>
        <time>2021-11-18T09:13:41.000Z</time>
      </trkpt>
      <trkpt lat="47.3117" lon="-2.34272">
        <ele>41</ele>
        <time>2021-11-18T09:13:42.000Z</time>
      </trkpt>
      <trkpt lat="47.31174" lon="-2.34282">
        <ele>40.400001525879</ele>
        <time>2021-11-18T09:13:43.000Z</time>
      </trkpt>
      <trkpt lat="47.31179" lon="-2.34292">
        <ele>40</ele>
        <time>2021-11-18T09:13:44.000Z</time>
      </trkpt>
      <trkpt lat="47.31183" lon="-2.34301">
        <ele>39.599998474121</ele>
        <time>2021-11-18T09:13:45.000Z</time>
      </trkpt>
      <trkpt lat="47.31187" lon="-2.3431">
        <ele>39.200000762939</ele>
        <time>2021-11-18T09:13:46.000Z</time>
      </trkpt>
      <trkpt lat="47.31205" lon="-2.3434">
        <ele>39.200000762939</ele>
        <time>2021-11-18T09:13:50.000Z</time>
      </trkpt>
      <trkpt lat="47.31211" lon="-2.34344">
        <ele>39.200000762939</ele>
        <time>2021-11-18T09:13:51.000Z</time>
      </trkpt>
      <trkpt lat="47.3124" lon="-2.34353">
        <ele>39.200000762939</ele>
        <time>2021-11-18T09:13:56.000Z</time>
      </trkpt>
      <trkpt lat="47.3125" lon="-2.34358">
        <ele>39.200000762939</ele>
        <time>2021-11-18T09:13:58.000Z</time>
      </trkpt>
      <trkpt lat="47.31263" lon="-2.34372">
        <ele>39.200000762939</ele>
        <time>2021-11-18T09:14:01.000Z</time>
      </trkpt>
      <trkpt lat="47.31269" lon="-2.34382">
        <ele>39.200000762939</ele>
        <time>2021-11-18T09:14:03.000Z</time>
      </trkpt>
      <trkpt lat="47.31274" lon="-2.34395">
        <ele>39.200000762939</ele>
        <time>2021-11-18T09:14:05.000Z</time>
      </trkpt>
      <trkpt lat="47.31275" lon="-2.34402">
        <ele>39.599998474121</ele>
        <time>2021-11-18T09:14:06.000Z</time>
      </trkpt>
      <trkpt lat="47.31276" lon="-2.34411">
        <ele>40</ele>
        <time>2021-11-18T09:14:07.000Z</time>
      </trkpt>
      <trkpt lat="47.31276" lon="-2.3442">
        <ele>40.400001525879</ele>
        <time>2021-11-18T09:14:08.000Z</time>
      </trkpt>
      <trkpt lat="47.31276" lon="-2.3443">
        <ele>40.799999237061</ele>
        <time>2021-11-18T09:14:09.000Z</time>
      </trkpt>
      <trkpt lat="47.31276" lon="-2.34441">
        <ele>41.400001525879</ele>
        <time>2021-11-18T09:14:10.000Z</time>
      </trkpt>
      <trkpt lat="47.31279" lon="-2.34488">
        <ele>41.799999237061</ele>
        <time>2021-11-18T09:14:15.000Z</time>
      </trkpt>
      <trkpt lat="47.3128" lon="-2.34496">
        <ele>42.200000762939</ele>
        <time>2021-11-18T09:14:16.000Z</time>
      </trkpt>
      <trkpt lat="47.31281" lon="-2.34505">
        <ele>43</ele>
        <time>2021-11-18T09:14:17.000Z</time>
      </trkpt>
      <trkpt lat="47.31281" lon="-2.34513">
        <ele>43.400001525879</ele>
        <time>2021-11-18T09:14:18.000Z</time>
      </trkpt>
      <trkpt lat="47.31285" lon="-2.34564">
        <ele>43.400001525879</ele>
        <time>2021-11-18T09:14:24.000Z</time>
      </trkpt>
      <trkpt lat="47.31286" lon="-2.34572">
        <ele>43.799999237061</ele>
        <time>2021-11-18T09:14:25.000Z</time>
      </trkpt>
      <trkpt lat="47.31287" lon="-2.3458">
        <ele>44.200000762939</ele>
        <time>2021-11-18T09:14:26.000Z</time>
      </trkpt>
      <trkpt lat="47.31287" lon="-2.34588">
        <ele>44.599998474121</ele>
        <time>2021-11-18T09:14:27.000Z</time>
      </trkpt>
      <trkpt lat="47.31288" lon="-2.34597">
        <ele>45</ele>
        <time>2021-11-18T09:14:28.000Z</time>
      </trkpt>
      <trkpt lat="47.31289" lon="-2.34605">
        <ele>45.400001525879</ele>
        <time>2021-11-18T09:14:29.000Z</time>
      </trkpt>
      <trkpt lat="47.3129" lon="-2.34621">
        <ele>45.400001525879</ele>
        <time>2021-11-18T09:14:31.000Z</time>
      </trkpt>
      <trkpt lat="47.31292" lon="-2.34649">
        <ele>45.799999237061</ele>
        <time>2021-11-18T09:14:35.000Z</time>
      </trkpt>
      <trkpt lat="47.31293" lon="-2.34655">
        <ele>46.400001525879</ele>
        <time>2021-11-18T09:14:36.000Z</time>
      </trkpt>
      <trkpt lat="47.31293" lon="-2.3466">
        <ele>46.799999237061</ele>
        <time>2021-11-18T09:14:37.000Z</time>
      </trkpt>
      <trkpt lat="47.31293" lon="-2.34666">
        <ele>47.200000762939</ele>
        <time>2021-11-18T09:14:38.000Z</time>
      </trkpt>
      <trkpt lat="47.31292" lon="-2.34672">
        <ele>47.599998474121</ele>
        <time>2021-11-18T09:14:39.000Z</time>
      </trkpt>
      <trkpt lat="47.31288" lon="-2.34682">
        <ele>47.599998474121</ele>
        <time>2021-11-18T09:14:41.000Z</time>
      </trkpt>
      <trkpt lat="47.31285" lon="-2.34687">
        <ele>47.599998474121</ele>
        <time>2021-11-18T09:14:42.000Z</time>
      </trkpt>
      <trkpt lat="47.31281" lon="-2.34698">
        <ele>47.599998474121</ele>
        <time>2021-11-18T09:14:44.000Z</time>
      </trkpt>
      <trkpt lat="47.31279" lon="-2.34713">
        <ele>48</ele>
        <time>2021-11-18T09:14:46.000Z</time>
      </trkpt>
      <trkpt lat="47.31279" lon="-2.3472">
        <ele>48.400001525879</ele>
        <time>2021-11-18T09:14:47.000Z</time>
      </trkpt>
      <trkpt lat="47.3128" lon="-2.34727">
        <ele>49</ele>
        <time>2021-11-18T09:14:48.000Z</time>
      </trkpt>
      <trkpt lat="47.31281" lon="-2.34734">
        <ele>49.400001525879</ele>
        <time>2021-11-18T09:14:49.000Z</time>
      </trkpt>
      <trkpt lat="47.31282" lon="-2.34742">
        <ele>49.799999237061</ele>
        <time>2021-11-18T09:14:50.000Z</time>
      </trkpt>
      <trkpt lat="47.31283" lon="-2.34749">
        <ele>49.799999237061</ele>
        <time>2021-11-18T09:14:51.000Z</time>
      </trkpt>
      <trkpt lat="47.31294" lon="-2.34809">
        <ele>49.799999237061</ele>
        <time>2021-11-18T09:14:59.000Z</time>
      </trkpt>
      <trkpt lat="47.3131" lon="-2.3488">
        <ele>49.799999237061</ele>
        <time>2021-11-18T09:15:08.000Z</time>
      </trkpt>
      <trkpt lat="47.31329" lon="-2.34935">
        <ele>49.799999237061</ele>
        <time>2021-11-18T09:15:15.000Z</time>
      </trkpt>
      <trkpt lat="47.31341" lon="-2.34995">
        <ele>49.799999237061</ele>
        <time>2021-11-18T09:15:22.000Z</time>
      </trkpt>
      <trkpt lat="47.31345" lon="-2.35029">
        <ele>49.799999237061</ele>
        <time>2021-11-18T09:15:26.000Z</time>
      </trkpt>
      <trkpt lat="47.31346" lon="-2.35047">
        <ele>49.799999237061</ele>
        <time>2021-11-18T09:15:28.000Z</time>
      </trkpt>
      <trkpt lat="47.31344" lon="-2.35127">
        <ele>49.799999237061</ele>
        <time>2021-11-18T09:15:37.000Z</time>
      </trkpt>
      <trkpt lat="47.31343" lon="-2.35154">
        <ele>49.799999237061</ele>
        <time>2021-11-18T09:15:40.000Z</time>
      </trkpt>
      <trkpt lat="47.31341" lon="-2.35227">
        <ele>49.799999237061</ele>
        <time>2021-11-18T09:15:48.000Z</time>
      </trkpt>
      <trkpt lat="47.3134" lon="-2.353">
        <ele>49.799999237061</ele>
        <time>2021-11-18T09:15:56.000Z</time>
      </trkpt>
      <trkpt lat="47.31338" lon="-2.35352">
        <ele>49.799999237061</ele>
        <time>2021-11-18T09:16:02.000Z</time>
      </trkpt>
      <trkpt lat="47.31338" lon="-2.35404">
        <ele>49.799999237061</ele>
        <time>2021-11-18T09:16:08.000Z</time>
      </trkpt>
      <trkpt lat="47.31336" lon="-2.35479">
        <ele>49.799999237061</ele>
        <time>2021-11-18T09:16:16.000Z</time>
      </trkpt>
      <trkpt lat="47.31335" lon="-2.35531">
        <ele>49.799999237061</ele>
        <time>2021-11-18T09:16:22.000Z</time>
      </trkpt>
      <trkpt lat="47.31346" lon="-2.35542">
        <ele>49.799999237061</ele>
        <time>2021-11-18T09:16:25.000Z</time>
      </trkpt>
      <trkpt lat="47.31364" lon="-2.35533">
        <ele>49.799999237061</ele>
        <time>2021-11-18T09:16:29.000Z</time>
      </trkpt>
      <trkpt lat="47.31374" lon="-2.35528">
        <ele>49.799999237061</ele>
        <time>2021-11-18T09:16:31.000Z</time>
      </trkpt>
      <trkpt lat="47.31389" lon="-2.35524">
        <ele>49.799999237061</ele>
        <time>2021-11-18T09:16:34.000Z</time>
      </trkpt>
      <trkpt lat="47.31395" lon="-2.35523">
        <ele>49.799999237061</ele>
        <time>2021-11-18T09:16:35.000Z</time>
      </trkpt>
      <trkpt lat="47.31407" lon="-2.35522">
        <ele>49.799999237061</ele>
        <time>2021-11-18T09:16:37.000Z</time>
      </trkpt>
      <trkpt lat="47.31432" lon="-2.35522">
        <ele>49.799999237061</ele>
        <time>2021-11-18T09:16:41.000Z</time>
      </trkpt>
      <trkpt lat="47.31444" lon="-2.35522">
        <ele>49.799999237061</ele>
        <time>2021-11-18T09:16:43.000Z</time>
      </trkpt>
      <trkpt lat="47.31462" lon="-2.3552">
        <ele>49.799999237061</ele>
        <time>2021-11-18T09:16:46.000Z</time>
      </trkpt>
      <trkpt lat="47.31472" lon="-2.35517">
        <ele>49.799999237061</ele>
        <time>2021-11-18T09:16:48.000Z</time>
      </trkpt>
      <trkpt lat="47.31479" lon="-2.35508">
        <ele>49.799999237061</ele>
        <time>2021-11-18T09:16:50.000Z</time>
      </trkpt>
      <trkpt lat="47.31485" lon="-2.35486">
        <ele>49.799999237061</ele>
        <time>2021-11-18T09:16:53.000Z</time>
      </trkpt>
      <trkpt lat="47.31486" lon="-2.35479">
        <ele>49.799999237061</ele>
        <time>2021-11-18T09:16:54.000Z</time>
      </trkpt>
      <trkpt lat="47.3149" lon="-2.35449">
        <ele>49.799999237061</ele>
        <time>2021-11-18T09:16:58.000Z</time>
      </trkpt>
      <trkpt lat="47.31493" lon="-2.35441">
        <ele>49.799999237061</ele>
        <time>2021-11-18T09:16:59.000Z</time>
      </trkpt>
      <trkpt lat="47.31508" lon="-2.35417">
        <ele>49.799999237061</ele>
        <time>2021-11-18T09:17:03.000Z</time>
      </trkpt>
      <trkpt lat="47.31524" lon="-2.35405">
        <ele>49.799999237061</ele>
        <time>2021-11-18T09:17:06.000Z</time>
      </trkpt>
      <trkpt lat="47.31535" lon="-2.35398">
        <ele>49.799999237061</ele>
        <time>2021-11-18T09:17:08.000Z</time>
      </trkpt>
      <trkpt lat="47.31567" lon="-2.3538">
        <ele>49.799999237061</ele>
        <time>2021-11-18T09:17:14.000Z</time>
      </trkpt>
      <trkpt lat="47.31607" lon="-2.35364">
        <ele>49.799999237061</ele>
        <time>2021-11-18T09:17:21.000Z</time>
      </trkpt>
      <trkpt lat="47.31619" lon="-2.35363">
        <ele>49.799999237061</ele>
        <time>2021-11-18T09:17:23.000Z</time>
      </trkpt>
      <trkpt lat="47.31631" lon="-2.35366">
        <ele>49.799999237061</ele>
        <time>2021-11-18T09:17:25.000Z</time>
      </trkpt>
      <trkpt lat="47.31655" lon="-2.35373">
        <ele>49.799999237061</ele>
        <time>2021-11-18T09:17:29.000Z</time>
      </trkpt>
      <trkpt lat="47.31668" lon="-2.35374">
        <ele>49.799999237061</ele>
        <time>2021-11-18T09:17:31.000Z</time>
      </trkpt>
      <trkpt lat="47.31711" lon="-2.35373">
        <ele>49.799999237061</ele>
        <time>2021-11-18T09:17:38.000Z</time>
      </trkpt>
      <trkpt lat="47.31717" lon="-2.35371">
        <ele>49.400001525879</ele>
        <time>2021-11-18T09:17:39.000Z</time>
      </trkpt>
      <trkpt lat="47.31724" lon="-2.3537">
        <ele>49</ele>
        <time>2021-11-18T09:17:40.000Z</time>
      </trkpt>
      <trkpt lat="47.3173" lon="-2.35369">
        <ele>48.599998474121</ele>
        <time>2021-11-18T09:17:41.000Z</time>
      </trkpt>
      <trkpt lat="47.31735" lon="-2.35367">
        <ele>48.200000762939</ele>
        <time>2021-11-18T09:17:42.000Z</time>
      </trkpt>
      <trkpt lat="47.31741" lon="-2.35365">
        <ele>47.799999237061</ele>
        <time>2021-11-18T09:17:43.000Z</time>
      </trkpt>
      <trkpt lat="47.31747" lon="-2.35363">
        <ele>47.799999237061</ele>
        <time>2021-11-18T09:17:44.000Z</time>
      </trkpt>
      <trkpt lat="47.3178" lon="-2.35346">
        <ele>47.799999237061</ele>
        <time>2021-11-18T09:17:49.000Z</time>
      </trkpt>
      <trkpt lat="47.31794" lon="-2.35337">
        <ele>47.200000762939</ele>
        <time>2021-11-18T09:17:51.000Z</time>
      </trkpt>
      <trkpt lat="47.318" lon="-2.35333">
        <ele>46.799999237061</ele>
        <time>2021-11-18T09:17:52.000Z</time>
      </trkpt>
      <trkpt lat="47.31807" lon="-2.35329">
        <ele>46.400001525879</ele>
        <time>2021-11-18T09:17:53.000Z</time>
      </trkpt>
      <trkpt lat="47.31813" lon="-2.35324">
        <ele>45.799999237061</ele>
        <time>2021-11-18T09:17:54.000Z</time>
      </trkpt>
      <trkpt lat="47.31819" lon="-2.35321">
        <ele>45.400001525879</ele>
        <time>2021-11-18T09:17:55.000Z</time>
      </trkpt>
      <trkpt lat="47.31839" lon="-2.3531">
        <ele>45</ele>
        <time>2021-11-18T09:17:58.000Z</time>
      </trkpt>
      <trkpt lat="47.31845" lon="-2.35307">
        <ele>44.599998474121</ele>
        <time>2021-11-18T09:17:59.000Z</time>
      </trkpt>
      <trkpt lat="47.31851" lon="-2.35303">
        <ele>43.799999237061</ele>
        <time>2021-11-18T09:18:00.000Z</time>
      </trkpt>
      <trkpt lat="47.31858" lon="-2.353">
        <ele>43.400001525879</ele>
        <time>2021-11-18T09:18:01.000Z</time>
      </trkpt>
      <trkpt lat="47.31874" lon="-2.35287">
        <ele>43.400001525879</ele>
        <time>2021-11-18T09:18:04.000Z</time>
      </trkpt>
      <trkpt lat="47.31884" lon="-2.35278">
        <ele>43.400001525879</ele>
        <time>2021-11-18T09:18:06.000Z</time>
      </trkpt>
      <trkpt lat="47.31894" lon="-2.35268">
        <ele>43</ele>
        <time>2021-11-18T09:18:08.000Z</time>
      </trkpt>
      <trkpt lat="47.31899" lon="-2.35264">
        <ele>42.400001525879</ele>
        <time>2021-11-18T09:18:09.000Z</time>
      </trkpt>
      <trkpt lat="47.31903" lon="-2.3526">
        <ele>42</ele>
        <time>2021-11-18T09:18:10.000Z</time>
      </trkpt>
      <trkpt lat="47.31908" lon="-2.35255">
        <ele>41.599998474121</ele>
        <time>2021-11-18T09:18:11.000Z</time>
      </trkpt>
      <trkpt lat="47.31912" lon="-2.3525">
        <ele>41.200000762939</ele>
        <time>2021-11-18T09:18:12.000Z</time>
      </trkpt>
      <trkpt lat="47.31946" lon="-2.35218">
        <ele>41.200000762939</ele>
        <time>2021-11-18T09:18:19.000Z</time>
      </trkpt>
      <trkpt lat="47.31973" lon="-2.3519">
        <ele>41.200000762939</ele>
        <time>2021-11-18T09:18:25.000Z</time>
      </trkpt>
      <trkpt lat="47.31998" lon="-2.35166">
        <ele>40.799999237061</ele>
        <time>2021-11-18T09:18:30.000Z</time>
      </trkpt>
      <trkpt lat="47.32003" lon="-2.35161">
        <ele>40.400001525879</ele>
        <time>2021-11-18T09:18:31.000Z</time>
      </trkpt>
      <trkpt lat="47.32009" lon="-2.35156">
        <ele>40</ele>
        <time>2021-11-18T09:18:32.000Z</time>
      </trkpt>
      <trkpt lat="47.32014" lon="-2.35151">
        <ele>39.599998474121</ele>
        <time>2021-11-18T09:18:33.000Z</time>
      </trkpt>
      <trkpt lat="47.32019" lon="-2.35146">
        <ele>39.200000762939</ele>
        <time>2021-11-18T09:18:34.000Z</time>
      </trkpt>
      <trkpt lat="47.3203" lon="-2.3513">
        <ele>39.200000762939</ele>
        <time>2021-11-18T09:18:37.000Z</time>
      </trkpt>
      <trkpt lat="47.32036" lon="-2.35103">
        <ele>39.200000762939</ele>
        <time>2021-11-18T09:18:41.000Z</time>
      </trkpt>
      <trkpt lat="47.32036" lon="-2.35097">
        <ele>39.200000762939</ele>
        <time>2021-11-18T09:18:42.000Z</time>
      </trkpt>
      <trkpt lat="47.32032" lon="-2.35076">
        <ele>39.200000762939</ele>
        <time>2021-11-18T09:18:46.000Z</time>
      </trkpt>
      <trkpt lat="47.32033" lon="-2.3507">
        <ele>39.200000762939</ele>
        <time>2021-11-18T09:18:47.000Z</time>
      </trkpt>
      <trkpt lat="47.32042" lon="-2.35067">
        <ele>39.200000762939</ele>
        <time>2021-11-18T09:18:49.000Z</time>
      </trkpt>
      <trkpt lat="47.32062" lon="-2.35067">
        <ele>39.200000762939</ele>
        <time>2021-11-18T09:18:53.000Z</time>
      </trkpt>
      <trkpt lat="47.32067" lon="-2.35067">
        <ele>39.200000762939</ele>
        <time>2021-11-18T09:18:54.000Z</time>
      </trkpt>
      <trkpt lat="47.32103" lon="-2.35066">
        <ele>39.200000762939</ele>
        <time>2021-11-18T09:19:01.000Z</time>
      </trkpt>
      <trkpt lat="47.32138" lon="-2.35064">
        <ele>39.200000762939</ele>
        <time>2021-11-18T09:19:08.000Z</time>
      </trkpt>
      <trkpt lat="47.32176" lon="-2.35061">
        <ele>39.200000762939</ele>
        <time>2021-11-18T09:19:16.000Z</time>
      </trkpt>
      <trkpt lat="47.32211" lon="-2.35059">
        <ele>39.200000762939</ele>
        <time>2021-11-18T09:19:24.000Z</time>
      </trkpt>
      <trkpt lat="47.32228" lon="-2.35057">
        <ele>39.200000762939</ele>
        <time>2021-11-18T09:19:30.000Z</time>
      </trkpt>
      <trkpt lat="47.32249" lon="-2.35053">
        <ele>39.200000762939</ele>
        <time>2021-11-18T09:19:36.000Z</time>
      </trkpt>
      <trkpt lat="47.32275" lon="-2.3505">
        <ele>39.599998474121</ele>
        <time>2021-11-18T09:19:42.000Z</time>
      </trkpt>
      <trkpt lat="47.3228" lon="-2.3505">
        <ele>40</ele>
        <time>2021-11-18T09:19:43.000Z</time>
      </trkpt>
      <trkpt lat="47.32285" lon="-2.35049">
        <ele>40.400001525879</ele>
        <time>2021-11-18T09:19:44.000Z</time>
      </trkpt>
      <trkpt lat="47.3229" lon="-2.35049">
        <ele>40.799999237061</ele>
        <time>2021-11-18T09:19:45.000Z</time>
      </trkpt>
      <trkpt lat="47.32294" lon="-2.35049">
        <ele>41.200000762939</ele>
        <time>2021-11-18T09:19:46.000Z</time>
      </trkpt>
      <trkpt lat="47.32299" lon="-2.3505">
        <ele>41.200000762939</ele>
        <time>2021-11-18T09:19:47.000Z</time>
      </trkpt>
      <trkpt lat="47.32307" lon="-2.35052">
        <ele>41.200000762939</ele>
        <time>2021-11-18T09:19:49.000Z</time>
      </trkpt>
      <trkpt lat="47.32326" lon="-2.35053">
        <ele>41.200000762939</ele>
        <time>2021-11-18T09:19:55.000Z</time>
      </trkpt>
      <trkpt lat="47.32351" lon="-2.35051">
        <ele>41.200000762939</ele>
        <time>2021-11-18T09:20:02.000Z</time>
      </trkpt>
      <trkpt lat="47.3236" lon="-2.3505">
        <ele>42</ele>
        <time>2021-11-18T09:20:04.000Z</time>
      </trkpt>
      <trkpt lat="47.32365" lon="-2.3505">
        <ele>42.599998474121</ele>
        <time>2021-11-18T09:20:05.000Z</time>
      </trkpt>
      <trkpt lat="47.3237" lon="-2.3505">
        <ele>43</ele>
        <time>2021-11-18T09:20:06.000Z</time>
      </trkpt>
      <trkpt lat="47.32375" lon="-2.3505">
        <ele>43.400001525879</ele>
        <time>2021-11-18T09:20:07.000Z</time>
      </trkpt>
      <trkpt lat="47.3238" lon="-2.3505">
        <ele>43.400001525879</ele>
        <time>2021-11-18T09:20:08.000Z</time>
      </trkpt>
      <trkpt lat="47.32425" lon="-2.35047">
        <ele>43.400001525879</ele>
        <time>2021-11-18T09:20:16.000Z</time>
      </trkpt>
      <trkpt lat="47.32449" lon="-2.35042">
        <ele>43.400001525879</ele>
        <time>2021-11-18T09:20:21.000Z</time>
      </trkpt>
      <trkpt lat="47.32454" lon="-2.35041">
        <ele>43.400001525879</ele>
        <time>2021-11-18T09:20:22.000Z</time>
      </trkpt>
      <trkpt lat="47.32491" lon="-2.35033">
        <ele>43.400001525879</ele>
        <time>2021-11-18T09:20:29.000Z</time>
      </trkpt>
      <trkpt lat="47.32522" lon="-2.35024">
        <ele>43.400001525879</ele>
        <time>2021-11-18T09:20:35.000Z</time>
      </trkpt>
      <trkpt lat="47.32562" lon="-2.35012">
        <ele>43.400001525879</ele>
        <time>2021-11-18T09:20:42.000Z</time>
      </trkpt>
      <trkpt lat="47.32567" lon="-2.35009">
        <ele>43.400001525879</ele>
        <time>2021-11-18T09:20:43.000Z</time>
      </trkpt>
      <trkpt lat="47.32589" lon="-2.34997">
        <ele>43.400001525879</ele>
        <time>2021-11-18T09:20:47.000Z</time>
      </trkpt>
      <trkpt lat="47.32623" lon="-2.34979">
        <ele>43.400001525879</ele>
        <time>2021-11-18T09:20:54.000Z</time>
      </trkpt>
      <trkpt lat="47.32636" lon="-2.34972">
        <ele>43.400001525879</ele>
        <time>2021-11-18T09:20:57.000Z</time>
      </trkpt>
      <trkpt lat="47.3264" lon="-2.34971">
        <ele>43</ele>
        <time>2021-11-18T09:20:58.000Z</time>
      </trkpt>
      <trkpt lat="47.32643" lon="-2.34969">
        <ele>42.599998474121</ele>
        <time>2021-11-18T09:20:59.000Z</time>
      </trkpt>
      <trkpt lat="47.32646" lon="-2.34966">
        <ele>42.200000762939</ele>
        <time>2021-11-18T09:21:00.000Z</time>
      </trkpt>
      <trkpt lat="47.32648" lon="-2.34964">
        <ele>41.799999237061</ele>
        <time>2021-11-18T09:21:01.000Z</time>
      </trkpt>
      <trkpt lat="47.32651" lon="-2.34963">
        <ele>41.400001525879</ele>
        <time>2021-11-18T09:21:02.000Z</time>
      </trkpt>
      <trkpt lat="47.32666" lon="-2.34954">
        <ele>41.400001525879</ele>
        <time>2021-11-18T09:21:06.000Z</time>
      </trkpt>
      <trkpt lat="47.32686" lon="-2.34941">
        <ele>41.400001525879</ele>
        <time>2021-11-18T09:21:11.000Z</time>
      </trkpt>
      <trkpt lat="47.327" lon="-2.34931">
        <ele>41.400001525879</ele>
        <time>2021-11-18T09:21:14.000Z</time>
      </trkpt>
      <trkpt lat="47.32715" lon="-2.34921">
        <ele>41.400001525879</ele>
        <time>2021-11-18T09:21:17.000Z</time>
      </trkpt>
      <trkpt lat="47.32757" lon="-2.3489">
        <ele>41.400001525879</ele>
        <time>2021-11-18T09:21:25.000Z</time>
      </trkpt>
      <trkpt lat="47.32779" lon="-2.34873">
        <ele>41</ele>
        <time>2021-11-18T09:21:29.000Z</time>
      </trkpt>
      <trkpt lat="47.32785" lon="-2.34869">
        <ele>40.599998474121</ele>
        <time>2021-11-18T09:21:30.000Z</time>
      </trkpt>
      <trkpt lat="47.3279" lon="-2.34865">
        <ele>40.200000762939</ele>
        <time>2021-11-18T09:21:31.000Z</time>
      </trkpt>
      <trkpt lat="47.32796" lon="-2.34861">
        <ele>39.599998474121</ele>
        <time>2021-11-18T09:21:32.000Z</time>
      </trkpt>
      <trkpt lat="47.32801" lon="-2.34857">
        <ele>39.200000762939</ele>
        <time>2021-11-18T09:21:33.000Z</time>
      </trkpt>
      <trkpt lat="47.32836" lon="-2.34832">
        <ele>39.200000762939</ele>
        <time>2021-11-18T09:21:39.000Z</time>
      </trkpt>
      <trkpt lat="47.32875" lon="-2.34803">
        <ele>39.200000762939</ele>
        <time>2021-11-18T09:21:46.000Z</time>
      </trkpt>
      <trkpt lat="47.32891" lon="-2.34791">
        <ele>38.799999237061</ele>
        <time>2021-11-18T09:21:49.000Z</time>
      </trkpt>
      <trkpt lat="47.32896" lon="-2.34788">
        <ele>38.400001525879</ele>
        <time>2021-11-18T09:21:50.000Z</time>
      </trkpt>
      <trkpt lat="47.329" lon="-2.34785">
        <ele>38</ele>
        <time>2021-11-18T09:21:51.000Z</time>
      </trkpt>
      <trkpt lat="47.32904" lon="-2.34783">
        <ele>37.599998474121</ele>
        <time>2021-11-18T09:21:52.000Z</time>
      </trkpt>
      <trkpt lat="47.32907" lon="-2.34784">
        <ele>37.200000762939</ele>
        <time>2021-11-18T09:21:53.000Z</time>
      </trkpt>
      <trkpt lat="47.32911" lon="-2.34787">
        <ele>37.200000762939</ele>
        <time>2021-11-18T09:21:55.000Z</time>
      </trkpt>
      <trkpt lat="47.32917" lon="-2.34803">
        <ele>37.200000762939</ele>
        <time>2021-11-18T09:22:00.000Z</time>
      </trkpt>
      <trkpt lat="47.32928" lon="-2.34824">
        <ele>37.200000762939</ele>
        <time>2021-11-18T09:22:06.000Z</time>
      </trkpt>
      <trkpt lat="47.32932" lon="-2.34835">
        <ele>37.200000762939</ele>
        <time>2021-11-18T09:22:08.000Z</time>
      </trkpt>
      <trkpt lat="47.32939" lon="-2.34852">
        <ele>37.200000762939</ele>
        <time>2021-11-18T09:22:11.000Z</time>
      </trkpt>
      <trkpt lat="47.32945" lon="-2.34863">
        <ele>37.200000762939</ele>
        <time>2021-11-18T09:22:13.000Z</time>
      </trkpt>
      <trkpt lat="47.32954" lon="-2.34883">
        <ele>37.200000762939</ele>
        <time>2021-11-18T09:22:17.000Z</time>
      </trkpt>
      <trkpt lat="47.32966" lon="-2.34917">
        <ele>37.200000762939</ele>
        <time>2021-11-18T09:22:22.000Z</time>
      </trkpt>
      <trkpt lat="47.32971" lon="-2.34928">
        <ele>37.200000762939</ele>
        <time>2021-11-18T09:22:24.000Z</time>
      </trkpt>
      <trkpt lat="47.32978" lon="-2.34948">
        <ele>37.200000762939</ele>
        <time>2021-11-18T09:22:27.000Z</time>
      </trkpt>
      <trkpt lat="47.32979" lon="-2.34954">
        <ele>37.200000762939</ele>
        <time>2021-11-18T09:22:28.000Z</time>
      </trkpt>
      <trkpt lat="47.32983" lon="-2.3497">
        <ele>37.200000762939</ele>
        <time>2021-11-18T09:22:31.000Z</time>
      </trkpt>
      <trkpt lat="47.32986" lon="-2.34975">
        <ele>37.200000762939</ele>
        <time>2021-11-18T09:22:32.000Z</time>
      </trkpt>
      <trkpt lat="47.32997" lon="-2.3499">
        <ele>37.200000762939</ele>
        <time>2021-11-18T09:22:35.000Z</time>
      </trkpt>
      <trkpt lat="47.32999" lon="-2.34995">
        <ele>37.200000762939</ele>
        <time>2021-11-18T09:22:36.000Z</time>
      </trkpt>
      <trkpt lat="47.33005" lon="-2.3501">
        <ele>37.599998474121</ele>
        <time>2021-11-18T09:22:39.000Z</time>
      </trkpt>
      <trkpt lat="47.33006" lon="-2.35015">
        <ele>38</ele>
        <time>2021-11-18T09:22:40.000Z</time>
      </trkpt>
      <trkpt lat="47.33007" lon="-2.35021">
        <ele>38.599998474121</ele>
        <time>2021-11-18T09:22:41.000Z</time>
      </trkpt>
      <trkpt lat="47.33008" lon="-2.35028">
        <ele>39</ele>
        <time>2021-11-18T09:22:42.000Z</time>
      </trkpt>
      <trkpt lat="47.3301" lon="-2.35035">
        <ele>39.400001525879</ele>
        <time>2021-11-18T09:22:43.000Z</time>
      </trkpt>
      <trkpt lat="47.33009" lon="-2.35047">
        <ele>39.400001525879</ele>
        <time>2021-11-18T09:22:45.000Z</time>
      </trkpt>
      <trkpt lat="47.33014" lon="-2.35064">
        <ele>39.400001525879</ele>
        <time>2021-11-18T09:22:48.000Z</time>
      </trkpt>
      <trkpt lat="47.33019" lon="-2.35077">
        <ele>39.400001525879</ele>
        <time>2021-11-18T09:22:50.000Z</time>
      </trkpt>
      <trkpt lat="47.33019" lon="-2.3509">
        <ele>39.400001525879</ele>
        <time>2021-11-18T09:22:52.000Z</time>
      </trkpt>
      <trkpt lat="47.33019" lon="-2.35097">
        <ele>39.400001525879</ele>
        <time>2021-11-18T09:22:53.000Z</time>
      </trkpt>
      <trkpt lat="47.33024" lon="-2.35123">
        <ele>40.200000762939</ele>
        <time>2021-11-18T09:22:57.000Z</time>
      </trkpt>
      <trkpt lat="47.33024" lon="-2.35129">
        <ele>40.599998474121</ele>
        <time>2021-11-18T09:22:58.000Z</time>
      </trkpt>
      <trkpt lat="47.33025" lon="-2.35136">
        <ele>41</ele>
        <time>2021-11-18T09:22:59.000Z</time>
      </trkpt>
      <trkpt lat="47.33025" lon="-2.35142">
        <ele>41.400001525879</ele>
        <time>2021-11-18T09:23:00.000Z</time>
      </trkpt>
      <trkpt lat="47.33025" lon="-2.35156">
        <ele>41.400001525879</ele>
        <time>2021-11-18T09:23:02.000Z</time>
      </trkpt>
      <trkpt lat="47.33027" lon="-2.35177">
        <ele>41.400001525879</ele>
        <time>2021-11-18T09:23:05.000Z</time>
      </trkpt>
      <trkpt lat="47.33027" lon="-2.35189">
        <ele>41.400001525879</ele>
        <time>2021-11-18T09:23:07.000Z</time>
      </trkpt>
      <trkpt lat="47.33028" lon="-2.35225">
        <ele>41.400001525879</ele>
        <time>2021-11-18T09:23:14.000Z</time>
      </trkpt>
      <trkpt lat="47.33027" lon="-2.35243">
        <ele>41.400001525879</ele>
        <time>2021-11-18T09:23:19.000Z</time>
      </trkpt>
      <trkpt lat="47.33024" lon="-2.35267">
        <ele>41.400001525879</ele>
        <time>2021-11-18T09:23:26.000Z</time>
      </trkpt>
      <trkpt lat="47.33023" lon="-2.353">
        <ele>41.400001525879</ele>
        <time>2021-11-18T09:23:32.000Z</time>
      </trkpt>
      <trkpt lat="47.33026" lon="-2.35339">
        <ele>41.400001525879</ele>
        <time>2021-11-18T09:23:37.000Z</time>
      </trkpt>
      <trkpt lat="47.33029" lon="-2.35396">
        <ele>41.400001525879</ele>
        <time>2021-11-18T09:23:44.000Z</time>
      </trkpt>
      <trkpt lat="47.3303" lon="-2.35446">
        <ele>41.400001525879</ele>
        <time>2021-11-18T09:23:50.000Z</time>
      </trkpt>
      <trkpt lat="47.33027" lon="-2.3549">
        <ele>41.400001525879</ele>
        <time>2021-11-18T09:23:55.000Z</time>
      </trkpt>
      <trkpt lat="47.33026" lon="-2.35507">
        <ele>41</ele>
        <time>2021-11-18T09:23:57.000Z</time>
      </trkpt>
      <trkpt lat="47.33025" lon="-2.35515">
        <ele>40.599998474121</ele>
        <time>2021-11-18T09:23:58.000Z</time>
      </trkpt>
      <trkpt lat="47.33025" lon="-2.35523">
        <ele>40.200000762939</ele>
        <time>2021-11-18T09:23:59.000Z</time>
      </trkpt>
      <trkpt lat="47.33025" lon="-2.35531">
        <ele>39.799999237061</ele>
        <time>2021-11-18T09:24:00.000Z</time>
      </trkpt>
      <trkpt lat="47.33024" lon="-2.35539">
        <ele>39.400001525879</ele>
        <time>2021-11-18T09:24:01.000Z</time>
      </trkpt>
      <trkpt lat="47.33025" lon="-2.35546">
        <ele>39.400001525879</ele>
        <time>2021-11-18T09:24:02.000Z</time>
      </trkpt>
      <trkpt lat="47.33025" lon="-2.35554">
        <ele>39.400001525879</ele>
        <time>2021-11-18T09:24:03.000Z</time>
      </trkpt>
      <trkpt lat="47.33026" lon="-2.35577">
        <ele>39.400001525879</ele>
        <time>2021-11-18T09:24:06.000Z</time>
      </trkpt>
      <trkpt lat="47.33025" lon="-2.35593">
        <ele>39.400001525879</ele>
        <time>2021-11-18T09:24:08.000Z</time>
      </trkpt>
      <trkpt lat="47.33022" lon="-2.35618">
        <ele>39</ele>
        <time>2021-11-18T09:24:11.000Z</time>
      </trkpt>
      <trkpt lat="47.33021" lon="-2.35627">
        <ele>38.400001525879</ele>
        <time>2021-11-18T09:24:12.000Z</time>
      </trkpt>
      <trkpt lat="47.3302" lon="-2.35637">
        <ele>38</ele>
        <time>2021-11-18T09:24:13.000Z</time>
      </trkpt>
      <trkpt lat="47.33019" lon="-2.35646">
        <ele>37.599998474121</ele>
        <time>2021-11-18T09:24:14.000Z</time>
      </trkpt>
      <trkpt lat="47.33017" lon="-2.35656">
        <ele>37.200000762939</ele>
        <time>2021-11-18T09:24:15.000Z</time>
      </trkpt>
      <trkpt lat="47.33011" lon="-2.35695">
        <ele>37.200000762939</ele>
        <time>2021-11-18T09:24:19.000Z</time>
      </trkpt>
      <trkpt lat="47.33007" lon="-2.35754">
        <ele>37.200000762939</ele>
        <time>2021-11-18T09:24:25.000Z</time>
      </trkpt>
      <trkpt lat="47.33008" lon="-2.35764">
        <ele>37.200000762939</ele>
        <time>2021-11-18T09:24:26.000Z</time>
      </trkpt>
      <trkpt lat="47.33014" lon="-2.35783">
        <ele>37.200000762939</ele>
        <time>2021-11-18T09:24:28.000Z</time>
      </trkpt>
      <trkpt lat="47.33027" lon="-2.35803">
        <ele>37.200000762939</ele>
        <time>2021-11-18T09:24:31.000Z</time>
      </trkpt>
      <trkpt lat="47.3305" lon="-2.35811">
        <ele>37.200000762939</ele>
        <time>2021-11-18T09:24:35.000Z</time>
      </trkpt>
      <trkpt lat="47.3308" lon="-2.3581">
        <ele>37.200000762939</ele>
        <time>2021-11-18T09:24:40.000Z</time>
      </trkpt>
      <trkpt lat="47.33115" lon="-2.35808">
        <ele>37.200000762939</ele>
        <time>2021-11-18T09:24:46.000Z</time>
      </trkpt>
      <trkpt lat="47.33126" lon="-2.35807">
        <ele>37.599998474121</ele>
        <time>2021-11-18T09:24:48.000Z</time>
      </trkpt>
      <trkpt lat="47.33131" lon="-2.35808">
        <ele>38</ele>
        <time>2021-11-18T09:24:49.000Z</time>
      </trkpt>
      <trkpt lat="47.33137" lon="-2.35808">
        <ele>38.400001525879</ele>
        <time>2021-11-18T09:24:50.000Z</time>
      </trkpt>
      <trkpt lat="47.33142" lon="-2.35808">
        <ele>38.799999237061</ele>
        <time>2021-11-18T09:24:51.000Z</time>
      </trkpt>
      <trkpt lat="47.33148" lon="-2.35808">
        <ele>39.200000762939</ele>
        <time>2021-11-18T09:24:52.000Z</time>
      </trkpt>
      <trkpt lat="47.3318" lon="-2.35814">
        <ele>39.200000762939</ele>
        <time>2021-11-18T09:24:58.000Z</time>
      </trkpt>
      <trkpt lat="47.33217" lon="-2.35822">
        <ele>39.200000762939</ele>
        <time>2021-11-18T09:25:05.000Z</time>
      </trkpt>
      <trkpt lat="47.33227" lon="-2.35825">
        <ele>39.599998474121</ele>
        <time>2021-11-18T09:25:07.000Z</time>
      </trkpt>
      <trkpt lat="47.33231" lon="-2.35829">
        <ele>40.200000762939</ele>
        <time>2021-11-18T09:25:08.000Z</time>
      </trkpt>
      <trkpt lat="47.33236" lon="-2.35831">
        <ele>40.599998474121</ele>
        <time>2021-11-18T09:25:09.000Z</time>
      </trkpt>
      <trkpt lat="47.3324" lon="-2.35834">
        <ele>41</ele>
        <time>2021-11-18T09:25:10.000Z</time>
      </trkpt>
      <trkpt lat="47.33244" lon="-2.35836">
        <ele>41.400001525879</ele>
        <time>2021-11-18T09:25:11.000Z</time>
      </trkpt>
      <trkpt lat="47.33255" lon="-2.35847">
        <ele>41.799999237061</ele>
        <time>2021-11-18T09:25:14.000Z</time>
      </trkpt>
      <trkpt lat="47.33258" lon="-2.3585">
        <ele>42.200000762939</ele>
        <time>2021-11-18T09:25:15.000Z</time>
      </trkpt>
      <trkpt lat="47.33262" lon="-2.35854">
        <ele>42.599998474121</ele>
        <time>2021-11-18T09:25:16.000Z</time>
      </trkpt>
      <trkpt lat="47.33265" lon="-2.35857">
        <ele>43</ele>
        <time>2021-11-18T09:25:17.000Z</time>
      </trkpt>
      <trkpt lat="47.33268" lon="-2.3586">
        <ele>43.400001525879</ele>
        <time>2021-11-18T09:25:18.000Z</time>
      </trkpt>
      <trkpt lat="47.33282" lon="-2.35874">
        <ele>43.799999237061</ele>
        <time>2021-11-18T09:25:22.000Z</time>
      </trkpt>
      <trkpt lat="47.33286" lon="-2.35877">
        <ele>44.400001525879</ele>
        <time>2021-11-18T09:25:23.000Z</time>
      </trkpt>
      <trkpt lat="47.3329" lon="-2.35881">
        <ele>44.799999237061</ele>
        <time>2021-11-18T09:25:24.000Z</time>
      </trkpt>
      <trkpt lat="47.33295" lon="-2.35884">
        <ele>45.599998474121</ele>
        <time>2021-11-18T09:25:25.000Z</time>
      </trkpt>
      <trkpt lat="47.33308" lon="-2.35893">
        <ele>45.599998474121</ele>
        <time>2021-11-18T09:25:28.000Z</time>
      </trkpt>
      <trkpt lat="47.33312" lon="-2.359">
        <ele>45.599998474121</ele>
        <time>2021-11-18T09:25:29.000Z</time>
      </trkpt>
      <trkpt lat="47.3332" lon="-2.35919">
        <ele>46</ele>
        <time>2021-11-18T09:25:32.000Z</time>
      </trkpt>
      <trkpt lat="47.33323" lon="-2.35926">
        <ele>46.400001525879</ele>
        <time>2021-11-18T09:25:33.000Z</time>
      </trkpt>
      <trkpt lat="47.33324" lon="-2.35934">
        <ele>46.799999237061</ele>
        <time>2021-11-18T09:25:34.000Z</time>
      </trkpt>
      <trkpt lat="47.33325" lon="-2.35941">
        <ele>47.200000762939</ele>
        <time>2021-11-18T09:25:35.000Z</time>
      </trkpt>
      <trkpt lat="47.33326" lon="-2.35949">
        <ele>47.599998474121</ele>
        <time>2021-11-18T09:25:36.000Z</time>
      </trkpt>
      <trkpt lat="47.33325" lon="-2.35973">
        <ele>47.599998474121</ele>
        <time>2021-11-18T09:25:39.000Z</time>
      </trkpt>
      <trkpt lat="47.33318" lon="-2.36009">
        <ele>47.599998474121</ele>
        <time>2021-11-18T09:25:43.000Z</time>
      </trkpt>
      <trkpt lat="47.33313" lon="-2.36081">
        <ele>47.599998474121</ele>
        <time>2021-11-18T09:25:51.000Z</time>
      </trkpt>
      <trkpt lat="47.33312" lon="-2.36147">
        <ele>47.599998474121</ele>
        <time>2021-11-18T09:25:58.000Z</time>
      </trkpt>
      <trkpt lat="47.33311" lon="-2.3621">
        <ele>47.599998474121</ele>
        <time>2021-11-18T09:26:05.000Z</time>
      </trkpt>
      <trkpt lat="47.33313" lon="-2.36216">
        <ele>47.599998474121</ele>
        <time>2021-11-18T09:26:06.000Z</time>
      </trkpt>
      <trkpt lat="47.33321" lon="-2.36216">
        <ele>47.599998474121</ele>
        <time>2021-11-18T09:26:08.000Z</time>
      </trkpt>
      <trkpt lat="47.33333" lon="-2.36206">
        <ele>47.599998474121</ele>
        <time>2021-11-18T09:26:11.000Z</time>
      </trkpt>
      <trkpt lat="47.33338" lon="-2.36202">
        <ele>47.599998474121</ele>
        <time>2021-11-18T09:26:12.000Z</time>
      </trkpt>
      <trkpt lat="47.33366" lon="-2.36184">
        <ele>47.599998474121</ele>
        <time>2021-11-18T09:26:18.000Z</time>
      </trkpt>
      <trkpt lat="47.33399" lon="-2.36161">
        <ele>47.599998474121</ele>
        <time>2021-11-18T09:26:25.000Z</time>
      </trkpt>
      <trkpt lat="47.33404" lon="-2.3616">
        <ele>47.599998474121</ele>
        <time>2021-11-18T09:26:26.000Z</time>
      </trkpt>
      <trkpt lat="47.33411" lon="-2.36169">
        <ele>47.599998474121</ele>
        <time>2021-11-18T09:26:28.000Z</time>
      </trkpt>
      <trkpt lat="47.33414" lon="-2.36191">
        <ele>47.599998474121</ele>
        <time>2021-11-18T09:26:31.000Z</time>
      </trkpt>
      <trkpt lat="47.33414" lon="-2.36199">
        <ele>47.599998474121</ele>
        <time>2021-11-18T09:26:32.000Z</time>
      </trkpt>
      <trkpt lat="47.33414" lon="-2.36215">
        <ele>47.599998474121</ele>
        <time>2021-11-18T09:26:34.000Z</time>
      </trkpt>
      <trkpt lat="47.33411" lon="-2.36235">
        <ele>47.599998474121</ele>
        <time>2021-11-18T09:26:36.000Z</time>
      </trkpt>
      <trkpt lat="47.33412" lon="-2.36284">
        <ele>47.599998474121</ele>
        <time>2021-11-18T09:26:41.000Z</time>
      </trkpt>
      <trkpt lat="47.33413" lon="-2.36294">
        <ele>47.599998474121</ele>
        <time>2021-11-18T09:26:42.000Z</time>
      </trkpt>
      <trkpt lat="47.3342" lon="-2.36319">
        <ele>47.599998474121</ele>
        <time>2021-11-18T09:26:45.000Z</time>
      </trkpt>
      <trkpt lat="47.33424" lon="-2.36333">
        <ele>47.200000762939</ele>
        <time>2021-11-18T09:26:47.000Z</time>
      </trkpt>
      <trkpt lat="47.33426" lon="-2.36341">
        <ele>46.799999237061</ele>
        <time>2021-11-18T09:26:48.000Z</time>
      </trkpt>
      <trkpt lat="47.33428" lon="-2.36349">
        <ele>46.400001525879</ele>
        <time>2021-11-18T09:26:49.000Z</time>
      </trkpt>
      <trkpt lat="47.33431" lon="-2.36357">
        <ele>46</ele>
        <time>2021-11-18T09:26:50.000Z</time>
      </trkpt>
      <trkpt lat="47.33433" lon="-2.36363">
        <ele>45.400001525879</ele>
        <time>2021-11-18T09:26:51.000Z</time>
      </trkpt>
      <trkpt lat="47.33439" lon="-2.36383">
        <ele>45.400001525879</ele>
        <time>2021-11-18T09:26:54.000Z</time>
      </trkpt>
      <trkpt lat="47.33443" lon="-2.36392">
        <ele>45</ele>
        <time>2021-11-18T09:26:56.000Z</time>
      </trkpt>
      <trkpt lat="47.33445" lon="-2.36397">
        <ele>44.599998474121</ele>
        <time>2021-11-18T09:26:57.000Z</time>
      </trkpt>
      <trkpt lat="47.33447" lon="-2.364">
        <ele>44.200000762939</ele>
        <time>2021-11-18T09:26:58.000Z</time>
      </trkpt>
      <trkpt lat="47.33448" lon="-2.36403">
        <ele>43.799999237061</ele>
        <time>2021-11-18T09:26:59.000Z</time>
      </trkpt>
      <trkpt lat="47.33449" lon="-2.36405">
        <ele>43.400001525879</ele>
        <time>2021-11-18T09:27:00.000Z</time>
      </trkpt>
      <trkpt lat="47.33458" lon="-2.36413">
        <ele>43.400001525879</ele>
        <time>2021-11-18T09:27:04.000Z</time>
      </trkpt>
      <trkpt lat="47.33473" lon="-2.36417">
        <ele>43.400001525879</ele>
        <time>2021-11-18T09:27:09.000Z</time>
      </trkpt>
      <trkpt lat="47.33474" lon="-2.3642">
        <ele>43.400001525879</ele>
        <time>2021-11-18T09:27:10.000Z</time>
      </trkpt>
      <trkpt lat="47.33473" lon="-2.36427">
        <ele>43.400001525879</ele>
        <time>2021-11-18T09:27:12.000Z</time>
      </trkpt>
      <trkpt lat="47.33472" lon="-2.36449">
        <ele>43.400001525879</ele>
        <time>2021-11-18T09:27:16.000Z</time>
      </trkpt>
      <trkpt lat="47.33472" lon="-2.36456">
        <ele>43.400001525879</ele>
        <time>2021-11-18T09:27:17.000Z</time>
      </trkpt>
      <trkpt lat="47.33471" lon="-2.36484">
        <ele>43.400001525879</ele>
        <time>2021-11-18T09:27:21.000Z</time>
      </trkpt>
      <trkpt lat="47.33471" lon="-2.36523">
        <ele>43</ele>
        <time>2021-11-18T09:27:26.000Z</time>
      </trkpt>
      <trkpt lat="47.33471" lon="-2.36531">
        <ele>42.599998474121</ele>
        <time>2021-11-18T09:27:27.000Z</time>
      </trkpt>
      <trkpt lat="47.33471" lon="-2.3654">
        <ele>42</ele>
        <time>2021-11-18T09:27:28.000Z</time>
      </trkpt>
      <trkpt lat="47.33471" lon="-2.36548">
        <ele>41.200000762939</ele>
        <time>2021-11-18T09:27:29.000Z</time>
      </trkpt>
      <trkpt lat="47.33469" lon="-2.36583">
        <ele>41.200000762939</ele>
        <time>2021-11-18T09:27:34.000Z</time>
      </trkpt>
      <trkpt lat="47.33473" lon="-2.36585">
        <ele>41.200000762939</ele>
        <time>2021-11-18T09:27:35.000Z</time>
      </trkpt>
      <trkpt lat="47.33479" lon="-2.36586">
        <ele>41.200000762939</ele>
        <time>2021-11-18T09:27:36.000Z</time>
      </trkpt>
      <trkpt lat="47.33501" lon="-2.36595">
        <ele>41.200000762939</ele>
        <time>2021-11-18T09:27:41.000Z</time>
      </trkpt>
      <trkpt lat="47.33521" lon="-2.36608">
        <ele>40.799999237061</ele>
        <time>2021-11-18T09:27:46.000Z</time>
      </trkpt>
      <trkpt lat="47.33525" lon="-2.36612">
        <ele>40.400001525879</ele>
        <time>2021-11-18T09:27:47.000Z</time>
      </trkpt>
      <trkpt lat="47.33527" lon="-2.36614">
        <ele>40</ele>
        <time>2021-11-18T09:27:48.000Z</time>
      </trkpt>
      <trkpt lat="47.33529" lon="-2.36617">
        <ele>39.599998474121</ele>
        <time>2021-11-18T09:27:49.000Z</time>
      </trkpt>
      <trkpt lat="47.33531" lon="-2.36621">
        <ele>39.200000762939</ele>
        <time>2021-11-18T09:27:50.000Z</time>
      </trkpt>
      <trkpt lat="47.33533" lon="-2.36623">
        <ele>39.200000762939</ele>
        <time>2021-11-18T09:27:51.000Z</time>
      </trkpt>
      <trkpt lat="47.33536" lon="-2.36626">
        <ele>38.799999237061</ele>
        <time>2021-11-18T09:27:52.000Z</time>
      </trkpt>
      <trkpt lat="47.33539" lon="-2.3663">
        <ele>37.799999237061</ele>
        <time>2021-11-18T09:27:53.000Z</time>
      </trkpt>
      <trkpt lat="47.33541" lon="-2.36633">
        <ele>37.200000762939</ele>
        <time>2021-11-18T09:27:54.000Z</time>
      </trkpt>
      <trkpt lat="47.33541" lon="-2.36637">
        <ele>36.599998474121</ele>
        <time>2021-11-18T09:27:55.000Z</time>
      </trkpt>
      <trkpt lat="47.33541" lon="-2.36641">
        <ele>36</ele>
        <time>2021-11-18T09:27:56.000Z</time>
      </trkpt>
      <trkpt lat="47.3354" lon="-2.36646">
        <ele>35.400001525879</ele>
        <time>2021-11-18T09:27:57.000Z</time>
      </trkpt>
      <trkpt lat="47.33538" lon="-2.3665">
        <ele>34.599998474121</ele>
        <time>2021-11-18T09:27:58.000Z</time>
      </trkpt>
      <trkpt lat="47.33535" lon="-2.36655">
        <ele>34.599998474121</ele>
        <time>2021-11-18T09:27:59.000Z</time>
      </trkpt>
      <trkpt lat="47.33527" lon="-2.36664">
        <ele>34.599998474121</ele>
        <time>2021-11-18T09:28:01.000Z</time>
      </trkpt>
      <trkpt lat="47.33523" lon="-2.3667">
        <ele>34.200000762939</ele>
        <time>2021-11-18T09:28:02.000Z</time>
      </trkpt>
      <trkpt lat="47.33519" lon="-2.36676">
        <ele>33.799999237061</ele>
        <time>2021-11-18T09:28:03.000Z</time>
      </trkpt>
      <trkpt lat="47.33515" lon="-2.36682">
        <ele>33.400001525879</ele>
        <time>2021-11-18T09:28:04.000Z</time>
      </trkpt>
      <trkpt lat="47.33512" lon="-2.36688">
        <ele>33</ele>
        <time>2021-11-18T09:28:05.000Z</time>
      </trkpt>
      <trkpt lat="47.33509" lon="-2.36694">
        <ele>32.599998474121</ele>
        <time>2021-11-18T09:28:06.000Z</time>
      </trkpt>
      <trkpt lat="47.335" lon="-2.36708">
        <ele>32.599998474121</ele>
        <time>2021-11-18T09:28:09.000Z</time>
      </trkpt>
      <trkpt lat="47.33493" lon="-2.36722">
        <ele>32.599998474121</ele>
        <time>2021-11-18T09:28:13.000Z</time>
      </trkpt>
      <trkpt lat="47.33478" lon="-2.36754">
        <ele>32.599998474121</ele>
        <time>2021-11-18T09:28:20.000Z</time>
      </trkpt>
      <trkpt lat="47.33472" lon="-2.36772">
        <ele>32.599998474121</ele>
        <time>2021-11-18T09:28:23.000Z</time>
      </trkpt>
      <trkpt lat="47.33468" lon="-2.36793">
        <ele>32.599998474121</ele>
        <time>2021-11-18T09:28:26.000Z</time>
      </trkpt>
      <trkpt lat="47.33464" lon="-2.36831">
        <ele>32.599998474121</ele>
        <time>2021-11-18T09:28:32.000Z</time>
      </trkpt>
      <trkpt lat="47.33454" lon="-2.36854">
        <ele>32.599998474121</ele>
        <time>2021-11-18T09:28:37.000Z</time>
      </trkpt>
      <trkpt lat="47.33451" lon="-2.3686">
        <ele>33.200000762939</ele>
        <time>2021-11-18T09:28:39.000Z</time>
      </trkpt>
      <trkpt lat="47.33451" lon="-2.36863">
        <ele>33.799999237061</ele>
        <time>2021-11-18T09:28:40.000Z</time>
      </trkpt>
      <trkpt lat="47.3345" lon="-2.36866">
        <ele>34.200000762939</ele>
        <time>2021-11-18T09:28:41.000Z</time>
      </trkpt>
      <trkpt lat="47.3345" lon="-2.36868">
        <ele>34.799999237061</ele>
        <time>2021-11-18T09:28:42.000Z</time>
      </trkpt>
      <trkpt lat="47.33451" lon="-2.36872">
        <ele>35.200000762939</ele>
        <time>2021-11-18T09:28:43.000Z</time>
      </trkpt>
      <trkpt lat="47.33451" lon="-2.36879">
        <ele>35.200000762939</ele>
        <time>2021-11-18T09:28:45.000Z</time>
      </trkpt>
      <trkpt lat="47.33454" lon="-2.36894">
        <ele>35.200000762939</ele>
        <time>2021-11-18T09:28:48.000Z</time>
      </trkpt>
      <trkpt lat="47.33456" lon="-2.36899">
        <ele>35.200000762939</ele>
        <time>2021-11-18T09:28:49.000Z</time>
      </trkpt>
      <trkpt lat="47.33456" lon="-2.36935">
        <ele>35.200000762939</ele>
        <time>2021-11-18T09:28:55.000Z</time>
      </trkpt>
      <trkpt lat="47.33456" lon="-2.36949">
        <ele>35.200000762939</ele>
        <time>2021-11-18T09:28:57.000Z</time>
      </trkpt>
      <trkpt lat="47.3346" lon="-2.36963">
        <ele>35.200000762939</ele>
        <time>2021-11-18T09:28:59.000Z</time>
      </trkpt>
      <trkpt lat="47.33469" lon="-2.36985">
        <ele>35.200000762939</ele>
        <time>2021-11-18T09:29:03.000Z</time>
      </trkpt>
      <trkpt lat="47.33471" lon="-2.36992">
        <ele>35.200000762939</ele>
        <time>2021-11-18T09:29:07.000Z</time>
      </trkpt>
      <trkpt lat="47.3347" lon="-2.37">
        <ele>35.200000762939</ele>
        <time>2021-11-18T09:29:11.000Z</time>
      </trkpt>
      <trkpt lat="47.33468" lon="-2.37007">
        <ele>35.200000762939</ele>
        <time>2021-11-18T09:29:13.000Z</time>
      </trkpt>
      <trkpt lat="47.33467" lon="-2.37014">
        <ele>35.200000762939</ele>
        <time>2021-11-18T09:29:15.000Z</time>
      </trkpt>
      <trkpt lat="47.33467" lon="-2.37033">
        <ele>35.200000762939</ele>
        <time>2021-11-18T09:29:19.000Z</time>
      </trkpt>
      <trkpt lat="47.33469" lon="-2.37059">
        <ele>35.200000762939</ele>
        <time>2021-11-18T09:29:25.000Z</time>
      </trkpt>
      <trkpt lat="47.33473" lon="-2.37085">
        <ele>35.599998474121</ele>
        <time>2021-11-18T09:29:31.000Z</time>
      </trkpt>
      <trkpt lat="47.33473" lon="-2.37089">
        <ele>36.400001525879</ele>
        <time>2021-11-18T09:29:32.000Z</time>
      </trkpt>
      <trkpt lat="47.33473" lon="-2.37094">
        <ele>36.799999237061</ele>
        <time>2021-11-18T09:29:33.000Z</time>
      </trkpt>
      <trkpt lat="47.33474" lon="-2.37098">
        <ele>37.200000762939</ele>
        <time>2021-11-18T09:29:34.000Z</time>
      </trkpt>
      <trkpt lat="47.33478" lon="-2.37121">
        <ele>37.200000762939</ele>
        <time>2021-11-18T09:29:39.000Z</time>
      </trkpt>
      <trkpt lat="47.33479" lon="-2.37139">
        <ele>37.599998474121</ele>
        <time>2021-11-18T09:29:43.000Z</time>
      </trkpt>
      <trkpt lat="47.3348" lon="-2.37144">
        <ele>38.200000762939</ele>
        <time>2021-11-18T09:29:44.000Z</time>
      </trkpt>
      <trkpt lat="47.33481" lon="-2.3715">
        <ele>38.599998474121</ele>
        <time>2021-11-18T09:29:45.000Z</time>
      </trkpt>
      <trkpt lat="47.33482" lon="-2.37154">
        <ele>39</ele>
        <time>2021-11-18T09:29:46.000Z</time>
      </trkpt>
      <trkpt lat="47.33483" lon="-2.3716">
        <ele>39.400001525879</ele>
        <time>2021-11-18T09:29:47.000Z</time>
      </trkpt>
      <trkpt lat="47.33488" lon="-2.37184">
        <ele>39.400001525879</ele>
        <time>2021-11-18T09:29:52.000Z</time>
      </trkpt>
      <trkpt lat="47.33496" lon="-2.37212">
        <ele>39.400001525879</ele>
        <time>2021-11-18T09:29:58.000Z</time>
      </trkpt>
      <trkpt lat="47.33499" lon="-2.37222">
        <ele>39.799999237061</ele>
        <time>2021-11-18T09:30:00.000Z</time>
      </trkpt>
      <trkpt lat="47.33501" lon="-2.37228">
        <ele>40.200000762939</ele>
        <time>2021-11-18T09:30:01.000Z</time>
      </trkpt>
      <trkpt lat="47.33502" lon="-2.37234">
        <ele>40.599998474121</ele>
        <time>2021-11-18T09:30:02.000Z</time>
      </trkpt>
      <trkpt lat="47.33504" lon="-2.3724">
        <ele>41</ele>
        <time>2021-11-18T09:30:03.000Z</time>
      </trkpt>
      <trkpt lat="47.33505" lon="-2.37246">
        <ele>41.400001525879</ele>
        <time>2021-11-18T09:30:04.000Z</time>
      </trkpt>
      <trkpt lat="47.33507" lon="-2.37251">
        <ele>41.400001525879</ele>
        <time>2021-11-18T09:30:05.000Z</time>
      </trkpt>
      <trkpt lat="47.33511" lon="-2.37267">
        <ele>41.799999237061</ele>
        <time>2021-11-18T09:30:08.000Z</time>
      </trkpt>
      <trkpt lat="47.33512" lon="-2.37272">
        <ele>42.200000762939</ele>
        <time>2021-11-18T09:30:09.000Z</time>
      </trkpt>
      <trkpt lat="47.33514" lon="-2.37277">
        <ele>42.799999237061</ele>
        <time>2021-11-18T09:30:10.000Z</time>
      </trkpt>
      <trkpt lat="47.33515" lon="-2.37282">
        <ele>43.200000762939</ele>
        <time>2021-11-18T09:30:11.000Z</time>
      </trkpt>
      <trkpt lat="47.33517" lon="-2.37288">
        <ele>43.599998474121</ele>
        <time>2021-11-18T09:30:12.000Z</time>
      </trkpt>
      <trkpt lat="47.33525" lon="-2.37316">
        <ele>43.599998474121</ele>
        <time>2021-11-18T09:30:18.000Z</time>
      </trkpt>
      <trkpt lat="47.33534" lon="-2.37342">
        <ele>44</ele>
        <time>2021-11-18T09:30:24.000Z</time>
      </trkpt>
      <trkpt lat="47.33535" lon="-2.37346">
        <ele>44.400001525879</ele>
        <time>2021-11-18T09:30:25.000Z</time>
      </trkpt>
      <trkpt lat="47.33536" lon="-2.37349">
        <ele>45</ele>
        <time>2021-11-18T09:30:26.000Z</time>
      </trkpt>
      <trkpt lat="47.33537" lon="-2.37352">
        <ele>45.400001525879</ele>
        <time>2021-11-18T09:30:27.000Z</time>
      </trkpt>
      <trkpt lat="47.33537" lon="-2.37354">
        <ele>45.799999237061</ele>
        <time>2021-11-18T09:30:28.000Z</time>
      </trkpt>
      <trkpt lat="47.33537" lon="-2.37359">
        <ele>45.799999237061</ele>
        <time>2021-11-18T09:30:30.000Z</time>
      </trkpt>
      <trkpt lat="47.33538" lon="-2.37379">
        <ele>45.799999237061</ele>
        <time>2021-11-18T09:30:36.000Z</time>
      </trkpt>
      <trkpt lat="47.33539" lon="-2.37398">
        <ele>45.799999237061</ele>
        <time>2021-11-18T09:30:42.000Z</time>
      </trkpt>
      <trkpt lat="47.33539" lon="-2.37407">
        <ele>46.200000762939</ele>
        <time>2021-11-18T09:30:45.000Z</time>
      </trkpt>
      <trkpt lat="47.33539" lon="-2.37411">
        <ele>46.599998474121</ele>
        <time>2021-11-18T09:30:46.000Z</time>
      </trkpt>
      <trkpt lat="47.33539" lon="-2.37415">
        <ele>47.400001525879</ele>
        <time>2021-11-18T09:30:47.000Z</time>
      </trkpt>
      <trkpt lat="47.33539" lon="-2.37418">
        <ele>47.799999237061</ele>
        <time>2021-11-18T09:30:48.000Z</time>
      </trkpt>
      <trkpt lat="47.33539" lon="-2.37422">
        <ele>47.799999237061</ele>
        <time>2021-11-18T09:30:49.000Z</time>
      </trkpt>
      <trkpt lat="47.33536" lon="-2.37446">
        <ele>47.799999237061</ele>
        <time>2021-11-18T09:30:55.000Z</time>
      </trkpt>
      <trkpt lat="47.33531" lon="-2.37465">
        <ele>47.799999237061</ele>
        <time>2021-11-18T09:31:00.000Z</time>
      </trkpt>
      <trkpt lat="47.33522" lon="-2.37488">
        <ele>47.799999237061</ele>
        <time>2021-11-18T09:31:06.000Z</time>
      </trkpt>
      <trkpt lat="47.33519" lon="-2.37495">
        <ele>48.200000762939</ele>
        <time>2021-11-18T09:31:08.000Z</time>
      </trkpt>
      <trkpt lat="47.33517" lon="-2.37499">
        <ele>48.599998474121</ele>
        <time>2021-11-18T09:31:09.000Z</time>
      </trkpt>
      <trkpt lat="47.33516" lon="-2.37503">
        <ele>49</ele>
        <time>2021-11-18T09:31:10.000Z</time>
      </trkpt>
      <trkpt lat="47.33515" lon="-2.37507">
        <ele>49.400001525879</ele>
        <time>2021-11-18T09:31:11.000Z</time>
      </trkpt>
      <trkpt lat="47.33513" lon="-2.37511">
        <ele>49.799999237061</ele>
        <time>2021-11-18T09:31:12.000Z</time>
      </trkpt>
      <trkpt lat="47.33511" lon="-2.37514">
        <ele>49.799999237061</ele>
        <time>2021-11-18T09:31:13.000Z</time>
      </trkpt>
      <trkpt lat="47.33497" lon="-2.37536">
        <ele>49.799999237061</ele>
        <time>2021-11-18T09:31:20.000Z</time>
      </trkpt>
      <trkpt lat="47.33486" lon="-2.37555">
        <ele>49.799999237061</ele>
        <time>2021-11-18T09:31:26.000Z</time>
      </trkpt>
      <trkpt lat="47.33484" lon="-2.37558">
        <ele>50.200000762939</ele>
        <time>2021-11-18T09:31:27.000Z</time>
      </trkpt>
      <trkpt lat="47.33482" lon="-2.37561">
        <ele>50.599998474121</ele>
        <time>2021-11-18T09:31:28.000Z</time>
      </trkpt>
      <trkpt lat="47.3348" lon="-2.37563">
        <ele>51</ele>
        <time>2021-11-18T09:31:29.000Z</time>
      </trkpt>
      <trkpt lat="47.33478" lon="-2.37566">
        <ele>51.400001525879</ele>
        <time>2021-11-18T09:31:30.000Z</time>
      </trkpt>
      <trkpt lat="47.33475" lon="-2.37568">
        <ele>51.799999237061</ele>
        <time>2021-11-18T09:31:31.000Z</time>
      </trkpt>
      <trkpt lat="47.33471" lon="-2.37571">
        <ele>51.799999237061</ele>
        <time>2021-11-18T09:31:33.000Z</time>
      </trkpt>
      <trkpt lat="47.33458" lon="-2.37584">
        <ele>51.799999237061</ele>
        <time>2021-11-18T09:31:39.000Z</time>
      </trkpt>
      <trkpt lat="47.33438" lon="-2.37602">
        <ele>51.799999237061</ele>
        <time>2021-11-18T09:31:47.000Z</time>
      </trkpt>
      <trkpt lat="47.33416" lon="-2.3762">
        <ele>51.799999237061</ele>
        <time>2021-11-18T09:31:55.000Z</time>
      </trkpt>
      <trkpt lat="47.33399" lon="-2.37636">
        <ele>51.799999237061</ele>
        <time>2021-11-18T09:32:02.000Z</time>
      </trkpt>
      <trkpt lat="47.33391" lon="-2.37654">
        <ele>51.799999237061</ele>
        <time>2021-11-18T09:32:06.000Z</time>
      </trkpt>
      <trkpt lat="47.3339" lon="-2.3766">
        <ele>51.799999237061</ele>
        <time>2021-11-18T09:32:07.000Z</time>
      </trkpt>
      <trkpt lat="47.33386" lon="-2.37694">
        <ele>51.799999237061</ele>
        <time>2021-11-18T09:32:13.000Z</time>
      </trkpt>
      <trkpt lat="47.33386" lon="-2.37719">
        <ele>52.200000762939</ele>
        <time>2021-11-18T09:32:18.000Z</time>
      </trkpt>
      <trkpt lat="47.33386" lon="-2.37724">
        <ele>52.599998474121</ele>
        <time>2021-11-18T09:32:19.000Z</time>
      </trkpt>
      <trkpt lat="47.33386" lon="-2.37729">
        <ele>53.200000762939</ele>
        <time>2021-11-18T09:32:20.000Z</time>
      </trkpt>
      <trkpt lat="47.33386" lon="-2.37734">
        <ele>53.599998474121</ele>
        <time>2021-11-18T09:32:21.000Z</time>
      </trkpt>
      <trkpt lat="47.33386" lon="-2.37739">
        <ele>54</ele>
        <time>2021-11-18T09:32:22.000Z</time>
      </trkpt>
      <trkpt lat="47.33386" lon="-2.37778">
        <ele>54</ele>
        <time>2021-11-18T09:32:29.000Z</time>
      </trkpt>
      <trkpt lat="47.33381" lon="-2.37816">
        <ele>54</ele>
        <time>2021-11-18T09:32:36.000Z</time>
      </trkpt>
      <trkpt lat="47.33368" lon="-2.37845">
        <ele>54</ele>
        <time>2021-11-18T09:32:42.000Z</time>
      </trkpt>
      <trkpt lat="47.33363" lon="-2.37854">
        <ele>53.599998474121</ele>
        <time>2021-11-18T09:32:45.000Z</time>
      </trkpt>
      <trkpt lat="47.33361" lon="-2.37855">
        <ele>53.200000762939</ele>
        <time>2021-11-18T09:32:46.000Z</time>
      </trkpt>
      <trkpt lat="47.3336" lon="-2.37855">
        <ele>52.799999237061</ele>
        <time>2021-11-18T09:32:47.000Z</time>
      </trkpt>
      <trkpt lat="47.33359" lon="-2.37856">
        <ele>52.200000762939</ele>
        <time>2021-11-18T09:32:48.000Z</time>
      </trkpt>
      <trkpt lat="47.33358" lon="-2.37855">
        <ele>51.799999237061</ele>
        <time>2021-11-18T09:32:49.000Z</time>
      </trkpt>
      <trkpt lat="47.3335" lon="-2.37853">
        <ele>51.799999237061</ele>
        <time>2021-11-18T09:32:53.000Z</time>
      </trkpt>
      <trkpt lat="47.33332" lon="-2.37855">
        <ele>51.799999237061</ele>
        <time>2021-11-18T09:32:58.000Z</time>
      </trkpt>
      <trkpt lat="47.33307" lon="-2.37863">
        <ele>51.799999237061</ele>
        <time>2021-11-18T09:33:03.000Z</time>
      </trkpt>
      <trkpt lat="47.33296" lon="-2.37867">
        <ele>51.799999237061</ele>
        <time>2021-11-18T09:33:05.000Z</time>
      </trkpt>
      <trkpt lat="47.3329" lon="-2.37869">
        <ele>51.400001525879</ele>
        <time>2021-11-18T09:33:06.000Z</time>
      </trkpt>
      <trkpt lat="47.33285" lon="-2.37871">
        <ele>51</ele>
        <time>2021-11-18T09:33:07.000Z</time>
      </trkpt>
      <trkpt lat="47.33279" lon="-2.37872">
        <ele>50.599998474121</ele>
        <time>2021-11-18T09:33:08.000Z</time>
      </trkpt>
      <trkpt lat="47.33273" lon="-2.37874">
        <ele>50</ele>
        <time>2021-11-18T09:33:09.000Z</time>
      </trkpt>
      <trkpt lat="47.33267" lon="-2.37876">
        <ele>49.599998474121</ele>
        <time>2021-11-18T09:33:10.000Z</time>
      </trkpt>
      <trkpt lat="47.33256" lon="-2.3788">
        <ele>49.200000762939</ele>
        <time>2021-11-18T09:33:12.000Z</time>
      </trkpt>
      <trkpt lat="47.33251" lon="-2.37879">
        <ele>48.599998474121</ele>
        <time>2021-11-18T09:33:13.000Z</time>
      </trkpt>
      <trkpt lat="47.33246" lon="-2.37876">
        <ele>48.200000762939</ele>
        <time>2021-11-18T09:33:14.000Z</time>
      </trkpt>
      <trkpt lat="47.3324" lon="-2.37872">
        <ele>47.200000762939</ele>
        <time>2021-11-18T09:33:15.000Z</time>
      </trkpt>
      <trkpt lat="47.33234" lon="-2.37868">
        <ele>46.799999237061</ele>
        <time>2021-11-18T09:33:16.000Z</time>
      </trkpt>
      <trkpt lat="47.33229" lon="-2.37863">
        <ele>46.200000762939</ele>
        <time>2021-11-18T09:33:17.000Z</time>
      </trkpt>
      <trkpt lat="47.33224" lon="-2.37858">
        <ele>45.799999237061</ele>
        <time>2021-11-18T09:33:18.000Z</time>
      </trkpt>
      <trkpt lat="47.33219" lon="-2.37851">
        <ele>45.400001525879</ele>
        <time>2021-11-18T09:33:19.000Z</time>
      </trkpt>
      <trkpt lat="47.33215" lon="-2.37845">
        <ele>44.799999237061</ele>
        <time>2021-11-18T09:33:20.000Z</time>
      </trkpt>
      <trkpt lat="47.33211" lon="-2.37838">
        <ele>44.799999237061</ele>
        <time>2021-11-18T09:33:21.000Z</time>
      </trkpt>
      <trkpt lat="47.33196" lon="-2.37811">
        <ele>44.799999237061</ele>
        <time>2021-11-18T09:33:25.000Z</time>
      </trkpt>
      <trkpt lat="47.33186" lon="-2.37792">
        <ele>44.400001525879</ele>
        <time>2021-11-18T09:33:28.000Z</time>
      </trkpt>
      <trkpt lat="47.33182" lon="-2.37784">
        <ele>44</ele>
        <time>2021-11-18T09:33:29.000Z</time>
      </trkpt>
      <trkpt lat="47.33178" lon="-2.37777">
        <ele>43.599998474121</ele>
        <time>2021-11-18T09:33:30.000Z</time>
      </trkpt>
      <trkpt lat="47.33174" lon="-2.37769">
        <ele>43.200000762939</ele>
        <time>2021-11-18T09:33:31.000Z</time>
      </trkpt>
      <trkpt lat="47.3317" lon="-2.37761">
        <ele>42.799999237061</ele>
        <time>2021-11-18T09:33:32.000Z</time>
      </trkpt>
      <trkpt lat="47.33161" lon="-2.37745">
        <ele>42.400001525879</ele>
        <time>2021-11-18T09:33:34.000Z</time>
      </trkpt>
      <trkpt lat="47.33156" lon="-2.3774">
        <ele>42</ele>
        <time>2021-11-18T09:33:35.000Z</time>
      </trkpt>
      <trkpt lat="47.33152" lon="-2.37737">
        <ele>41.599998474121</ele>
        <time>2021-11-18T09:33:36.000Z</time>
      </trkpt>
      <trkpt lat="47.33147" lon="-2.37736">
        <ele>41.200000762939</ele>
        <time>2021-11-18T09:33:37.000Z</time>
      </trkpt>
      <trkpt lat="47.33142" lon="-2.37737">
        <ele>40.799999237061</ele>
        <time>2021-11-18T09:33:38.000Z</time>
      </trkpt>
      <trkpt lat="47.33137" lon="-2.37739">
        <ele>40.799999237061</ele>
        <time>2021-11-18T09:33:39.000Z</time>
      </trkpt>
      <trkpt lat="47.33127" lon="-2.37747">
        <ele>40.799999237061</ele>
        <time>2021-11-18T09:33:41.000Z</time>
      </trkpt>
      <trkpt lat="47.33123" lon="-2.37751">
        <ele>40.799999237061</ele>
        <time>2021-11-18T09:33:42.000Z</time>
      </trkpt>
      <trkpt lat="47.33115" lon="-2.37761">
        <ele>40.799999237061</ele>
        <time>2021-11-18T09:33:44.000Z</time>
      </trkpt>
      <trkpt lat="47.33085" lon="-2.37792">
        <ele>40.799999237061</ele>
        <time>2021-11-18T09:33:51.000Z</time>
      </trkpt>
      <trkpt lat="47.33076" lon="-2.378">
        <ele>40.799999237061</ele>
        <time>2021-11-18T09:33:53.000Z</time>
      </trkpt>
      <trkpt lat="47.33063" lon="-2.37814">
        <ele>41.200000762939</ele>
        <time>2021-11-18T09:33:56.000Z</time>
      </trkpt>
      <trkpt lat="47.33059" lon="-2.37819">
        <ele>41.599998474121</ele>
        <time>2021-11-18T09:33:57.000Z</time>
      </trkpt>
      <trkpt lat="47.33054" lon="-2.37824">
        <ele>42</ele>
        <time>2021-11-18T09:33:58.000Z</time>
      </trkpt>
      <trkpt lat="47.33049" lon="-2.37828">
        <ele>42.599998474121</ele>
        <time>2021-11-18T09:33:59.000Z</time>
      </trkpt>
      <trkpt lat="47.33045" lon="-2.37833">
        <ele>43</ele>
        <time>2021-11-18T09:34:00.000Z</time>
      </trkpt>
      <trkpt lat="47.33032" lon="-2.37847">
        <ele>43</ele>
        <time>2021-11-18T09:34:03.000Z</time>
      </trkpt>
      <trkpt lat="47.33028" lon="-2.37853">
        <ele>43</ele>
        <time>2021-11-18T09:34:04.000Z</time>
      </trkpt>
      <trkpt lat="47.33019" lon="-2.37874">
        <ele>43</ele>
        <time>2021-11-18T09:34:07.000Z</time>
      </trkpt>
      <trkpt lat="47.33015" lon="-2.37881">
        <ele>43</ele>
        <time>2021-11-18T09:34:08.000Z</time>
      </trkpt>
      <trkpt lat="47.33" lon="-2.37908">
        <ele>43</ele>
        <time>2021-11-18T09:34:12.000Z</time>
      </trkpt>
      <trkpt lat="47.32989" lon="-2.37926">
        <ele>43.400001525879</ele>
        <time>2021-11-18T09:34:15.000Z</time>
      </trkpt>
      <trkpt lat="47.32986" lon="-2.37932">
        <ele>43.799999237061</ele>
        <time>2021-11-18T09:34:16.000Z</time>
      </trkpt>
      <trkpt lat="47.32982" lon="-2.37937">
        <ele>44.200000762939</ele>
        <time>2021-11-18T09:34:17.000Z</time>
      </trkpt>
      <trkpt lat="47.32978" lon="-2.37943">
        <ele>44.599998474121</ele>
        <time>2021-11-18T09:34:18.000Z</time>
      </trkpt>
      <trkpt lat="47.32974" lon="-2.37949">
        <ele>45</ele>
        <time>2021-11-18T09:34:19.000Z</time>
      </trkpt>
      <trkpt lat="47.32947" lon="-2.37984">
        <ele>45</ele>
        <time>2021-11-18T09:34:26.000Z</time>
      </trkpt>
      <trkpt lat="47.32943" lon="-2.3799">
        <ele>45</ele>
        <time>2021-11-18T09:34:27.000Z</time>
      </trkpt>
      <trkpt lat="47.32922" lon="-2.38019">
        <ele>45</ele>
        <time>2021-11-18T09:34:32.000Z</time>
      </trkpt>
      <trkpt lat="47.32894" lon="-2.38064">
        <ele>45.400001525879</ele>
        <time>2021-11-18T09:34:39.000Z</time>
      </trkpt>
      <trkpt lat="47.32891" lon="-2.38071">
        <ele>45.799999237061</ele>
        <time>2021-11-18T09:34:40.000Z</time>
      </trkpt>
      <trkpt lat="47.32887" lon="-2.38078">
        <ele>46.200000762939</ele>
        <time>2021-11-18T09:34:41.000Z</time>
      </trkpt>
      <trkpt lat="47.32883" lon="-2.38084">
        <ele>46.599998474121</ele>
        <time>2021-11-18T09:34:42.000Z</time>
      </trkpt>
      <trkpt lat="47.3288" lon="-2.38091">
        <ele>47</ele>
        <time>2021-11-18T09:34:43.000Z</time>
      </trkpt>
      <trkpt lat="47.32856" lon="-2.38129">
        <ele>47</ele>
        <time>2021-11-18T09:34:49.000Z</time>
      </trkpt>
      <trkpt lat="47.32833" lon="-2.38173">
        <ele>47</ele>
        <time>2021-11-18T09:34:56.000Z</time>
      </trkpt>
      <trkpt lat="47.32831" lon="-2.3818">
        <ele>47.400001525879</ele>
        <time>2021-11-18T09:34:57.000Z</time>
      </trkpt>
      <trkpt lat="47.32828" lon="-2.38186">
        <ele>47.799999237061</ele>
        <time>2021-11-18T09:34:58.000Z</time>
      </trkpt>
      <trkpt lat="47.32826" lon="-2.38192">
        <ele>48.200000762939</ele>
        <time>2021-11-18T09:34:59.000Z</time>
      </trkpt>
      <trkpt lat="47.32824" lon="-2.38198">
        <ele>48.599998474121</ele>
        <time>2021-11-18T09:35:00.000Z</time>
      </trkpt>
      <trkpt lat="47.32821" lon="-2.38203">
        <ele>49</ele>
        <time>2021-11-18T09:35:01.000Z</time>
      </trkpt>
      <trkpt lat="47.32817" lon="-2.38215">
        <ele>49</ele>
        <time>2021-11-18T09:35:03.000Z</time>
      </trkpt>
      <trkpt lat="47.32814" lon="-2.38227">
        <ele>49</ele>
        <time>2021-11-18T09:35:05.000Z</time>
      </trkpt>
      <trkpt lat="47.3281" lon="-2.38244">
        <ele>49.599998474121</ele>
        <time>2021-11-18T09:35:08.000Z</time>
      </trkpt>
      <trkpt lat="47.32809" lon="-2.3825">
        <ele>50</ele>
        <time>2021-11-18T09:35:09.000Z</time>
      </trkpt>
      <trkpt lat="47.32808" lon="-2.38255">
        <ele>50.400001525879</ele>
        <time>2021-11-18T09:35:10.000Z</time>
      </trkpt>
      <trkpt lat="47.32806" lon="-2.3826">
        <ele>50.799999237061</ele>
        <time>2021-11-18T09:35:11.000Z</time>
      </trkpt>
      <trkpt lat="47.32805" lon="-2.38265">
        <ele>51.200000762939</ele>
        <time>2021-11-18T09:35:12.000Z</time>
      </trkpt>
      <trkpt lat="47.328" lon="-2.38287">
        <ele>51.599998474121</ele>
        <time>2021-11-18T09:35:16.000Z</time>
      </trkpt>
      <trkpt lat="47.32799" lon="-2.38293">
        <ele>52</ele>
        <time>2021-11-18T09:35:17.000Z</time>
      </trkpt>
      <trkpt lat="47.32798" lon="-2.38299">
        <ele>52.400001525879</ele>
        <time>2021-11-18T09:35:18.000Z</time>
      </trkpt>
      <trkpt lat="47.32797" lon="-2.38304">
        <ele>53.400001525879</ele>
        <time>2021-11-18T09:35:19.000Z</time>
      </trkpt>
      <trkpt lat="47.32793" lon="-2.38323">
        <ele>53.400001525879</ele>
        <time>2021-11-18T09:35:23.000Z</time>
      </trkpt>
      <trkpt lat="47.32792" lon="-2.38328">
        <ele>53.799999237061</ele>
        <time>2021-11-18T09:35:24.000Z</time>
      </trkpt>
      <trkpt lat="47.32791" lon="-2.38334">
        <ele>54.200000762939</ele>
        <time>2021-11-18T09:35:25.000Z</time>
      </trkpt>
      <trkpt lat="47.3279" lon="-2.38339">
        <ele>54.599998474121</ele>
        <time>2021-11-18T09:35:26.000Z</time>
      </trkpt>
      <trkpt lat="47.32789" lon="-2.38345">
        <ele>55</ele>
        <time>2021-11-18T09:35:27.000Z</time>
      </trkpt>
      <trkpt lat="47.32788" lon="-2.3835">
        <ele>55.400001525879</ele>
        <time>2021-11-18T09:35:28.000Z</time>
      </trkpt>
      <trkpt lat="47.32785" lon="-2.38367">
        <ele>55.400001525879</ele>
        <time>2021-11-18T09:35:31.000Z</time>
      </trkpt>
      <trkpt lat="47.32784" lon="-2.38383">
        <ele>55.799999237061</ele>
        <time>2021-11-18T09:35:34.000Z</time>
      </trkpt>
      <trkpt lat="47.32782" lon="-2.38388">
        <ele>56.200000762939</ele>
        <time>2021-11-18T09:35:35.000Z</time>
      </trkpt>
      <trkpt lat="47.3278" lon="-2.38391">
        <ele>56.799999237061</ele>
        <time>2021-11-18T09:35:36.000Z</time>
      </trkpt>
      <trkpt lat="47.32777" lon="-2.38393">
        <ele>57.200000762939</ele>
        <time>2021-11-18T09:35:37.000Z</time>
      </trkpt>
      <trkpt lat="47.32774" lon="-2.38394">
        <ele>57.599998474121</ele>
        <time>2021-11-18T09:35:38.000Z</time>
      </trkpt>
      <trkpt lat="47.32767" lon="-2.38395">
        <ele>57.599998474121</ele>
        <time>2021-11-18T09:35:40.000Z</time>
      </trkpt>
      <trkpt lat="47.32763" lon="-2.38396">
        <ele>57.599998474121</ele>
        <time>2021-11-18T09:35:41.000Z</time>
      </trkpt>
      <trkpt lat="47.32738" lon="-2.38403">
        <ele>57.599998474121</ele>
        <time>2021-11-18T09:35:47.000Z</time>
      </trkpt>
      <trkpt lat="47.32719" lon="-2.38408">
        <ele>57.599998474121</ele>
        <time>2021-11-18T09:35:51.000Z</time>
      </trkpt>
      <trkpt lat="47.32708" lon="-2.38406">
        <ele>57.599998474121</ele>
        <time>2021-11-18T09:35:53.000Z</time>
      </trkpt>
      <trkpt lat="47.3269" lon="-2.38395">
        <ele>57.599998474121</ele>
        <time>2021-11-18T09:35:56.000Z</time>
      </trkpt>
      <trkpt lat="47.32684" lon="-2.3839">
        <ele>57.200000762939</ele>
        <time>2021-11-18T09:35:57.000Z</time>
      </trkpt>
      <trkpt lat="47.32679" lon="-2.38384">
        <ele>56.799999237061</ele>
        <time>2021-11-18T09:35:58.000Z</time>
      </trkpt>
      <trkpt lat="47.32674" lon="-2.38377">
        <ele>56.400001525879</ele>
        <time>2021-11-18T09:35:59.000Z</time>
      </trkpt>
      <trkpt lat="47.3267" lon="-2.3837">
        <ele>56</ele>
        <time>2021-11-18T09:36:00.000Z</time>
      </trkpt>
      <trkpt lat="47.32665" lon="-2.38363">
        <ele>55.599998474121</ele>
        <time>2021-11-18T09:36:01.000Z</time>
      </trkpt>
      <trkpt lat="47.32659" lon="-2.38356">
        <ele>55.599998474121</ele>
        <time>2021-11-18T09:36:02.000Z</time>
      </trkpt>
      <trkpt lat="47.32648" lon="-2.38342">
        <ele>55</ele>
        <time>2021-11-18T09:36:04.000Z</time>
      </trkpt>
      <trkpt lat="47.32643" lon="-2.38334">
        <ele>54.599998474121</ele>
        <time>2021-11-18T09:36:05.000Z</time>
      </trkpt>
      <trkpt lat="47.32637" lon="-2.38327">
        <ele>54.200000762939</ele>
        <time>2021-11-18T09:36:06.000Z</time>
      </trkpt>
      <trkpt lat="47.32631" lon="-2.38319">
        <ele>53.599998474121</ele>
        <time>2021-11-18T09:36:07.000Z</time>
      </trkpt>
      <trkpt lat="47.32625" lon="-2.38312">
        <ele>53.200000762939</ele>
        <time>2021-11-18T09:36:08.000Z</time>
      </trkpt>
      <trkpt lat="47.32619" lon="-2.38305">
        <ele>52.799999237061</ele>
        <time>2021-11-18T09:36:09.000Z</time>
      </trkpt>
      <trkpt lat="47.32612" lon="-2.38299">
        <ele>52.200000762939</ele>
        <time>2021-11-18T09:36:10.000Z</time>
      </trkpt>
      <trkpt lat="47.32605" lon="-2.38296">
        <ele>51.799999237061</ele>
        <time>2021-11-18T09:36:11.000Z</time>
      </trkpt>
      <trkpt lat="47.32598" lon="-2.38294">
        <ele>51.400001525879</ele>
        <time>2021-11-18T09:36:12.000Z</time>
      </trkpt>
      <trkpt lat="47.32591" lon="-2.38294">
        <ele>51</ele>
        <time>2021-11-18T09:36:13.000Z</time>
      </trkpt>
      <trkpt lat="47.32584" lon="-2.38295">
        <ele>50.599998474121</ele>
        <time>2021-11-18T09:36:14.000Z</time>
      </trkpt>
      <trkpt lat="47.32577" lon="-2.38298">
        <ele>50.200000762939</ele>
        <time>2021-11-18T09:36:15.000Z</time>
      </trkpt>
      <trkpt lat="47.3257" lon="-2.38301">
        <ele>49.799999237061</ele>
        <time>2021-11-18T09:36:16.000Z</time>
      </trkpt>
      <trkpt lat="47.32564" lon="-2.38303">
        <ele>49.400001525879</ele>
        <time>2021-11-18T09:36:17.000Z</time>
      </trkpt>
      <trkpt lat="47.32557" lon="-2.38306">
        <ele>49</ele>
        <time>2021-11-18T09:36:18.000Z</time>
      </trkpt>
      <trkpt lat="47.32537" lon="-2.38315">
        <ele>49</ele>
        <time>2021-11-18T09:36:22.000Z</time>
      </trkpt>
      <trkpt lat="47.32533" lon="-2.38321">
        <ele>49</ele>
        <time>2021-11-18T09:36:24.000Z</time>
      </trkpt>
      <trkpt lat="47.32532" lon="-2.38324">
        <ele>49</ele>
        <time>2021-11-18T09:36:25.000Z</time>
      </trkpt>
      <trkpt lat="47.32526" lon="-2.38355">
        <ele>49.400001525879</ele>
        <time>2021-11-18T09:36:31.000Z</time>
      </trkpt>
      <trkpt lat="47.32525" lon="-2.38361">
        <ele>49.799999237061</ele>
        <time>2021-11-18T09:36:32.000Z</time>
      </trkpt>
      <trkpt lat="47.32525" lon="-2.38367">
        <ele>50.599998474121</ele>
        <time>2021-11-18T09:36:33.000Z</time>
      </trkpt>
      <trkpt lat="47.32524" lon="-2.38373">
        <ele>51</ele>
        <time>2021-11-18T09:36:34.000Z</time>
      </trkpt>
      <trkpt lat="47.3252" lon="-2.38386">
        <ele>51</ele>
        <time>2021-11-18T09:36:37.000Z</time>
      </trkpt>
      <trkpt lat="47.32505" lon="-2.38386">
        <ele>51</ele>
        <time>2021-11-18T09:36:41.000Z</time>
      </trkpt>
      <trkpt lat="47.32498" lon="-2.38384">
        <ele>51</ele>
        <time>2021-11-18T09:36:43.000Z</time>
      </trkpt>
      <trkpt lat="47.32486" lon="-2.38378">
        <ele>51</ele>
        <time>2021-11-18T09:36:47.000Z</time>
      </trkpt>
      <trkpt lat="47.32474" lon="-2.38372">
        <ele>51</ele>
        <time>2021-11-18T09:36:53.000Z</time>
      </trkpt>
      <trkpt lat="47.3246" lon="-2.38365">
        <ele>51</ele>
        <time>2021-11-18T09:36:58.000Z</time>
      </trkpt>
      <trkpt lat="47.32435" lon="-2.38352">
        <ele>51</ele>
        <time>2021-11-18T09:37:06.000Z</time>
      </trkpt>
      <trkpt lat="47.32418" lon="-2.38345">
        <ele>51</ele>
        <time>2021-11-18T09:37:11.000Z</time>
      </trkpt>
      <trkpt lat="47.32398" lon="-2.38334">
        <ele>51</ele>
        <time>2021-11-18T09:37:18.000Z</time>
      </trkpt>
      <trkpt lat="47.32371" lon="-2.38322">
        <ele>51</ele>
        <time>2021-11-18T09:37:25.000Z</time>
      </trkpt>
      <trkpt lat="47.32339" lon="-2.38309">
        <ele>51</ele>
        <time>2021-11-18T09:37:31.000Z</time>
      </trkpt>
      <trkpt lat="47.32309" lon="-2.38296">
        <ele>50.599998474121</ele>
        <time>2021-11-18T09:37:38.000Z</time>
      </trkpt>
      <trkpt lat="47.32304" lon="-2.38295">
        <ele>50.200000762939</ele>
        <time>2021-11-18T09:37:39.000Z</time>
      </trkpt>
      <trkpt lat="47.32298" lon="-2.38294">
        <ele>49.799999237061</ele>
        <time>2021-11-18T09:37:40.000Z</time>
      </trkpt>
      <trkpt lat="47.32293" lon="-2.38294">
        <ele>49.400001525879</ele>
        <time>2021-11-18T09:37:41.000Z</time>
      </trkpt>
      <trkpt lat="47.32287" lon="-2.38294">
        <ele>49</ele>
        <time>2021-11-18T09:37:42.000Z</time>
      </trkpt>
      <trkpt lat="47.32271" lon="-2.38292">
        <ele>49</ele>
        <time>2021-11-18T09:37:45.000Z</time>
      </trkpt>
      <trkpt lat="47.32261" lon="-2.38291">
        <ele>49</ele>
        <time>2021-11-18T09:37:47.000Z</time>
      </trkpt>
      <trkpt lat="47.32246" lon="-2.38295">
        <ele>49</ele>
        <time>2021-11-18T09:37:50.000Z</time>
      </trkpt>
      <trkpt lat="47.32223" lon="-2.38297">
        <ele>49</ele>
        <time>2021-11-18T09:37:56.000Z</time>
      </trkpt>
      <trkpt lat="47.32216" lon="-2.383">
        <ele>49</ele>
        <time>2021-11-18T09:37:58.000Z</time>
      </trkpt>
      <trkpt lat="47.32214" lon="-2.38304">
        <ele>49</ele>
        <time>2021-11-18T09:37:59.000Z</time>
      </trkpt>
      <trkpt lat="47.32205" lon="-2.38314">
        <ele>49</ele>
        <time>2021-11-18T09:38:02.000Z</time>
      </trkpt>
      <trkpt lat="47.32195" lon="-2.38325">
        <ele>49</ele>
        <time>2021-11-18T09:38:05.000Z</time>
      </trkpt>
      <trkpt lat="47.32176" lon="-2.38351">
        <ele>49</ele>
        <time>2021-11-18T09:38:12.000Z</time>
      </trkpt>
      <trkpt lat="47.32159" lon="-2.38379">
        <ele>49</ele>
        <time>2021-11-18T09:38:19.000Z</time>
      </trkpt>
      <trkpt lat="47.3214" lon="-2.38404">
        <ele>49</ele>
        <time>2021-11-18T09:38:25.000Z</time>
      </trkpt>
      <trkpt lat="47.32129" lon="-2.38413">
        <ele>49</ele>
        <time>2021-11-18T09:38:28.000Z</time>
      </trkpt>
      <trkpt lat="47.32119" lon="-2.38418">
        <ele>49</ele>
        <time>2021-11-18T09:38:30.000Z</time>
      </trkpt>
      <trkpt lat="47.32087" lon="-2.38433">
        <ele>49</ele>
        <time>2021-11-18T09:38:36.000Z</time>
      </trkpt>
      <trkpt lat="47.32058" lon="-2.38445">
        <ele>49.400001525879</ele>
        <time>2021-11-18T09:38:42.000Z</time>
      </trkpt>
      <trkpt lat="47.32052" lon="-2.38446">
        <ele>49.799999237061</ele>
        <time>2021-11-18T09:38:43.000Z</time>
      </trkpt>
      <trkpt lat="47.32047" lon="-2.38448">
        <ele>50.200000762939</ele>
        <time>2021-11-18T09:38:44.000Z</time>
      </trkpt>
      <trkpt lat="47.32042" lon="-2.3845">
        <ele>50.799999237061</ele>
        <time>2021-11-18T09:38:45.000Z</time>
      </trkpt>
      <trkpt lat="47.32037" lon="-2.38453">
        <ele>51.200000762939</ele>
        <time>2021-11-18T09:38:46.000Z</time>
      </trkpt>
      <trkpt lat="47.32018" lon="-2.38462">
        <ele>51.200000762939</ele>
        <time>2021-11-18T09:38:50.000Z</time>
      </trkpt>
      <trkpt lat="47.31993" lon="-2.38475">
        <ele>51.200000762939</ele>
        <time>2021-11-18T09:38:55.000Z</time>
      </trkpt>
      <trkpt lat="47.31977" lon="-2.38481">
        <ele>51.599998474121</ele>
        <time>2021-11-18T09:38:58.000Z</time>
      </trkpt>
      <trkpt lat="47.31972" lon="-2.38483">
        <ele>52</ele>
        <time>2021-11-18T09:38:59.000Z</time>
      </trkpt>
      <trkpt lat="47.31967" lon="-2.38485">
        <ele>52.400001525879</ele>
        <time>2021-11-18T09:39:00.000Z</time>
      </trkpt>
      <trkpt lat="47.31962" lon="-2.38487">
        <ele>53.200000762939</ele>
        <time>2021-11-18T09:39:01.000Z</time>
      </trkpt>
      <trkpt lat="47.31957" lon="-2.38488">
        <ele>53.200000762939</ele>
        <time>2021-11-18T09:39:02.000Z</time>
      </trkpt>
      <trkpt lat="47.31926" lon="-2.38496">
        <ele>53.200000762939</ele>
        <time>2021-11-18T09:39:08.000Z</time>
      </trkpt>
      <trkpt lat="47.31906" lon="-2.38506">
        <ele>53.799999237061</ele>
        <time>2021-11-18T09:39:12.000Z</time>
      </trkpt>
      <trkpt lat="47.31901" lon="-2.38508">
        <ele>54.200000762939</ele>
        <time>2021-11-18T09:39:13.000Z</time>
      </trkpt>
      <trkpt lat="47.31896" lon="-2.38511">
        <ele>54.599998474121</ele>
        <time>2021-11-18T09:39:14.000Z</time>
      </trkpt>
      <trkpt lat="47.31891" lon="-2.38513">
        <ele>55</ele>
        <time>2021-11-18T09:39:15.000Z</time>
      </trkpt>
      <trkpt lat="47.31887" lon="-2.38515">
        <ele>55.400001525879</ele>
        <time>2021-11-18T09:39:16.000Z</time>
      </trkpt>
      <trkpt lat="47.31859" lon="-2.38526">
        <ele>56</ele>
        <time>2021-11-18T09:39:22.000Z</time>
      </trkpt>
      <trkpt lat="47.31855" lon="-2.38527">
        <ele>56.400001525879</ele>
        <time>2021-11-18T09:39:23.000Z</time>
      </trkpt>
      <trkpt lat="47.31851" lon="-2.38529">
        <ele>56.799999237061</ele>
        <time>2021-11-18T09:39:24.000Z</time>
      </trkpt>
      <trkpt lat="47.31846" lon="-2.3853">
        <ele>57.200000762939</ele>
        <time>2021-11-18T09:39:25.000Z</time>
      </trkpt>
      <trkpt lat="47.31842" lon="-2.38531">
        <ele>57.599998474121</ele>
        <time>2021-11-18T09:39:26.000Z</time>
      </trkpt>
      <trkpt lat="47.31825" lon="-2.38536">
        <ele>58</ele>
        <time>2021-11-18T09:39:30.000Z</time>
      </trkpt>
      <trkpt lat="47.31822" lon="-2.38536">
        <ele>58.400001525879</ele>
        <time>2021-11-18T09:39:31.000Z</time>
      </trkpt>
      <trkpt lat="47.31818" lon="-2.38537">
        <ele>58.799999237061</ele>
        <time>2021-11-18T09:39:32.000Z</time>
      </trkpt>
      <trkpt lat="47.31815" lon="-2.38539">
        <ele>59.200000762939</ele>
        <time>2021-11-18T09:39:33.000Z</time>
      </trkpt>
      <trkpt lat="47.31813" lon="-2.38543">
        <ele>59.599998474121</ele>
        <time>2021-11-18T09:39:34.000Z</time>
      </trkpt>
      <trkpt lat="47.31811" lon="-2.38558">
        <ele>59.599998474121</ele>
        <time>2021-11-18T09:39:37.000Z</time>
      </trkpt>
      <trkpt lat="47.31813" lon="-2.3857">
        <ele>59.599998474121</ele>
        <time>2021-11-18T09:39:39.000Z</time>
      </trkpt>
      <trkpt lat="47.31814" lon="-2.38596">
        <ele>59.599998474121</ele>
        <time>2021-11-18T09:39:43.000Z</time>
      </trkpt>
      <trkpt lat="47.31816" lon="-2.38623">
        <ele>59.599998474121</ele>
        <time>2021-11-18T09:39:47.000Z</time>
      </trkpt>
      <trkpt lat="47.31817" lon="-2.38645">
        <ele>59.599998474121</ele>
        <time>2021-11-18T09:39:50.000Z</time>
      </trkpt>
      <trkpt lat="47.31822" lon="-2.38704">
        <ele>59.599998474121</ele>
        <time>2021-11-18T09:39:58.000Z</time>
      </trkpt>
      <trkpt lat="47.31823" lon="-2.38764">
        <ele>59.599998474121</ele>
        <time>2021-11-18T09:40:06.000Z</time>
      </trkpt>
      <trkpt lat="47.31825" lon="-2.38813">
        <ele>59.599998474121</ele>
        <time>2021-11-18T09:40:12.000Z</time>
      </trkpt>
      <trkpt lat="47.31826" lon="-2.38822">
        <ele>59.599998474121</ele>
        <time>2021-11-18T09:40:13.000Z</time>
      </trkpt>
      <trkpt lat="47.31833" lon="-2.38857">
        <ele>59.599998474121</ele>
        <time>2021-11-18T09:40:17.000Z</time>
      </trkpt>
      <trkpt lat="47.31849" lon="-2.38926">
        <ele>59.599998474121</ele>
        <time>2021-11-18T09:40:25.000Z</time>
      </trkpt>
      <trkpt lat="47.31871" lon="-2.38995">
        <ele>59.599998474121</ele>
        <time>2021-11-18T09:40:33.000Z</time>
      </trkpt>
      <trkpt lat="47.31888" lon="-2.39044">
        <ele>59.599998474121</ele>
        <time>2021-11-18T09:40:39.000Z</time>
      </trkpt>
      <trkpt lat="47.31908" lon="-2.39107">
        <ele>59.599998474121</ele>
        <time>2021-11-18T09:40:47.000Z</time>
      </trkpt>
      <trkpt lat="47.3193" lon="-2.39181">
        <ele>59.599998474121</ele>
        <time>2021-11-18T09:40:56.000Z</time>
      </trkpt>
      <trkpt lat="47.31946" lon="-2.39231">
        <ele>59.599998474121</ele>
        <time>2021-11-18T09:41:02.000Z</time>
      </trkpt>
      <trkpt lat="47.31961" lon="-2.39289">
        <ele>59.599998474121</ele>
        <time>2021-11-18T09:41:09.000Z</time>
      </trkpt>
      <trkpt lat="47.31965" lon="-2.39305">
        <ele>60.200000762939</ele>
        <time>2021-11-18T09:41:11.000Z</time>
      </trkpt>
      <trkpt lat="47.31967" lon="-2.39313">
        <ele>60.599998474121</ele>
        <time>2021-11-18T09:41:12.000Z</time>
      </trkpt>
      <trkpt lat="47.31969" lon="-2.3932">
        <ele>61</ele>
        <time>2021-11-18T09:41:13.000Z</time>
      </trkpt>
      <trkpt lat="47.31971" lon="-2.39329">
        <ele>61.400001525879</ele>
        <time>2021-11-18T09:41:14.000Z</time>
      </trkpt>
      <trkpt lat="47.31973" lon="-2.39336">
        <ele>61.799999237061</ele>
        <time>2021-11-18T09:41:15.000Z</time>
      </trkpt>
      <trkpt lat="47.31975" lon="-2.39344">
        <ele>61.799999237061</ele>
        <time>2021-11-18T09:41:16.000Z</time>
      </trkpt>
      <trkpt lat="47.31981" lon="-2.39372">
        <ele>61.799999237061</ele>
        <time>2021-11-18T09:41:20.000Z</time>
      </trkpt>
      <trkpt lat="47.31983" lon="-2.3938">
        <ele>61.799999237061</ele>
        <time>2021-11-18T09:41:21.000Z</time>
      </trkpt>
      <trkpt lat="47.31987" lon="-2.39402">
        <ele>61.799999237061</ele>
        <time>2021-11-18T09:41:24.000Z</time>
      </trkpt>
      <trkpt lat="47.3199" lon="-2.39417">
        <ele>61.799999237061</ele>
        <time>2021-11-18T09:41:26.000Z</time>
      </trkpt>
      <trkpt lat="47.31995" lon="-2.39442">
        <ele>61.799999237061</ele>
        <time>2021-11-18T09:41:29.000Z</time>
      </trkpt>
      <trkpt lat="47.31998" lon="-2.39458">
        <ele>62.200000762939</ele>
        <time>2021-11-18T09:41:31.000Z</time>
      </trkpt>
      <trkpt lat="47.32" lon="-2.39466">
        <ele>62.599998474121</ele>
        <time>2021-11-18T09:41:32.000Z</time>
      </trkpt>
      <trkpt lat="47.32002" lon="-2.39473">
        <ele>63</ele>
        <time>2021-11-18T09:41:33.000Z</time>
      </trkpt>
      <trkpt lat="47.32004" lon="-2.39481">
        <ele>63.400001525879</ele>
        <time>2021-11-18T09:41:34.000Z</time>
      </trkpt>
      <trkpt lat="47.32005" lon="-2.39489">
        <ele>63.799999237061</ele>
        <time>2021-11-18T09:41:35.000Z</time>
      </trkpt>
      <trkpt lat="47.32009" lon="-2.39512">
        <ele>63.799999237061</ele>
        <time>2021-11-18T09:41:38.000Z</time>
      </trkpt>
      <trkpt lat="47.32019" lon="-2.39562">
        <ele>63.799999237061</ele>
        <time>2021-11-18T09:41:45.000Z</time>
      </trkpt>
      <trkpt lat="47.3203" lon="-2.39605">
        <ele>63.799999237061</ele>
        <time>2021-11-18T09:41:52.000Z</time>
      </trkpt>
      <trkpt lat="47.32036" lon="-2.39622">
        <ele>64.400001525879</ele>
        <time>2021-11-18T09:41:55.000Z</time>
      </trkpt>
      <trkpt lat="47.32038" lon="-2.39628">
        <ele>64.800003051758</ele>
        <time>2021-11-18T09:41:56.000Z</time>
      </trkpt>
      <trkpt lat="47.32039" lon="-2.39633">
        <ele>65.199996948242</ele>
        <time>2021-11-18T09:41:57.000Z</time>
      </trkpt>
      <trkpt lat="47.32041" lon="-2.3964">
        <ele>65.599998474121</ele>
        <time>2021-11-18T09:41:58.000Z</time>
      </trkpt>
      <trkpt lat="47.32043" lon="-2.39646">
        <ele>66</ele>
        <time>2021-11-18T09:41:59.000Z</time>
      </trkpt>
      <trkpt lat="47.3205" lon="-2.39671">
        <ele>66</ele>
        <time>2021-11-18T09:42:03.000Z</time>
      </trkpt>
      <trkpt lat="47.32055" lon="-2.39689">
        <ele>66</ele>
        <time>2021-11-18T09:42:06.000Z</time>
      </trkpt>
      <trkpt lat="47.3206" lon="-2.39708">
        <ele>66</ele>
        <time>2021-11-18T09:42:09.000Z</time>
      </trkpt>
      <trkpt lat="47.32072" lon="-2.39748">
        <ele>66</ele>
        <time>2021-11-18T09:42:16.000Z</time>
      </trkpt>
      <trkpt lat="47.32079" lon="-2.39776">
        <ele>66.400001525879</ele>
        <time>2021-11-18T09:42:21.000Z</time>
      </trkpt>
      <trkpt lat="47.3208" lon="-2.3978">
        <ele>66.800003051758</ele>
        <time>2021-11-18T09:42:22.000Z</time>
      </trkpt>
      <trkpt lat="47.32082" lon="-2.39783">
        <ele>67.199996948242</ele>
        <time>2021-11-18T09:42:23.000Z</time>
      </trkpt>
      <trkpt lat="47.32083" lon="-2.39787">
        <ele>67.599998474121</ele>
        <time>2021-11-18T09:42:24.000Z</time>
      </trkpt>
      <trkpt lat="47.32084" lon="-2.3979">
        <ele>68</ele>
        <time>2021-11-18T09:42:25.000Z</time>
      </trkpt>
      <trkpt lat="47.32087" lon="-2.39801">
        <ele>68</ele>
        <time>2021-11-18T09:42:30.000Z</time>
      </trkpt>
      <trkpt lat="47.32087" lon="-2.39806">
        <ele>68</ele>
        <time>2021-11-18T09:42:32.000Z</time>
      </trkpt>
      <trkpt lat="47.3208" lon="-2.39819">
        <ele>68</ele>
        <time>2021-11-18T09:42:36.000Z</time>
      </trkpt>
      <trkpt lat="47.32066" lon="-2.39836">
        <ele>68</ele>
        <time>2021-11-18T09:42:41.000Z</time>
      </trkpt>
      <trkpt lat="47.32043" lon="-2.39856">
        <ele>68</ele>
        <time>2021-11-18T09:42:46.000Z</time>
      </trkpt>
      <trkpt lat="47.32027" lon="-2.39868">
        <ele>68</ele>
        <time>2021-11-18T09:42:49.000Z</time>
      </trkpt>
      <trkpt lat="47.32013" lon="-2.39881">
        <ele>68</ele>
        <time>2021-11-18T09:42:52.000Z</time>
      </trkpt>
      <trkpt lat="47.3198" lon="-2.3991">
        <ele>67.599998474121</ele>
        <time>2021-11-18T09:43:00.000Z</time>
      </trkpt>
      <trkpt lat="47.31975" lon="-2.39915">
        <ele>67.199996948242</ele>
        <time>2021-11-18T09:43:01.000Z</time>
      </trkpt>
      <trkpt lat="47.31971" lon="-2.39919">
        <ele>66.800003051758</ele>
        <time>2021-11-18T09:43:02.000Z</time>
      </trkpt>
      <trkpt lat="47.31966" lon="-2.39924">
        <ele>66.400001525879</ele>
        <time>2021-11-18T09:43:03.000Z</time>
      </trkpt>
      <trkpt lat="47.31961" lon="-2.39928">
        <ele>66</ele>
        <time>2021-11-18T09:43:04.000Z</time>
      </trkpt>
      <trkpt lat="47.31947" lon="-2.39941">
        <ele>66</ele>
        <time>2021-11-18T09:43:07.000Z</time>
      </trkpt>
      <trkpt lat="47.31932" lon="-2.39954">
        <ele>65.599998474121</ele>
        <time>2021-11-18T09:43:10.000Z</time>
      </trkpt>
      <trkpt lat="47.31927" lon="-2.3996">
        <ele>65.199996948242</ele>
        <time>2021-11-18T09:43:11.000Z</time>
      </trkpt>
      <trkpt lat="47.31922" lon="-2.39965">
        <ele>64.800003051758</ele>
        <time>2021-11-18T09:43:12.000Z</time>
      </trkpt>
      <trkpt lat="47.31918" lon="-2.39971">
        <ele>64.400001525879</ele>
        <time>2021-11-18T09:43:13.000Z</time>
      </trkpt>
      <trkpt lat="47.31913" lon="-2.39977">
        <ele>64</ele>
        <time>2021-11-18T09:43:14.000Z</time>
      </trkpt>
      <trkpt lat="47.31879" lon="-2.40026">
        <ele>64</ele>
        <time>2021-11-18T09:43:22.000Z</time>
      </trkpt>
      <trkpt lat="47.31863" lon="-2.40049">
        <ele>64</ele>
        <time>2021-11-18T09:43:27.000Z</time>
      </trkpt>
      <trkpt lat="47.31841" lon="-2.40081">
        <ele>64</ele>
        <time>2021-11-18T09:43:34.000Z</time>
      </trkpt>
      <trkpt lat="47.31823" lon="-2.40106">
        <ele>64</ele>
        <time>2021-11-18T09:43:40.000Z</time>
      </trkpt>
      <trkpt lat="47.31799" lon="-2.40136">
        <ele>64</ele>
        <time>2021-11-18T09:43:47.000Z</time>
      </trkpt>
      <trkpt lat="47.31777" lon="-2.4017">
        <ele>64</ele>
        <time>2021-11-18T09:43:54.000Z</time>
      </trkpt>
      <trkpt lat="47.3176" lon="-2.40202">
        <ele>64</ele>
        <time>2021-11-18T09:44:00.000Z</time>
      </trkpt>
      <trkpt lat="47.31758" lon="-2.40207">
        <ele>64</ele>
        <time>2021-11-18T09:44:01.000Z</time>
      </trkpt>
      <trkpt lat="47.31742" lon="-2.40239">
        <ele>64</ele>
        <time>2021-11-18T09:44:08.000Z</time>
      </trkpt>
      <trkpt lat="47.31727" lon="-2.40258">
        <ele>64</ele>
        <time>2021-11-18T09:44:13.000Z</time>
      </trkpt>
      <trkpt lat="47.31705" lon="-2.40283">
        <ele>64</ele>
        <time>2021-11-18T09:44:20.000Z</time>
      </trkpt>
      <trkpt lat="47.31687" lon="-2.40308">
        <ele>64</ele>
        <time>2021-11-18T09:44:27.000Z</time>
      </trkpt>
      <trkpt lat="47.31685" lon="-2.4033">
        <ele>64</ele>
        <time>2021-11-18T09:44:32.000Z</time>
      </trkpt>
      <trkpt lat="47.31687" lon="-2.40334">
        <ele>64</ele>
        <time>2021-11-18T09:44:33.000Z</time>
      </trkpt>
      <trkpt lat="47.31695" lon="-2.40339">
        <ele>64</ele>
        <time>2021-11-18T09:44:35.000Z</time>
      </trkpt>
      <trkpt lat="47.31728" lon="-2.40361">
        <ele>64</ele>
        <time>2021-11-18T09:44:42.000Z</time>
      </trkpt>
      <trkpt lat="47.31761" lon="-2.40389">
        <ele>64</ele>
        <time>2021-11-18T09:44:50.000Z</time>
      </trkpt>
      <trkpt lat="47.31792" lon="-2.40413">
        <ele>64</ele>
        <time>2021-11-18T09:44:57.000Z</time>
      </trkpt>
      <trkpt lat="47.3183" lon="-2.40442">
        <ele>64</ele>
        <time>2021-11-18T09:45:05.000Z</time>
      </trkpt>
      <trkpt lat="47.31865" lon="-2.40469">
        <ele>64.400001525879</ele>
        <time>2021-11-18T09:45:13.000Z</time>
      </trkpt>
      <trkpt lat="47.31869" lon="-2.40472">
        <ele>64.800003051758</ele>
        <time>2021-11-18T09:45:14.000Z</time>
      </trkpt>
      <trkpt lat="47.31873" lon="-2.40475">
        <ele>65.199996948242</ele>
        <time>2021-11-18T09:45:15.000Z</time>
      </trkpt>
      <trkpt lat="47.31878" lon="-2.40478">
        <ele>65.599998474121</ele>
        <time>2021-11-18T09:45:16.000Z</time>
      </trkpt>
      <trkpt lat="47.31882" lon="-2.40482">
        <ele>66</ele>
        <time>2021-11-18T09:45:17.000Z</time>
      </trkpt>
      <trkpt lat="47.31885" lon="-2.40485">
        <ele>66</ele>
        <time>2021-11-18T09:45:18.000Z</time>
      </trkpt>
      <trkpt lat="47.31896" lon="-2.40495">
        <ele>66</ele>
        <time>2021-11-18T09:45:21.000Z</time>
      </trkpt>
      <trkpt lat="47.31915" lon="-2.4051">
        <ele>66</ele>
        <time>2021-11-18T09:45:26.000Z</time>
      </trkpt>
      <trkpt lat="47.31947" lon="-2.40533">
        <ele>66</ele>
        <time>2021-11-18T09:45:33.000Z</time>
      </trkpt>
      <trkpt lat="47.31965" lon="-2.40547">
        <ele>66</ele>
        <time>2021-11-18T09:45:37.000Z</time>
      </trkpt>
      <trkpt lat="47.31975" lon="-2.40555">
        <ele>66.800003051758</ele>
        <time>2021-11-18T09:45:39.000Z</time>
      </trkpt>
      <trkpt lat="47.3198" lon="-2.40558">
        <ele>67.199996948242</ele>
        <time>2021-11-18T09:45:40.000Z</time>
      </trkpt>
      <trkpt lat="47.31985" lon="-2.40562">
        <ele>67.599998474121</ele>
        <time>2021-11-18T09:45:41.000Z</time>
      </trkpt>
      <trkpt lat="47.31991" lon="-2.40567">
        <ele>68</ele>
        <time>2021-11-18T09:45:42.000Z</time>
      </trkpt>
      <trkpt lat="47.3202" lon="-2.40593">
        <ele>68</ele>
        <time>2021-11-18T09:45:47.000Z</time>
      </trkpt>
      <trkpt lat="47.32054" lon="-2.40623">
        <ele>68</ele>
        <time>2021-11-18T09:45:54.000Z</time>
      </trkpt>
      <trkpt lat="47.32077" lon="-2.40645">
        <ele>68</ele>
        <time>2021-11-18T09:45:59.000Z</time>
      </trkpt>
      <trkpt lat="47.32088" lon="-2.40655">
        <ele>68.400001525879</ele>
        <time>2021-11-18T09:46:01.000Z</time>
      </trkpt>
      <trkpt lat="47.32093" lon="-2.4066">
        <ele>68.800003051758</ele>
        <time>2021-11-18T09:46:02.000Z</time>
      </trkpt>
      <trkpt lat="47.32098" lon="-2.40665">
        <ele>69.199996948242</ele>
        <time>2021-11-18T09:46:03.000Z</time>
      </trkpt>
      <trkpt lat="47.32103" lon="-2.40671">
        <ele>70.199996948242</ele>
        <time>2021-11-18T09:46:04.000Z</time>
      </trkpt>
      <trkpt lat="47.32121" lon="-2.40689">
        <ele>70.199996948242</ele>
        <time>2021-11-18T09:46:08.000Z</time>
      </trkpt>
      <trkpt lat="47.32141" lon="-2.4071">
        <ele>70.199996948242</ele>
        <time>2021-11-18T09:46:12.000Z</time>
      </trkpt>
      <trkpt lat="47.32156" lon="-2.40727">
        <ele>70.199996948242</ele>
        <time>2021-11-18T09:46:15.000Z</time>
      </trkpt>
      <trkpt lat="47.32181" lon="-2.40761">
        <ele>70.199996948242</ele>
        <time>2021-11-18T09:46:21.000Z</time>
      </trkpt>
      <trkpt lat="47.32198" lon="-2.40787">
        <ele>70.199996948242</ele>
        <time>2021-11-18T09:46:27.000Z</time>
      </trkpt>
      <trkpt lat="47.32208" lon="-2.40798">
        <ele>70.199996948242</ele>
        <time>2021-11-18T09:46:31.000Z</time>
      </trkpt>
      <trkpt lat="47.32218" lon="-2.40814">
        <ele>70.199996948242</ele>
        <time>2021-11-18T09:46:36.000Z</time>
      </trkpt>
      <trkpt lat="47.3222" lon="-2.40816">
        <ele>70.199996948242</ele>
        <time>2021-11-18T09:46:37.000Z</time>
      </trkpt>
      <trkpt lat="47.32229" lon="-2.40828">
        <ele>70.199996948242</ele>
        <time>2021-11-18T09:46:40.000Z</time>
      </trkpt>
      <trkpt lat="47.32232" lon="-2.40833">
        <ele>70.199996948242</ele>
        <time>2021-11-18T09:46:41.000Z</time>
      </trkpt>
      <trkpt lat="47.32258" lon="-2.40871">
        <ele>70.199996948242</ele>
        <time>2021-11-18T09:46:48.000Z</time>
      </trkpt>
      <trkpt lat="47.32285" lon="-2.40918">
        <ele>70.199996948242</ele>
        <time>2021-11-18T09:46:56.000Z</time>
      </trkpt>
      <trkpt lat="47.32313" lon="-2.40971">
        <ele>70.599998474121</ele>
        <time>2021-11-18T09:47:04.000Z</time>
      </trkpt>
      <trkpt lat="47.32316" lon="-2.40978">
        <ele>71</ele>
        <time>2021-11-18T09:47:05.000Z</time>
      </trkpt>
      <trkpt lat="47.3232" lon="-2.40984">
        <ele>71.400001525879</ele>
        <time>2021-11-18T09:47:06.000Z</time>
      </trkpt>
      <trkpt lat="47.32323" lon="-2.4099">
        <ele>72</ele>
        <time>2021-11-18T09:47:07.000Z</time>
      </trkpt>
      <trkpt lat="47.32327" lon="-2.40996">
        <ele>72.400001525879</ele>
        <time>2021-11-18T09:47:08.000Z</time>
      </trkpt>
      <trkpt lat="47.32346" lon="-2.41034">
        <ele>72.400001525879</ele>
        <time>2021-11-18T09:47:14.000Z</time>
      </trkpt>
      <trkpt lat="47.32362" lon="-2.41065">
        <ele>72.400001525879</ele>
        <time>2021-11-18T09:47:20.000Z</time>
      </trkpt>
      <trkpt lat="47.32369" lon="-2.41076">
        <ele>72.400001525879</ele>
        <time>2021-11-18T09:47:24.000Z</time>
      </trkpt>
      <trkpt lat="47.3237" lon="-2.41078">
        <ele>72.400001525879</ele>
        <time>2021-11-18T09:47:25.000Z</time>
      </trkpt>
      <trkpt lat="47.32378" lon="-2.41096">
        <ele>72.400001525879</ele>
        <time>2021-11-18T09:47:29.000Z</time>
      </trkpt>
      <trkpt lat="47.32399" lon="-2.41132">
        <ele>72.400001525879</ele>
        <time>2021-11-18T09:47:37.000Z</time>
      </trkpt>
      <trkpt lat="47.32409" lon="-2.4115">
        <ele>72.400001525879</ele>
        <time>2021-11-18T09:47:43.000Z</time>
      </trkpt>
      <trkpt lat="47.32414" lon="-2.4116">
        <ele>72.400001525879</ele>
        <time>2021-11-18T09:47:50.000Z</time>
      </trkpt>
      <trkpt lat="47.32414" lon="-2.4116">
        <ele>72.400001525879</ele>
        <time>2021-11-18T09:47:51.000Z</time>
      </trkpt>
      <trkpt lat="47.32411" lon="-2.41168">
        <ele>72.400001525879</ele>
        <time>2021-11-18T09:47:53.000Z</time>
      </trkpt>
      <trkpt lat="47.32401" lon="-2.41176">
        <ele>72.400001525879</ele>
        <time>2021-11-18T09:47:57.000Z</time>
      </trkpt>
      <trkpt lat="47.32396" lon="-2.41186">
        <ele>72.400001525879</ele>
        <time>2021-11-18T09:48:00.000Z</time>
      </trkpt>
      <trkpt lat="47.32393" lon="-2.4119">
        <ele>72.400001525879</ele>
        <time>2021-11-18T09:48:01.000Z</time>
      </trkpt>
      <trkpt lat="47.32386" lon="-2.41205">
        <ele>72.400001525879</ele>
        <time>2021-11-18T09:48:05.000Z</time>
      </trkpt>
      <trkpt lat="47.3239" lon="-2.41219">
        <ele>72.400001525879</ele>
        <time>2021-11-18T09:48:09.000Z</time>
      </trkpt>
      <trkpt lat="47.3239" lon="-2.41222">
        <ele>72.400001525879</ele>
        <time>2021-11-18T09:48:10.000Z</time>
      </trkpt>
      <trkpt lat="47.32394" lon="-2.4124">
        <ele>72.400001525879</ele>
        <time>2021-11-18T09:48:17.000Z</time>
      </trkpt>
      <trkpt lat="47.32394" lon="-2.41245">
        <ele>72.400001525879</ele>
        <time>2021-11-18T09:48:19.000Z</time>
      </trkpt>
      <trkpt lat="47.32397" lon="-2.4125">
        <ele>72.400001525879</ele>
        <time>2021-11-18T09:48:22.000Z</time>
      </trkpt>
      <trkpt lat="47.32398" lon="-2.41254">
        <ele>72.400001525879</ele>
        <time>2021-11-18T09:48:24.000Z</time>
      </trkpt>
      <trkpt lat="47.32402" lon="-2.41264">
        <ele>72.400001525879</ele>
        <time>2021-11-18T09:48:28.000Z</time>
      </trkpt>
      <trkpt lat="47.32405" lon="-2.41272">
        <ele>72.400001525879</ele>
        <time>2021-11-18T09:48:31.000Z</time>
      </trkpt>
      <trkpt lat="47.32406" lon="-2.41278">
        <ele>72.400001525879</ele>
        <time>2021-11-18T09:48:33.000Z</time>
      </trkpt>
      <trkpt lat="47.32405" lon="-2.41282">
        <ele>72.400001525879</ele>
        <time>2021-11-18T09:48:34.000Z</time>
      </trkpt>
      <trkpt lat="47.32405" lon="-2.41292">
        <ele>72.400001525879</ele>
        <time>2021-11-18T09:48:38.000Z</time>
      </trkpt>
      <trkpt lat="47.32405" lon="-2.41293">
        <ele>72.400001525879</ele>
        <time>2021-11-18T09:48:40.000Z</time>
      </trkpt>
      <trkpt lat="47.3241" lon="-2.41292">
        <ele>72.400001525879</ele>
        <time>2021-11-18T09:49:10.000Z</time>
      </trkpt>
      <trkpt lat="47.32411" lon="-2.41293">
        <ele>72.400001525879</ele>
        <time>2021-11-18T09:49:11.000Z</time>
      </trkpt>
      <trkpt lat="47.32413" lon="-2.41301">
        <ele>72.400001525879</ele>
        <time>2021-11-18T09:49:16.000Z</time>
      </trkpt>
      <trkpt lat="47.32403" lon="-2.41311">
        <ele>72.400001525879</ele>
        <time>2021-11-18T09:49:20.000Z</time>
      </trkpt>
      <trkpt lat="47.32385" lon="-2.41326">
        <ele>72.400001525879</ele>
        <time>2021-11-18T09:49:26.000Z</time>
      </trkpt>
      <trkpt lat="47.32384" lon="-2.4133">
        <ele>72.400001525879</ele>
        <time>2021-11-18T09:49:27.000Z</time>
      </trkpt>
      <trkpt lat="47.32385" lon="-2.41336">
        <ele>72.400001525879</ele>
        <time>2021-11-18T09:49:29.000Z</time>
      </trkpt>
      <trkpt lat="47.32384" lon="-2.41338">
        <ele>72.400001525879</ele>
        <time>2021-11-18T09:49:30.000Z</time>
      </trkpt>
      <trkpt lat="47.32381" lon="-2.41342">
        <ele>72.400001525879</ele>
        <time>2021-11-18T09:49:33.000Z</time>
      </trkpt>
      <trkpt lat="47.3238" lon="-2.41345">
        <ele>72.400001525879</ele>
        <time>2021-11-18T09:49:35.000Z</time>
      </trkpt>
      <trkpt lat="47.32379" lon="-2.41346">
        <ele>72.400001525879</ele>
        <time>2021-11-18T09:49:38.000Z</time>
      </trkpt>
      <trkpt lat="47.32379" lon="-2.4135">
        <ele>72.800003051758</ele>
        <time>2021-11-18T10:03:04.000Z</time>
      </trkpt>
      <trkpt lat="47.32378" lon="-2.41353">
        <ele>73.199996948242</ele>
        <time>2021-11-18T10:03:05.000Z</time>
      </trkpt>
      <trkpt lat="47.32377" lon="-2.41356">
        <ele>73.599998474121</ele>
        <time>2021-11-18T10:03:06.000Z</time>
      </trkpt>
      <trkpt lat="47.32376" lon="-2.41359">
        <ele>74</ele>
        <time>2021-11-18T10:03:07.000Z</time>
      </trkpt>
      <trkpt lat="47.32373" lon="-2.41363">
        <ele>74.400001525879</ele>
        <time>2021-11-18T10:03:08.000Z</time>
      </trkpt>
      <trkpt lat="47.32355" lon="-2.41374">
        <ele>74.400001525879</ele>
        <time>2021-11-18T10:03:13.000Z</time>
      </trkpt>
      <trkpt lat="47.3235" lon="-2.41374">
        <ele>74.400001525879</ele>
        <time>2021-11-18T10:03:15.000Z</time>
      </trkpt>
      <trkpt lat="47.32348" lon="-2.41371">
        <ele>74.400001525879</ele>
        <time>2021-11-18T10:03:16.000Z</time>
      </trkpt>
      <trkpt lat="47.32336" lon="-2.41344">
        <ele>74.400001525879</ele>
        <time>2021-11-18T10:03:23.000Z</time>
      </trkpt>
      <trkpt lat="47.32323" lon="-2.413">
        <ele>74.400001525879</ele>
        <time>2021-11-18T10:03:32.000Z</time>
      </trkpt>
      <trkpt lat="47.32313" lon="-2.41271">
        <ele>74</ele>
        <time>2021-11-18T10:03:39.000Z</time>
      </trkpt>
      <trkpt lat="47.32312" lon="-2.41267">
        <ele>73.599998474121</ele>
        <time>2021-11-18T10:03:40.000Z</time>
      </trkpt>
      <trkpt lat="47.32311" lon="-2.41263">
        <ele>73.199996948242</ele>
        <time>2021-11-18T10:03:41.000Z</time>
      </trkpt>
      <trkpt lat="47.32309" lon="-2.41259">
        <ele>72.800003051758</ele>
        <time>2021-11-18T10:03:42.000Z</time>
      </trkpt>
      <trkpt lat="47.32308" lon="-2.41255">
        <ele>72.400001525879</ele>
        <time>2021-11-18T10:03:43.000Z</time>
      </trkpt>
      <trkpt lat="47.32305" lon="-2.41244">
        <ele>72.400001525879</ele>
        <time>2021-11-18T10:03:46.000Z</time>
      </trkpt>
      <trkpt lat="47.32299" lon="-2.41218">
        <ele>72.400001525879</ele>
        <time>2021-11-18T10:03:53.000Z</time>
      </trkpt>
      <trkpt lat="47.32295" lon="-2.41216">
        <ele>72.400001525879</ele>
        <time>2021-11-18T10:03:55.000Z</time>
      </trkpt>
      <trkpt lat="47.32291" lon="-2.41218">
        <ele>72.400001525879</ele>
        <time>2021-11-18T10:03:57.000Z</time>
      </trkpt>
      <trkpt lat="47.32286" lon="-2.41222">
        <ele>72.400001525879</ele>
        <time>2021-11-18T10:03:59.000Z</time>
      </trkpt>
      <trkpt lat="47.32272" lon="-2.41235">
        <ele>72.400001525879</ele>
        <time>2021-11-18T10:04:04.000Z</time>
      </trkpt>
      <trkpt lat="47.32261" lon="-2.41244">
        <ele>72</ele>
        <time>2021-11-18T10:04:07.000Z</time>
      </trkpt>
      <trkpt lat="47.32257" lon="-2.41247">
        <ele>71.199996948242</ele>
        <time>2021-11-18T10:04:08.000Z</time>
      </trkpt>
      <trkpt lat="47.32254" lon="-2.41251">
        <ele>70.800003051758</ele>
        <time>2021-11-18T10:04:09.000Z</time>
      </trkpt>
      <trkpt lat="47.3225" lon="-2.41254">
        <ele>70.400001525879</ele>
        <time>2021-11-18T10:04:10.000Z</time>
      </trkpt>
      <trkpt lat="47.32246" lon="-2.41256">
        <ele>70.400001525879</ele>
        <time>2021-11-18T10:04:11.000Z</time>
      </trkpt>
      <trkpt lat="47.32242" lon="-2.41259">
        <ele>70.400001525879</ele>
        <time>2021-11-18T10:04:12.000Z</time>
      </trkpt>
      <trkpt lat="47.3223" lon="-2.41261">
        <ele>70.400001525879</ele>
        <time>2021-11-18T10:04:15.000Z</time>
      </trkpt>
      <trkpt lat="47.32221" lon="-2.4127">
        <ele>70.400001525879</ele>
        <time>2021-11-18T10:04:18.000Z</time>
      </trkpt>
      <trkpt lat="47.32214" lon="-2.41277">
        <ele>70.400001525879</ele>
        <time>2021-11-18T10:04:20.000Z</time>
      </trkpt>
      <trkpt lat="47.32177" lon="-2.41297">
        <ele>70.400001525879</ele>
        <time>2021-11-18T10:04:29.000Z</time>
      </trkpt>
      <trkpt lat="47.32146" lon="-2.41304">
        <ele>70.400001525879</ele>
        <time>2021-11-18T10:04:36.000Z</time>
      </trkpt>
      <trkpt lat="47.32137" lon="-2.41302">
        <ele>70</ele>
        <time>2021-11-18T10:04:38.000Z</time>
      </trkpt>
      <trkpt lat="47.32134" lon="-2.41302">
        <ele>69.400001525879</ele>
        <time>2021-11-18T10:04:39.000Z</time>
      </trkpt>
      <trkpt lat="47.32131" lon="-2.41303">
        <ele>69</ele>
        <time>2021-11-18T10:04:40.000Z</time>
      </trkpt>
      <trkpt lat="47.32129" lon="-2.41303">
        <ele>68.599998474121</ele>
        <time>2021-11-18T10:04:41.000Z</time>
      </trkpt>
      <trkpt lat="47.32126" lon="-2.41304">
        <ele>68.199996948242</ele>
        <time>2021-11-18T10:04:42.000Z</time>
      </trkpt>
      <trkpt lat="47.32111" lon="-2.41311">
        <ele>68.199996948242</ele>
        <time>2021-11-18T10:04:47.000Z</time>
      </trkpt>
      <trkpt lat="47.321" lon="-2.41327">
        <ele>68.199996948242</ele>
        <time>2021-11-18T10:04:51.000Z</time>
      </trkpt>
      <trkpt lat="47.32095" lon="-2.41335">
        <ele>68.199996948242</ele>
        <time>2021-11-18T10:04:53.000Z</time>
      </trkpt>
      <trkpt lat="47.32086" lon="-2.41345">
        <ele>68.199996948242</ele>
        <time>2021-11-18T10:04:56.000Z</time>
      </trkpt>
      <trkpt lat="47.32082" lon="-2.41352">
        <ele>67.400001525879</ele>
        <time>2021-11-18T10:04:58.000Z</time>
      </trkpt>
      <trkpt lat="47.32082" lon="-2.41355">
        <ele>67</ele>
        <time>2021-11-18T10:04:59.000Z</time>
      </trkpt>
      <trkpt lat="47.32083" lon="-2.4136">
        <ele>66.599998474121</ele>
        <time>2021-11-18T10:05:00.000Z</time>
      </trkpt>
      <trkpt lat="47.32085" lon="-2.41363">
        <ele>66.199996948242</ele>
        <time>2021-11-18T10:05:01.000Z</time>
      </trkpt>
      <trkpt lat="47.32082" lon="-2.41373">
        <ele>66.199996948242</ele>
        <time>2021-11-18T10:05:04.000Z</time>
      </trkpt>
      <trkpt lat="47.32066" lon="-2.41378">
        <ele>66.199996948242</ele>
        <time>2021-11-18T10:05:09.000Z</time>
      </trkpt>
      <trkpt lat="47.32063" lon="-2.4138">
        <ele>66.199996948242</ele>
        <time>2021-11-18T10:05:10.000Z</time>
      </trkpt>
      <trkpt lat="47.32043" lon="-2.41386">
        <ele>66.199996948242</ele>
        <time>2021-11-18T10:05:15.000Z</time>
      </trkpt>
      <trkpt lat="47.32027" lon="-2.41392">
        <ele>66.199996948242</ele>
        <time>2021-11-18T10:05:20.000Z</time>
      </trkpt>
      <trkpt lat="47.3202" lon="-2.41399">
        <ele>66.199996948242</ele>
        <time>2021-11-18T10:05:25.000Z</time>
      </trkpt>
      <trkpt lat="47.32019" lon="-2.41399">
        <ele>66.199996948242</ele>
        <time>2021-11-18T10:05:26.000Z</time>
      </trkpt>
      <trkpt lat="47.32017" lon="-2.41402">
        <ele>66.199996948242</ele>
        <time>2021-11-18T10:05:41.000Z</time>
      </trkpt>
      <trkpt lat="47.32016" lon="-2.41404">
        <ele>66.199996948242</ele>
        <time>2021-11-18T10:05:42.000Z</time>
      </trkpt>
      <trkpt lat="47.32015" lon="-2.4142">
        <ele>66.199996948242</ele>
        <time>2021-11-18T10:05:46.000Z</time>
      </trkpt>
      <trkpt lat="47.32015" lon="-2.41458">
        <ele>66.199996948242</ele>
        <time>2021-11-18T10:05:51.000Z</time>
      </trkpt>
      <trkpt lat="47.32008" lon="-2.41484">
        <ele>66.199996948242</ele>
        <time>2021-11-18T10:05:54.000Z</time>
      </trkpt>
      <trkpt lat="47.31998" lon="-2.41516">
        <ele>66.199996948242</ele>
        <time>2021-11-18T10:05:58.000Z</time>
      </trkpt>
      <trkpt lat="47.32001" lon="-2.4155">
        <ele>66.199996948242</ele>
        <time>2021-11-18T10:06:02.000Z</time>
      </trkpt>
      <trkpt lat="47.32004" lon="-2.41566">
        <ele>66.199996948242</ele>
        <time>2021-11-18T10:06:04.000Z</time>
      </trkpt>
      <trkpt lat="47.32011" lon="-2.41594">
        <ele>66.199996948242</ele>
        <time>2021-11-18T10:06:08.000Z</time>
      </trkpt>
      <trkpt lat="47.32026" lon="-2.4164">
        <ele>66.199996948242</ele>
        <time>2021-11-18T10:06:15.000Z</time>
      </trkpt>
      <trkpt lat="47.32048" lon="-2.41684">
        <ele>66.199996948242</ele>
        <time>2021-11-18T10:06:23.000Z</time>
      </trkpt>
      <trkpt lat="47.32057" lon="-2.41703">
        <ele>66.599998474121</ele>
        <time>2021-11-18T10:06:26.000Z</time>
      </trkpt>
      <trkpt lat="47.3206" lon="-2.41709">
        <ele>67</ele>
        <time>2021-11-18T10:06:27.000Z</time>
      </trkpt>
      <trkpt lat="47.32063" lon="-2.41715">
        <ele>67.400001525879</ele>
        <time>2021-11-18T10:06:28.000Z</time>
      </trkpt>
      <trkpt lat="47.32067" lon="-2.41721">
        <ele>67.800003051758</ele>
        <time>2021-11-18T10:06:29.000Z</time>
      </trkpt>
      <trkpt lat="47.3207" lon="-2.41727">
        <ele>68.199996948242</ele>
        <time>2021-11-18T10:06:30.000Z</time>
      </trkpt>
      <trkpt lat="47.32096" lon="-2.41755">
        <ele>68.199996948242</ele>
        <time>2021-11-18T10:06:36.000Z</time>
      </trkpt>
      <trkpt lat="47.32132" lon="-2.41791">
        <ele>68.199996948242</ele>
        <time>2021-11-18T10:06:44.000Z</time>
      </trkpt>
      <trkpt lat="47.3217" lon="-2.41829">
        <ele>68.199996948242</ele>
        <time>2021-11-18T10:06:53.000Z</time>
      </trkpt>
      <trkpt lat="47.32214" lon="-2.41869">
        <ele>68.199996948242</ele>
        <time>2021-11-18T10:07:03.000Z</time>
      </trkpt>
      <trkpt lat="47.32236" lon="-2.41869">
        <ele>68.199996948242</ele>
        <time>2021-11-18T10:07:07.000Z</time>
      </trkpt>
      <trkpt lat="47.32241" lon="-2.4187">
        <ele>68.199996948242</ele>
        <time>2021-11-18T10:07:08.000Z</time>
      </trkpt>
      <trkpt lat="47.32254" lon="-2.41879">
        <ele>68.199996948242</ele>
        <time>2021-11-18T10:07:11.000Z</time>
      </trkpt>
      <trkpt lat="47.32261" lon="-2.41889">
        <ele>68.199996948242</ele>
        <time>2021-11-18T10:07:13.000Z</time>
      </trkpt>
      <trkpt lat="47.32267" lon="-2.41898">
        <ele>68.199996948242</ele>
        <time>2021-11-18T10:07:15.000Z</time>
      </trkpt>
      <trkpt lat="47.32269" lon="-2.41903">
        <ele>68.199996948242</ele>
        <time>2021-11-18T10:07:16.000Z</time>
      </trkpt>
      <trkpt lat="47.32282" lon="-2.41923">
        <ele>68.199996948242</ele>
        <time>2021-11-18T10:07:22.000Z</time>
      </trkpt>
      <trkpt lat="47.32288" lon="-2.41934">
        <ele>68.199996948242</ele>
        <time>2021-11-18T10:07:25.000Z</time>
      </trkpt>
      <trkpt lat="47.32297" lon="-2.4195">
        <ele>68.199996948242</ele>
        <time>2021-11-18T10:07:28.000Z</time>
      </trkpt>
      <trkpt lat="47.32312" lon="-2.41968">
        <ele>68.599998474121</ele>
        <time>2021-11-18T10:07:32.000Z</time>
      </trkpt>
      <trkpt lat="47.32316" lon="-2.41972">
        <ele>69</ele>
        <time>2021-11-18T10:07:33.000Z</time>
      </trkpt>
      <trkpt lat="47.3232" lon="-2.41976">
        <ele>69.400001525879</ele>
        <time>2021-11-18T10:07:34.000Z</time>
      </trkpt>
      <trkpt lat="47.32323" lon="-2.4198">
        <ele>69.800003051758</ele>
        <time>2021-11-18T10:07:35.000Z</time>
      </trkpt>
      <trkpt lat="47.32327" lon="-2.41984">
        <ele>70.199996948242</ele>
        <time>2021-11-18T10:07:36.000Z</time>
      </trkpt>
      <trkpt lat="47.32347" lon="-2.42003">
        <ele>70.199996948242</ele>
        <time>2021-11-18T10:07:41.000Z</time>
      </trkpt>
      <trkpt lat="47.32376" lon="-2.42032">
        <ele>70.199996948242</ele>
        <time>2021-11-18T10:07:48.000Z</time>
      </trkpt>
      <trkpt lat="47.32384" lon="-2.42041">
        <ele>70.800003051758</ele>
        <time>2021-11-18T10:07:50.000Z</time>
      </trkpt>
      <trkpt lat="47.32388" lon="-2.42045">
        <ele>71.599998474121</ele>
        <time>2021-11-18T10:07:51.000Z</time>
      </trkpt>
      <trkpt lat="47.32392" lon="-2.4205">
        <ele>72</ele>
        <time>2021-11-18T10:07:52.000Z</time>
      </trkpt>
      <trkpt lat="47.32396" lon="-2.42054">
        <ele>72.400001525879</ele>
        <time>2021-11-18T10:07:53.000Z</time>
      </trkpt>
      <trkpt lat="47.32407" lon="-2.42067">
        <ele>72.400001525879</ele>
        <time>2021-11-18T10:07:56.000Z</time>
      </trkpt>
      <trkpt lat="47.32428" lon="-2.42093">
        <ele>72.400001525879</ele>
        <time>2021-11-18T10:08:03.000Z</time>
      </trkpt>
      <trkpt lat="47.3243" lon="-2.42096">
        <ele>72.800003051758</ele>
        <time>2021-11-18T10:08:04.000Z</time>
      </trkpt>
      <trkpt lat="47.32432" lon="-2.42101">
        <ele>73.199996948242</ele>
        <time>2021-11-18T10:08:05.000Z</time>
      </trkpt>
      <trkpt lat="47.32434" lon="-2.42105">
        <ele>73.599998474121</ele>
        <time>2021-11-18T10:08:06.000Z</time>
      </trkpt>
      <trkpt lat="47.32437" lon="-2.42108">
        <ele>74</ele>
        <time>2021-11-18T10:08:07.000Z</time>
      </trkpt>
      <trkpt lat="47.32439" lon="-2.42113">
        <ele>74.400001525879</ele>
        <time>2021-11-18T10:08:08.000Z</time>
      </trkpt>
      <trkpt lat="47.32441" lon="-2.42117">
        <ele>74.400001525879</ele>
        <time>2021-11-18T10:08:09.000Z</time>
      </trkpt>
      <trkpt lat="47.32438" lon="-2.42138">
        <ele>74.400001525879</ele>
        <time>2021-11-18T10:08:13.000Z</time>
      </trkpt>
      <trkpt lat="47.32434" lon="-2.42146">
        <ele>74.400001525879</ele>
        <time>2021-11-18T10:08:15.000Z</time>
      </trkpt>
      <trkpt lat="47.32423" lon="-2.42163">
        <ele>74.400001525879</ele>
        <time>2021-11-18T10:08:19.000Z</time>
      </trkpt>
      <trkpt lat="47.32414" lon="-2.42172">
        <ele>74.400001525879</ele>
        <time>2021-11-18T10:08:21.000Z</time>
      </trkpt>
      <trkpt lat="47.32399" lon="-2.42187">
        <ele>74.400001525879</ele>
        <time>2021-11-18T10:08:24.000Z</time>
      </trkpt>
      <trkpt lat="47.32361" lon="-2.42231">
        <ele>74.400001525879</ele>
        <time>2021-11-18T10:08:32.000Z</time>
      </trkpt>
      <trkpt lat="47.32332" lon="-2.42273">
        <ele>74.400001525879</ele>
        <time>2021-11-18T10:08:39.000Z</time>
      </trkpt>
      <trkpt lat="47.32324" lon="-2.42286">
        <ele>74.400001525879</ele>
        <time>2021-11-18T10:08:41.000Z</time>
      </trkpt>
      <trkpt lat="47.32318" lon="-2.42308">
        <ele>74.400001525879</ele>
        <time>2021-11-18T10:08:44.000Z</time>
      </trkpt>
      <trkpt lat="47.3232" lon="-2.42325">
        <ele>74.400001525879</ele>
        <time>2021-11-18T10:08:46.000Z</time>
      </trkpt>
      <trkpt lat="47.32322" lon="-2.42342">
        <ele>74</ele>
        <time>2021-11-18T10:08:48.000Z</time>
      </trkpt>
      <trkpt lat="47.32324" lon="-2.4235">
        <ele>73.599998474121</ele>
        <time>2021-11-18T10:08:49.000Z</time>
      </trkpt>
      <trkpt lat="47.32325" lon="-2.42358">
        <ele>73.199996948242</ele>
        <time>2021-11-18T10:08:50.000Z</time>
      </trkpt>
      <trkpt lat="47.32326" lon="-2.42366">
        <ele>72.800003051758</ele>
        <time>2021-11-18T10:08:51.000Z</time>
      </trkpt>
      <trkpt lat="47.32327" lon="-2.42374">
        <ele>72.400001525879</ele>
        <time>2021-11-18T10:08:52.000Z</time>
      </trkpt>
      <trkpt lat="47.32328" lon="-2.42391">
        <ele>72.400001525879</ele>
        <time>2021-11-18T10:08:54.000Z</time>
      </trkpt>
      <trkpt lat="47.32336" lon="-2.4246">
        <ele>72.400001525879</ele>
        <time>2021-11-18T10:09:02.000Z</time>
      </trkpt>
      <trkpt lat="47.3234" lon="-2.42479">
        <ele>72</ele>
        <time>2021-11-18T10:09:04.000Z</time>
      </trkpt>
      <trkpt lat="47.32342" lon="-2.42488">
        <ele>71.199996948242</ele>
        <time>2021-11-18T10:09:05.000Z</time>
      </trkpt>
      <trkpt lat="47.32344" lon="-2.42498">
        <ele>70.800003051758</ele>
        <time>2021-11-18T10:09:06.000Z</time>
      </trkpt>
      <trkpt lat="47.32346" lon="-2.42509">
        <ele>70.400001525879</ele>
        <time>2021-11-18T10:09:07.000Z</time>
      </trkpt>
      <trkpt lat="47.32348" lon="-2.42519">
        <ele>70.400001525879</ele>
        <time>2021-11-18T10:09:08.000Z</time>
      </trkpt>
      <trkpt lat="47.32354" lon="-2.42551">
        <ele>70</ele>
        <time>2021-11-18T10:09:11.000Z</time>
      </trkpt>
      <trkpt lat="47.32356" lon="-2.42562">
        <ele>69.400001525879</ele>
        <time>2021-11-18T10:09:12.000Z</time>
      </trkpt>
      <trkpt lat="47.32361" lon="-2.4257">
        <ele>69</ele>
        <time>2021-11-18T10:09:13.000Z</time>
      </trkpt>
      <trkpt lat="47.32367" lon="-2.42576">
        <ele>68.599998474121</ele>
        <time>2021-11-18T10:09:14.000Z</time>
      </trkpt>
      <trkpt lat="47.32373" lon="-2.42579">
        <ele>68.199996948242</ele>
        <time>2021-11-18T10:09:15.000Z</time>
      </trkpt>
      <trkpt lat="47.32392" lon="-2.42574">
        <ele>68.199996948242</ele>
        <time>2021-11-18T10:09:18.000Z</time>
      </trkpt>
      <trkpt lat="47.32397" lon="-2.4257">
        <ele>68.199996948242</ele>
        <time>2021-11-18T10:09:19.000Z</time>
      </trkpt>
      <trkpt lat="47.32402" lon="-2.42569">
        <ele>68.199996948242</ele>
        <time>2021-11-18T10:09:20.000Z</time>
      </trkpt>
      <trkpt lat="47.32406" lon="-2.42573">
        <ele>68.199996948242</ele>
        <time>2021-11-18T10:09:21.000Z</time>
      </trkpt>
      <trkpt lat="47.32413" lon="-2.42593">
        <ele>68.199996948242</ele>
        <time>2021-11-18T10:09:24.000Z</time>
      </trkpt>
      <trkpt lat="47.32425" lon="-2.42639">
        <ele>68.199996948242</ele>
        <time>2021-11-18T10:09:29.000Z</time>
      </trkpt>
      <trkpt lat="47.32427" lon="-2.4265">
        <ele>67.400001525879</ele>
        <time>2021-11-18T10:09:30.000Z</time>
      </trkpt>
      <trkpt lat="47.3243" lon="-2.4266">
        <ele>67</ele>
        <time>2021-11-18T10:09:31.000Z</time>
      </trkpt>
      <trkpt lat="47.32432" lon="-2.42672">
        <ele>66.599998474121</ele>
        <time>2021-11-18T10:09:32.000Z</time>
      </trkpt>
      <trkpt lat="47.32435" lon="-2.42683">
        <ele>66.199996948242</ele>
        <time>2021-11-18T10:09:33.000Z</time>
      </trkpt>
      <trkpt lat="47.32438" lon="-2.42706">
        <ele>66.199996948242</ele>
        <time>2021-11-18T10:09:35.000Z</time>
      </trkpt>
      <trkpt lat="47.32438" lon="-2.42731">
        <ele>65.800003051758</ele>
        <time>2021-11-18T10:09:37.000Z</time>
      </trkpt>
      <trkpt lat="47.32438" lon="-2.42743">
        <ele>65.400001525879</ele>
        <time>2021-11-18T10:09:38.000Z</time>
      </trkpt>
      <trkpt lat="47.32437" lon="-2.42756">
        <ele>64.800003051758</ele>
        <time>2021-11-18T10:09:39.000Z</time>
      </trkpt>
      <trkpt lat="47.32437" lon="-2.42769">
        <ele>64.400001525879</ele>
        <time>2021-11-18T10:09:40.000Z</time>
      </trkpt>
      <trkpt lat="47.32436" lon="-2.42781">
        <ele>64</ele>
        <time>2021-11-18T10:09:41.000Z</time>
      </trkpt>
      <trkpt lat="47.32434" lon="-2.42828">
        <ele>63.599998474121</ele>
        <time>2021-11-18T10:09:45.000Z</time>
      </trkpt>
      <trkpt lat="47.32434" lon="-2.42836">
        <ele>63</ele>
        <time>2021-11-18T10:09:46.000Z</time>
      </trkpt>
      <trkpt lat="47.32434" lon="-2.42842">
        <ele>62.599998474121</ele>
        <time>2021-11-18T10:09:47.000Z</time>
      </trkpt>
      <trkpt lat="47.32433" lon="-2.42847">
        <ele>62.200000762939</ele>
        <time>2021-11-18T10:09:48.000Z</time>
      </trkpt>
      <trkpt lat="47.32433" lon="-2.42853">
        <ele>61.799999237061</ele>
        <time>2021-11-18T10:09:49.000Z</time>
      </trkpt>
      <trkpt lat="47.32432" lon="-2.42859">
        <ele>61.799999237061</ele>
        <time>2021-11-18T10:09:50.000Z</time>
      </trkpt>
      <trkpt lat="47.32427" lon="-2.42879">
        <ele>61.799999237061</ele>
        <time>2021-11-18T10:09:53.000Z</time>
      </trkpt>
      <trkpt lat="47.32425" lon="-2.42886">
        <ele>61.799999237061</ele>
        <time>2021-11-18T10:09:54.000Z</time>
      </trkpt>
      <trkpt lat="47.32412" lon="-2.429">
        <ele>61.799999237061</ele>
        <time>2021-11-18T10:09:57.000Z</time>
      </trkpt>
      <trkpt lat="47.324" lon="-2.42901">
        <ele>61.799999237061</ele>
        <time>2021-11-18T10:09:59.000Z</time>
      </trkpt>
      <trkpt lat="47.32393" lon="-2.429">
        <ele>61.799999237061</ele>
        <time>2021-11-18T10:10:00.000Z</time>
      </trkpt>
      <trkpt lat="47.32359" lon="-2.42899">
        <ele>61.799999237061</ele>
        <time>2021-11-18T10:10:05.000Z</time>
      </trkpt>
      <trkpt lat="47.32322" lon="-2.42895">
        <ele>61.799999237061</ele>
        <time>2021-11-18T10:10:11.000Z</time>
      </trkpt>
      <trkpt lat="47.32274" lon="-2.42879">
        <ele>61.799999237061</ele>
        <time>2021-11-18T10:10:19.000Z</time>
      </trkpt>
      <trkpt lat="47.32217" lon="-2.42859">
        <ele>61.799999237061</ele>
        <time>2021-11-18T10:10:28.000Z</time>
      </trkpt>
      <trkpt lat="47.32204" lon="-2.42856">
        <ele>61.400001525879</ele>
        <time>2021-11-18T10:10:30.000Z</time>
      </trkpt>
      <trkpt lat="47.32197" lon="-2.42854">
        <ele>60.799999237061</ele>
        <time>2021-11-18T10:10:31.000Z</time>
      </trkpt>
      <trkpt lat="47.32191" lon="-2.42853">
        <ele>60.400001525879</ele>
        <time>2021-11-18T10:10:32.000Z</time>
      </trkpt>
      <trkpt lat="47.32184" lon="-2.42852">
        <ele>60</ele>
        <time>2021-11-18T10:10:33.000Z</time>
      </trkpt>
      <trkpt lat="47.32178" lon="-2.4285">
        <ele>59.599998474121</ele>
        <time>2021-11-18T10:10:34.000Z</time>
      </trkpt>
      <trkpt lat="47.32172" lon="-2.42849">
        <ele>59.599998474121</ele>
        <time>2021-11-18T10:10:35.000Z</time>
      </trkpt>
      <trkpt lat="47.32129" lon="-2.42843">
        <ele>59.200000762939</ele>
        <time>2021-11-18T10:10:41.000Z</time>
      </trkpt>
      <trkpt lat="47.32122" lon="-2.42842">
        <ele>58.799999237061</ele>
        <time>2021-11-18T10:10:42.000Z</time>
      </trkpt>
      <trkpt lat="47.32114" lon="-2.42841">
        <ele>58.400001525879</ele>
        <time>2021-11-18T10:10:43.000Z</time>
      </trkpt>
      <trkpt lat="47.32107" lon="-2.4284">
        <ele>57.599998474121</ele>
        <time>2021-11-18T10:10:44.000Z</time>
      </trkpt>
      <trkpt lat="47.3208" lon="-2.42834">
        <ele>57.200000762939</ele>
        <time>2021-11-18T10:10:48.000Z</time>
      </trkpt>
      <trkpt lat="47.32074" lon="-2.42833">
        <ele>56.599998474121</ele>
        <time>2021-11-18T10:10:49.000Z</time>
      </trkpt>
      <trkpt lat="47.32068" lon="-2.42834">
        <ele>56.200000762939</ele>
        <time>2021-11-18T10:10:50.000Z</time>
      </trkpt>
      <trkpt lat="47.32062" lon="-2.42834">
        <ele>55.799999237061</ele>
        <time>2021-11-18T10:10:51.000Z</time>
      </trkpt>
      <trkpt lat="47.32056" lon="-2.42835">
        <ele>55.400001525879</ele>
        <time>2021-11-18T10:10:52.000Z</time>
      </trkpt>
      <trkpt lat="47.32045" lon="-2.42835">
        <ele>55.400001525879</ele>
        <time>2021-11-18T10:10:54.000Z</time>
      </trkpt>
      <trkpt lat="47.32033" lon="-2.42837">
        <ele>55</ele>
        <time>2021-11-18T10:10:56.000Z</time>
      </trkpt>
      <trkpt lat="47.32026" lon="-2.42838">
        <ele>54.400001525879</ele>
        <time>2021-11-18T10:10:57.000Z</time>
      </trkpt>
      <trkpt lat="47.3202" lon="-2.42841">
        <ele>54</ele>
        <time>2021-11-18T10:10:58.000Z</time>
      </trkpt>
      <trkpt lat="47.32015" lon="-2.42847">
        <ele>53.599998474121</ele>
        <time>2021-11-18T10:10:59.000Z</time>
      </trkpt>
      <trkpt lat="47.32011" lon="-2.42854">
        <ele>53</ele>
        <time>2021-11-18T10:11:00.000Z</time>
      </trkpt>
      <trkpt lat="47.32007" lon="-2.42871">
        <ele>53</ele>
        <time>2021-11-18T10:11:02.000Z</time>
      </trkpt>
      <trkpt lat="47.32005" lon="-2.42889">
        <ele>53</ele>
        <time>2021-11-18T10:11:04.000Z</time>
      </trkpt>
      <trkpt lat="47.32003" lon="-2.42926">
        <ele>53</ele>
        <time>2021-11-18T10:11:08.000Z</time>
      </trkpt>
      <trkpt lat="47.31999" lon="-2.42982">
        <ele>53</ele>
        <time>2021-11-18T10:11:15.000Z</time>
      </trkpt>
      <trkpt lat="47.31999" lon="-2.42991">
        <ele>53</ele>
        <time>2021-11-18T10:11:16.000Z</time>
      </trkpt>
      <trkpt lat="47.32001" lon="-2.43029">
        <ele>53</ele>
        <time>2021-11-18T10:11:20.000Z</time>
      </trkpt>
      <trkpt lat="47.32012" lon="-2.4308">
        <ele>52.599998474121</ele>
        <time>2021-11-18T10:11:25.000Z</time>
      </trkpt>
      <trkpt lat="47.32014" lon="-2.43091">
        <ele>52.200000762939</ele>
        <time>2021-11-18T10:11:26.000Z</time>
      </trkpt>
      <trkpt lat="47.32017" lon="-2.43102">
        <ele>51.799999237061</ele>
        <time>2021-11-18T10:11:27.000Z</time>
      </trkpt>
      <trkpt lat="47.3202" lon="-2.43112">
        <ele>51.200000762939</ele>
        <time>2021-11-18T10:11:28.000Z</time>
      </trkpt>
      <trkpt lat="47.32022" lon="-2.43123">
        <ele>50.799999237061</ele>
        <time>2021-11-18T10:11:29.000Z</time>
      </trkpt>
      <trkpt lat="47.32033" lon="-2.43174">
        <ele>50</ele>
        <time>2021-11-18T10:11:34.000Z</time>
      </trkpt>
      <trkpt lat="47.32035" lon="-2.43184">
        <ele>49.599998474121</ele>
        <time>2021-11-18T10:11:35.000Z</time>
      </trkpt>
      <trkpt lat="47.32037" lon="-2.43193">
        <ele>49</ele>
        <time>2021-11-18T10:11:36.000Z</time>
      </trkpt>
      <trkpt lat="47.32039" lon="-2.43201">
        <ele>48.599998474121</ele>
        <time>2021-11-18T10:11:37.000Z</time>
      </trkpt>
      <trkpt lat="47.32043" lon="-2.43213">
        <ele>48.599998474121</ele>
        <time>2021-11-18T10:11:39.000Z</time>
      </trkpt>
      <trkpt lat="47.32045" lon="-2.43218">
        <ele>48.599998474121</ele>
        <time>2021-11-18T10:11:40.000Z</time>
      </trkpt>
      <trkpt lat="47.32048" lon="-2.43229">
        <ele>48.599998474121</ele>
        <time>2021-11-18T10:11:43.000Z</time>
      </trkpt>
      <trkpt lat="47.32041" lon="-2.43238">
        <ele>48.599998474121</ele>
        <time>2021-11-18T10:11:46.000Z</time>
      </trkpt>
      <trkpt lat="47.32034" lon="-2.43243">
        <ele>48.599998474121</ele>
        <time>2021-11-18T10:11:48.000Z</time>
      </trkpt>
      <trkpt lat="47.32017" lon="-2.43255">
        <ele>48.599998474121</ele>
        <time>2021-11-18T10:11:52.000Z</time>
      </trkpt>
      <trkpt lat="47.32007" lon="-2.43261">
        <ele>48.200000762939</ele>
        <time>2021-11-18T10:11:54.000Z</time>
      </trkpt>
      <trkpt lat="47.32002" lon="-2.43264">
        <ele>47.799999237061</ele>
        <time>2021-11-18T10:11:55.000Z</time>
      </trkpt>
      <trkpt lat="47.31997" lon="-2.43267">
        <ele>47.400001525879</ele>
        <time>2021-11-18T10:11:56.000Z</time>
      </trkpt>
      <trkpt lat="47.31991" lon="-2.4327">
        <ele>47</ele>
        <time>2021-11-18T10:11:57.000Z</time>
      </trkpt>
      <trkpt lat="47.31986" lon="-2.43273">
        <ele>46.599998474121</ele>
        <time>2021-11-18T10:11:58.000Z</time>
      </trkpt>
      <trkpt lat="47.31978" lon="-2.4328">
        <ele>46.599998474121</ele>
        <time>2021-11-18T10:12:00.000Z</time>
      </trkpt>
      <trkpt lat="47.31975" lon="-2.43285">
        <ele>46.200000762939</ele>
        <time>2021-11-18T10:12:01.000Z</time>
      </trkpt>
      <trkpt lat="47.31973" lon="-2.43291">
        <ele>45.799999237061</ele>
        <time>2021-11-18T10:12:02.000Z</time>
      </trkpt>
      <trkpt lat="47.31972" lon="-2.43299">
        <ele>45.400001525879</ele>
        <time>2021-11-18T10:12:03.000Z</time>
      </trkpt>
      <trkpt lat="47.31972" lon="-2.43308">
        <ele>45</ele>
        <time>2021-11-18T10:12:04.000Z</time>
      </trkpt>
      <trkpt lat="47.31972" lon="-2.43318">
        <ele>44.400001525879</ele>
        <time>2021-11-18T10:12:05.000Z</time>
      </trkpt>
      <trkpt lat="47.31963" lon="-2.43365">
        <ele>44.400001525879</ele>
        <time>2021-11-18T10:12:10.000Z</time>
      </trkpt>
      <trkpt lat="47.31958" lon="-2.43384">
        <ele>44</ele>
        <time>2021-11-18T10:12:12.000Z</time>
      </trkpt>
      <trkpt lat="47.31955" lon="-2.43393">
        <ele>43.599998474121</ele>
        <time>2021-11-18T10:12:13.000Z</time>
      </trkpt>
      <trkpt lat="47.31951" lon="-2.43402">
        <ele>43.200000762939</ele>
        <time>2021-11-18T10:12:14.000Z</time>
      </trkpt>
      <trkpt lat="47.31948" lon="-2.43411">
        <ele>42.799999237061</ele>
        <time>2021-11-18T10:12:15.000Z</time>
      </trkpt>
      <trkpt lat="47.31945" lon="-2.43421">
        <ele>42.400001525879</ele>
        <time>2021-11-18T10:12:16.000Z</time>
      </trkpt>
      <trkpt lat="47.31938" lon="-2.43441">
        <ele>42</ele>
        <time>2021-11-18T10:12:18.000Z</time>
      </trkpt>
      <trkpt lat="47.31935" lon="-2.43453">
        <ele>41.599998474121</ele>
        <time>2021-11-18T10:12:19.000Z</time>
      </trkpt>
      <trkpt lat="47.31932" lon="-2.43464">
        <ele>41.200000762939</ele>
        <time>2021-11-18T10:12:20.000Z</time>
      </trkpt>
      <trkpt lat="47.31929" lon="-2.43475">
        <ele>40.799999237061</ele>
        <time>2021-11-18T10:12:21.000Z</time>
      </trkpt>
      <trkpt lat="47.31927" lon="-2.43486">
        <ele>40.400001525879</ele>
        <time>2021-11-18T10:12:22.000Z</time>
      </trkpt>
      <trkpt lat="47.31925" lon="-2.43498">
        <ele>39.799999237061</ele>
        <time>2021-11-18T10:12:23.000Z</time>
      </trkpt>
      <trkpt lat="47.31924" lon="-2.43509">
        <ele>39.400001525879</ele>
        <time>2021-11-18T10:12:24.000Z</time>
      </trkpt>
      <trkpt lat="47.31924" lon="-2.4352">
        <ele>39</ele>
        <time>2021-11-18T10:12:25.000Z</time>
      </trkpt>
      <trkpt lat="47.31924" lon="-2.43531">
        <ele>38.599998474121</ele>
        <time>2021-11-18T10:12:26.000Z</time>
      </trkpt>
      <trkpt lat="47.31925" lon="-2.43543">
        <ele>38.200000762939</ele>
        <time>2021-11-18T10:12:27.000Z</time>
      </trkpt>
      <trkpt lat="47.31927" lon="-2.43564">
        <ele>38.200000762939</ele>
        <time>2021-11-18T10:12:29.000Z</time>
      </trkpt>
      <trkpt lat="47.31924" lon="-2.43585">
        <ele>37.799999237061</ele>
        <time>2021-11-18T10:12:31.000Z</time>
      </trkpt>
      <trkpt lat="47.31921" lon="-2.43594">
        <ele>37.400001525879</ele>
        <time>2021-11-18T10:12:32.000Z</time>
      </trkpt>
      <trkpt lat="47.31916" lon="-2.43601">
        <ele>37</ele>
        <time>2021-11-18T10:12:33.000Z</time>
      </trkpt>
      <trkpt lat="47.3191" lon="-2.43607">
        <ele>36.599998474121</ele>
        <time>2021-11-18T10:12:34.000Z</time>
      </trkpt>
      <trkpt lat="47.31905" lon="-2.43612">
        <ele>36.200000762939</ele>
        <time>2021-11-18T10:12:35.000Z</time>
      </trkpt>
      <trkpt lat="47.31895" lon="-2.43622">
        <ele>35.799999237061</ele>
        <time>2021-11-18T10:12:37.000Z</time>
      </trkpt>
      <trkpt lat="47.31891" lon="-2.43629">
        <ele>35.400001525879</ele>
        <time>2021-11-18T10:12:38.000Z</time>
      </trkpt>
      <trkpt lat="47.31889" lon="-2.43637">
        <ele>35</ele>
        <time>2021-11-18T10:12:39.000Z</time>
      </trkpt>
      <trkpt lat="47.31889" lon="-2.43645">
        <ele>34.599998474121</ele>
        <time>2021-11-18T10:12:40.000Z</time>
      </trkpt>
      <trkpt lat="47.3189" lon="-2.43653">
        <ele>34.200000762939</ele>
        <time>2021-11-18T10:12:41.000Z</time>
      </trkpt>
      <trkpt lat="47.31893" lon="-2.4366">
        <ele>33.799999237061</ele>
        <time>2021-11-18T10:12:42.000Z</time>
      </trkpt>
      <trkpt lat="47.31897" lon="-2.43666">
        <ele>33.400001525879</ele>
        <time>2021-11-18T10:12:43.000Z</time>
      </trkpt>
      <trkpt lat="47.319" lon="-2.43671">
        <ele>32.799999237061</ele>
        <time>2021-11-18T10:12:44.000Z</time>
      </trkpt>
      <trkpt lat="47.31903" lon="-2.43678">
        <ele>32.400001525879</ele>
        <time>2021-11-18T10:12:45.000Z</time>
      </trkpt>
      <trkpt lat="47.31907" lon="-2.43684">
        <ele>32</ele>
        <time>2021-11-18T10:12:46.000Z</time>
      </trkpt>
      <trkpt lat="47.31916" lon="-2.43706">
        <ele>32</ele>
        <time>2021-11-18T10:12:49.000Z</time>
      </trkpt>
      <trkpt lat="47.31935" lon="-2.43755">
        <ele>32</ele>
        <time>2021-11-18T10:12:55.000Z</time>
      </trkpt>
      <trkpt lat="47.31956" lon="-2.43807">
        <ele>32</ele>
        <time>2021-11-18T10:13:02.000Z</time>
      </trkpt>
      <trkpt lat="47.31959" lon="-2.43813">
        <ele>32</ele>
        <time>2021-11-18T10:13:03.000Z</time>
      </trkpt>
      <trkpt lat="47.31969" lon="-2.4383">
        <ele>32.400001525879</ele>
        <time>2021-11-18T10:13:06.000Z</time>
      </trkpt>
      <trkpt lat="47.31973" lon="-2.43834">
        <ele>32.799999237061</ele>
        <time>2021-11-18T10:13:07.000Z</time>
      </trkpt>
      <trkpt lat="47.31978" lon="-2.43838">
        <ele>33.200000762939</ele>
        <time>2021-11-18T10:13:08.000Z</time>
      </trkpt>
      <trkpt lat="47.31982" lon="-2.43838">
        <ele>33.599998474121</ele>
        <time>2021-11-18T10:13:09.000Z</time>
      </trkpt>
      <trkpt lat="47.31987" lon="-2.43837">
        <ele>34</ele>
        <time>2021-11-18T10:13:10.000Z</time>
      </trkpt>
      <trkpt lat="47.31991" lon="-2.43834">
        <ele>34</ele>
        <time>2021-11-18T10:13:11.000Z</time>
      </trkpt>
      <trkpt lat="47.31995" lon="-2.43829">
        <ele>34</ele>
        <time>2021-11-18T10:13:12.000Z</time>
      </trkpt>
      <trkpt lat="47.32001" lon="-2.43822">
        <ele>34.400001525879</ele>
        <time>2021-11-18T10:13:14.000Z</time>
      </trkpt>
      <trkpt lat="47.32004" lon="-2.43819">
        <ele>34.799999237061</ele>
        <time>2021-11-18T10:13:15.000Z</time>
      </trkpt>
      <trkpt lat="47.32008" lon="-2.43815">
        <ele>35.400001525879</ele>
        <time>2021-11-18T10:13:16.000Z</time>
      </trkpt>
      <trkpt lat="47.32011" lon="-2.43812">
        <ele>35.799999237061</ele>
        <time>2021-11-18T10:13:17.000Z</time>
      </trkpt>
      <trkpt lat="47.32014" lon="-2.4381">
        <ele>36.200000762939</ele>
        <time>2021-11-18T10:13:18.000Z</time>
      </trkpt>
      <trkpt lat="47.32027" lon="-2.43801">
        <ele>36.599998474121</ele>
        <time>2021-11-18T10:13:22.000Z</time>
      </trkpt>
      <trkpt lat="47.3203" lon="-2.43799">
        <ele>37.200000762939</ele>
        <time>2021-11-18T10:13:23.000Z</time>
      </trkpt>
      <trkpt lat="47.32033" lon="-2.43801">
        <ele>37.599998474121</ele>
        <time>2021-11-18T10:13:24.000Z</time>
      </trkpt>
      <trkpt lat="47.32035" lon="-2.43804">
        <ele>38</ele>
        <time>2021-11-18T10:13:25.000Z</time>
      </trkpt>
      <trkpt lat="47.32037" lon="-2.43807">
        <ele>38.400001525879</ele>
        <time>2021-11-18T10:13:26.000Z</time>
      </trkpt>
      <trkpt lat="47.32045" lon="-2.43819">
        <ele>38.799999237061</ele>
        <time>2021-11-18T10:13:29.000Z</time>
      </trkpt>
      <trkpt lat="47.32048" lon="-2.43824">
        <ele>39.400001525879</ele>
        <time>2021-11-18T10:13:30.000Z</time>
      </trkpt>
      <trkpt lat="47.32051" lon="-2.43829">
        <ele>39.799999237061</ele>
        <time>2021-11-18T10:13:31.000Z</time>
      </trkpt>
      <trkpt lat="47.32054" lon="-2.43834">
        <ele>40.200000762939</ele>
        <time>2021-11-18T10:13:32.000Z</time>
      </trkpt>
      <trkpt lat="47.32056" lon="-2.43839">
        <ele>40.599998474121</ele>
        <time>2021-11-18T10:13:33.000Z</time>
      </trkpt>
      <trkpt lat="47.32059" lon="-2.43845">
        <ele>40.599998474121</ele>
        <time>2021-11-18T10:13:34.000Z</time>
      </trkpt>
      <trkpt lat="47.32066" lon="-2.4386">
        <ele>40.599998474121</ele>
        <time>2021-11-18T10:13:37.000Z</time>
      </trkpt>
      <trkpt lat="47.32081" lon="-2.43884">
        <ele>40.599998474121</ele>
        <time>2021-11-18T10:13:42.000Z</time>
      </trkpt>
      <trkpt lat="47.32084" lon="-2.43888">
        <ele>40.599998474121</ele>
        <time>2021-11-18T10:13:43.000Z</time>
      </trkpt>
      <trkpt lat="47.32091" lon="-2.43894">
        <ele>41</ele>
        <time>2021-11-18T10:13:45.000Z</time>
      </trkpt>
      <trkpt lat="47.32095" lon="-2.43896">
        <ele>41.400001525879</ele>
        <time>2021-11-18T10:13:46.000Z</time>
      </trkpt>
      <trkpt lat="47.32099" lon="-2.43898">
        <ele>41.799999237061</ele>
        <time>2021-11-18T10:13:47.000Z</time>
      </trkpt>
      <trkpt lat="47.32103" lon="-2.43901">
        <ele>42.200000762939</ele>
        <time>2021-11-18T10:13:48.000Z</time>
      </trkpt>
      <trkpt lat="47.32106" lon="-2.43903">
        <ele>42.599998474121</ele>
        <time>2021-11-18T10:13:49.000Z</time>
      </trkpt>
      <trkpt lat="47.3211" lon="-2.43905">
        <ele>42.599998474121</ele>
        <time>2021-11-18T10:13:50.000Z</time>
      </trkpt>
      <trkpt lat="47.32121" lon="-2.4391">
        <ele>42.599998474121</ele>
        <time>2021-11-18T10:13:53.000Z</time>
      </trkpt>
      <trkpt lat="47.32134" lon="-2.43921">
        <ele>43</ele>
        <time>2021-11-18T10:13:57.000Z</time>
      </trkpt>
      <trkpt lat="47.32136" lon="-2.43924">
        <ele>43.400001525879</ele>
        <time>2021-11-18T10:13:58.000Z</time>
      </trkpt>
      <trkpt lat="47.32139" lon="-2.43927">
        <ele>43.799999237061</ele>
        <time>2021-11-18T10:13:59.000Z</time>
      </trkpt>
      <trkpt lat="47.32142" lon="-2.4393">
        <ele>44.400001525879</ele>
        <time>2021-11-18T10:14:00.000Z</time>
      </trkpt>
      <trkpt lat="47.32144" lon="-2.43934">
        <ele>44.799999237061</ele>
        <time>2021-11-18T10:14:01.000Z</time>
      </trkpt>
      <trkpt lat="47.3215" lon="-2.43946">
        <ele>45.200000762939</ele>
        <time>2021-11-18T10:14:04.000Z</time>
      </trkpt>
      <trkpt lat="47.32152" lon="-2.4395">
        <ele>45.599998474121</ele>
        <time>2021-11-18T10:14:05.000Z</time>
      </trkpt>
      <trkpt lat="47.32155" lon="-2.43954">
        <ele>46</ele>
        <time>2021-11-18T10:14:06.000Z</time>
      </trkpt>
      <trkpt lat="47.32157" lon="-2.43958">
        <ele>46.400001525879</ele>
        <time>2021-11-18T10:14:07.000Z</time>
      </trkpt>
      <trkpt lat="47.3216" lon="-2.43962">
        <ele>46.799999237061</ele>
        <time>2021-11-18T10:14:08.000Z</time>
      </trkpt>
      <trkpt lat="47.32171" lon="-2.43977">
        <ele>46.799999237061</ele>
        <time>2021-11-18T10:14:12.000Z</time>
      </trkpt>
      <trkpt lat="47.32177" lon="-2.43985">
        <ele>47.200000762939</ele>
        <time>2021-11-18T10:14:14.000Z</time>
      </trkpt>
      <trkpt lat="47.3218" lon="-2.43989">
        <ele>47.599998474121</ele>
        <time>2021-11-18T10:14:15.000Z</time>
      </trkpt>
      <trkpt lat="47.32183" lon="-2.43993">
        <ele>48</ele>
        <time>2021-11-18T10:14:16.000Z</time>
      </trkpt>
      <trkpt lat="47.32186" lon="-2.43997">
        <ele>48.400001525879</ele>
        <time>2021-11-18T10:14:17.000Z</time>
      </trkpt>
      <trkpt lat="47.32188" lon="-2.44001">
        <ele>48.799999237061</ele>
        <time>2021-11-18T10:14:18.000Z</time>
      </trkpt>
      <trkpt lat="47.32194" lon="-2.44009">
        <ele>48.799999237061</ele>
        <time>2021-11-18T10:14:20.000Z</time>
      </trkpt>
      <trkpt lat="47.32216" lon="-2.44032">
        <ele>48.799999237061</ele>
        <time>2021-11-18T10:14:27.000Z</time>
      </trkpt>
      <trkpt lat="47.32222" lon="-2.44038">
        <ele>49.200000762939</ele>
        <time>2021-11-18T10:14:29.000Z</time>
      </trkpt>
      <trkpt lat="47.32226" lon="-2.44041">
        <ele>49.599998474121</ele>
        <time>2021-11-18T10:14:30.000Z</time>
      </trkpt>
      <trkpt lat="47.32229" lon="-2.44042">
        <ele>50</ele>
        <time>2021-11-18T10:14:31.000Z</time>
      </trkpt>
      <trkpt lat="47.32233" lon="-2.44043">
        <ele>50.400001525879</ele>
        <time>2021-11-18T10:14:32.000Z</time>
      </trkpt>
      <trkpt lat="47.32237" lon="-2.44044">
        <ele>50.799999237061</ele>
        <time>2021-11-18T10:14:33.000Z</time>
      </trkpt>
      <trkpt lat="47.32255" lon="-2.44043">
        <ele>50.799999237061</ele>
        <time>2021-11-18T10:14:37.000Z</time>
      </trkpt>
      <trkpt lat="47.32264" lon="-2.44045">
        <ele>50.799999237061</ele>
        <time>2021-11-18T10:14:39.000Z</time>
      </trkpt>
      <trkpt lat="47.32292" lon="-2.44053">
        <ele>50.799999237061</ele>
        <time>2021-11-18T10:14:46.000Z</time>
      </trkpt>
      <trkpt lat="47.32301" lon="-2.44057">
        <ele>50.799999237061</ele>
        <time>2021-11-18T10:14:48.000Z</time>
      </trkpt>
      <trkpt lat="47.3231" lon="-2.44061">
        <ele>51.200000762939</ele>
        <time>2021-11-18T10:14:50.000Z</time>
      </trkpt>
      <trkpt lat="47.32314" lon="-2.44062">
        <ele>51.599998474121</ele>
        <time>2021-11-18T10:14:51.000Z</time>
      </trkpt>
      <trkpt lat="47.32318" lon="-2.44064">
        <ele>52.400001525879</ele>
        <time>2021-11-18T10:14:52.000Z</time>
      </trkpt>
      <trkpt lat="47.32322" lon="-2.44065">
        <ele>52.799999237061</ele>
        <time>2021-11-18T10:14:53.000Z</time>
      </trkpt>
      <trkpt lat="47.32338" lon="-2.4407">
        <ele>52.799999237061</ele>
        <time>2021-11-18T10:14:57.000Z</time>
      </trkpt>
      <trkpt lat="47.32356" lon="-2.4407">
        <ele>53.200000762939</ele>
        <time>2021-11-18T10:15:01.000Z</time>
      </trkpt>
      <trkpt lat="47.3236" lon="-2.44069">
        <ele>53.599998474121</ele>
        <time>2021-11-18T10:15:02.000Z</time>
      </trkpt>
      <trkpt lat="47.32364" lon="-2.44068">
        <ele>54</ele>
        <time>2021-11-18T10:15:03.000Z</time>
      </trkpt>
      <trkpt lat="47.32369" lon="-2.44067">
        <ele>54.400001525879</ele>
        <time>2021-11-18T10:15:04.000Z</time>
      </trkpt>
      <trkpt lat="47.32373" lon="-2.44065">
        <ele>55</ele>
        <time>2021-11-18T10:15:05.000Z</time>
      </trkpt>
      <trkpt lat="47.32393" lon="-2.44057">
        <ele>55</ele>
        <time>2021-11-18T10:15:10.000Z</time>
      </trkpt>
      <trkpt lat="47.32408" lon="-2.44049">
        <ele>55.400001525879</ele>
        <time>2021-11-18T10:15:14.000Z</time>
      </trkpt>
      <trkpt lat="47.32412" lon="-2.44047">
        <ele>55.799999237061</ele>
        <time>2021-11-18T10:15:15.000Z</time>
      </trkpt>
      <trkpt lat="47.32415" lon="-2.44045">
        <ele>56.599998474121</ele>
        <time>2021-11-18T10:15:16.000Z</time>
      </trkpt>
      <trkpt lat="47.32419" lon="-2.44042">
        <ele>57</ele>
        <time>2021-11-18T10:15:17.000Z</time>
      </trkpt>
      <trkpt lat="47.32444" lon="-2.44025">
        <ele>57</ele>
        <time>2021-11-18T10:15:24.000Z</time>
      </trkpt>
      <trkpt lat="47.32448" lon="-2.44022">
        <ele>57.400001525879</ele>
        <time>2021-11-18T10:15:25.000Z</time>
      </trkpt>
      <trkpt lat="47.32451" lon="-2.44019">
        <ele>58</ele>
        <time>2021-11-18T10:15:26.000Z</time>
      </trkpt>
      <trkpt lat="47.32455" lon="-2.44016">
        <ele>58.400001525879</ele>
        <time>2021-11-18T10:15:27.000Z</time>
      </trkpt>
      <trkpt lat="47.32459" lon="-2.44014">
        <ele>58.799999237061</ele>
        <time>2021-11-18T10:15:28.000Z</time>
      </trkpt>
      <trkpt lat="47.32463" lon="-2.44012">
        <ele>59.200000762939</ele>
        <time>2021-11-18T10:15:29.000Z</time>
      </trkpt>
      <trkpt lat="47.32474" lon="-2.44004">
        <ele>59.200000762939</ele>
        <time>2021-11-18T10:15:32.000Z</time>
      </trkpt>
      <trkpt lat="47.32502" lon="-2.43986">
        <ele>59.200000762939</ele>
        <time>2021-11-18T10:15:40.000Z</time>
      </trkpt>
      <trkpt lat="47.32506" lon="-2.43985">
        <ele>59.200000762939</ele>
        <time>2021-11-18T10:15:41.000Z</time>
      </trkpt>
      <trkpt lat="47.32509" lon="-2.43987">
        <ele>59.599998474121</ele>
        <time>2021-11-18T10:15:42.000Z</time>
      </trkpt>
      <trkpt lat="47.32512" lon="-2.4399">
        <ele>60</ele>
        <time>2021-11-18T10:15:43.000Z</time>
      </trkpt>
      <trkpt lat="47.32516" lon="-2.43994">
        <ele>60.400001525879</ele>
        <time>2021-11-18T10:15:44.000Z</time>
      </trkpt>
      <trkpt lat="47.3252" lon="-2.43999">
        <ele>60.799999237061</ele>
        <time>2021-11-18T10:15:45.000Z</time>
      </trkpt>
      <trkpt lat="47.32524" lon="-2.44004">
        <ele>61.200000762939</ele>
        <time>2021-11-18T10:15:46.000Z</time>
      </trkpt>
      <trkpt lat="47.32528" lon="-2.44009">
        <ele>61.200000762939</ele>
        <time>2021-11-18T10:15:47.000Z</time>
      </trkpt>
      <trkpt lat="47.32552" lon="-2.4403">
        <ele>61.200000762939</ele>
        <time>2021-11-18T10:15:53.000Z</time>
      </trkpt>
      <trkpt lat="47.32556" lon="-2.44031">
        <ele>61.200000762939</ele>
        <time>2021-11-18T10:15:54.000Z</time>
      </trkpt>
      <trkpt lat="47.3257" lon="-2.44037">
        <ele>61.200000762939</ele>
        <time>2021-11-18T10:15:58.000Z</time>
      </trkpt>
      <trkpt lat="47.32571" lon="-2.44039">
        <ele>61.200000762939</ele>
        <time>2021-11-18T10:15:59.000Z</time>
      </trkpt>
      <trkpt lat="47.3257" lon="-2.44048">
        <ele>61.200000762939</ele>
        <time>2021-11-18T10:16:02.000Z</time>
      </trkpt>
      <trkpt lat="47.32566" lon="-2.44055">
        <ele>61.200000762939</ele>
        <time>2021-11-18T10:16:04.000Z</time>
      </trkpt>
      <trkpt lat="47.32557" lon="-2.44076">
        <ele>61.200000762939</ele>
        <time>2021-11-18T10:16:08.000Z</time>
      </trkpt>
      <trkpt lat="47.32546" lon="-2.44116">
        <ele>61.200000762939</ele>
        <time>2021-11-18T10:16:14.000Z</time>
      </trkpt>
      <trkpt lat="47.32534" lon="-2.44158">
        <ele>61.200000762939</ele>
        <time>2021-11-18T10:16:20.000Z</time>
      </trkpt>
      <trkpt lat="47.32529" lon="-2.44174">
        <ele>61.200000762939</ele>
        <time>2021-11-18T10:16:22.000Z</time>
      </trkpt>
      <trkpt lat="47.32526" lon="-2.4419">
        <ele>61.200000762939</ele>
        <time>2021-11-18T10:16:24.000Z</time>
      </trkpt>
      <trkpt lat="47.32527" lon="-2.44197">
        <ele>61.200000762939</ele>
        <time>2021-11-18T10:16:25.000Z</time>
      </trkpt>
      <trkpt lat="47.32535" lon="-2.44214">
        <ele>61.200000762939</ele>
        <time>2021-11-18T10:16:28.000Z</time>
      </trkpt>
      <trkpt lat="47.32539" lon="-2.4422">
        <ele>61.200000762939</ele>
        <time>2021-11-18T10:16:29.000Z</time>
      </trkpt>
      <trkpt lat="47.3256" lon="-2.44257">
        <ele>61.200000762939</ele>
        <time>2021-11-18T10:16:35.000Z</time>
      </trkpt>
      <trkpt lat="47.32562" lon="-2.44264">
        <ele>61.200000762939</ele>
        <time>2021-11-18T10:16:36.000Z</time>
      </trkpt>
      <trkpt lat="47.32567" lon="-2.44287">
        <ele>61.200000762939</ele>
        <time>2021-11-18T10:16:39.000Z</time>
      </trkpt>
      <trkpt lat="47.3257" lon="-2.44295">
        <ele>61.200000762939</ele>
        <time>2021-11-18T10:16:40.000Z</time>
      </trkpt>
      <trkpt lat="47.32581" lon="-2.44328">
        <ele>61.200000762939</ele>
        <time>2021-11-18T10:16:44.000Z</time>
      </trkpt>
      <trkpt lat="47.32596" lon="-2.44367">
        <ele>61.200000762939</ele>
        <time>2021-11-18T10:16:50.000Z</time>
      </trkpt>
      <trkpt lat="47.326" lon="-2.44374">
        <ele>61.200000762939</ele>
        <time>2021-11-18T10:16:51.000Z</time>
      </trkpt>
      <trkpt lat="47.32614" lon="-2.44388">
        <ele>61.200000762939</ele>
        <time>2021-11-18T10:16:55.000Z</time>
      </trkpt>
      <trkpt lat="47.32622" lon="-2.44407">
        <ele>61.200000762939</ele>
        <time>2021-11-18T10:16:59.000Z</time>
      </trkpt>
      <trkpt lat="47.32635" lon="-2.44436">
        <ele>61.200000762939</ele>
        <time>2021-11-18T10:17:04.000Z</time>
      </trkpt>
      <trkpt lat="47.32647" lon="-2.4447">
        <ele>61.200000762939</ele>
        <time>2021-11-18T10:17:09.000Z</time>
      </trkpt>
      <trkpt lat="47.32655" lon="-2.44489">
        <ele>61.200000762939</ele>
        <time>2021-11-18T10:17:12.000Z</time>
      </trkpt>
      <trkpt lat="47.32664" lon="-2.44496">
        <ele>61.200000762939</ele>
        <time>2021-11-18T10:17:14.000Z</time>
      </trkpt>
      <trkpt lat="47.3267" lon="-2.44506">
        <ele>61.200000762939</ele>
        <time>2021-11-18T10:17:17.000Z</time>
      </trkpt>
      <trkpt lat="47.32662" lon="-2.44517">
        <ele>61.200000762939</ele>
        <time>2021-11-18T10:17:20.000Z</time>
      </trkpt>
      <trkpt lat="47.32659" lon="-2.44522">
        <ele>61.200000762939</ele>
        <time>2021-11-18T10:17:21.000Z</time>
      </trkpt>
      <trkpt lat="47.32646" lon="-2.44547">
        <ele>61.200000762939</ele>
        <time>2021-11-18T10:17:25.000Z</time>
      </trkpt>
      <trkpt lat="47.32631" lon="-2.44574">
        <ele>61.200000762939</ele>
        <time>2021-11-18T10:17:29.000Z</time>
      </trkpt>
      <trkpt lat="47.32627" lon="-2.4458">
        <ele>61.200000762939</ele>
        <time>2021-11-18T10:17:30.000Z</time>
      </trkpt>
      <trkpt lat="47.32597" lon="-2.44627">
        <ele>61.200000762939</ele>
        <time>2021-11-18T10:17:37.000Z</time>
      </trkpt>
      <trkpt lat="47.3259" lon="-2.44638">
        <ele>60.799999237061</ele>
        <time>2021-11-18T10:17:39.000Z</time>
      </trkpt>
      <trkpt lat="47.32586" lon="-2.44643">
        <ele>60.400001525879</ele>
        <time>2021-11-18T10:17:40.000Z</time>
      </trkpt>
      <trkpt lat="47.32581" lon="-2.44648">
        <ele>60</ele>
        <time>2021-11-18T10:17:41.000Z</time>
      </trkpt>
      <trkpt lat="47.32577" lon="-2.44654">
        <ele>59.599998474121</ele>
        <time>2021-11-18T10:17:42.000Z</time>
      </trkpt>
      <trkpt lat="47.32571" lon="-2.44661">
        <ele>59.200000762939</ele>
        <time>2021-11-18T10:17:43.000Z</time>
      </trkpt>
      <trkpt lat="47.32557" lon="-2.44681">
        <ele>58.799999237061</ele>
        <time>2021-11-18T10:17:46.000Z</time>
      </trkpt>
      <trkpt lat="47.32552" lon="-2.44687">
        <ele>58.200000762939</ele>
        <time>2021-11-18T10:17:47.000Z</time>
      </trkpt>
      <trkpt lat="47.32547" lon="-2.44694">
        <ele>57.799999237061</ele>
        <time>2021-11-18T10:17:48.000Z</time>
      </trkpt>
      <trkpt lat="47.32541" lon="-2.44701">
        <ele>57.400001525879</ele>
        <time>2021-11-18T10:17:49.000Z</time>
      </trkpt>
      <trkpt lat="47.32537" lon="-2.44708">
        <ele>56.799999237061</ele>
        <time>2021-11-18T10:17:50.000Z</time>
      </trkpt>
      <trkpt lat="47.32529" lon="-2.44724">
        <ele>56.400001525879</ele>
        <time>2021-11-18T10:17:52.000Z</time>
      </trkpt>
      <trkpt lat="47.32528" lon="-2.44731">
        <ele>56</ele>
        <time>2021-11-18T10:17:53.000Z</time>
      </trkpt>
      <trkpt lat="47.32527" lon="-2.44739">
        <ele>55.400001525879</ele>
        <time>2021-11-18T10:17:54.000Z</time>
      </trkpt>
      <trkpt lat="47.32524" lon="-2.44744">
        <ele>55</ele>
        <time>2021-11-18T10:17:55.000Z</time>
      </trkpt>
      <trkpt lat="47.3252" lon="-2.44747">
        <ele>54.400001525879</ele>
        <time>2021-11-18T10:17:56.000Z</time>
      </trkpt>
      <trkpt lat="47.32509" lon="-2.44754">
        <ele>54</ele>
        <time>2021-11-18T10:17:58.000Z</time>
      </trkpt>
      <trkpt lat="47.32503" lon="-2.44757">
        <ele>53.599998474121</ele>
        <time>2021-11-18T10:17:59.000Z</time>
      </trkpt>
      <trkpt lat="47.32497" lon="-2.44761">
        <ele>53.200000762939</ele>
        <time>2021-11-18T10:18:00.000Z</time>
      </trkpt>
      <trkpt lat="47.32491" lon="-2.44765">
        <ele>52.799999237061</ele>
        <time>2021-11-18T10:18:01.000Z</time>
      </trkpt>
      <trkpt lat="47.32485" lon="-2.44769">
        <ele>52.400001525879</ele>
        <time>2021-11-18T10:18:02.000Z</time>
      </trkpt>
      <trkpt lat="47.32479" lon="-2.44773">
        <ele>51.799999237061</ele>
        <time>2021-11-18T10:18:03.000Z</time>
      </trkpt>
      <trkpt lat="47.32473" lon="-2.44778">
        <ele>51.400001525879</ele>
        <time>2021-11-18T10:18:04.000Z</time>
      </trkpt>
      <trkpt lat="47.32466" lon="-2.44782">
        <ele>51</ele>
        <time>2021-11-18T10:18:05.000Z</time>
      </trkpt>
      <trkpt lat="47.32459" lon="-2.44786">
        <ele>50.400001525879</ele>
        <time>2021-11-18T10:18:06.000Z</time>
      </trkpt>
      <trkpt lat="47.32453" lon="-2.44791">
        <ele>50</ele>
        <time>2021-11-18T10:18:07.000Z</time>
      </trkpt>
      <trkpt lat="47.32439" lon="-2.44801">
        <ele>49.599998474121</ele>
        <time>2021-11-18T10:18:09.000Z</time>
      </trkpt>
      <trkpt lat="47.32432" lon="-2.44806">
        <ele>49.200000762939</ele>
        <time>2021-11-18T10:18:10.000Z</time>
      </trkpt>
      <trkpt lat="47.32425" lon="-2.44811">
        <ele>48.799999237061</ele>
        <time>2021-11-18T10:18:11.000Z</time>
      </trkpt>
      <trkpt lat="47.32418" lon="-2.44816">
        <ele>48.400001525879</ele>
        <time>2021-11-18T10:18:12.000Z</time>
      </trkpt>
      <trkpt lat="47.32411" lon="-2.4482">
        <ele>48</ele>
        <time>2021-11-18T10:18:13.000Z</time>
      </trkpt>
      <trkpt lat="47.3239" lon="-2.44833">
        <ele>47.599998474121</ele>
        <time>2021-11-18T10:18:16.000Z</time>
      </trkpt>
      <trkpt lat="47.32383" lon="-2.44838">
        <ele>47</ele>
        <time>2021-11-18T10:18:17.000Z</time>
      </trkpt>
      <trkpt lat="47.32377" lon="-2.44843">
        <ele>46.599998474121</ele>
        <time>2021-11-18T10:18:18.000Z</time>
      </trkpt>
      <trkpt lat="47.32371" lon="-2.44848">
        <ele>46.200000762939</ele>
        <time>2021-11-18T10:18:19.000Z</time>
      </trkpt>
      <trkpt lat="47.32364" lon="-2.44853">
        <ele>45.799999237061</ele>
        <time>2021-11-18T10:18:20.000Z</time>
      </trkpt>
      <trkpt lat="47.32357" lon="-2.4486">
        <ele>45.799999237061</ele>
        <time>2021-11-18T10:18:21.000Z</time>
      </trkpt>
      <trkpt lat="47.32325" lon="-2.44899">
        <ele>45.799999237061</ele>
        <time>2021-11-18T10:18:27.000Z</time>
      </trkpt>
      <trkpt lat="47.3231" lon="-2.44921">
        <ele>45.799999237061</ele>
        <time>2021-11-18T10:18:30.000Z</time>
      </trkpt>
      <trkpt lat="47.32294" lon="-2.44939">
        <ele>45.400001525879</ele>
        <time>2021-11-18T10:18:33.000Z</time>
      </trkpt>
      <trkpt lat="47.32288" lon="-2.44946">
        <ele>45</ele>
        <time>2021-11-18T10:18:34.000Z</time>
      </trkpt>
      <trkpt lat="47.32282" lon="-2.44953">
        <ele>44.599998474121</ele>
        <time>2021-11-18T10:18:35.000Z</time>
      </trkpt>
      <trkpt lat="47.32276" lon="-2.44959">
        <ele>44.200000762939</ele>
        <time>2021-11-18T10:18:36.000Z</time>
      </trkpt>
      <trkpt lat="47.32271" lon="-2.44966">
        <ele>43.799999237061</ele>
        <time>2021-11-18T10:18:37.000Z</time>
      </trkpt>
      <trkpt lat="47.32253" lon="-2.44986">
        <ele>43.799999237061</ele>
        <time>2021-11-18T10:18:40.000Z</time>
      </trkpt>
      <trkpt lat="47.32241" lon="-2.45001">
        <ele>43.400001525879</ele>
        <time>2021-11-18T10:18:42.000Z</time>
      </trkpt>
      <trkpt lat="47.32236" lon="-2.45007">
        <ele>42.799999237061</ele>
        <time>2021-11-18T10:18:43.000Z</time>
      </trkpt>
      <trkpt lat="47.32231" lon="-2.45013">
        <ele>42.200000762939</ele>
        <time>2021-11-18T10:18:44.000Z</time>
      </trkpt>
      <trkpt lat="47.32226" lon="-2.45019">
        <ele>41.400001525879</ele>
        <time>2021-11-18T10:18:45.000Z</time>
      </trkpt>
      <trkpt lat="47.32222" lon="-2.45023">
        <ele>39.799999237061</ele>
        <time>2021-11-18T10:18:46.000Z</time>
      </trkpt>
      <trkpt lat="47.32219" lon="-2.45026">
        <ele>39</ele>
        <time>2021-11-18T10:18:47.000Z</time>
      </trkpt>
      <trkpt lat="47.32217" lon="-2.45028">
        <ele>38.400001525879</ele>
        <time>2021-11-18T10:18:48.000Z</time>
      </trkpt>
      <trkpt lat="47.32214" lon="-2.45028">
        <ele>37.599998474121</ele>
        <time>2021-11-18T10:18:49.000Z</time>
      </trkpt>
      <trkpt lat="47.32213" lon="-2.45026">
        <ele>36.799999237061</ele>
        <time>2021-11-18T10:18:50.000Z</time>
      </trkpt>
      <trkpt lat="47.32213" lon="-2.45024">
        <ele>36</ele>
        <time>2021-11-18T10:18:51.000Z</time>
      </trkpt>
      <trkpt lat="47.32213" lon="-2.45025">
        <ele>36</ele>
        <time>2021-11-18T10:18:52.000Z</time>
      </trkpt>
      <trkpt lat="47.32213" lon="-2.45026">
        <ele>36</ele>
        <time>2021-11-18T10:20:18.000Z</time>
      </trkpt>
      <trkpt lat="47.32212" lon="-2.45023">
        <ele>36</ele>
        <time>2021-11-18T10:20:19.000Z</time>
      </trkpt>
      <trkpt lat="47.32205" lon="-2.45009">
        <ele>36</ele>
        <time>2021-11-18T10:20:24.000Z</time>
      </trkpt>
      <trkpt lat="47.32194" lon="-2.44985">
        <ele>36</ele>
        <time>2021-11-18T10:20:29.000Z</time>
      </trkpt>
      <trkpt lat="47.3219" lon="-2.44981">
        <ele>36</ele>
        <time>2021-11-18T10:20:30.000Z</time>
      </trkpt>
      <trkpt lat="47.32168" lon="-2.44962">
        <ele>36</ele>
        <time>2021-11-18T10:20:34.000Z</time>
      </trkpt>
      <trkpt lat="47.32162" lon="-2.44956">
        <ele>35.599998474121</ele>
        <time>2021-11-18T10:20:35.000Z</time>
      </trkpt>
      <trkpt lat="47.32156" lon="-2.44951">
        <ele>35.200000762939</ele>
        <time>2021-11-18T10:20:36.000Z</time>
      </trkpt>
      <trkpt lat="47.32149" lon="-2.44946">
        <ele>34.799999237061</ele>
        <time>2021-11-18T10:20:37.000Z</time>
      </trkpt>
      <trkpt lat="47.32143" lon="-2.4494">
        <ele>34.400001525879</ele>
        <time>2021-11-18T10:20:38.000Z</time>
      </trkpt>
      <trkpt lat="47.32137" lon="-2.44933">
        <ele>34</ele>
        <time>2021-11-18T10:20:39.000Z</time>
      </trkpt>
      <trkpt lat="47.32126" lon="-2.44915">
        <ele>34</ele>
        <time>2021-11-18T10:20:41.000Z</time>
      </trkpt>
      <trkpt lat="47.32121" lon="-2.44906">
        <ele>34</ele>
        <time>2021-11-18T10:20:42.000Z</time>
      </trkpt>
      <trkpt lat="47.32104" lon="-2.44866">
        <ele>33.599998474121</ele>
        <time>2021-11-18T10:20:46.000Z</time>
      </trkpt>
      <trkpt lat="47.321" lon="-2.44856">
        <ele>33.200000762939</ele>
        <time>2021-11-18T10:20:47.000Z</time>
      </trkpt>
      <trkpt lat="47.32096" lon="-2.44847">
        <ele>32.799999237061</ele>
        <time>2021-11-18T10:20:48.000Z</time>
      </trkpt>
      <trkpt lat="47.32092" lon="-2.44838">
        <ele>32.400001525879</ele>
        <time>2021-11-18T10:20:49.000Z</time>
      </trkpt>
      <trkpt lat="47.32088" lon="-2.44829">
        <ele>32</ele>
        <time>2021-11-18T10:20:50.000Z</time>
      </trkpt>
      <trkpt lat="47.3207" lon="-2.44785">
        <ele>32</ele>
        <time>2021-11-18T10:20:55.000Z</time>
      </trkpt>
      <trkpt lat="47.32066" lon="-2.44777">
        <ele>32</ele>
        <time>2021-11-18T10:20:56.000Z</time>
      </trkpt>
      <trkpt lat="47.32041" lon="-2.44734">
        <ele>32</ele>
        <time>2021-11-18T10:21:02.000Z</time>
      </trkpt>
      <trkpt lat="47.32036" lon="-2.44728">
        <ele>31.60000038147</ele>
        <time>2021-11-18T10:21:03.000Z</time>
      </trkpt>
      <trkpt lat="47.32031" lon="-2.44722">
        <ele>31.200000762939</ele>
        <time>2021-11-18T10:21:04.000Z</time>
      </trkpt>
      <trkpt lat="47.32027" lon="-2.44716">
        <ele>30.799999237061</ele>
        <time>2021-11-18T10:21:05.000Z</time>
      </trkpt>
      <trkpt lat="47.32022" lon="-2.44709">
        <ele>30.39999961853</ele>
        <time>2021-11-18T10:21:06.000Z</time>
      </trkpt>
      <trkpt lat="47.32018" lon="-2.44703">
        <ele>30</ele>
        <time>2021-11-18T10:21:07.000Z</time>
      </trkpt>
      <trkpt lat="47.32014" lon="-2.44696">
        <ele>30</ele>
        <time>2021-11-18T10:21:08.000Z</time>
      </trkpt>
      <trkpt lat="47.31982" lon="-2.44653">
        <ele>30</ele>
        <time>2021-11-18T10:21:15.000Z</time>
      </trkpt>
      <trkpt lat="47.31957" lon="-2.44626">
        <ele>30</ele>
        <time>2021-11-18T10:21:20.000Z</time>
      </trkpt>
      <trkpt lat="47.31952" lon="-2.4462">
        <ele>30</ele>
        <time>2021-11-18T10:21:21.000Z</time>
      </trkpt>
      <trkpt lat="47.3192" lon="-2.44582">
        <ele>30</ele>
        <time>2021-11-18T10:21:28.000Z</time>
      </trkpt>
      <trkpt lat="47.31907" lon="-2.44568">
        <ele>30</ele>
        <time>2021-11-18T10:21:31.000Z</time>
      </trkpt>
      <trkpt lat="47.31897" lon="-2.4457">
        <ele>30</ele>
        <time>2021-11-18T10:21:33.000Z</time>
      </trkpt>
      <trkpt lat="47.31892" lon="-2.44575">
        <ele>29.60000038147</ele>
        <time>2021-11-18T10:21:34.000Z</time>
      </trkpt>
      <trkpt lat="47.31889" lon="-2.44581">
        <ele>29</ele>
        <time>2021-11-18T10:21:35.000Z</time>
      </trkpt>
      <trkpt lat="47.31886" lon="-2.44589">
        <ele>28.60000038147</ele>
        <time>2021-11-18T10:21:36.000Z</time>
      </trkpt>
      <trkpt lat="47.31883" lon="-2.44597">
        <ele>28.200000762939</ele>
        <time>2021-11-18T10:21:37.000Z</time>
      </trkpt>
      <trkpt lat="47.3188" lon="-2.44605">
        <ele>27.799999237061</ele>
        <time>2021-11-18T10:21:38.000Z</time>
      </trkpt>
      <trkpt lat="47.31864" lon="-2.44649">
        <ele>27.799999237061</ele>
        <time>2021-11-18T10:21:43.000Z</time>
      </trkpt>
      <trkpt lat="47.31839" lon="-2.44698">
        <ele>27.799999237061</ele>
        <time>2021-11-18T10:21:49.000Z</time>
      </trkpt>
      <trkpt lat="47.31823" lon="-2.44718">
        <ele>27.799999237061</ele>
        <time>2021-11-18T10:21:52.000Z</time>
      </trkpt>
      <trkpt lat="47.31812" lon="-2.44728">
        <ele>27.799999237061</ele>
        <time>2021-11-18T10:21:54.000Z</time>
      </trkpt>
      <trkpt lat="47.31795" lon="-2.44738">
        <ele>27.799999237061</ele>
        <time>2021-11-18T10:21:57.000Z</time>
      </trkpt>
      <trkpt lat="47.3178" lon="-2.44746">
        <ele>27.799999237061</ele>
        <time>2021-11-18T10:22:00.000Z</time>
      </trkpt>
      <trkpt lat="47.31772" lon="-2.44752">
        <ele>27.799999237061</ele>
        <time>2021-11-18T10:22:03.000Z</time>
      </trkpt>
      <trkpt lat="47.31771" lon="-2.44753">
        <ele>27.799999237061</ele>
        <time>2021-11-18T10:22:05.000Z</time>
      </trkpt>
      <trkpt lat="47.3177" lon="-2.44754">
        <ele>27.799999237061</ele>
        <time>2021-11-18T10:22:51.000Z</time>
      </trkpt>
      <trkpt lat="47.31769" lon="-2.44755">
        <ele>27.799999237061</ele>
        <time>2021-11-18T10:22:52.000Z</time>
      </trkpt>
      <trkpt lat="47.31759" lon="-2.44764">
        <ele>27.799999237061</ele>
        <time>2021-11-18T10:22:57.000Z</time>
      </trkpt>
      <trkpt lat="47.31739" lon="-2.44781">
        <ele>27.799999237061</ele>
        <time>2021-11-18T10:23:04.000Z</time>
      </trkpt>
      <trkpt lat="47.31737" lon="-2.44784">
        <ele>27.39999961853</ele>
        <time>2021-11-18T10:23:05.000Z</time>
      </trkpt>
      <trkpt lat="47.31735" lon="-2.44786">
        <ele>27</ele>
        <time>2021-11-18T10:23:06.000Z</time>
      </trkpt>
      <trkpt lat="47.31733" lon="-2.44787">
        <ele>26.60000038147</ele>
        <time>2021-11-18T10:23:07.000Z</time>
      </trkpt>
      <trkpt lat="47.31731" lon="-2.44787">
        <ele>26.200000762939</ele>
        <time>2021-11-18T10:23:08.000Z</time>
      </trkpt>
      <trkpt lat="47.31729" lon="-2.44787">
        <ele>25.799999237061</ele>
        <time>2021-11-18T10:23:09.000Z</time>
      </trkpt>
      <trkpt lat="47.31722" lon="-2.44783">
        <ele>25.799999237061</ele>
        <time>2021-11-18T10:23:12.000Z</time>
      </trkpt>
      <trkpt lat="47.3172" lon="-2.44779">
        <ele>25.799999237061</ele>
        <time>2021-11-18T10:23:13.000Z</time>
      </trkpt>
      <trkpt lat="47.31707" lon="-2.44746">
        <ele>25.799999237061</ele>
        <time>2021-11-18T10:23:19.000Z</time>
      </trkpt>
      <trkpt lat="47.31695" lon="-2.44718">
        <ele>25.799999237061</ele>
        <time>2021-11-18T10:23:25.000Z</time>
      </trkpt>
      <trkpt lat="47.3168" lon="-2.44682">
        <ele>25.799999237061</ele>
        <time>2021-11-18T10:23:32.000Z</time>
      </trkpt>
      <trkpt lat="47.31659" lon="-2.44633">
        <ele>25.799999237061</ele>
        <time>2021-11-18T10:23:40.000Z</time>
      </trkpt>
      <trkpt lat="47.31634" lon="-2.44584">
        <ele>25.799999237061</ele>
        <time>2021-11-18T10:23:48.000Z</time>
      </trkpt>
      <trkpt lat="47.31606" lon="-2.44536">
        <ele>25.799999237061</ele>
        <time>2021-11-18T10:23:56.000Z</time>
      </trkpt>
      <trkpt lat="47.31596" lon="-2.44518">
        <ele>25.799999237061</ele>
        <time>2021-11-18T10:23:59.000Z</time>
      </trkpt>
      <trkpt lat="47.31586" lon="-2.44488">
        <ele>25.799999237061</ele>
        <time>2021-11-18T10:24:03.000Z</time>
      </trkpt>
      <trkpt lat="47.31578" lon="-2.44444">
        <ele>25.799999237061</ele>
        <time>2021-11-18T10:24:08.000Z</time>
      </trkpt>
      <trkpt lat="47.31577" lon="-2.44435">
        <ele>25.799999237061</ele>
        <time>2021-11-18T10:24:09.000Z</time>
      </trkpt>
      <trkpt lat="47.31569" lon="-2.44377">
        <ele>25.799999237061</ele>
        <time>2021-11-18T10:24:16.000Z</time>
      </trkpt>
      <trkpt lat="47.31568" lon="-2.44369">
        <ele>25.39999961853</ele>
        <time>2021-11-18T10:24:17.000Z</time>
      </trkpt>
      <trkpt lat="47.31566" lon="-2.44361">
        <ele>25</ele>
        <time>2021-11-18T10:24:18.000Z</time>
      </trkpt>
      <trkpt lat="47.31565" lon="-2.44353">
        <ele>24.60000038147</ele>
        <time>2021-11-18T10:24:19.000Z</time>
      </trkpt>
      <trkpt lat="47.31564" lon="-2.44345">
        <ele>24.200000762939</ele>
        <time>2021-11-18T10:24:20.000Z</time>
      </trkpt>
      <trkpt lat="47.31563" lon="-2.44337">
        <ele>23.799999237061</ele>
        <time>2021-11-18T10:24:21.000Z</time>
      </trkpt>
      <trkpt lat="47.31561" lon="-2.4432">
        <ele>23.799999237061</ele>
        <time>2021-11-18T10:24:23.000Z</time>
      </trkpt>
      <trkpt lat="47.3156" lon="-2.44311">
        <ele>23.799999237061</ele>
        <time>2021-11-18T10:24:24.000Z</time>
      </trkpt>
      <trkpt lat="47.31549" lon="-2.44247">
        <ele>23.799999237061</ele>
        <time>2021-11-18T10:24:32.000Z</time>
      </trkpt>
      <trkpt lat="47.31545" lon="-2.44225">
        <ele>23.799999237061</ele>
        <time>2021-11-18T10:24:35.000Z</time>
      </trkpt>
      <trkpt lat="47.3154" lon="-2.44205">
        <ele>23.799999237061</ele>
        <time>2021-11-18T10:24:38.000Z</time>
      </trkpt>
      <trkpt lat="47.31538" lon="-2.44199">
        <ele>23.799999237061</ele>
        <time>2021-11-18T10:24:39.000Z</time>
      </trkpt>
      <trkpt lat="47.31527" lon="-2.4417">
        <ele>23.799999237061</ele>
        <time>2021-11-18T10:24:44.000Z</time>
      </trkpt>
      <trkpt lat="47.31504" lon="-2.44133">
        <ele>23.799999237061</ele>
        <time>2021-11-18T10:24:51.000Z</time>
      </trkpt>
      <trkpt lat="47.31475" lon="-2.44097">
        <ele>23.799999237061</ele>
        <time>2021-11-18T10:24:59.000Z</time>
      </trkpt>
      <trkpt lat="47.31446" lon="-2.44062">
        <ele>23.799999237061</ele>
        <time>2021-11-18T10:25:06.000Z</time>
      </trkpt>
      <trkpt lat="47.3141" lon="-2.44017">
        <ele>23.799999237061</ele>
        <time>2021-11-18T10:25:15.000Z</time>
      </trkpt>
      <trkpt lat="47.31376" lon="-2.43971">
        <ele>24.200000762939</ele>
        <time>2021-11-18T10:25:24.000Z</time>
      </trkpt>
      <trkpt lat="47.31373" lon="-2.43966">
        <ele>24.60000038147</ele>
        <time>2021-11-18T10:25:25.000Z</time>
      </trkpt>
      <trkpt lat="47.31369" lon="-2.4396">
        <ele>25</ele>
        <time>2021-11-18T10:25:26.000Z</time>
      </trkpt>
      <trkpt lat="47.31366" lon="-2.43953">
        <ele>25.39999961853</ele>
        <time>2021-11-18T10:25:27.000Z</time>
      </trkpt>
      <trkpt lat="47.31363" lon="-2.43947">
        <ele>25.799999237061</ele>
        <time>2021-11-18T10:25:28.000Z</time>
      </trkpt>
      <trkpt lat="47.3136" lon="-2.4394">
        <ele>25.799999237061</ele>
        <time>2021-11-18T10:25:29.000Z</time>
      </trkpt>
      <trkpt lat="47.3134" lon="-2.43884">
        <ele>25.799999237061</ele>
        <time>2021-11-18T10:25:37.000Z</time>
      </trkpt>
      <trkpt lat="47.31319" lon="-2.43834">
        <ele>25.799999237061</ele>
        <time>2021-11-18T10:25:45.000Z</time>
      </trkpt>
      <trkpt lat="47.31315" lon="-2.4383">
        <ele>25.799999237061</ele>
        <time>2021-11-18T10:25:46.000Z</time>
      </trkpt>
      <trkpt lat="47.31291" lon="-2.43792">
        <ele>25.799999237061</ele>
        <time>2021-11-18T10:25:53.000Z</time>
      </trkpt>
      <trkpt lat="47.31272" lon="-2.43746">
        <ele>25.799999237061</ele>
        <time>2021-11-18T10:26:00.000Z</time>
      </trkpt>
      <trkpt lat="47.31267" lon="-2.43733">
        <ele>25.799999237061</ele>
        <time>2021-11-18T10:26:02.000Z</time>
      </trkpt>
      <trkpt lat="47.31257" lon="-2.43705">
        <ele>25.799999237061</ele>
        <time>2021-11-18T10:26:06.000Z</time>
      </trkpt>
      <trkpt lat="47.31246" lon="-2.43668">
        <ele>25.799999237061</ele>
        <time>2021-11-18T10:26:11.000Z</time>
      </trkpt>
      <trkpt lat="47.31242" lon="-2.43651">
        <ele>25.799999237061</ele>
        <time>2021-11-18T10:26:13.000Z</time>
      </trkpt>
      <trkpt lat="47.31233" lon="-2.43596">
        <ele>25.799999237061</ele>
        <time>2021-11-18T10:26:20.000Z</time>
      </trkpt>
      <trkpt lat="47.31225" lon="-2.43538">
        <ele>25.799999237061</ele>
        <time>2021-11-18T10:26:28.000Z</time>
      </trkpt>
      <trkpt lat="47.31215" lon="-2.43465">
        <ele>25.799999237061</ele>
        <time>2021-11-18T10:26:38.000Z</time>
      </trkpt>
      <trkpt lat="47.31203" lon="-2.4339">
        <ele>25.799999237061</ele>
        <time>2021-11-18T10:26:48.000Z</time>
      </trkpt>
      <trkpt lat="47.31192" lon="-2.43331">
        <ele>25.799999237061</ele>
        <time>2021-11-18T10:26:56.000Z</time>
      </trkpt>
      <trkpt lat="47.31173" lon="-2.43287">
        <ele>25.799999237061</ele>
        <time>2021-11-18T10:27:02.000Z</time>
      </trkpt>
      <trkpt lat="47.31147" lon="-2.43246">
        <ele>25.799999237061</ele>
        <time>2021-11-18T10:27:08.000Z</time>
      </trkpt>
      <trkpt lat="47.31114" lon="-2.43195">
        <ele>25.799999237061</ele>
        <time>2021-11-18T10:27:16.000Z</time>
      </trkpt>
      <trkpt lat="47.31103" lon="-2.43194">
        <ele>25.799999237061</ele>
        <time>2021-11-18T10:27:18.000Z</time>
      </trkpt>
      <trkpt lat="47.31087" lon="-2.43205">
        <ele>25.799999237061</ele>
        <time>2021-11-18T10:27:21.000Z</time>
      </trkpt>
      <trkpt lat="47.31082" lon="-2.4321">
        <ele>25.799999237061</ele>
        <time>2021-11-18T10:27:22.000Z</time>
      </trkpt>
      <trkpt lat="47.31045" lon="-2.43248">
        <ele>25.799999237061</ele>
        <time>2021-11-18T10:27:29.000Z</time>
      </trkpt>
      <trkpt lat="47.3101" lon="-2.43295">
        <ele>25.799999237061</ele>
        <time>2021-11-18T10:27:36.000Z</time>
      </trkpt>
      <trkpt lat="47.30992" lon="-2.43309">
        <ele>25.799999237061</ele>
        <time>2021-11-18T10:27:39.000Z</time>
      </trkpt>
      <trkpt lat="47.30979" lon="-2.43316">
        <ele>25.799999237061</ele>
        <time>2021-11-18T10:27:41.000Z</time>
      </trkpt>
      <trkpt lat="47.30941" lon="-2.43331">
        <ele>25.799999237061</ele>
        <time>2021-11-18T10:27:47.000Z</time>
      </trkpt>
      <trkpt lat="47.30904" lon="-2.43348">
        <ele>25.799999237061</ele>
        <time>2021-11-18T10:27:53.000Z</time>
      </trkpt>
      <trkpt lat="47.3088" lon="-2.43357">
        <ele>25.799999237061</ele>
        <time>2021-11-18T10:27:58.000Z</time>
      </trkpt>
      <trkpt lat="47.30876" lon="-2.43359">
        <ele>25.799999237061</ele>
        <time>2021-11-18T10:27:59.000Z</time>
      </trkpt>
      <trkpt lat="47.30855" lon="-2.4337">
        <ele>25.799999237061</ele>
        <time>2021-11-18T10:28:04.000Z</time>
      </trkpt>
      <trkpt lat="47.30836" lon="-2.43375">
        <ele>25.799999237061</ele>
        <time>2021-11-18T10:28:09.000Z</time>
      </trkpt>
      <trkpt lat="47.3082" lon="-2.43382">
        <ele>25.39999961853</ele>
        <time>2021-11-18T10:28:14.000Z</time>
      </trkpt>
      <trkpt lat="47.30817" lon="-2.43383">
        <ele>24.60000038147</ele>
        <time>2021-11-18T10:28:15.000Z</time>
      </trkpt>
      <trkpt lat="47.30813" lon="-2.43385">
        <ele>24.200000762939</ele>
        <time>2021-11-18T10:28:16.000Z</time>
      </trkpt>
      <trkpt lat="47.30809" lon="-2.43386">
        <ele>23.799999237061</ele>
        <time>2021-11-18T10:28:17.000Z</time>
      </trkpt>
      <trkpt lat="47.30796" lon="-2.43387">
        <ele>23.799999237061</ele>
        <time>2021-11-18T10:28:20.000Z</time>
      </trkpt>
      <trkpt lat="47.30791" lon="-2.43387">
        <ele>23.799999237061</ele>
        <time>2021-11-18T10:28:21.000Z</time>
      </trkpt>
      <trkpt lat="47.30763" lon="-2.43387">
        <ele>23.799999237061</ele>
        <time>2021-11-18T10:28:26.000Z</time>
      </trkpt>
      <trkpt lat="47.30716" lon="-2.43389">
        <ele>23.799999237061</ele>
        <time>2021-11-18T10:28:34.000Z</time>
      </trkpt>
      <trkpt lat="47.30678" lon="-2.43393">
        <ele>23.799999237061</ele>
        <time>2021-11-18T10:28:41.000Z</time>
      </trkpt>
      <trkpt lat="47.30656" lon="-2.43401">
        <ele>23.799999237061</ele>
        <time>2021-11-18T10:28:45.000Z</time>
      </trkpt>
      <trkpt lat="47.306" lon="-2.43415">
        <ele>23.799999237061</ele>
        <time>2021-11-18T10:28:54.000Z</time>
      </trkpt>
      <trkpt lat="47.30551" lon="-2.43423">
        <ele>23.799999237061</ele>
        <time>2021-11-18T10:29:02.000Z</time>
      </trkpt>
      <trkpt lat="47.30516" lon="-2.43417">
        <ele>23.799999237061</ele>
        <time>2021-11-18T10:29:08.000Z</time>
      </trkpt>
      <trkpt lat="47.30478" lon="-2.43414">
        <ele>23.799999237061</ele>
        <time>2021-11-18T10:29:14.000Z</time>
      </trkpt>
      <trkpt lat="47.30472" lon="-2.43414">
        <ele>23.799999237061</ele>
        <time>2021-11-18T10:29:15.000Z</time>
      </trkpt>
      <trkpt lat="47.30454" lon="-2.43419">
        <ele>23.799999237061</ele>
        <time>2021-11-18T10:29:18.000Z</time>
      </trkpt>
      <trkpt lat="47.30449" lon="-2.43421">
        <ele>23.799999237061</ele>
        <time>2021-11-18T10:29:19.000Z</time>
      </trkpt>
      <trkpt lat="47.30444" lon="-2.43423">
        <ele>23.799999237061</ele>
        <time>2021-11-18T10:29:20.000Z</time>
      </trkpt>
      <trkpt lat="47.30433" lon="-2.43418">
        <ele>23.799999237061</ele>
        <time>2021-11-18T10:29:22.000Z</time>
      </trkpt>
      <trkpt lat="47.30425" lon="-2.43396">
        <ele>23.799999237061</ele>
        <time>2021-11-18T10:29:25.000Z</time>
      </trkpt>
      <trkpt lat="47.30422" lon="-2.43379">
        <ele>23.799999237061</ele>
        <time>2021-11-18T10:29:27.000Z</time>
      </trkpt>
      <trkpt lat="47.30414" lon="-2.43337">
        <ele>23.799999237061</ele>
        <time>2021-11-18T10:29:32.000Z</time>
      </trkpt>
      <trkpt lat="47.30397" lon="-2.43266">
        <ele>23.799999237061</ele>
        <time>2021-11-18T10:29:41.000Z</time>
      </trkpt>
      <trkpt lat="47.30391" lon="-2.43251">
        <ele>23.799999237061</ele>
        <time>2021-11-18T10:29:43.000Z</time>
      </trkpt>
      <trkpt lat="47.30382" lon="-2.43242">
        <ele>23.799999237061</ele>
        <time>2021-11-18T10:29:45.000Z</time>
      </trkpt>
      <trkpt lat="47.30364" lon="-2.43239">
        <ele>23.799999237061</ele>
        <time>2021-11-18T10:29:48.000Z</time>
      </trkpt>
      <trkpt lat="47.30334" lon="-2.43246">
        <ele>23.799999237061</ele>
        <time>2021-11-18T10:29:53.000Z</time>
      </trkpt>
      <trkpt lat="47.30328" lon="-2.43247">
        <ele>23.799999237061</ele>
        <time>2021-11-18T10:29:54.000Z</time>
      </trkpt>
      <trkpt lat="47.30291" lon="-2.43257">
        <ele>23.799999237061</ele>
        <time>2021-11-18T10:30:00.000Z</time>
      </trkpt>
      <trkpt lat="47.30244" lon="-2.43272">
        <ele>23.799999237061</ele>
        <time>2021-11-18T10:30:08.000Z</time>
      </trkpt>
      <trkpt lat="47.30198" lon="-2.43292">
        <ele>23.799999237061</ele>
        <time>2021-11-18T10:30:16.000Z</time>
      </trkpt>
      <trkpt lat="47.3018" lon="-2.433">
        <ele>23.799999237061</ele>
        <time>2021-11-18T10:30:19.000Z</time>
      </trkpt>
      <trkpt lat="47.30162" lon="-2.43308">
        <ele>23.799999237061</ele>
        <time>2021-11-18T10:30:22.000Z</time>
      </trkpt>
      <trkpt lat="47.3013" lon="-2.43319">
        <ele>23.799999237061</ele>
        <time>2021-11-18T10:30:27.000Z</time>
      </trkpt>
      <trkpt lat="47.30124" lon="-2.4332">
        <ele>23.799999237061</ele>
        <time>2021-11-18T10:30:28.000Z</time>
      </trkpt>
      <trkpt lat="47.30073" lon="-2.43333">
        <ele>23.799999237061</ele>
        <time>2021-11-18T10:30:36.000Z</time>
      </trkpt>
      <trkpt lat="47.30028" lon="-2.43336">
        <ele>23.799999237061</ele>
        <time>2021-11-18T10:30:43.000Z</time>
      </trkpt>
      <trkpt lat="47.30004" lon="-2.43325">
        <ele>23.799999237061</ele>
        <time>2021-11-18T10:30:47.000Z</time>
      </trkpt>
      <trkpt lat="47.29999" lon="-2.4332">
        <ele>23.799999237061</ele>
        <time>2021-11-18T10:30:48.000Z</time>
      </trkpt>
      <trkpt lat="47.29984" lon="-2.43305">
        <ele>23.799999237061</ele>
        <time>2021-11-18T10:30:51.000Z</time>
      </trkpt>
      <trkpt lat="47.29979" lon="-2.43302">
        <ele>23.799999237061</ele>
        <time>2021-11-18T10:30:52.000Z</time>
      </trkpt>
      <trkpt lat="47.29957" lon="-2.43299">
        <ele>23.799999237061</ele>
        <time>2021-11-18T10:30:56.000Z</time>
      </trkpt>
      <trkpt lat="47.29946" lon="-2.43303">
        <ele>23.799999237061</ele>
        <time>2021-11-18T10:30:58.000Z</time>
      </trkpt>
      <trkpt lat="47.29925" lon="-2.43312">
        <ele>23.799999237061</ele>
        <time>2021-11-18T10:31:02.000Z</time>
      </trkpt>
      <trkpt lat="47.29897" lon="-2.43322">
        <ele>23.799999237061</ele>
        <time>2021-11-18T10:31:08.000Z</time>
      </trkpt>
      <trkpt lat="47.29883" lon="-2.43316">
        <ele>23.799999237061</ele>
        <time>2021-11-18T10:31:12.000Z</time>
      </trkpt>
      <trkpt lat="47.29877" lon="-2.43307">
        <ele>23.799999237061</ele>
        <time>2021-11-18T10:31:15.000Z</time>
      </trkpt>
      <trkpt lat="47.29874" lon="-2.43302">
        <ele>23.799999237061</ele>
        <time>2021-11-18T10:31:16.000Z</time>
      </trkpt>
      <trkpt lat="47.29854" lon="-2.43261">
        <ele>23.799999237061</ele>
        <time>2021-11-18T10:31:23.000Z</time>
      </trkpt>
      <trkpt lat="47.29845" lon="-2.43242">
        <ele>23.799999237061</ele>
        <time>2021-11-18T10:31:26.000Z</time>
      </trkpt>
      <trkpt lat="47.29835" lon="-2.43225">
        <ele>23.799999237061</ele>
        <time>2021-11-18T10:31:29.000Z</time>
      </trkpt>
      <trkpt lat="47.29814" lon="-2.43198">
        <ele>23.799999237061</ele>
        <time>2021-11-18T10:31:35.000Z</time>
      </trkpt>
      <trkpt lat="47.29806" lon="-2.43192">
        <ele>23.799999237061</ele>
        <time>2021-11-18T10:31:37.000Z</time>
      </trkpt>
      <trkpt lat="47.29794" lon="-2.4319">
        <ele>23.799999237061</ele>
        <time>2021-11-18T10:31:40.000Z</time>
      </trkpt>
      <trkpt lat="47.29781" lon="-2.43193">
        <ele>23.799999237061</ele>
        <time>2021-11-18T10:31:43.000Z</time>
      </trkpt>
      <trkpt lat="47.29771" lon="-2.43195">
        <ele>23.799999237061</ele>
        <time>2021-11-18T10:31:45.000Z</time>
      </trkpt>
      <trkpt lat="47.29766" lon="-2.43195">
        <ele>23.799999237061</ele>
        <time>2021-11-18T10:31:46.000Z</time>
      </trkpt>
      <trkpt lat="47.29734" lon="-2.43205">
        <ele>23.799999237061</ele>
        <time>2021-11-18T10:31:52.000Z</time>
      </trkpt>
      <trkpt lat="47.29684" lon="-2.43218">
        <ele>23.799999237061</ele>
        <time>2021-11-18T10:32:01.000Z</time>
      </trkpt>
      <trkpt lat="47.29644" lon="-2.43229">
        <ele>23.799999237061</ele>
        <time>2021-11-18T10:32:08.000Z</time>
      </trkpt>
      <trkpt lat="47.29597" lon="-2.43248">
        <ele>23.799999237061</ele>
        <time>2021-11-18T10:32:17.000Z</time>
      </trkpt>
      <trkpt lat="47.29584" lon="-2.43255">
        <ele>23.799999237061</ele>
        <time>2021-11-18T10:32:20.000Z</time>
      </trkpt>
      <trkpt lat="47.29576" lon="-2.43261">
        <ele>23.799999237061</ele>
        <time>2021-11-18T10:32:22.000Z</time>
      </trkpt>
      <trkpt lat="47.29572" lon="-2.43265">
        <ele>23.799999237061</ele>
        <time>2021-11-18T10:32:23.000Z</time>
      </trkpt>
      <trkpt lat="47.29565" lon="-2.43275">
        <ele>24.200000762939</ele>
        <time>2021-11-18T10:32:25.000Z</time>
      </trkpt>
      <trkpt lat="47.29562" lon="-2.4328">
        <ele>24.60000038147</ele>
        <time>2021-11-18T10:32:26.000Z</time>
      </trkpt>
      <trkpt lat="47.29558" lon="-2.43285">
        <ele>25</ele>
        <time>2021-11-18T10:32:27.000Z</time>
      </trkpt>
      <trkpt lat="47.29555" lon="-2.43291">
        <ele>25.39999961853</ele>
        <time>2021-11-18T10:32:28.000Z</time>
      </trkpt>
      <trkpt lat="47.29552" lon="-2.43297">
        <ele>25.799999237061</ele>
        <time>2021-11-18T10:32:29.000Z</time>
      </trkpt>
      <trkpt lat="47.2954" lon="-2.43316">
        <ele>25.799999237061</ele>
        <time>2021-11-18T10:32:33.000Z</time>
      </trkpt>
      <trkpt lat="47.29519" lon="-2.43354">
        <ele>25.799999237061</ele>
        <time>2021-11-18T10:32:41.000Z</time>
      </trkpt>
      <trkpt lat="47.29494" lon="-2.43399">
        <ele>25.799999237061</ele>
        <time>2021-11-18T10:32:50.000Z</time>
      </trkpt>
      <trkpt lat="47.29473" lon="-2.43437">
        <ele>25.799999237061</ele>
        <time>2021-11-18T10:32:57.000Z</time>
      </trkpt>
      <trkpt lat="47.29458" lon="-2.43463">
        <ele>25.799999237061</ele>
        <time>2021-11-18T10:33:02.000Z</time>
      </trkpt>
      <trkpt lat="47.29454" lon="-2.43466">
        <ele>25.799999237061</ele>
        <time>2021-11-18T10:33:03.000Z</time>
      </trkpt>
      <trkpt lat="47.29447" lon="-2.4346">
        <ele>25.799999237061</ele>
        <time>2021-11-18T10:33:05.000Z</time>
      </trkpt>
      <trkpt lat="47.29443" lon="-2.43449">
        <ele>25.799999237061</ele>
        <time>2021-11-18T10:33:07.000Z</time>
      </trkpt>
      <trkpt lat="47.29441" lon="-2.43444">
        <ele>25.799999237061</ele>
        <time>2021-11-18T10:33:08.000Z</time>
      </trkpt>
      <trkpt lat="47.29436" lon="-2.43418">
        <ele>25.799999237061</ele>
        <time>2021-11-18T10:33:12.000Z</time>
      </trkpt>
      <trkpt lat="47.29434" lon="-2.43404">
        <ele>25.799999237061</ele>
        <time>2021-11-18T10:33:14.000Z</time>
      </trkpt>
      <trkpt lat="47.29424" lon="-2.43391">
        <ele>25.799999237061</ele>
        <time>2021-11-18T10:33:17.000Z</time>
      </trkpt>
      <trkpt lat="47.29415" lon="-2.43388">
        <ele>25.799999237061</ele>
        <time>2021-11-18T10:33:19.000Z</time>
      </trkpt>
      <trkpt lat="47.29412" lon="-2.43385">
        <ele>25.799999237061</ele>
        <time>2021-11-18T10:33:20.000Z</time>
      </trkpt>
      <trkpt lat="47.29411" lon="-2.4338">
        <ele>25.799999237061</ele>
        <time>2021-11-18T10:33:21.000Z</time>
      </trkpt>
      <trkpt lat="47.29406" lon="-2.43352">
        <ele>25.799999237061</ele>
        <time>2021-11-18T10:33:26.000Z</time>
      </trkpt>
      <trkpt lat="47.29392" lon="-2.43333">
        <ele>25.799999237061</ele>
        <time>2021-11-18T10:33:30.000Z</time>
      </trkpt>
      <trkpt lat="47.29368" lon="-2.43302">
        <ele>25.799999237061</ele>
        <time>2021-11-18T10:33:36.000Z</time>
      </trkpt>
      <trkpt lat="47.29363" lon="-2.43282">
        <ele>25.799999237061</ele>
        <time>2021-11-18T10:33:39.000Z</time>
      </trkpt>
      <trkpt lat="47.29362" lon="-2.43275">
        <ele>25.799999237061</ele>
        <time>2021-11-18T10:33:40.000Z</time>
      </trkpt>
      <trkpt lat="47.29362" lon="-2.43243">
        <ele>25.799999237061</ele>
        <time>2021-11-18T10:33:45.000Z</time>
      </trkpt>
      <trkpt lat="47.29374" lon="-2.43216">
        <ele>25.799999237061</ele>
        <time>2021-11-18T10:33:49.000Z</time>
      </trkpt>
      <trkpt lat="47.29374" lon="-2.43191">
        <ele>25.799999237061</ele>
        <time>2021-11-18T10:33:52.000Z</time>
      </trkpt>
      <trkpt lat="47.29372" lon="-2.43176">
        <ele>25.799999237061</ele>
        <time>2021-11-18T10:33:54.000Z</time>
      </trkpt>
      <trkpt lat="47.29367" lon="-2.43154">
        <ele>25.799999237061</ele>
        <time>2021-11-18T10:33:57.000Z</time>
      </trkpt>
      <trkpt lat="47.29359" lon="-2.43133">
        <ele>25.799999237061</ele>
        <time>2021-11-18T10:34:00.000Z</time>
      </trkpt>
      <trkpt lat="47.29353" lon="-2.4312">
        <ele>25.799999237061</ele>
        <time>2021-11-18T10:34:02.000Z</time>
      </trkpt>
      <trkpt lat="47.29346" lon="-2.43106">
        <ele>25.799999237061</ele>
        <time>2021-11-18T10:34:04.000Z</time>
      </trkpt>
      <trkpt lat="47.29339" lon="-2.43092">
        <ele>25.799999237061</ele>
        <time>2021-11-18T10:34:06.000Z</time>
      </trkpt>
      <trkpt lat="47.29318" lon="-2.43078">
        <ele>25.799999237061</ele>
        <time>2021-11-18T10:34:10.000Z</time>
      </trkpt>
      <trkpt lat="47.29308" lon="-2.43069">
        <ele>25.799999237061</ele>
        <time>2021-11-18T10:34:12.000Z</time>
      </trkpt>
      <trkpt lat="47.29306" lon="-2.43062">
        <ele>25.799999237061</ele>
        <time>2021-11-18T10:34:13.000Z</time>
      </trkpt>
      <trkpt lat="47.29304" lon="-2.43037">
        <ele>25.799999237061</ele>
        <time>2021-11-18T10:34:16.000Z</time>
      </trkpt>
      <trkpt lat="47.29307" lon="-2.4302">
        <ele>25.799999237061</ele>
        <time>2021-11-18T10:34:18.000Z</time>
      </trkpt>
      <trkpt lat="47.29311" lon="-2.42993">
        <ele>25.799999237061</ele>
        <time>2021-11-18T10:34:21.000Z</time>
      </trkpt>
      <trkpt lat="47.29313" lon="-2.42957">
        <ele>25.799999237061</ele>
        <time>2021-11-18T10:34:25.000Z</time>
      </trkpt>
      <trkpt lat="47.29312" lon="-2.42948">
        <ele>25.799999237061</ele>
        <time>2021-11-18T10:34:26.000Z</time>
      </trkpt>
      <trkpt lat="47.29315" lon="-2.42921">
        <ele>25.799999237061</ele>
        <time>2021-11-18T10:34:29.000Z</time>
      </trkpt>
      <trkpt lat="47.29317" lon="-2.42912">
        <ele>25.799999237061</ele>
        <time>2021-11-18T10:34:30.000Z</time>
      </trkpt>
      <trkpt lat="47.29327" lon="-2.42871">
        <ele>25.799999237061</ele>
        <time>2021-11-18T10:34:35.000Z</time>
      </trkpt>
      <trkpt lat="47.2933" lon="-2.42863">
        <ele>25.799999237061</ele>
        <time>2021-11-18T10:34:36.000Z</time>
      </trkpt>
      <trkpt lat="47.2935" lon="-2.42826">
        <ele>25.799999237061</ele>
        <time>2021-11-18T10:34:41.000Z</time>
      </trkpt>
      <trkpt lat="47.29355" lon="-2.4282">
        <ele>25.799999237061</ele>
        <time>2021-11-18T10:34:42.000Z</time>
      </trkpt>
      <trkpt lat="47.29365" lon="-2.42809">
        <ele>25.799999237061</ele>
        <time>2021-11-18T10:34:45.000Z</time>
      </trkpt>
      <trkpt lat="47.29369" lon="-2.42803">
        <ele>25.799999237061</ele>
        <time>2021-11-18T10:34:46.000Z</time>
      </trkpt>
      <trkpt lat="47.29373" lon="-2.42796">
        <ele>25.799999237061</ele>
        <time>2021-11-18T10:34:47.000Z</time>
      </trkpt>
      <trkpt lat="47.29383" lon="-2.42772">
        <ele>25.799999237061</ele>
        <time>2021-11-18T10:34:50.000Z</time>
      </trkpt>
      <trkpt lat="47.29387" lon="-2.42754">
        <ele>25.799999237061</ele>
        <time>2021-11-18T10:34:52.000Z</time>
      </trkpt>
      <trkpt lat="47.29404" lon="-2.42705">
        <ele>25.799999237061</ele>
        <time>2021-11-18T10:34:58.000Z</time>
      </trkpt>
      <trkpt lat="47.29418" lon="-2.42673">
        <ele>25.799999237061</ele>
        <time>2021-11-18T10:35:02.000Z</time>
      </trkpt>
      <trkpt lat="47.29419" lon="-2.42664">
        <ele>25.799999237061</ele>
        <time>2021-11-18T10:35:03.000Z</time>
      </trkpt>
      <trkpt lat="47.29423" lon="-2.42617">
        <ele>25.799999237061</ele>
        <time>2021-11-18T10:35:08.000Z</time>
      </trkpt>
      <trkpt lat="47.29424" lon="-2.42591">
        <ele>25.799999237061</ele>
        <time>2021-11-18T10:35:11.000Z</time>
      </trkpt>
      <trkpt lat="47.29427" lon="-2.42584">
        <ele>25.799999237061</ele>
        <time>2021-11-18T10:35:12.000Z</time>
      </trkpt>
      <trkpt lat="47.29438" lon="-2.42567">
        <ele>25.799999237061</ele>
        <time>2021-11-18T10:35:15.000Z</time>
      </trkpt>
      <trkpt lat="47.29447" lon="-2.42556">
        <ele>25.799999237061</ele>
        <time>2021-11-18T10:35:17.000Z</time>
      </trkpt>
      <trkpt lat="47.29455" lon="-2.42547">
        <ele>25.799999237061</ele>
        <time>2021-11-18T10:35:19.000Z</time>
      </trkpt>
      <trkpt lat="47.29459" lon="-2.42544">
        <ele>25.799999237061</ele>
        <time>2021-11-18T10:35:20.000Z</time>
      </trkpt>
      <trkpt lat="47.29469" lon="-2.42535">
        <ele>25.799999237061</ele>
        <time>2021-11-18T10:35:22.000Z</time>
      </trkpt>
      <trkpt lat="47.29481" lon="-2.4252">
        <ele>25.799999237061</ele>
        <time>2021-11-18T10:35:25.000Z</time>
      </trkpt>
      <trkpt lat="47.29504" lon="-2.42498">
        <ele>25.799999237061</ele>
        <time>2021-11-18T10:35:30.000Z</time>
      </trkpt>
      <trkpt lat="47.29508" lon="-2.42492">
        <ele>25.799999237061</ele>
        <time>2021-11-18T10:35:31.000Z</time>
      </trkpt>
      <trkpt lat="47.29518" lon="-2.42482">
        <ele>25.799999237061</ele>
        <time>2021-11-18T10:35:33.000Z</time>
      </trkpt>
      <trkpt lat="47.29534" lon="-2.4247">
        <ele>25.799999237061</ele>
        <time>2021-11-18T10:35:36.000Z</time>
      </trkpt>
      <trkpt lat="47.29543" lon="-2.42459">
        <ele>25.799999237061</ele>
        <time>2021-11-18T10:35:38.000Z</time>
      </trkpt>
      <trkpt lat="47.2955" lon="-2.42445">
        <ele>25.799999237061</ele>
        <time>2021-11-18T10:35:40.000Z</time>
      </trkpt>
      <trkpt lat="47.29558" lon="-2.42434">
        <ele>25.799999237061</ele>
        <time>2021-11-18T10:35:42.000Z</time>
      </trkpt>
      <trkpt lat="47.29567" lon="-2.42425">
        <ele>25.799999237061</ele>
        <time>2021-11-18T10:35:44.000Z</time>
      </trkpt>
      <trkpt lat="47.29584" lon="-2.42424">
        <ele>25.799999237061</ele>
        <time>2021-11-18T10:35:47.000Z</time>
      </trkpt>
      <trkpt lat="47.296" lon="-2.42429">
        <ele>25.39999961853</ele>
        <time>2021-11-18T10:35:48.000Z</time>
      </trkpt>
      <trkpt lat="47.296" lon="-2.42429">
        <ele>25.39999961853</ele>
        <time>2021-11-18T10:35:50.000Z</time>
      </trkpt>
      <trkpt lat="47.29606" lon="-2.42431">
        <ele>25</ele>
        <time>2021-11-18T10:35:51.000Z</time>
      </trkpt>
      <trkpt lat="47.29611" lon="-2.42434">
        <ele>24.60000038147</ele>
        <time>2021-11-18T10:35:52.000Z</time>
      </trkpt>
      <trkpt lat="47.29616" lon="-2.42435">
        <ele>24.200000762939</ele>
        <time>2021-11-18T10:35:53.000Z</time>
      </trkpt>
      <trkpt lat="47.29621" lon="-2.42436">
        <ele>23.799999237061</ele>
        <time>2021-11-18T10:35:54.000Z</time>
      </trkpt>
      <trkpt lat="47.2963" lon="-2.42422">
        <ele>23.799999237061</ele>
        <time>2021-11-18T10:35:57.000Z</time>
      </trkpt>
      <trkpt lat="47.29633" lon="-2.42407">
        <ele>23.799999237061</ele>
        <time>2021-11-18T10:35:59.000Z</time>
      </trkpt>
      <trkpt lat="47.29637" lon="-2.42383">
        <ele>23.799999237061</ele>
        <time>2021-11-18T10:36:02.000Z</time>
      </trkpt>
      <trkpt lat="47.2965" lon="-2.42328">
        <ele>23.799999237061</ele>
        <time>2021-11-18T10:36:09.000Z</time>
      </trkpt>
      <trkpt lat="47.29661" lon="-2.42272">
        <ele>23.799999237061</ele>
        <time>2021-11-18T10:36:16.000Z</time>
      </trkpt>
      <trkpt lat="47.29675" lon="-2.42227">
        <ele>23.799999237061</ele>
        <time>2021-11-18T10:36:22.000Z</time>
      </trkpt>
      <trkpt lat="47.29678" lon="-2.4222">
        <ele>23.799999237061</ele>
        <time>2021-11-18T10:36:23.000Z</time>
      </trkpt>
      <trkpt lat="47.29704" lon="-2.42172">
        <ele>23.799999237061</ele>
        <time>2021-11-18T10:36:30.000Z</time>
      </trkpt>
      <trkpt lat="47.29736" lon="-2.42113">
        <ele>23.799999237061</ele>
        <time>2021-11-18T10:36:39.000Z</time>
      </trkpt>
      <trkpt lat="47.29768" lon="-2.42055">
        <ele>23.799999237061</ele>
        <time>2021-11-18T10:36:48.000Z</time>
      </trkpt>
      <trkpt lat="47.29786" lon="-2.42019">
        <ele>23.799999237061</ele>
        <time>2021-11-18T10:36:53.000Z</time>
      </trkpt>
      <trkpt lat="47.29788" lon="-2.4201">
        <ele>23.799999237061</ele>
        <time>2021-11-18T10:36:54.000Z</time>
      </trkpt>
      <trkpt lat="47.29787" lon="-2.41981">
        <ele>23.799999237061</ele>
        <time>2021-11-18T10:36:57.000Z</time>
      </trkpt>
      <trkpt lat="47.29783" lon="-2.41964">
        <ele>23.799999237061</ele>
        <time>2021-11-18T10:36:59.000Z</time>
      </trkpt>
      <trkpt lat="47.29775" lon="-2.41928">
        <ele>23.799999237061</ele>
        <time>2021-11-18T10:37:03.000Z</time>
      </trkpt>
      <trkpt lat="47.29767" lon="-2.41874">
        <ele>23.799999237061</ele>
        <time>2021-11-18T10:37:09.000Z</time>
      </trkpt>
      <trkpt lat="47.29767" lon="-2.41865">
        <ele>23.799999237061</ele>
        <time>2021-11-18T10:37:10.000Z</time>
      </trkpt>
      <trkpt lat="47.29771" lon="-2.4181">
        <ele>23.799999237061</ele>
        <time>2021-11-18T10:37:16.000Z</time>
      </trkpt>
      <trkpt lat="47.2977" lon="-2.41761">
        <ele>23.799999237061</ele>
        <time>2021-11-18T10:37:22.000Z</time>
      </trkpt>
      <trkpt lat="47.29768" lon="-2.41754">
        <ele>23.799999237061</ele>
        <time>2021-11-18T10:37:23.000Z</time>
      </trkpt>
      <trkpt lat="47.2976" lon="-2.41745">
        <ele>23.799999237061</ele>
        <time>2021-11-18T10:37:25.000Z</time>
      </trkpt>
      <trkpt lat="47.29746" lon="-2.41749">
        <ele>23.799999237061</ele>
        <time>2021-11-18T10:37:28.000Z</time>
      </trkpt>
      <trkpt lat="47.29742" lon="-2.41752">
        <ele>23.799999237061</ele>
        <time>2021-11-18T10:37:29.000Z</time>
      </trkpt>
      <trkpt lat="47.29726" lon="-2.4177">
        <ele>23.799999237061</ele>
        <time>2021-11-18T10:37:34.000Z</time>
      </trkpt>
      <trkpt lat="47.29711" lon="-2.41795">
        <ele>23.799999237061</ele>
        <time>2021-11-18T10:37:40.000Z</time>
      </trkpt>
      <trkpt lat="47.29706" lon="-2.41804">
        <ele>23.799999237061</ele>
        <time>2021-11-18T10:37:42.000Z</time>
      </trkpt>
      <trkpt lat="47.29694" lon="-2.41817">
        <ele>23.799999237061</ele>
        <time>2021-11-18T10:37:45.000Z</time>
      </trkpt>
      <trkpt lat="47.2968" lon="-2.4182">
        <ele>23.799999237061</ele>
        <time>2021-11-18T10:37:48.000Z</time>
      </trkpt>
      <trkpt lat="47.29675" lon="-2.41821">
        <ele>23.799999237061</ele>
        <time>2021-11-18T10:37:49.000Z</time>
      </trkpt>
      <trkpt lat="47.29666" lon="-2.41823">
        <ele>23.799999237061</ele>
        <time>2021-11-18T10:37:51.000Z</time>
      </trkpt>
      <trkpt lat="47.29651" lon="-2.41827">
        <ele>23.799999237061</ele>
        <time>2021-11-18T10:37:54.000Z</time>
      </trkpt>
      <trkpt lat="47.2964" lon="-2.41813">
        <ele>23.799999237061</ele>
        <time>2021-11-18T10:37:57.000Z</time>
      </trkpt>
      <trkpt lat="47.29637" lon="-2.41791">
        <ele>23.799999237061</ele>
        <time>2021-11-18T10:38:00.000Z</time>
      </trkpt>
      <trkpt lat="47.29635" lon="-2.41776">
        <ele>23.799999237061</ele>
        <time>2021-11-18T10:38:02.000Z</time>
      </trkpt>
      <trkpt lat="47.29628" lon="-2.41763">
        <ele>23.799999237061</ele>
        <time>2021-11-18T10:38:04.000Z</time>
      </trkpt>
      <trkpt lat="47.29619" lon="-2.41751">
        <ele>23.799999237061</ele>
        <time>2021-11-18T10:38:06.000Z</time>
      </trkpt>
      <trkpt lat="47.29601" lon="-2.4173">
        <ele>23.799999237061</ele>
        <time>2021-11-18T10:38:10.000Z</time>
      </trkpt>
      <trkpt lat="47.29575" lon="-2.41711">
        <ele>23.799999237061</ele>
        <time>2021-11-18T10:38:15.000Z</time>
      </trkpt>
      <trkpt lat="47.2957" lon="-2.41709">
        <ele>23.799999237061</ele>
        <time>2021-11-18T10:38:16.000Z</time>
      </trkpt>
      <trkpt lat="47.29559" lon="-2.41704">
        <ele>23.799999237061</ele>
        <time>2021-11-18T10:38:18.000Z</time>
      </trkpt>
      <trkpt lat="47.29551" lon="-2.41693">
        <ele>23.799999237061</ele>
        <time>2021-11-18T10:38:20.000Z</time>
      </trkpt>
      <trkpt lat="47.29544" lon="-2.41681">
        <ele>23.799999237061</ele>
        <time>2021-11-18T10:38:22.000Z</time>
      </trkpt>
      <trkpt lat="47.29539" lon="-2.41667">
        <ele>24.200000762939</ele>
        <time>2021-11-18T10:38:24.000Z</time>
      </trkpt>
      <trkpt lat="47.29536" lon="-2.41659">
        <ele>24.60000038147</ele>
        <time>2021-11-18T10:38:25.000Z</time>
      </trkpt>
      <trkpt lat="47.29534" lon="-2.41652">
        <ele>25</ele>
        <time>2021-11-18T10:38:26.000Z</time>
      </trkpt>
      <trkpt lat="47.29532" lon="-2.41644">
        <ele>25.60000038147</ele>
        <time>2021-11-18T10:38:27.000Z</time>
      </trkpt>
      <trkpt lat="47.29531" lon="-2.41636">
        <ele>26</ele>
        <time>2021-11-18T10:38:28.000Z</time>
      </trkpt>
      <trkpt lat="47.29528" lon="-2.41619">
        <ele>26</ele>
        <time>2021-11-18T10:38:30.000Z</time>
      </trkpt>
      <trkpt lat="47.29527" lon="-2.4161">
        <ele>26</ele>
        <time>2021-11-18T10:38:31.000Z</time>
      </trkpt>
      <trkpt lat="47.29531" lon="-2.41575">
        <ele>26</ele>
        <time>2021-11-18T10:38:35.000Z</time>
      </trkpt>
      <trkpt lat="47.29537" lon="-2.41558">
        <ele>26</ele>
        <time>2021-11-18T10:38:37.000Z</time>
      </trkpt>
      <trkpt lat="47.29543" lon="-2.41533">
        <ele>26</ele>
        <time>2021-11-18T10:38:40.000Z</time>
      </trkpt>
      <trkpt lat="47.29537" lon="-2.4151">
        <ele>26</ele>
        <time>2021-11-18T10:38:43.000Z</time>
      </trkpt>
      <trkpt lat="47.29518" lon="-2.41477">
        <ele>26</ele>
        <time>2021-11-18T10:38:48.000Z</time>
      </trkpt>
      <trkpt lat="47.295" lon="-2.41475">
        <ele>26</ele>
        <time>2021-11-18T10:38:51.000Z</time>
      </trkpt>
      <trkpt lat="47.2949" lon="-2.41483">
        <ele>26</ele>
        <time>2021-11-18T10:38:53.000Z</time>
      </trkpt>
      <trkpt lat="47.29484" lon="-2.41485">
        <ele>26</ele>
        <time>2021-11-18T10:38:54.000Z</time>
      </trkpt>
      <trkpt lat="47.29467" lon="-2.41481">
        <ele>26</ele>
        <time>2021-11-18T10:38:57.000Z</time>
      </trkpt>
      <trkpt lat="47.29461" lon="-2.41482">
        <ele>26</ele>
        <time>2021-11-18T10:38:58.000Z</time>
      </trkpt>
      <trkpt lat="47.29444" lon="-2.41487">
        <ele>26</ele>
        <time>2021-11-18T10:39:01.000Z</time>
      </trkpt>
      <trkpt lat="47.29439" lon="-2.41487">
        <ele>26</ele>
        <time>2021-11-18T10:39:02.000Z</time>
      </trkpt>
      <trkpt lat="47.29428" lon="-2.4148">
        <ele>26</ele>
        <time>2021-11-18T10:39:04.000Z</time>
      </trkpt>
      <trkpt lat="47.2941" lon="-2.4146">
        <ele>26</ele>
        <time>2021-11-18T10:39:08.000Z</time>
      </trkpt>
      <trkpt lat="47.29406" lon="-2.41454">
        <ele>26</ele>
        <time>2021-11-18T10:39:09.000Z</time>
      </trkpt>
      <trkpt lat="47.29396" lon="-2.41435">
        <ele>26</ele>
        <time>2021-11-18T10:39:12.000Z</time>
      </trkpt>
      <trkpt lat="47.2939" lon="-2.4142">
        <ele>26</ele>
        <time>2021-11-18T10:39:14.000Z</time>
      </trkpt>
      <trkpt lat="47.29377" lon="-2.4139">
        <ele>26</ele>
        <time>2021-11-18T10:39:18.000Z</time>
      </trkpt>
      <trkpt lat="47.29369" lon="-2.41377">
        <ele>26</ele>
        <time>2021-11-18T10:39:20.000Z</time>
      </trkpt>
      <trkpt lat="47.29365" lon="-2.41372">
        <ele>26</ele>
        <time>2021-11-18T10:39:21.000Z</time>
      </trkpt>
      <trkpt lat="47.29352" lon="-2.41355">
        <ele>26</ele>
        <time>2021-11-18T10:39:24.000Z</time>
      </trkpt>
      <trkpt lat="47.29348" lon="-2.4134">
        <ele>26</ele>
        <time>2021-11-18T10:39:26.000Z</time>
      </trkpt>
      <trkpt lat="47.29353" lon="-2.41317">
        <ele>26</ele>
        <time>2021-11-18T10:39:29.000Z</time>
      </trkpt>
      <trkpt lat="47.29357" lon="-2.4131">
        <ele>26</ele>
        <time>2021-11-18T10:39:30.000Z</time>
      </trkpt>
      <trkpt lat="47.29361" lon="-2.41296">
        <ele>26</ele>
        <time>2021-11-18T10:39:32.000Z</time>
      </trkpt>
      <trkpt lat="47.29361" lon="-2.41288">
        <ele>26</ele>
        <time>2021-11-18T10:39:33.000Z</time>
      </trkpt>
      <trkpt lat="47.29357" lon="-2.41255">
        <ele>26</ele>
        <time>2021-11-18T10:39:37.000Z</time>
      </trkpt>
      <trkpt lat="47.29355" lon="-2.41247">
        <ele>26</ele>
        <time>2021-11-18T10:39:38.000Z</time>
      </trkpt>
      <trkpt lat="47.29347" lon="-2.41234">
        <ele>26</ele>
        <time>2021-11-18T10:39:40.000Z</time>
      </trkpt>
      <trkpt lat="47.29333" lon="-2.41219">
        <ele>26</ele>
        <time>2021-11-18T10:39:43.000Z</time>
      </trkpt>
      <trkpt lat="47.29328" lon="-2.41214">
        <ele>26</ele>
        <time>2021-11-18T10:39:44.000Z</time>
      </trkpt>
      <trkpt lat="47.2932" lon="-2.41205">
        <ele>26</ele>
        <time>2021-11-18T10:39:46.000Z</time>
      </trkpt>
      <trkpt lat="47.29308" lon="-2.41191">
        <ele>26</ele>
        <time>2021-11-18T10:39:49.000Z</time>
      </trkpt>
      <trkpt lat="47.29304" lon="-2.41186">
        <ele>26</ele>
        <time>2021-11-18T10:39:50.000Z</time>
      </trkpt>
      <trkpt lat="47.29294" lon="-2.41165">
        <ele>26</ele>
        <time>2021-11-18T10:39:54.000Z</time>
      </trkpt>
      <trkpt lat="47.29292" lon="-2.41158">
        <ele>26</ele>
        <time>2021-11-18T10:39:55.000Z</time>
      </trkpt>
      <trkpt lat="47.2929" lon="-2.41152">
        <ele>26</ele>
        <time>2021-11-18T10:39:56.000Z</time>
      </trkpt>
      <trkpt lat="47.2928" lon="-2.41135">
        <ele>26</ele>
        <time>2021-11-18T10:39:59.000Z</time>
      </trkpt>
      <trkpt lat="47.29277" lon="-2.4113">
        <ele>26</ele>
        <time>2021-11-18T10:40:00.000Z</time>
      </trkpt>
      <trkpt lat="47.29273" lon="-2.41126">
        <ele>26</ele>
        <time>2021-11-18T10:40:01.000Z</time>
      </trkpt>
      <trkpt lat="47.29258" lon="-2.41109">
        <ele>26</ele>
        <time>2021-11-18T10:40:05.000Z</time>
      </trkpt>
      <trkpt lat="47.29245" lon="-2.41087">
        <ele>26</ele>
        <time>2021-11-18T10:40:09.000Z</time>
      </trkpt>
      <trkpt lat="47.29245" lon="-2.41079">
        <ele>26</ele>
        <time>2021-11-18T10:40:10.000Z</time>
      </trkpt>
      <trkpt lat="47.29254" lon="-2.41059">
        <ele>26</ele>
        <time>2021-11-18T10:40:13.000Z</time>
      </trkpt>
      <trkpt lat="47.29251" lon="-2.41035">
        <ele>26</ele>
        <time>2021-11-18T10:40:16.000Z</time>
      </trkpt>
      <trkpt lat="47.29242" lon="-2.41025">
        <ele>26</ele>
        <time>2021-11-18T10:40:18.000Z</time>
      </trkpt>
      <trkpt lat="47.29234" lon="-2.41014">
        <ele>26</ele>
        <time>2021-11-18T10:40:20.000Z</time>
      </trkpt>
      <trkpt lat="47.29219" lon="-2.4098">
        <ele>26</ele>
        <time>2021-11-18T10:40:25.000Z</time>
      </trkpt>
      <trkpt lat="47.29213" lon="-2.40965">
        <ele>26</ele>
        <time>2021-11-18T10:40:27.000Z</time>
      </trkpt>
      <trkpt lat="47.292" lon="-2.4095">
        <ele>26</ele>
        <time>2021-11-18T10:40:30.000Z</time>
      </trkpt>
      <trkpt lat="47.29183" lon="-2.40944">
        <ele>26</ele>
        <time>2021-11-18T10:40:33.000Z</time>
      </trkpt>
      <trkpt lat="47.29176" lon="-2.40943">
        <ele>26</ele>
        <time>2021-11-18T10:40:34.000Z</time>
      </trkpt>
      <trkpt lat="47.2917" lon="-2.4094">
        <ele>26</ele>
        <time>2021-11-18T10:40:35.000Z</time>
      </trkpt>
      <trkpt lat="47.29161" lon="-2.40919">
        <ele>26</ele>
        <time>2021-11-18T10:40:38.000Z</time>
      </trkpt>
      <trkpt lat="47.29165" lon="-2.40894">
        <ele>26</ele>
        <time>2021-11-18T10:40:41.000Z</time>
      </trkpt>
      <trkpt lat="47.29167" lon="-2.40885">
        <ele>26</ele>
        <time>2021-11-18T10:40:42.000Z</time>
      </trkpt>
      <trkpt lat="47.29173" lon="-2.4086">
        <ele>26</ele>
        <time>2021-11-18T10:40:45.000Z</time>
      </trkpt>
      <trkpt lat="47.29174" lon="-2.40851">
        <ele>26</ele>
        <time>2021-11-18T10:40:46.000Z</time>
      </trkpt>
      <trkpt lat="47.29172" lon="-2.40826">
        <ele>26</ele>
        <time>2021-11-18T10:40:49.000Z</time>
      </trkpt>
      <trkpt lat="47.29172" lon="-2.40818">
        <ele>26</ele>
        <time>2021-11-18T10:40:50.000Z</time>
      </trkpt>
      <trkpt lat="47.29173" lon="-2.40809">
        <ele>26</ele>
        <time>2021-11-18T10:40:51.000Z</time>
      </trkpt>
      <trkpt lat="47.29178" lon="-2.40794">
        <ele>26</ele>
        <time>2021-11-18T10:40:53.000Z</time>
      </trkpt>
      <trkpt lat="47.29184" lon="-2.4078">
        <ele>26</ele>
        <time>2021-11-18T10:40:55.000Z</time>
      </trkpt>
      <trkpt lat="47.29195" lon="-2.4075">
        <ele>26</ele>
        <time>2021-11-18T10:40:59.000Z</time>
      </trkpt>
      <trkpt lat="47.29198" lon="-2.40744">
        <ele>26</ele>
        <time>2021-11-18T10:41:00.000Z</time>
      </trkpt>
      <trkpt lat="47.2921" lon="-2.40728">
        <ele>26</ele>
        <time>2021-11-18T10:41:03.000Z</time>
      </trkpt>
      <trkpt lat="47.29221" lon="-2.40712">
        <ele>26</ele>
        <time>2021-11-18T10:41:06.000Z</time>
      </trkpt>
      <trkpt lat="47.2923" lon="-2.40694">
        <ele>26</ele>
        <time>2021-11-18T10:41:09.000Z</time>
      </trkpt>
      <trkpt lat="47.29232" lon="-2.40687">
        <ele>26</ele>
        <time>2021-11-18T10:41:10.000Z</time>
      </trkpt>
      <trkpt lat="47.29234" lon="-2.40661">
        <ele>26</ele>
        <time>2021-11-18T10:41:13.000Z</time>
      </trkpt>
      <trkpt lat="47.29222" lon="-2.4063">
        <ele>26</ele>
        <time>2021-11-18T10:41:17.000Z</time>
      </trkpt>
      <trkpt lat="47.29197" lon="-2.40607">
        <ele>26</ele>
        <time>2021-11-18T10:41:22.000Z</time>
      </trkpt>
      <trkpt lat="47.29182" lon="-2.40619">
        <ele>26</ele>
        <time>2021-11-18T10:41:25.000Z</time>
      </trkpt>
      <trkpt lat="47.29152" lon="-2.40643">
        <ele>26</ele>
        <time>2021-11-18T10:41:31.000Z</time>
      </trkpt>
      <trkpt lat="47.29141" lon="-2.40633">
        <ele>26</ele>
        <time>2021-11-18T10:41:34.000Z</time>
      </trkpt>
      <trkpt lat="47.2914" lon="-2.40611">
        <ele>26</ele>
        <time>2021-11-18T10:41:37.000Z</time>
      </trkpt>
      <trkpt lat="47.29139" lon="-2.40603">
        <ele>26</ele>
        <time>2021-11-18T10:41:38.000Z</time>
      </trkpt>
      <trkpt lat="47.29136" lon="-2.40596">
        <ele>26</ele>
        <time>2021-11-18T10:41:39.000Z</time>
      </trkpt>
      <trkpt lat="47.29126" lon="-2.40577">
        <ele>26</ele>
        <time>2021-11-18T10:41:42.000Z</time>
      </trkpt>
      <trkpt lat="47.29123" lon="-2.40571">
        <ele>26</ele>
        <time>2021-11-18T10:41:43.000Z</time>
      </trkpt>
      <trkpt lat="47.29119" lon="-2.40566">
        <ele>26</ele>
        <time>2021-11-18T10:41:44.000Z</time>
      </trkpt>
      <trkpt lat="47.29102" lon="-2.40547">
        <ele>26</ele>
        <time>2021-11-18T10:41:48.000Z</time>
      </trkpt>
      <trkpt lat="47.291" lon="-2.40526">
        <ele>26</ele>
        <time>2021-11-18T10:41:51.000Z</time>
      </trkpt>
      <trkpt lat="47.29109" lon="-2.40506">
        <ele>26</ele>
        <time>2021-11-18T10:41:54.000Z</time>
      </trkpt>
      <trkpt lat="47.29123" lon="-2.40495">
        <ele>26</ele>
        <time>2021-11-18T10:41:57.000Z</time>
      </trkpt>
      <trkpt lat="47.29127" lon="-2.40492">
        <ele>26</ele>
        <time>2021-11-18T10:41:58.000Z</time>
      </trkpt>
      <trkpt lat="47.29133" lon="-2.4049">
        <ele>26</ele>
        <time>2021-11-18T10:41:59.000Z</time>
      </trkpt>
      <trkpt lat="47.29143" lon="-2.40486">
        <ele>26</ele>
        <time>2021-11-18T10:42:01.000Z</time>
      </trkpt>
      <trkpt lat="47.29153" lon="-2.40485">
        <ele>26</ele>
        <time>2021-11-18T10:42:03.000Z</time>
      </trkpt>
      <trkpt lat="47.29166" lon="-2.40498">
        <ele>26</ele>
        <time>2021-11-18T10:42:06.000Z</time>
      </trkpt>
      <trkpt lat="47.29171" lon="-2.40511">
        <ele>26</ele>
        <time>2021-11-18T10:42:08.000Z</time>
      </trkpt>
      <trkpt lat="47.29175" lon="-2.40517">
        <ele>26</ele>
        <time>2021-11-18T10:42:09.000Z</time>
      </trkpt>
      <trkpt lat="47.2918" lon="-2.40518">
        <ele>26</ele>
        <time>2021-11-18T10:42:10.000Z</time>
      </trkpt>
      <trkpt lat="47.29195" lon="-2.40512">
        <ele>26</ele>
        <time>2021-11-18T10:42:13.000Z</time>
      </trkpt>
      <trkpt lat="47.29216" lon="-2.40502">
        <ele>26</ele>
        <time>2021-11-18T10:42:17.000Z</time>
      </trkpt>
      <trkpt lat="47.29226" lon="-2.40494">
        <ele>26</ele>
        <time>2021-11-18T10:42:19.000Z</time>
      </trkpt>
      <trkpt lat="47.29263" lon="-2.40474">
        <ele>26</ele>
        <time>2021-11-18T10:42:26.000Z</time>
      </trkpt>
      <trkpt lat="47.29285" lon="-2.40465">
        <ele>26</ele>
        <time>2021-11-18T10:42:30.000Z</time>
      </trkpt>
      <trkpt lat="47.29289" lon="-2.4046">
        <ele>26</ele>
        <time>2021-11-18T10:42:31.000Z</time>
      </trkpt>
      <trkpt lat="47.293" lon="-2.40433">
        <ele>26</ele>
        <time>2021-11-18T10:42:35.000Z</time>
      </trkpt>
      <trkpt lat="47.29305" lon="-2.40418">
        <ele>26</ele>
        <time>2021-11-18T10:42:37.000Z</time>
      </trkpt>
      <trkpt lat="47.29308" lon="-2.40411">
        <ele>26</ele>
        <time>2021-11-18T10:42:38.000Z</time>
      </trkpt>
      <trkpt lat="47.29305" lon="-2.40394">
        <ele>26</ele>
        <time>2021-11-18T10:42:40.000Z</time>
      </trkpt>
      <trkpt lat="47.29294" lon="-2.40375">
        <ele>26</ele>
        <time>2021-11-18T10:42:43.000Z</time>
      </trkpt>
      <trkpt lat="47.2929" lon="-2.40362">
        <ele>26</ele>
        <time>2021-11-18T10:42:45.000Z</time>
      </trkpt>
      <trkpt lat="47.29287" lon="-2.40348">
        <ele>26</ele>
        <time>2021-11-18T10:42:47.000Z</time>
      </trkpt>
      <trkpt lat="47.29288" lon="-2.40341">
        <ele>26</ele>
        <time>2021-11-18T10:42:48.000Z</time>
      </trkpt>
      <trkpt lat="47.29298" lon="-2.40327">
        <ele>26</ele>
        <time>2021-11-18T10:42:51.000Z</time>
      </trkpt>
      <trkpt lat="47.29307" lon="-2.40319">
        <ele>26</ele>
        <time>2021-11-18T10:42:53.000Z</time>
      </trkpt>
      <trkpt lat="47.29319" lon="-2.40305">
        <ele>26</ele>
        <time>2021-11-18T10:42:56.000Z</time>
      </trkpt>
      <trkpt lat="47.29344" lon="-2.40276">
        <ele>26</ele>
        <time>2021-11-18T10:43:02.000Z</time>
      </trkpt>
      <trkpt lat="47.29375" lon="-2.40249">
        <ele>26</ele>
        <time>2021-11-18T10:43:09.000Z</time>
      </trkpt>
      <trkpt lat="47.29378" lon="-2.40246">
        <ele>26</ele>
        <time>2021-11-18T10:43:10.000Z</time>
      </trkpt>
      <trkpt lat="47.29399" lon="-2.40232">
        <ele>26</ele>
        <time>2021-11-18T10:43:15.000Z</time>
      </trkpt>
      <trkpt lat="47.29432" lon="-2.40216">
        <ele>26</ele>
        <time>2021-11-18T10:43:22.000Z</time>
      </trkpt>
      <trkpt lat="47.29447" lon="-2.40213">
        <ele>26</ele>
        <time>2021-11-18T10:43:25.000Z</time>
      </trkpt>
      <trkpt lat="47.29449" lon="-2.40199">
        <ele>26</ele>
        <time>2021-11-18T10:43:27.000Z</time>
      </trkpt>
      <trkpt lat="47.29451" lon="-2.40192">
        <ele>26</ele>
        <time>2021-11-18T10:43:28.000Z</time>
      </trkpt>
      <trkpt lat="47.29455" lon="-2.40156">
        <ele>26</ele>
        <time>2021-11-18T10:43:33.000Z</time>
      </trkpt>
      <trkpt lat="47.29458" lon="-2.40116">
        <ele>26</ele>
        <time>2021-11-18T10:43:38.000Z</time>
      </trkpt>
      <trkpt lat="47.29459" lon="-2.40108">
        <ele>26</ele>
        <time>2021-11-18T10:43:39.000Z</time>
      </trkpt>
      <trkpt lat="47.29464" lon="-2.40054">
        <ele>26</ele>
        <time>2021-11-18T10:43:45.000Z</time>
      </trkpt>
      <trkpt lat="47.29461" lon="-2.40003">
        <ele>26</ele>
        <time>2021-11-18T10:43:51.000Z</time>
      </trkpt>
      <trkpt lat="47.29464" lon="-2.39978">
        <ele>26</ele>
        <time>2021-11-18T10:43:54.000Z</time>
      </trkpt>
      <trkpt lat="47.29467" lon="-2.39964">
        <ele>26</ele>
        <time>2021-11-18T10:43:56.000Z</time>
      </trkpt>
      <trkpt lat="47.29474" lon="-2.39945">
        <ele>26</ele>
        <time>2021-11-18T10:43:59.000Z</time>
      </trkpt>
      <trkpt lat="47.29477" lon="-2.3994">
        <ele>26</ele>
        <time>2021-11-18T10:44:00.000Z</time>
      </trkpt>
      <trkpt lat="47.29479" lon="-2.39934">
        <ele>26</ele>
        <time>2021-11-18T10:44:01.000Z</time>
      </trkpt>
      <trkpt lat="47.29484" lon="-2.39916">
        <ele>26</ele>
        <time>2021-11-18T10:44:05.000Z</time>
      </trkpt>
      <trkpt lat="47.29477" lon="-2.399">
        <ele>26</ele>
        <time>2021-11-18T10:44:09.000Z</time>
      </trkpt>
      <trkpt lat="47.29475" lon="-2.39895">
        <ele>26</ele>
        <time>2021-11-18T10:44:12.000Z</time>
      </trkpt>
      <trkpt lat="47.29475" lon="-2.39893">
        <ele>26</ele>
        <time>2021-11-18T10:45:17.000Z</time>
      </trkpt>
      <trkpt lat="47.29466" lon="-2.39879">
        <ele>26</ele>
        <time>2021-11-18T10:45:23.000Z</time>
      </trkpt>
      <trkpt lat="47.29457" lon="-2.39864">
        <ele>26</ele>
        <time>2021-11-18T10:45:28.000Z</time>
      </trkpt>
      <trkpt lat="47.29441" lon="-2.39848">
        <ele>26</ele>
        <time>2021-11-18T10:45:34.000Z</time>
      </trkpt>
      <trkpt lat="47.29425" lon="-2.39838">
        <ele>26</ele>
        <time>2021-11-18T10:45:39.000Z</time>
      </trkpt>
      <trkpt lat="47.29417" lon="-2.39831">
        <ele>26</ele>
        <time>2021-11-18T10:45:41.000Z</time>
      </trkpt>
      <trkpt lat="47.29409" lon="-2.39815">
        <ele>26</ele>
        <time>2021-11-18T10:45:44.000Z</time>
      </trkpt>
      <trkpt lat="47.29408" lon="-2.39795">
        <ele>26</ele>
        <time>2021-11-18T10:45:47.000Z</time>
      </trkpt>
      <trkpt lat="47.29408" lon="-2.39787">
        <ele>26</ele>
        <time>2021-11-18T10:45:48.000Z</time>
      </trkpt>
      <trkpt lat="47.29404" lon="-2.39774">
        <ele>26</ele>
        <time>2021-11-18T10:45:50.000Z</time>
      </trkpt>
      <trkpt lat="47.29385" lon="-2.3974">
        <ele>26</ele>
        <time>2021-11-18T10:45:56.000Z</time>
      </trkpt>
      <trkpt lat="47.29351" lon="-2.39701">
        <ele>26</ele>
        <time>2021-11-18T10:46:04.000Z</time>
      </trkpt>
      <trkpt lat="47.29325" lon="-2.39675">
        <ele>26</ele>
        <time>2021-11-18T10:46:10.000Z</time>
      </trkpt>
      <trkpt lat="47.2932" lon="-2.39671">
        <ele>26</ele>
        <time>2021-11-18T10:46:11.000Z</time>
      </trkpt>
      <trkpt lat="47.29308" lon="-2.39659">
        <ele>26</ele>
        <time>2021-11-18T10:46:14.000Z</time>
      </trkpt>
      <trkpt lat="47.29294" lon="-2.39648">
        <ele>26</ele>
        <time>2021-11-18T10:46:17.000Z</time>
      </trkpt>
      <trkpt lat="47.29262" lon="-2.39623">
        <ele>26</ele>
        <time>2021-11-18T10:46:24.000Z</time>
      </trkpt>
      <trkpt lat="47.29226" lon="-2.396">
        <ele>26</ele>
        <time>2021-11-18T10:46:31.000Z</time>
      </trkpt>
      <trkpt lat="47.2919" lon="-2.39577">
        <ele>26</ele>
        <time>2021-11-18T10:46:38.000Z</time>
      </trkpt>
      <trkpt lat="47.29154" lon="-2.39555">
        <ele>26</ele>
        <time>2021-11-18T10:46:45.000Z</time>
      </trkpt>
      <trkpt lat="47.29138" lon="-2.39548">
        <ele>26</ele>
        <time>2021-11-18T10:46:48.000Z</time>
      </trkpt>
      <trkpt lat="47.29123" lon="-2.39546">
        <ele>26</ele>
        <time>2021-11-18T10:46:51.000Z</time>
      </trkpt>
      <trkpt lat="47.29112" lon="-2.39533">
        <ele>26</ele>
        <time>2021-11-18T10:46:54.000Z</time>
      </trkpt>
      <trkpt lat="47.29116" lon="-2.39512">
        <ele>26</ele>
        <time>2021-11-18T10:46:57.000Z</time>
      </trkpt>
      <trkpt lat="47.29129" lon="-2.39481">
        <ele>26</ele>
        <time>2021-11-18T10:47:01.000Z</time>
      </trkpt>
      <trkpt lat="47.29131" lon="-2.39473">
        <ele>26</ele>
        <time>2021-11-18T10:47:02.000Z</time>
      </trkpt>
      <trkpt lat="47.29133" lon="-2.39466">
        <ele>26</ele>
        <time>2021-11-18T10:47:03.000Z</time>
      </trkpt>
      <trkpt lat="47.29134" lon="-2.3945">
        <ele>26</ele>
        <time>2021-11-18T10:47:05.000Z</time>
      </trkpt>
      <trkpt lat="47.29135" lon="-2.39392">
        <ele>26</ele>
        <time>2021-11-18T10:47:12.000Z</time>
      </trkpt>
      <trkpt lat="47.29133" lon="-2.39377">
        <ele>26</ele>
        <time>2021-11-18T10:47:14.000Z</time>
      </trkpt>
      <trkpt lat="47.2913" lon="-2.39371">
        <ele>26</ele>
        <time>2021-11-18T10:47:15.000Z</time>
      </trkpt>
      <trkpt lat="47.29115" lon="-2.39368">
        <ele>26</ele>
        <time>2021-11-18T10:47:18.000Z</time>
      </trkpt>
      <trkpt lat="47.29101" lon="-2.39376">
        <ele>26</ele>
        <time>2021-11-18T10:47:21.000Z</time>
      </trkpt>
      <trkpt lat="47.29086" lon="-2.39369">
        <ele>26.39999961853</ele>
        <time>2021-11-18T10:47:24.000Z</time>
      </trkpt>
      <trkpt lat="47.29081" lon="-2.39365">
        <ele>26.799999237061</ele>
        <time>2021-11-18T10:47:25.000Z</time>
      </trkpt>
      <trkpt lat="47.29076" lon="-2.39362">
        <ele>27.200000762939</ele>
        <time>2021-11-18T10:47:26.000Z</time>
      </trkpt>
      <trkpt lat="47.2907" lon="-2.39359">
        <ele>27.60000038147</ele>
        <time>2021-11-18T10:47:27.000Z</time>
      </trkpt>
      <trkpt lat="47.29064" lon="-2.39357">
        <ele>28</ele>
        <time>2021-11-18T10:47:28.000Z</time>
      </trkpt>
      <trkpt lat="47.29058" lon="-2.39354">
        <ele>28</ele>
        <time>2021-11-18T10:47:29.000Z</time>
      </trkpt>
      <trkpt lat="47.29032" lon="-2.39341">
        <ele>27.60000038147</ele>
        <time>2021-11-18T10:47:33.000Z</time>
      </trkpt>
      <trkpt lat="47.29026" lon="-2.39338">
        <ele>27.200000762939</ele>
        <time>2021-11-18T10:47:34.000Z</time>
      </trkpt>
      <trkpt lat="47.29019" lon="-2.39335">
        <ele>26.799999237061</ele>
        <time>2021-11-18T10:47:35.000Z</time>
      </trkpt>
      <trkpt lat="47.29013" lon="-2.39332">
        <ele>26.39999961853</ele>
        <time>2021-11-18T10:47:36.000Z</time>
      </trkpt>
      <trkpt lat="47.29007" lon="-2.39329">
        <ele>26</ele>
        <time>2021-11-18T10:47:37.000Z</time>
      </trkpt>
      <trkpt lat="47.28984" lon="-2.39321">
        <ele>26</ele>
        <time>2021-11-18T10:47:41.000Z</time>
      </trkpt>
      <trkpt lat="47.28979" lon="-2.3932">
        <ele>26</ele>
        <time>2021-11-18T10:47:42.000Z</time>
      </trkpt>
      <trkpt lat="47.28953" lon="-2.39319">
        <ele>26</ele>
        <time>2021-11-18T10:47:47.000Z</time>
      </trkpt>
      <trkpt lat="47.28942" lon="-2.39307">
        <ele>26</ele>
        <time>2021-11-18T10:47:50.000Z</time>
      </trkpt>
      <trkpt lat="47.28936" lon="-2.39276">
        <ele>26</ele>
        <time>2021-11-18T10:47:54.000Z</time>
      </trkpt>
      <trkpt lat="47.28935" lon="-2.39268">
        <ele>26</ele>
        <time>2021-11-18T10:47:55.000Z</time>
      </trkpt>
      <trkpt lat="47.28933" lon="-2.39216">
        <ele>26</ele>
        <time>2021-11-18T10:48:01.000Z</time>
      </trkpt>
      <trkpt lat="47.28933" lon="-2.39174">
        <ele>26</ele>
        <time>2021-11-18T10:48:06.000Z</time>
      </trkpt>
      <trkpt lat="47.28939" lon="-2.39117">
        <ele>26</ele>
        <time>2021-11-18T10:48:12.000Z</time>
      </trkpt>
      <trkpt lat="47.28947" lon="-2.3906">
        <ele>26</ele>
        <time>2021-11-18T10:48:18.000Z</time>
      </trkpt>
      <trkpt lat="47.28952" lon="-2.3899">
        <ele>26</ele>
        <time>2021-11-18T10:48:25.000Z</time>
      </trkpt>
      <trkpt lat="47.28957" lon="-2.3892">
        <ele>26</ele>
        <time>2021-11-18T10:48:32.000Z</time>
      </trkpt>
      <trkpt lat="47.2896" lon="-2.38862">
        <ele>26</ele>
        <time>2021-11-18T10:48:38.000Z</time>
      </trkpt>
      <trkpt lat="47.28961" lon="-2.38834">
        <ele>26</ele>
        <time>2021-11-18T10:48:41.000Z</time>
      </trkpt>
      <trkpt lat="47.28961" lon="-2.38806">
        <ele>26</ele>
        <time>2021-11-18T10:48:44.000Z</time>
      </trkpt>
      <trkpt lat="47.2896" lon="-2.3872">
        <ele>26</ele>
        <time>2021-11-18T10:48:53.000Z</time>
      </trkpt>
      <trkpt lat="47.28959" lon="-2.38647">
        <ele>26</ele>
        <time>2021-11-18T10:49:00.000Z</time>
      </trkpt>
      <trkpt lat="47.28956" lon="-2.38567">
        <ele>26</ele>
        <time>2021-11-18T10:49:08.000Z</time>
      </trkpt>
      <trkpt lat="47.28947" lon="-2.38489">
        <ele>26</ele>
        <time>2021-11-18T10:49:16.000Z</time>
      </trkpt>
      <trkpt lat="47.2894" lon="-2.38402">
        <ele>26</ele>
        <time>2021-11-18T10:49:25.000Z</time>
      </trkpt>
      <trkpt lat="47.28939" lon="-2.38392">
        <ele>26</ele>
        <time>2021-11-18T10:49:26.000Z</time>
      </trkpt>
      <trkpt lat="47.28935" lon="-2.3832">
        <ele>26</ele>
        <time>2021-11-18T10:49:33.000Z</time>
      </trkpt>
      <trkpt lat="47.28936" lon="-2.38279">
        <ele>26</ele>
        <time>2021-11-18T10:49:37.000Z</time>
      </trkpt>
      <trkpt lat="47.28939" lon="-2.38261">
        <ele>26</ele>
        <time>2021-11-18T10:49:39.000Z</time>
      </trkpt>
      <trkpt lat="47.28934" lon="-2.38229">
        <ele>26</ele>
        <time>2021-11-18T10:49:43.000Z</time>
      </trkpt>
      <trkpt lat="47.28923" lon="-2.3822">
        <ele>26</ele>
        <time>2021-11-18T10:49:45.000Z</time>
      </trkpt>
      <trkpt lat="47.28917" lon="-2.38215">
        <ele>26</ele>
        <time>2021-11-18T10:49:46.000Z</time>
      </trkpt>
      <trkpt lat="47.28902" lon="-2.38197">
        <ele>26</ele>
        <time>2021-11-18T10:49:49.000Z</time>
      </trkpt>
      <trkpt lat="47.289" lon="-2.38189">
        <ele>26</ele>
        <time>2021-11-18T10:49:50.000Z</time>
      </trkpt>
      <trkpt lat="47.28902" lon="-2.38161">
        <ele>26</ele>
        <time>2021-11-18T10:49:53.000Z</time>
      </trkpt>
      <trkpt lat="47.28906" lon="-2.381">
        <ele>26</ele>
        <time>2021-11-18T10:50:00.000Z</time>
      </trkpt>
      <trkpt lat="47.28909" lon="-2.38027">
        <ele>26</ele>
        <time>2021-11-18T10:50:08.000Z</time>
      </trkpt>
      <trkpt lat="47.28914" lon="-2.37953">
        <ele>26</ele>
        <time>2021-11-18T10:50:16.000Z</time>
      </trkpt>
      <trkpt lat="47.28919" lon="-2.37891">
        <ele>26</ele>
        <time>2021-11-18T10:50:23.000Z</time>
      </trkpt>
      <trkpt lat="47.28924" lon="-2.37829">
        <ele>26</ele>
        <time>2021-11-18T10:50:30.000Z</time>
      </trkpt>
      <trkpt lat="47.28929" lon="-2.37766">
        <ele>26</ele>
        <time>2021-11-18T10:50:37.000Z</time>
      </trkpt>
      <trkpt lat="47.28933" lon="-2.37714">
        <ele>26</ele>
        <time>2021-11-18T10:50:43.000Z</time>
      </trkpt>
      <trkpt lat="47.28936" lon="-2.37671">
        <ele>26</ele>
        <time>2021-11-18T10:50:48.000Z</time>
      </trkpt>
      <trkpt lat="47.28935" lon="-2.37663">
        <ele>26</ele>
        <time>2021-11-18T10:50:49.000Z</time>
      </trkpt>
      <trkpt lat="47.2893" lon="-2.37649">
        <ele>26</ele>
        <time>2021-11-18T10:50:51.000Z</time>
      </trkpt>
      <trkpt lat="47.2892" lon="-2.37644">
        <ele>26.39999961853</ele>
        <time>2021-11-18T10:50:53.000Z</time>
      </trkpt>
      <trkpt lat="47.28915" lon="-2.37645">
        <ele>26.799999237061</ele>
        <time>2021-11-18T10:50:54.000Z</time>
      </trkpt>
      <trkpt lat="47.28909" lon="-2.37647">
        <ele>27.200000762939</ele>
        <time>2021-11-18T10:50:55.000Z</time>
      </trkpt>
      <trkpt lat="47.28904" lon="-2.37648">
        <ele>27.60000038147</ele>
        <time>2021-11-18T10:50:56.000Z</time>
      </trkpt>
      <trkpt lat="47.28899" lon="-2.3765">
        <ele>28</ele>
        <time>2021-11-18T10:50:57.000Z</time>
      </trkpt>
      <trkpt lat="47.2889" lon="-2.37653">
        <ele>28</ele>
        <time>2021-11-18T10:50:59.000Z</time>
      </trkpt>
      <trkpt lat="47.28877" lon="-2.37655">
        <ele>28</ele>
        <time>2021-11-18T10:51:03.000Z</time>
      </trkpt>
      <trkpt lat="47.28863" lon="-2.37656">
        <ele>28</ele>
        <time>2021-11-18T10:51:08.000Z</time>
      </trkpt>
      <trkpt lat="47.28862" lon="-2.37653">
        <ele>28</ele>
        <time>2021-11-18T10:51:09.000Z</time>
      </trkpt>
      <trkpt lat="47.28857" lon="-2.37629">
        <ele>28</ele>
        <time>2021-11-18T10:51:15.000Z</time>
      </trkpt>
      <trkpt lat="47.28855" lon="-2.37619">
        <ele>28</ele>
        <time>2021-11-18T10:51:17.000Z</time>
      </trkpt>
      <trkpt lat="47.28855" lon="-2.37605">
        <ele>28</ele>
        <time>2021-11-18T10:51:19.000Z</time>
      </trkpt>
      <trkpt lat="47.28862" lon="-2.37582">
        <ele>28</ele>
        <time>2021-11-18T10:51:23.000Z</time>
      </trkpt>
      <trkpt lat="47.28882" lon="-2.37537">
        <ele>28</ele>
        <time>2021-11-18T10:51:31.000Z</time>
      </trkpt>
      <trkpt lat="47.28883" lon="-2.37531">
        <ele>28</ele>
        <time>2021-11-18T10:51:32.000Z</time>
      </trkpt>
      <trkpt lat="47.28882" lon="-2.37512">
        <ele>28</ele>
        <time>2021-11-18T10:51:35.000Z</time>
      </trkpt>
      <trkpt lat="47.28881" lon="-2.37506">
        <ele>28</ele>
        <time>2021-11-18T10:51:36.000Z</time>
      </trkpt>
      <trkpt lat="47.28874" lon="-2.37455">
        <ele>28</ele>
        <time>2021-11-18T10:51:44.000Z</time>
      </trkpt>
      <trkpt lat="47.28866" lon="-2.37396">
        <ele>28</ele>
        <time>2021-11-18T10:51:53.000Z</time>
      </trkpt>
      <trkpt lat="47.28862" lon="-2.37354">
        <ele>28</ele>
        <time>2021-11-18T10:51:59.000Z</time>
      </trkpt>
      <trkpt lat="47.28857" lon="-2.37305">
        <ele>28</ele>
        <time>2021-11-18T10:52:06.000Z</time>
      </trkpt>
      <trkpt lat="47.28852" lon="-2.37249">
        <ele>28</ele>
        <time>2021-11-18T10:52:14.000Z</time>
      </trkpt>
      <trkpt lat="47.2885" lon="-2.37243">
        <ele>28.39999961853</ele>
        <time>2021-11-18T10:52:15.000Z</time>
      </trkpt>
      <trkpt lat="47.28847" lon="-2.37238">
        <ele>28.799999237061</ele>
        <time>2021-11-18T10:52:16.000Z</time>
      </trkpt>
      <trkpt lat="47.28844" lon="-2.37234">
        <ele>29.200000762939</ele>
        <time>2021-11-18T10:52:17.000Z</time>
      </trkpt>
      <trkpt lat="47.28841" lon="-2.37228">
        <ele>29.60000038147</ele>
        <time>2021-11-18T10:52:18.000Z</time>
      </trkpt>
      <trkpt lat="47.2884" lon="-2.37221">
        <ele>30</ele>
        <time>2021-11-18T10:52:19.000Z</time>
      </trkpt>
      <trkpt lat="47.28836" lon="-2.37203">
        <ele>30</ele>
        <time>2021-11-18T10:52:22.000Z</time>
      </trkpt>
      <trkpt lat="47.2883" lon="-2.37155">
        <ele>30</ele>
        <time>2021-11-18T10:52:29.000Z</time>
      </trkpt>
      <trkpt lat="47.28828" lon="-2.37128">
        <ele>30</ele>
        <time>2021-11-18T10:52:33.000Z</time>
      </trkpt>
      <trkpt lat="47.28829" lon="-2.37117">
        <ele>30</ele>
        <time>2021-11-18T10:52:35.000Z</time>
      </trkpt>
      <trkpt lat="47.28827" lon="-2.37108">
        <ele>30</ele>
        <time>2021-11-18T10:52:39.000Z</time>
      </trkpt>
      <trkpt lat="47.28826" lon="-2.37109">
        <ele>30.60000038147</ele>
        <time>2021-11-18T10:52:41.000Z</time>
      </trkpt>
      <trkpt lat="47.28825" lon="-2.3711">
        <ele>31</ele>
        <time>2021-11-18T10:52:42.000Z</time>
      </trkpt>
      <trkpt lat="47.28824" lon="-2.37112">
        <ele>31.39999961853</ele>
        <time>2021-11-18T10:52:43.000Z</time>
      </trkpt>
      <trkpt lat="47.28822" lon="-2.37112">
        <ele>31.799999237061</ele>
        <time>2021-11-18T10:52:44.000Z</time>
      </trkpt>
      <trkpt lat="47.28821" lon="-2.37113">
        <ele>32.200000762939</ele>
        <time>2021-11-18T10:52:45.000Z</time>
      </trkpt>
      <trkpt lat="47.28813" lon="-2.37117">
        <ele>32.599998474121</ele>
        <time>2021-11-18T10:52:49.000Z</time>
      </trkpt>
      <trkpt lat="47.2881" lon="-2.37117">
        <ele>33.200000762939</ele>
        <time>2021-11-18T10:52:50.000Z</time>
      </trkpt>
      <trkpt lat="47.28809" lon="-2.37116">
        <ele>34</ele>
        <time>2021-11-18T10:52:51.000Z</time>
      </trkpt>
      <trkpt lat="47.28807" lon="-2.37116">
        <ele>34.400001525879</ele>
        <time>2021-11-18T10:52:52.000Z</time>
      </trkpt>
      <trkpt lat="47.28804" lon="-2.37115">
        <ele>34.799999237061</ele>
        <time>2021-11-18T10:52:54.000Z</time>
      </trkpt>
      <trkpt lat="47.28803" lon="-2.37114">
        <ele>35.200000762939</ele>
        <time>2021-11-18T10:52:55.000Z</time>
      </trkpt>
      <trkpt lat="47.28801" lon="-2.37112">
        <ele>35.599998474121</ele>
        <time>2021-11-18T10:52:56.000Z</time>
      </trkpt>
      <trkpt lat="47.28799" lon="-2.37107">
        <ele>36</ele>
        <time>2021-11-18T10:52:57.000Z</time>
      </trkpt>
      <trkpt lat="47.28798" lon="-2.37103">
        <ele>36.599998474121</ele>
        <time>2021-11-18T10:52:58.000Z</time>
      </trkpt>
      <trkpt lat="47.28796" lon="-2.37091">
        <ele>36.599998474121</ele>
        <time>2021-11-18T10:53:01.000Z</time>
      </trkpt>
      <trkpt lat="47.28795" lon="-2.37086">
        <ele>36.599998474121</ele>
        <time>2021-11-18T10:53:02.000Z</time>
      </trkpt>
      <trkpt lat="47.28793" lon="-2.37075">
        <ele>37</ele>
        <time>2021-11-18T10:53:05.000Z</time>
      </trkpt>
      <trkpt lat="47.28792" lon="-2.37072">
        <ele>37.400001525879</ele>
        <time>2021-11-18T10:53:06.000Z</time>
      </trkpt>
      <trkpt lat="47.28792" lon="-2.37069">
        <ele>37.799999237061</ele>
        <time>2021-11-18T10:53:07.000Z</time>
      </trkpt>
      <trkpt lat="47.28791" lon="-2.37065">
        <ele>38.200000762939</ele>
        <time>2021-11-18T10:53:08.000Z</time>
      </trkpt>
      <trkpt lat="47.28791" lon="-2.37062">
        <ele>38.599998474121</ele>
        <time>2021-11-18T10:53:09.000Z</time>
      </trkpt>
      <trkpt lat="47.28787" lon="-2.3705">
        <ele>39</ele>
        <time>2021-11-18T10:53:12.000Z</time>
      </trkpt>
      <trkpt lat="47.28785" lon="-2.37046">
        <ele>39.400001525879</ele>
        <time>2021-11-18T10:53:13.000Z</time>
      </trkpt>
      <trkpt lat="47.28784" lon="-2.37043">
        <ele>39.799999237061</ele>
        <time>2021-11-18T10:53:14.000Z</time>
      </trkpt>
      <trkpt lat="47.28783" lon="-2.37039">
        <ele>40.200000762939</ele>
        <time>2021-11-18T10:53:15.000Z</time>
      </trkpt>
      <trkpt lat="47.28782" lon="-2.37036">
        <ele>40.599998474121</ele>
        <time>2021-11-18T10:53:16.000Z</time>
      </trkpt>
      <trkpt lat="47.28777" lon="-2.37016">
        <ele>40.599998474121</ele>
        <time>2021-11-18T10:53:21.000Z</time>
      </trkpt>
      <trkpt lat="47.28774" lon="-2.37009">
        <ele>40.599998474121</ele>
        <time>2021-11-18T10:53:23.000Z</time>
      </trkpt>
      <trkpt lat="47.28772" lon="-2.37007">
        <ele>41</ele>
        <time>2021-11-18T10:53:24.000Z</time>
      </trkpt>
      <trkpt lat="47.2877" lon="-2.37005">
        <ele>41.599998474121</ele>
        <time>2021-11-18T10:53:25.000Z</time>
      </trkpt>
      <trkpt lat="47.28767" lon="-2.37002">
        <ele>42</ele>
        <time>2021-11-18T10:53:26.000Z</time>
      </trkpt>
      <trkpt lat="47.28765" lon="-2.37">
        <ele>42.400001525879</ele>
        <time>2021-11-18T10:53:27.000Z</time>
      </trkpt>
      <trkpt lat="47.28763" lon="-2.36997">
        <ele>42.799999237061</ele>
        <time>2021-11-18T10:53:28.000Z</time>
      </trkpt>
      <trkpt lat="47.28761" lon="-2.36993">
        <ele>42.799999237061</ele>
        <time>2021-11-18T10:53:29.000Z</time>
      </trkpt>
      <trkpt lat="47.2876" lon="-2.36989">
        <ele>42.799999237061</ele>
        <time>2021-11-18T10:53:30.000Z</time>
      </trkpt>
      <trkpt lat="47.28753" lon="-2.36961">
        <ele>42.799999237061</ele>
        <time>2021-11-18T10:53:36.000Z</time>
      </trkpt>
      <trkpt lat="47.2875" lon="-2.36954">
        <ele>42.400001525879</ele>
        <time>2021-11-18T10:53:37.000Z</time>
      </trkpt>
      <trkpt lat="47.28747" lon="-2.36948">
        <ele>42</ele>
        <time>2021-11-18T10:53:38.000Z</time>
      </trkpt>
      <trkpt lat="47.28743" lon="-2.3694">
        <ele>41.400001525879</ele>
        <time>2021-11-18T10:53:39.000Z</time>
      </trkpt>
      <trkpt lat="47.28739" lon="-2.36933">
        <ele>40.799999237061</ele>
        <time>2021-11-18T10:53:40.000Z</time>
      </trkpt>
      <trkpt lat="47.28736" lon="-2.36927">
        <ele>39.599998474121</ele>
        <time>2021-11-18T10:53:41.000Z</time>
      </trkpt>
      <trkpt lat="47.28731" lon="-2.36922">
        <ele>39</ele>
        <time>2021-11-18T10:53:42.000Z</time>
      </trkpt>
      <trkpt lat="47.28727" lon="-2.36919">
        <ele>38.400001525879</ele>
        <time>2021-11-18T10:53:43.000Z</time>
      </trkpt>
      <trkpt lat="47.28723" lon="-2.36917">
        <ele>38.400001525879</ele>
        <time>2021-11-18T10:53:44.000Z</time>
      </trkpt>
      <trkpt lat="47.28715" lon="-2.36906">
        <ele>38.400001525879</ele>
        <time>2021-11-18T10:53:48.000Z</time>
      </trkpt>
      <trkpt lat="47.28711" lon="-2.36899">
        <ele>38.400001525879</ele>
        <time>2021-11-18T10:53:50.000Z</time>
      </trkpt>
      <trkpt lat="47.28704" lon="-2.36882">
        <ele>38.400001525879</ele>
        <time>2021-11-18T10:53:54.000Z</time>
      </trkpt>
      <trkpt lat="47.28702" lon="-2.36874">
        <ele>38.799999237061</ele>
        <time>2021-11-18T10:53:56.000Z</time>
      </trkpt>
      <trkpt lat="47.28701" lon="-2.3687">
        <ele>39.200000762939</ele>
        <time>2021-11-18T10:53:57.000Z</time>
      </trkpt>
      <trkpt lat="47.28699" lon="-2.36867">
        <ele>39.599998474121</ele>
        <time>2021-11-18T10:53:58.000Z</time>
      </trkpt>
      <trkpt lat="47.28698" lon="-2.36863">
        <ele>40</ele>
        <time>2021-11-18T10:53:59.000Z</time>
      </trkpt>
      <trkpt lat="47.28696" lon="-2.36859">
        <ele>40.400001525879</ele>
        <time>2021-11-18T10:54:00.000Z</time>
      </trkpt>
      <trkpt lat="47.28681" lon="-2.3683">
        <ele>40.400001525879</ele>
        <time>2021-11-18T10:54:07.000Z</time>
      </trkpt>
      <trkpt lat="47.28675" lon="-2.36817">
        <ele>41</ele>
        <time>2021-11-18T10:54:10.000Z</time>
      </trkpt>
      <trkpt lat="47.28674" lon="-2.36812">
        <ele>41.400001525879</ele>
        <time>2021-11-18T10:54:11.000Z</time>
      </trkpt>
      <trkpt lat="47.28672" lon="-2.36809">
        <ele>41.799999237061</ele>
        <time>2021-11-18T10:54:12.000Z</time>
      </trkpt>
      <trkpt lat="47.2867" lon="-2.36805">
        <ele>42.200000762939</ele>
        <time>2021-11-18T10:54:13.000Z</time>
      </trkpt>
      <trkpt lat="47.28669" lon="-2.36803">
        <ele>42.599998474121</ele>
        <time>2021-11-18T10:54:14.000Z</time>
      </trkpt>
      <trkpt lat="47.28665" lon="-2.368">
        <ele>42.599998474121</ele>
        <time>2021-11-18T10:54:16.000Z</time>
      </trkpt>
      <trkpt lat="47.28658" lon="-2.36799">
        <ele>42.599998474121</ele>
        <time>2021-11-18T10:54:18.000Z</time>
      </trkpt>
      <trkpt lat="47.28645" lon="-2.36806">
        <ele>42.599998474121</ele>
        <time>2021-11-18T10:54:21.000Z</time>
      </trkpt>
      <trkpt lat="47.28641" lon="-2.3681">
        <ele>42.599998474121</ele>
        <time>2021-11-18T10:54:22.000Z</time>
      </trkpt>
      <trkpt lat="47.28609" lon="-2.36841">
        <ele>42.599998474121</ele>
        <time>2021-11-18T10:54:29.000Z</time>
      </trkpt>
      <trkpt lat="47.28594" lon="-2.3684">
        <ele>42.599998474121</ele>
        <time>2021-11-18T10:54:32.000Z</time>
      </trkpt>
      <trkpt lat="47.28584" lon="-2.36824">
        <ele>42.599998474121</ele>
        <time>2021-11-18T10:54:35.000Z</time>
      </trkpt>
      <trkpt lat="47.28576" lon="-2.36806">
        <ele>42.599998474121</ele>
        <time>2021-11-18T10:54:38.000Z</time>
      </trkpt>
      <trkpt lat="47.2857" lon="-2.36795">
        <ele>42.599998474121</ele>
        <time>2021-11-18T10:54:40.000Z</time>
      </trkpt>
      <trkpt lat="47.28564" lon="-2.36784">
        <ele>42.599998474121</ele>
        <time>2021-11-18T10:54:42.000Z</time>
      </trkpt>
      <trkpt lat="47.28553" lon="-2.36764">
        <ele>42.599998474121</ele>
        <time>2021-11-18T10:54:46.000Z</time>
      </trkpt>
      <trkpt lat="47.28539" lon="-2.36741">
        <ele>42.599998474121</ele>
        <time>2021-11-18T10:54:51.000Z</time>
      </trkpt>
      <trkpt lat="47.28534" lon="-2.36732">
        <ele>42.599998474121</ele>
        <time>2021-11-18T10:54:53.000Z</time>
      </trkpt>
      <trkpt lat="47.28522" lon="-2.36706">
        <ele>43</ele>
        <time>2021-11-18T10:54:59.000Z</time>
      </trkpt>
      <trkpt lat="47.28521" lon="-2.36702">
        <ele>43.400001525879</ele>
        <time>2021-11-18T10:55:00.000Z</time>
      </trkpt>
      <trkpt lat="47.28519" lon="-2.36698">
        <ele>43.799999237061</ele>
        <time>2021-11-18T10:55:01.000Z</time>
      </trkpt>
      <trkpt lat="47.28517" lon="-2.36695">
        <ele>44.400001525879</ele>
        <time>2021-11-18T10:55:02.000Z</time>
      </trkpt>
      <trkpt lat="47.28515" lon="-2.36691">
        <ele>44.799999237061</ele>
        <time>2021-11-18T10:55:03.000Z</time>
      </trkpt>
      <trkpt lat="47.28507" lon="-2.36681">
        <ele>44.799999237061</ele>
        <time>2021-11-18T10:55:07.000Z</time>
      </trkpt>
      <trkpt lat="47.28499" lon="-2.36671">
        <ele>45.200000762939</ele>
        <time>2021-11-18T10:55:10.000Z</time>
      </trkpt>
      <trkpt lat="47.28496" lon="-2.36666">
        <ele>45.599998474121</ele>
        <time>2021-11-18T10:55:11.000Z</time>
      </trkpt>
      <trkpt lat="47.28494" lon="-2.3666">
        <ele>46</ele>
        <time>2021-11-18T10:55:12.000Z</time>
      </trkpt>
      <trkpt lat="47.28491" lon="-2.36654">
        <ele>46.400001525879</ele>
        <time>2021-11-18T10:55:13.000Z</time>
      </trkpt>
      <trkpt lat="47.2849" lon="-2.36648">
        <ele>46.799999237061</ele>
        <time>2021-11-18T10:55:14.000Z</time>
      </trkpt>
      <trkpt lat="47.28484" lon="-2.3663">
        <ele>46.799999237061</ele>
        <time>2021-11-18T10:55:17.000Z</time>
      </trkpt>
      <trkpt lat="47.28482" lon="-2.36617">
        <ele>46.799999237061</ele>
        <time>2021-11-18T10:55:19.000Z</time>
      </trkpt>
      <trkpt lat="47.28475" lon="-2.36591">
        <ele>46.799999237061</ele>
        <time>2021-11-18T10:55:23.000Z</time>
      </trkpt>
      <trkpt lat="47.28472" lon="-2.36578">
        <ele>46.799999237061</ele>
        <time>2021-11-18T10:55:25.000Z</time>
      </trkpt>
      <trkpt lat="47.28473" lon="-2.36565">
        <ele>46.799999237061</ele>
        <time>2021-11-18T10:55:27.000Z</time>
      </trkpt>
      <trkpt lat="47.28477" lon="-2.36554">
        <ele>46.799999237061</ele>
        <time>2021-11-18T10:55:29.000Z</time>
      </trkpt>
      <trkpt lat="47.28482" lon="-2.36546">
        <ele>46.799999237061</ele>
        <time>2021-11-18T10:55:31.000Z</time>
      </trkpt>
      <trkpt lat="47.28486" lon="-2.36542">
        <ele>46.799999237061</ele>
        <time>2021-11-18T10:55:32.000Z</time>
      </trkpt>
      <trkpt lat="47.28499" lon="-2.36524">
        <ele>46.799999237061</ele>
        <time>2021-11-18T10:55:36.000Z</time>
      </trkpt>
      <trkpt lat="47.28506" lon="-2.36517">
        <ele>46.799999237061</ele>
        <time>2021-11-18T10:55:38.000Z</time>
      </trkpt>
      <trkpt lat="47.2851" lon="-2.36514">
        <ele>47.200000762939</ele>
        <time>2021-11-18T10:55:39.000Z</time>
      </trkpt>
      <trkpt lat="47.28512" lon="-2.36511">
        <ele>47.599998474121</ele>
        <time>2021-11-18T10:55:40.000Z</time>
      </trkpt>
      <trkpt lat="47.28515" lon="-2.36508">
        <ele>48</ele>
        <time>2021-11-18T10:55:41.000Z</time>
      </trkpt>
      <trkpt lat="47.28518" lon="-2.36504">
        <ele>48.400001525879</ele>
        <time>2021-11-18T10:55:42.000Z</time>
      </trkpt>
      <trkpt lat="47.28521" lon="-2.36501">
        <ele>48.799999237061</ele>
        <time>2021-11-18T10:55:43.000Z</time>
      </trkpt>
      <trkpt lat="47.28522" lon="-2.36497">
        <ele>48.799999237061</ele>
        <time>2021-11-18T10:55:44.000Z</time>
      </trkpt>
      <trkpt lat="47.28522" lon="-2.36493">
        <ele>48.799999237061</ele>
        <time>2021-11-18T10:55:45.000Z</time>
      </trkpt>
      <trkpt lat="47.2852" lon="-2.36484">
        <ele>49.200000762939</ele>
        <time>2021-11-18T10:55:47.000Z</time>
      </trkpt>
      <trkpt lat="47.2852" lon="-2.36478">
        <ele>49.599998474121</ele>
        <time>2021-11-18T10:55:48.000Z</time>
      </trkpt>
      <trkpt lat="47.28519" lon="-2.36472">
        <ele>50</ele>
        <time>2021-11-18T10:55:49.000Z</time>
      </trkpt>
      <trkpt lat="47.28518" lon="-2.36467">
        <ele>50.400001525879</ele>
        <time>2021-11-18T10:55:50.000Z</time>
      </trkpt>
      <trkpt lat="47.28516" lon="-2.36462">
        <ele>50.799999237061</ele>
        <time>2021-11-18T10:55:51.000Z</time>
      </trkpt>
      <trkpt lat="47.28503" lon="-2.36444">
        <ele>50.799999237061</ele>
        <time>2021-11-18T10:55:55.000Z</time>
      </trkpt>
      <trkpt lat="47.28483" lon="-2.36428">
        <ele>50.799999237061</ele>
        <time>2021-11-18T10:56:00.000Z</time>
      </trkpt>
      <trkpt lat="47.28467" lon="-2.36411">
        <ele>51.200000762939</ele>
        <time>2021-11-18T10:56:06.000Z</time>
      </trkpt>
      <trkpt lat="47.28464" lon="-2.36408">
        <ele>51.799999237061</ele>
        <time>2021-11-18T10:56:07.000Z</time>
      </trkpt>
      <trkpt lat="47.28461" lon="-2.36406">
        <ele>52.200000762939</ele>
        <time>2021-11-18T10:56:08.000Z</time>
      </trkpt>
      <trkpt lat="47.28457" lon="-2.36403">
        <ele>53</ele>
        <time>2021-11-18T10:56:09.000Z</time>
      </trkpt>
      <trkpt lat="47.28452" lon="-2.364">
        <ele>53</ele>
        <time>2021-11-18T10:56:10.000Z</time>
      </trkpt>
      <trkpt lat="47.28447" lon="-2.36396">
        <ele>52.599998474121</ele>
        <time>2021-11-18T10:56:11.000Z</time>
      </trkpt>
      <trkpt lat="47.28442" lon="-2.36392">
        <ele>52.200000762939</ele>
        <time>2021-11-18T10:56:12.000Z</time>
      </trkpt>
      <trkpt lat="47.28437" lon="-2.36389">
        <ele>51.799999237061</ele>
        <time>2021-11-18T10:56:13.000Z</time>
      </trkpt>
      <trkpt lat="47.28433" lon="-2.36386">
        <ele>51.200000762939</ele>
        <time>2021-11-18T10:56:14.000Z</time>
      </trkpt>
      <trkpt lat="47.28428" lon="-2.36383">
        <ele>50.799999237061</ele>
        <time>2021-11-18T10:56:15.000Z</time>
      </trkpt>
      <trkpt lat="47.28424" lon="-2.3638">
        <ele>50.799999237061</ele>
        <time>2021-11-18T10:56:16.000Z</time>
      </trkpt>
      <trkpt lat="47.28411" lon="-2.36361">
        <ele>50.799999237061</ele>
        <time>2021-11-18T10:56:20.000Z</time>
      </trkpt>
      <trkpt lat="47.28407" lon="-2.36357">
        <ele>50.799999237061</ele>
        <time>2021-11-18T10:56:21.000Z</time>
      </trkpt>
      <trkpt lat="47.28394" lon="-2.36344">
        <ele>50.799999237061</ele>
        <time>2021-11-18T10:56:24.000Z</time>
      </trkpt>
      <trkpt lat="47.2839" lon="-2.3634">
        <ele>50.400001525879</ele>
        <time>2021-11-18T10:56:25.000Z</time>
      </trkpt>
      <trkpt lat="47.28385" lon="-2.36336">
        <ele>50</ele>
        <time>2021-11-18T10:56:26.000Z</time>
      </trkpt>
      <trkpt lat="47.2838" lon="-2.36333">
        <ele>49.599998474121</ele>
        <time>2021-11-18T10:56:27.000Z</time>
      </trkpt>
      <trkpt lat="47.28376" lon="-2.3633">
        <ele>49.200000762939</ele>
        <time>2021-11-18T10:56:28.000Z</time>
      </trkpt>
      <trkpt lat="47.28372" lon="-2.36328">
        <ele>48.799999237061</ele>
        <time>2021-11-18T10:56:29.000Z</time>
      </trkpt>
      <trkpt lat="47.28364" lon="-2.36313">
        <ele>48.799999237061</ele>
        <time>2021-11-18T10:56:32.000Z</time>
      </trkpt>
      <trkpt lat="47.28363" lon="-2.36304">
        <ele>48.400001525879</ele>
        <time>2021-11-18T10:56:34.000Z</time>
      </trkpt>
      <trkpt lat="47.28364" lon="-2.36299">
        <ele>48</ele>
        <time>2021-11-18T10:56:35.000Z</time>
      </trkpt>
      <trkpt lat="47.28364" lon="-2.36293">
        <ele>47.400001525879</ele>
        <time>2021-11-18T10:56:36.000Z</time>
      </trkpt>
      <trkpt lat="47.28365" lon="-2.36288">
        <ele>47</ele>
        <time>2021-11-18T10:56:37.000Z</time>
      </trkpt>
      <trkpt lat="47.28367" lon="-2.36282">
        <ele>46.599998474121</ele>
        <time>2021-11-18T10:56:38.000Z</time>
      </trkpt>
      <trkpt lat="47.28371" lon="-2.36272">
        <ele>46.599998474121</ele>
        <time>2021-11-18T10:56:40.000Z</time>
      </trkpt>
      <trkpt lat="47.28382" lon="-2.36256">
        <ele>47</ele>
        <time>2021-11-18T10:56:45.000Z</time>
      </trkpt>
      <trkpt lat="47.28385" lon="-2.36253">
        <ele>47.400001525879</ele>
        <time>2021-11-18T10:56:46.000Z</time>
      </trkpt>
      <trkpt lat="47.28388" lon="-2.36249">
        <ele>48</ele>
        <time>2021-11-18T10:56:47.000Z</time>
      </trkpt>
      <trkpt lat="47.2839" lon="-2.36245">
        <ele>48.400001525879</ele>
        <time>2021-11-18T10:56:48.000Z</time>
      </trkpt>
      <trkpt lat="47.28393" lon="-2.36242">
        <ele>49</ele>
        <time>2021-11-18T10:56:49.000Z</time>
      </trkpt>
      <trkpt lat="47.28398" lon="-2.36236">
        <ele>49</ele>
        <time>2021-11-18T10:56:51.000Z</time>
      </trkpt>
      <trkpt lat="47.284" lon="-2.36234">
        <ele>49.400001525879</ele>
        <time>2021-11-18T10:56:52.000Z</time>
      </trkpt>
      <trkpt lat="47.28402" lon="-2.36232">
        <ele>49.799999237061</ele>
        <time>2021-11-18T10:56:53.000Z</time>
      </trkpt>
      <trkpt lat="47.28405" lon="-2.36229">
        <ele>50.200000762939</ele>
        <time>2021-11-18T10:56:54.000Z</time>
      </trkpt>
      <trkpt lat="47.28408" lon="-2.36227">
        <ele>50.599998474121</ele>
        <time>2021-11-18T10:56:55.000Z</time>
      </trkpt>
      <trkpt lat="47.28411" lon="-2.36226">
        <ele>51.200000762939</ele>
        <time>2021-11-18T10:56:56.000Z</time>
      </trkpt>
      <trkpt lat="47.28415" lon="-2.36225">
        <ele>51.200000762939</ele>
        <time>2021-11-18T10:56:57.000Z</time>
      </trkpt>
      <trkpt lat="47.28426" lon="-2.36216">
        <ele>51.599998474121</ele>
        <time>2021-11-18T10:57:02.000Z</time>
      </trkpt>
      <trkpt lat="47.28428" lon="-2.36214">
        <ele>52</ele>
        <time>2021-11-18T10:57:03.000Z</time>
      </trkpt>
      <trkpt lat="47.28429" lon="-2.36212">
        <ele>52.400001525879</ele>
        <time>2021-11-18T10:57:04.000Z</time>
      </trkpt>
      <trkpt lat="47.2843" lon="-2.36211">
        <ele>52.799999237061</ele>
        <time>2021-11-18T10:57:05.000Z</time>
      </trkpt>
      <trkpt lat="47.28431" lon="-2.36211">
        <ele>53.200000762939</ele>
        <time>2021-11-18T10:57:06.000Z</time>
      </trkpt>
      <trkpt lat="47.28451" lon="-2.36194">
        <ele>53.200000762939</ele>
        <time>2021-11-18T10:57:31.000Z</time>
      </trkpt>
      <trkpt lat="47.28451" lon="-2.36191">
        <ele>53.200000762939</ele>
        <time>2021-11-18T10:57:32.000Z</time>
      </trkpt>
      <trkpt lat="47.28447" lon="-2.36179">
        <ele>53.200000762939</ele>
        <time>2021-11-18T10:57:36.000Z</time>
      </trkpt>
      <trkpt lat="47.28447" lon="-2.36176">
        <ele>53.599998474121</ele>
        <time>2021-11-18T10:57:37.000Z</time>
      </trkpt>
      <trkpt lat="47.28446" lon="-2.36172">
        <ele>54.200000762939</ele>
        <time>2021-11-18T10:57:38.000Z</time>
      </trkpt>
      <trkpt lat="47.28447" lon="-2.36167">
        <ele>54.599998474121</ele>
        <time>2021-11-18T10:57:39.000Z</time>
      </trkpt>
      <trkpt lat="47.28447" lon="-2.36163">
        <ele>55</ele>
        <time>2021-11-18T10:57:40.000Z</time>
      </trkpt>
      <trkpt lat="47.28447" lon="-2.36159">
        <ele>55.599998474121</ele>
        <time>2021-11-18T10:57:41.000Z</time>
      </trkpt>
      <trkpt lat="47.28447" lon="-2.36156">
        <ele>55.599998474121</ele>
        <time>2021-11-18T10:57:42.000Z</time>
      </trkpt>
      <trkpt lat="47.28446" lon="-2.36153">
        <ele>55.599998474121</ele>
        <time>2021-11-18T10:57:43.000Z</time>
      </trkpt>
      <trkpt lat="47.28444" lon="-2.3615">
        <ele>56</ele>
        <time>2021-11-18T10:57:44.000Z</time>
      </trkpt>
      <trkpt lat="47.28442" lon="-2.36147">
        <ele>56.400001525879</ele>
        <time>2021-11-18T10:57:45.000Z</time>
      </trkpt>
      <trkpt lat="47.28441" lon="-2.36144">
        <ele>56.799999237061</ele>
        <time>2021-11-18T10:57:46.000Z</time>
      </trkpt>
      <trkpt lat="47.28441" lon="-2.36139">
        <ele>57.200000762939</ele>
        <time>2021-11-18T10:57:47.000Z</time>
      </trkpt>
      <trkpt lat="47.28441" lon="-2.36135">
        <ele>57.599998474121</ele>
        <time>2021-11-18T10:57:48.000Z</time>
      </trkpt>
      <trkpt lat="47.28441" lon="-2.36131">
        <ele>57.599998474121</ele>
        <time>2021-11-18T10:57:49.000Z</time>
      </trkpt>
      <trkpt lat="47.2844" lon="-2.36127">
        <ele>57.599998474121</ele>
        <time>2021-11-18T10:57:50.000Z</time>
      </trkpt>
      <trkpt lat="47.28438" lon="-2.36114">
        <ele>58</ele>
        <time>2021-11-18T10:57:53.000Z</time>
      </trkpt>
      <trkpt lat="47.28438" lon="-2.36109">
        <ele>58.599998474121</ele>
        <time>2021-11-18T10:57:54.000Z</time>
      </trkpt>
      <trkpt lat="47.28437" lon="-2.36105">
        <ele>59</ele>
        <time>2021-11-18T10:57:55.000Z</time>
      </trkpt>
      <trkpt lat="47.28437" lon="-2.36101">
        <ele>59.400001525879</ele>
        <time>2021-11-18T10:57:56.000Z</time>
      </trkpt>
      <trkpt lat="47.28436" lon="-2.36097">
        <ele>59.799999237061</ele>
        <time>2021-11-18T10:57:57.000Z</time>
      </trkpt>
      <trkpt lat="47.28435" lon="-2.36088">
        <ele>59.799999237061</ele>
        <time>2021-11-18T10:57:59.000Z</time>
      </trkpt>
      <trkpt lat="47.28435" lon="-2.36078">
        <ele>59.799999237061</ele>
        <time>2021-11-18T10:58:01.000Z</time>
      </trkpt>
      <trkpt lat="47.28435" lon="-2.36074">
        <ele>60.200000762939</ele>
        <time>2021-11-18T10:58:02.000Z</time>
      </trkpt>
      <trkpt lat="47.28435" lon="-2.36071">
        <ele>60.599998474121</ele>
        <time>2021-11-18T10:58:03.000Z</time>
      </trkpt>
      <trkpt lat="47.28435" lon="-2.36067">
        <ele>61</ele>
        <time>2021-11-18T10:58:04.000Z</time>
      </trkpt>
      <trkpt lat="47.28435" lon="-2.36063">
        <ele>61.400001525879</ele>
        <time>2021-11-18T10:58:05.000Z</time>
      </trkpt>
      <trkpt lat="47.28435" lon="-2.36059">
        <ele>61.799999237061</ele>
        <time>2021-11-18T10:58:06.000Z</time>
      </trkpt>
      <trkpt lat="47.28437" lon="-2.36037">
        <ele>61.799999237061</ele>
        <time>2021-11-18T10:58:12.000Z</time>
      </trkpt>
      <trkpt lat="47.28437" lon="-2.36031">
        <ele>62.200000762939</ele>
        <time>2021-11-18T10:58:14.000Z</time>
      </trkpt>
      <trkpt lat="47.28437" lon="-2.36029">
        <ele>62.599998474121</ele>
        <time>2021-11-18T10:58:15.000Z</time>
      </trkpt>
      <trkpt lat="47.28438" lon="-2.36027">
        <ele>63</ele>
        <time>2021-11-18T10:58:16.000Z</time>
      </trkpt>
      <trkpt lat="47.28438" lon="-2.36024">
        <ele>63.400001525879</ele>
        <time>2021-11-18T10:58:17.000Z</time>
      </trkpt>
      <trkpt lat="47.28439" lon="-2.36022">
        <ele>63.799999237061</ele>
        <time>2021-11-18T10:58:18.000Z</time>
      </trkpt>
      <trkpt lat="47.28441" lon="-2.36016">
        <ele>63.799999237061</ele>
        <time>2021-11-18T10:58:23.000Z</time>
      </trkpt>
      <trkpt lat="47.28447" lon="-2.36002">
        <ele>63.799999237061</ele>
        <time>2021-11-18T10:58:28.000Z</time>
      </trkpt>
      <trkpt lat="47.28447" lon="-2.35996">
        <ele>63.799999237061</ele>
        <time>2021-11-18T10:58:29.000Z</time>
      </trkpt>
      <trkpt lat="47.28444" lon="-2.35989">
        <ele>63.799999237061</ele>
        <time>2021-11-18T10:58:31.000Z</time>
      </trkpt>
      <trkpt lat="47.28438" lon="-2.35988">
        <ele>63.799999237061</ele>
        <time>2021-11-18T10:58:34.000Z</time>
      </trkpt>
      <trkpt lat="47.28428" lon="-2.35996">
        <ele>63.799999237061</ele>
        <time>2021-11-18T10:58:38.000Z</time>
      </trkpt>
      <trkpt lat="47.28424" lon="-2.36001">
        <ele>63.799999237061</ele>
        <time>2021-11-18T10:58:39.000Z</time>
      </trkpt>
      <trkpt lat="47.284" lon="-2.36021">
        <ele>63.799999237061</ele>
        <time>2021-11-18T10:58:45.000Z</time>
      </trkpt>
      <trkpt lat="47.2839" lon="-2.36023">
        <ele>63.799999237061</ele>
        <time>2021-11-18T10:58:47.000Z</time>
      </trkpt>
      <trkpt lat="47.28383" lon="-2.36022">
        <ele>63.400001525879</ele>
        <time>2021-11-18T10:58:48.000Z</time>
      </trkpt>
      <trkpt lat="47.28376" lon="-2.36022">
        <ele>63</ele>
        <time>2021-11-18T10:58:49.000Z</time>
      </trkpt>
      <trkpt lat="47.28369" lon="-2.36022">
        <ele>62.599998474121</ele>
        <time>2021-11-18T10:58:50.000Z</time>
      </trkpt>
      <trkpt lat="47.28361" lon="-2.36025">
        <ele>61.799999237061</ele>
        <time>2021-11-18T10:58:51.000Z</time>
      </trkpt>
      <trkpt lat="47.28354" lon="-2.36028">
        <ele>61.200000762939</ele>
        <time>2021-11-18T10:58:52.000Z</time>
      </trkpt>
      <trkpt lat="47.28346" lon="-2.36033">
        <ele>60.599998474121</ele>
        <time>2021-11-18T10:58:53.000Z</time>
      </trkpt>
      <trkpt lat="47.2834" lon="-2.36038">
        <ele>59.799999237061</ele>
        <time>2021-11-18T10:58:54.000Z</time>
      </trkpt>
      <trkpt lat="47.28333" lon="-2.36043">
        <ele>59</ele>
        <time>2021-11-18T10:58:55.000Z</time>
      </trkpt>
      <trkpt lat="47.28328" lon="-2.36049">
        <ele>58.200000762939</ele>
        <time>2021-11-18T10:58:56.000Z</time>
      </trkpt>
      <trkpt lat="47.28323" lon="-2.36053">
        <ele>57.400001525879</ele>
        <time>2021-11-18T10:58:57.000Z</time>
      </trkpt>
      <trkpt lat="47.28319" lon="-2.36055">
        <ele>56.599998474121</ele>
        <time>2021-11-18T10:58:59.000Z</time>
      </trkpt>
      <trkpt lat="47.28315" lon="-2.36057">
        <ele>56.599998474121</ele>
        <time>2021-11-18T10:59:00.000Z</time>
      </trkpt>
      <trkpt lat="47.28307" lon="-2.36059">
        <ele>56.599998474121</ele>
        <time>2021-11-18T10:59:02.000Z</time>
      </trkpt>
      <trkpt lat="47.28302" lon="-2.36058">
        <ele>56.599998474121</ele>
        <time>2021-11-18T10:59:03.000Z</time>
      </trkpt>
      <trkpt lat="47.28298" lon="-2.36056">
        <ele>56.200000762939</ele>
        <time>2021-11-18T10:59:04.000Z</time>
      </trkpt>
      <trkpt lat="47.28294" lon="-2.36055">
        <ele>55.799999237061</ele>
        <time>2021-11-18T10:59:05.000Z</time>
      </trkpt>
      <trkpt lat="47.2829" lon="-2.36049">
        <ele>55.200000762939</ele>
        <time>2021-11-18T10:59:06.000Z</time>
      </trkpt>
      <trkpt lat="47.28286" lon="-2.36042">
        <ele>54.599998474121</ele>
        <time>2021-11-18T10:59:07.000Z</time>
      </trkpt>
      <trkpt lat="47.28283" lon="-2.36035">
        <ele>53.799999237061</ele>
        <time>2021-11-18T10:59:08.000Z</time>
      </trkpt>
      <trkpt lat="47.28281" lon="-2.36028">
        <ele>52.799999237061</ele>
        <time>2021-11-18T10:59:09.000Z</time>
      </trkpt>
      <trkpt lat="47.28281" lon="-2.36019">
        <ele>52</ele>
        <time>2021-11-18T10:59:10.000Z</time>
      </trkpt>
      <trkpt lat="47.28281" lon="-2.3601">
        <ele>51.200000762939</ele>
        <time>2021-11-18T10:59:11.000Z</time>
      </trkpt>
      <trkpt lat="47.28282" lon="-2.36002">
        <ele>50.400001525879</ele>
        <time>2021-11-18T10:59:12.000Z</time>
      </trkpt>
      <trkpt lat="47.28283" lon="-2.35994">
        <ele>49.599998474121</ele>
        <time>2021-11-18T10:59:13.000Z</time>
      </trkpt>
      <trkpt lat="47.28283" lon="-2.35986">
        <ele>48.799999237061</ele>
        <time>2021-11-18T10:59:14.000Z</time>
      </trkpt>
      <trkpt lat="47.28282" lon="-2.35979">
        <ele>47.799999237061</ele>
        <time>2021-11-18T10:59:15.000Z</time>
      </trkpt>
      <trkpt lat="47.2828" lon="-2.35973">
        <ele>47</ele>
        <time>2021-11-18T10:59:16.000Z</time>
      </trkpt>
      <trkpt lat="47.28273" lon="-2.35957">
        <ele>47</ele>
        <time>2021-11-18T10:59:19.000Z</time>
      </trkpt>
      <trkpt lat="47.28271" lon="-2.35952">
        <ele>47</ele>
        <time>2021-11-18T10:59:20.000Z</time>
      </trkpt>
      <trkpt lat="47.28262" lon="-2.35928">
        <ele>47.400001525879</ele>
        <time>2021-11-18T10:59:25.000Z</time>
      </trkpt>
      <trkpt lat="47.2826" lon="-2.35923">
        <ele>48</ele>
        <time>2021-11-18T10:59:26.000Z</time>
      </trkpt>
      <trkpt lat="47.28257" lon="-2.35919">
        <ele>48.799999237061</ele>
        <time>2021-11-18T10:59:27.000Z</time>
      </trkpt>
      <trkpt lat="47.28255" lon="-2.35915">
        <ele>49.200000762939</ele>
        <time>2021-11-18T10:59:28.000Z</time>
      </trkpt>
      <trkpt lat="47.2825" lon="-2.35914">
        <ele>49.200000762939</ele>
        <time>2021-11-18T10:59:29.000Z</time>
      </trkpt>
      <trkpt lat="47.28231" lon="-2.35912">
        <ele>49.200000762939</ele>
        <time>2021-11-18T10:59:33.000Z</time>
      </trkpt>
      <trkpt lat="47.2822" lon="-2.35908">
        <ele>49.200000762939</ele>
        <time>2021-11-18T10:59:35.000Z</time>
      </trkpt>
      <trkpt lat="47.28206" lon="-2.35902">
        <ele>49.200000762939</ele>
        <time>2021-11-18T10:59:38.000Z</time>
      </trkpt>
      <trkpt lat="47.28201" lon="-2.35902">
        <ele>48.799999237061</ele>
        <time>2021-11-18T10:59:39.000Z</time>
      </trkpt>
      <trkpt lat="47.28196" lon="-2.35901">
        <ele>48.400001525879</ele>
        <time>2021-11-18T10:59:40.000Z</time>
      </trkpt>
      <trkpt lat="47.28192" lon="-2.359">
        <ele>48</ele>
        <time>2021-11-18T10:59:41.000Z</time>
      </trkpt>
      <trkpt lat="47.28188" lon="-2.35899">
        <ele>47.599998474121</ele>
        <time>2021-11-18T10:59:42.000Z</time>
      </trkpt>
      <trkpt lat="47.28184" lon="-2.35895">
        <ele>47.200000762939</ele>
        <time>2021-11-18T10:59:43.000Z</time>
      </trkpt>
      <trkpt lat="47.28182" lon="-2.35889">
        <ele>47.200000762939</ele>
        <time>2021-11-18T10:59:44.000Z</time>
      </trkpt>
      <trkpt lat="47.28181" lon="-2.35871">
        <ele>47.200000762939</ele>
        <time>2021-11-18T10:59:48.000Z</time>
      </trkpt>
      <trkpt lat="47.28182" lon="-2.35866">
        <ele>47.200000762939</ele>
        <time>2021-11-18T10:59:49.000Z</time>
      </trkpt>
      <trkpt lat="47.28183" lon="-2.35853">
        <ele>47.200000762939</ele>
        <time>2021-11-18T10:59:52.000Z</time>
      </trkpt>
      <trkpt lat="47.28181" lon="-2.35845">
        <ele>47.200000762939</ele>
        <time>2021-11-18T10:59:54.000Z</time>
      </trkpt>
      <trkpt lat="47.28172" lon="-2.35839">
        <ele>47.200000762939</ele>
        <time>2021-11-18T10:59:58.000Z</time>
      </trkpt>
      <trkpt lat="47.28155" lon="-2.35829">
        <ele>47.200000762939</ele>
        <time>2021-11-18T11:00:03.000Z</time>
      </trkpt>
      <trkpt lat="47.28151" lon="-2.35822">
        <ele>47.200000762939</ele>
        <time>2021-11-18T11:00:05.000Z</time>
      </trkpt>
      <trkpt lat="47.28147" lon="-2.35806">
        <ele>47.200000762939</ele>
        <time>2021-11-18T11:00:08.000Z</time>
      </trkpt>
      <trkpt lat="47.2814" lon="-2.35786">
        <ele>47.200000762939</ele>
        <time>2021-11-18T11:00:11.000Z</time>
      </trkpt>
      <trkpt lat="47.28137" lon="-2.35782">
        <ele>47.200000762939</ele>
        <time>2021-11-18T11:00:12.000Z</time>
      </trkpt>
      <trkpt lat="47.28115" lon="-2.35773">
        <ele>47.200000762939</ele>
        <time>2021-11-18T11:00:16.000Z</time>
      </trkpt>
      <trkpt lat="47.28102" lon="-2.35779">
        <ele>47.200000762939</ele>
        <time>2021-11-18T11:00:19.000Z</time>
      </trkpt>
      <trkpt lat="47.28099" lon="-2.35784">
        <ele>47.200000762939</ele>
        <time>2021-11-18T11:00:20.000Z</time>
      </trkpt>
      <trkpt lat="47.28094" lon="-2.35793">
        <ele>46.799999237061</ele>
        <time>2021-11-18T11:00:22.000Z</time>
      </trkpt>
      <trkpt lat="47.28092" lon="-2.35797">
        <ele>46.400001525879</ele>
        <time>2021-11-18T11:00:23.000Z</time>
      </trkpt>
      <trkpt lat="47.2809" lon="-2.35802">
        <ele>46</ele>
        <time>2021-11-18T11:00:24.000Z</time>
      </trkpt>
      <trkpt lat="47.28088" lon="-2.35806">
        <ele>45.599998474121</ele>
        <time>2021-11-18T11:00:25.000Z</time>
      </trkpt>
      <trkpt lat="47.28085" lon="-2.3581">
        <ele>45.200000762939</ele>
        <time>2021-11-18T11:00:26.000Z</time>
      </trkpt>
      <trkpt lat="47.28079" lon="-2.35809">
        <ele>45.200000762939</ele>
        <time>2021-11-18T11:00:28.000Z</time>
      </trkpt>
      <trkpt lat="47.28078" lon="-2.35798">
        <ele>45.599998474121</ele>
        <time>2021-11-18T11:00:31.000Z</time>
      </trkpt>
      <trkpt lat="47.28079" lon="-2.35792">
        <ele>46</ele>
        <time>2021-11-18T11:00:32.000Z</time>
      </trkpt>
      <trkpt lat="47.2808" lon="-2.35785">
        <ele>46.400001525879</ele>
        <time>2021-11-18T11:00:33.000Z</time>
      </trkpt>
      <trkpt lat="47.28081" lon="-2.35779">
        <ele>46.799999237061</ele>
        <time>2021-11-18T11:00:34.000Z</time>
      </trkpt>
      <trkpt lat="47.28082" lon="-2.35773">
        <ele>47.200000762939</ele>
        <time>2021-11-18T11:00:35.000Z</time>
      </trkpt>
      <trkpt lat="47.28085" lon="-2.35749">
        <ele>47.599998474121</ele>
        <time>2021-11-18T11:00:39.000Z</time>
      </trkpt>
      <trkpt lat="47.28085" lon="-2.35744">
        <ele>48</ele>
        <time>2021-11-18T11:00:40.000Z</time>
      </trkpt>
      <trkpt lat="47.28085" lon="-2.35739">
        <ele>48.799999237061</ele>
        <time>2021-11-18T11:00:41.000Z</time>
      </trkpt>
      <trkpt lat="47.28086" lon="-2.35734">
        <ele>49.200000762939</ele>
        <time>2021-11-18T11:00:42.000Z</time>
      </trkpt>
      <trkpt lat="47.28088" lon="-2.35724">
        <ele>49.200000762939</ele>
        <time>2021-11-18T11:00:44.000Z</time>
      </trkpt>
      <trkpt lat="47.28089" lon="-2.35719">
        <ele>49.799999237061</ele>
        <time>2021-11-18T11:00:45.000Z</time>
      </trkpt>
      <trkpt lat="47.28091" lon="-2.35714">
        <ele>50.200000762939</ele>
        <time>2021-11-18T11:00:46.000Z</time>
      </trkpt>
      <trkpt lat="47.28092" lon="-2.35708">
        <ele>50.599998474121</ele>
        <time>2021-11-18T11:00:47.000Z</time>
      </trkpt>
      <trkpt lat="47.28092" lon="-2.35702">
        <ele>51</ele>
        <time>2021-11-18T11:00:48.000Z</time>
      </trkpt>
      <trkpt lat="47.28092" lon="-2.35696">
        <ele>51.400001525879</ele>
        <time>2021-11-18T11:00:49.000Z</time>
      </trkpt>
      <trkpt lat="47.28088" lon="-2.35673">
        <ele>51.400001525879</ele>
        <time>2021-11-18T11:00:53.000Z</time>
      </trkpt>
      <trkpt lat="47.28086" lon="-2.35667">
        <ele>51.400001525879</ele>
        <time>2021-11-18T11:00:54.000Z</time>
      </trkpt>
      <trkpt lat="47.2808" lon="-2.35648">
        <ele>50.799999237061</ele>
        <time>2021-11-18T11:00:57.000Z</time>
      </trkpt>
      <trkpt lat="47.28078" lon="-2.3564">
        <ele>50.400001525879</ele>
        <time>2021-11-18T11:00:58.000Z</time>
      </trkpt>
      <trkpt lat="47.28076" lon="-2.35631">
        <ele>49.799999237061</ele>
        <time>2021-11-18T11:00:59.000Z</time>
      </trkpt>
      <trkpt lat="47.28076" lon="-2.35624">
        <ele>49.200000762939</ele>
        <time>2021-11-18T11:01:00.000Z</time>
      </trkpt>
      <trkpt lat="47.28077" lon="-2.35619">
        <ele>48.400001525879</ele>
        <time>2021-11-18T11:01:01.000Z</time>
      </trkpt>
      <trkpt lat="47.28079" lon="-2.35615">
        <ele>47.799999237061</ele>
        <time>2021-11-18T11:01:02.000Z</time>
      </trkpt>
      <trkpt lat="47.28081" lon="-2.35614">
        <ele>47.200000762939</ele>
        <time>2021-11-18T11:01:03.000Z</time>
      </trkpt>
      <trkpt lat="47.28083" lon="-2.35616">
        <ele>46.400001525879</ele>
        <time>2021-11-18T11:01:04.000Z</time>
      </trkpt>
      <trkpt lat="47.28085" lon="-2.35618">
        <ele>46.400001525879</ele>
        <time>2021-11-18T11:01:06.000Z</time>
      </trkpt>
      <trkpt lat="47.28086" lon="-2.3562">
        <ele>46.400001525879</ele>
        <time>2021-11-18T11:01:07.000Z</time>
      </trkpt>
      <trkpt lat="47.28086" lon="-2.35621">
        <ele>46.400001525879</ele>
        <time>2021-11-18T11:01:10.000Z</time>
      </trkpt>
      <trkpt lat="47.28078" lon="-2.35603">
        <ele>46.400001525879</ele>
        <time>2021-11-18T11:15:22.000Z</time>
      </trkpt>
      <trkpt lat="47.28076" lon="-2.35601">
        <ele>46.400001525879</ele>
        <time>2021-11-18T11:15:23.000Z</time>
      </trkpt>
      <trkpt lat="47.28071" lon="-2.35593">
        <ele>46.400001525879</ele>
        <time>2021-11-18T11:15:26.000Z</time>
      </trkpt>
      <trkpt lat="47.28067" lon="-2.35587">
        <ele>46.400001525879</ele>
        <time>2021-11-18T11:15:29.000Z</time>
      </trkpt>
      <trkpt lat="47.28066" lon="-2.35583">
        <ele>46.400001525879</ele>
        <time>2021-11-18T11:15:31.000Z</time>
      </trkpt>
      <trkpt lat="47.28066" lon="-2.35578">
        <ele>46.400001525879</ele>
        <time>2021-11-18T11:15:33.000Z</time>
      </trkpt>
      <trkpt lat="47.28076" lon="-2.35564">
        <ele>46.400001525879</ele>
        <time>2021-11-18T11:15:38.000Z</time>
      </trkpt>
      <trkpt lat="47.2809" lon="-2.35559">
        <ele>46.400001525879</ele>
        <time>2021-11-18T11:15:42.000Z</time>
      </trkpt>
      <trkpt lat="47.28113" lon="-2.35558">
        <ele>46.400001525879</ele>
        <time>2021-11-18T11:15:49.000Z</time>
      </trkpt>
      <trkpt lat="47.28126" lon="-2.35555">
        <ele>46.400001525879</ele>
        <time>2021-11-18T11:15:55.000Z</time>
      </trkpt>
      <trkpt lat="47.28128" lon="-2.35552">
        <ele>46.400001525879</ele>
        <time>2021-11-18T11:15:56.000Z</time>
      </trkpt>
      <trkpt lat="47.2814" lon="-2.35539">
        <ele>46.400001525879</ele>
        <time>2021-11-18T11:16:01.000Z</time>
      </trkpt>
      <trkpt lat="47.28152" lon="-2.35519">
        <ele>46.400001525879</ele>
        <time>2021-11-18T11:16:07.000Z</time>
      </trkpt>
      <trkpt lat="47.28165" lon="-2.35495">
        <ele>46.400001525879</ele>
        <time>2021-11-18T11:16:13.000Z</time>
      </trkpt>
      <trkpt lat="47.28187" lon="-2.35458">
        <ele>46.400001525879</ele>
        <time>2021-11-18T11:16:21.000Z</time>
      </trkpt>
      <trkpt lat="47.2821" lon="-2.35431">
        <ele>46.400001525879</ele>
        <time>2021-11-18T11:16:27.000Z</time>
      </trkpt>
      <trkpt lat="47.28234" lon="-2.35402">
        <ele>46.400001525879</ele>
        <time>2021-11-18T11:16:34.000Z</time>
      </trkpt>
      <trkpt lat="47.28242" lon="-2.35393">
        <ele>46.400001525879</ele>
        <time>2021-11-18T11:16:36.000Z</time>
      </trkpt>
      <trkpt lat="47.2825" lon="-2.35377">
        <ele>46.400001525879</ele>
        <time>2021-11-18T11:16:39.000Z</time>
      </trkpt>
      <trkpt lat="47.28252" lon="-2.35371">
        <ele>46.400001525879</ele>
        <time>2021-11-18T11:16:40.000Z</time>
      </trkpt>
      <trkpt lat="47.28255" lon="-2.35337">
        <ele>46.400001525879</ele>
        <time>2021-11-18T11:16:45.000Z</time>
      </trkpt>
      <trkpt lat="47.28254" lon="-2.35331">
        <ele>46.400001525879</ele>
        <time>2021-11-18T11:16:46.000Z</time>
      </trkpt>
      <trkpt lat="47.28249" lon="-2.35298">
        <ele>46.400001525879</ele>
        <time>2021-11-18T11:16:51.000Z</time>
      </trkpt>
      <trkpt lat="47.28245" lon="-2.3528">
        <ele>46.400001525879</ele>
        <time>2021-11-18T11:16:54.000Z</time>
      </trkpt>
      <trkpt lat="47.28243" lon="-2.35274">
        <ele>46.799999237061</ele>
        <time>2021-11-18T11:16:55.000Z</time>
      </trkpt>
      <trkpt lat="47.28241" lon="-2.35268">
        <ele>47.200000762939</ele>
        <time>2021-11-18T11:16:56.000Z</time>
      </trkpt>
      <trkpt lat="47.28238" lon="-2.35262">
        <ele>47.599998474121</ele>
        <time>2021-11-18T11:16:57.000Z</time>
      </trkpt>
      <trkpt lat="47.28236" lon="-2.35257">
        <ele>48.200000762939</ele>
        <time>2021-11-18T11:16:58.000Z</time>
      </trkpt>
      <trkpt lat="47.28233" lon="-2.35251">
        <ele>48.599998474121</ele>
        <time>2021-11-18T11:16:59.000Z</time>
      </trkpt>
      <trkpt lat="47.28214" lon="-2.35212">
        <ele>48.599998474121</ele>
        <time>2021-11-18T11:17:06.000Z</time>
      </trkpt>
      <trkpt lat="47.28194" lon="-2.35176">
        <ele>48.599998474121</ele>
        <time>2021-11-18T11:17:13.000Z</time>
      </trkpt>
      <trkpt lat="47.28191" lon="-2.35172">
        <ele>48.599998474121</ele>
        <time>2021-11-18T11:17:14.000Z</time>
      </trkpt>
      <trkpt lat="47.28188" lon="-2.35167">
        <ele>48.599998474121</ele>
        <time>2021-11-18T11:17:15.000Z</time>
      </trkpt>
      <trkpt lat="47.28172" lon="-2.35136">
        <ele>48.599998474121</ele>
        <time>2021-11-18T11:17:21.000Z</time>
      </trkpt>
      <trkpt lat="47.2817" lon="-2.35131">
        <ele>48.599998474121</ele>
        <time>2021-11-18T11:17:22.000Z</time>
      </trkpt>
      <trkpt lat="47.28171" lon="-2.35115">
        <ele>48.599998474121</ele>
        <time>2021-11-18T11:17:25.000Z</time>
      </trkpt>
      <trkpt lat="47.28177" lon="-2.35107">
        <ele>48.599998474121</ele>
        <time>2021-11-18T11:17:27.000Z</time>
      </trkpt>
      <trkpt lat="47.28192" lon="-2.35092">
        <ele>48.599998474121</ele>
        <time>2021-11-18T11:17:31.000Z</time>
      </trkpt>
      <trkpt lat="47.28212" lon="-2.35072">
        <ele>48.599998474121</ele>
        <time>2021-11-18T11:17:37.000Z</time>
      </trkpt>
      <trkpt lat="47.28224" lon="-2.35059">
        <ele>48.599998474121</ele>
        <time>2021-11-18T11:17:43.000Z</time>
      </trkpt>
      <trkpt lat="47.28227" lon="-2.35056">
        <ele>48.599998474121</ele>
        <time>2021-11-18T11:17:46.000Z</time>
      </trkpt>
      <trkpt lat="47.28241" lon="-2.35035">
        <ele>48.599998474121</ele>
        <time>2021-11-18T11:19:46.000Z</time>
      </trkpt>
      <trkpt lat="47.28241" lon="-2.35034">
        <ele>48.599998474121</ele>
        <time>2021-11-18T11:19:47.000Z</time>
      </trkpt>
      <trkpt lat="47.2824" lon="-2.3502">
        <ele>48.599998474121</ele>
        <time>2021-11-18T11:19:55.000Z</time>
      </trkpt>
      <trkpt lat="47.28234" lon="-2.3501">
        <ele>48.599998474121</ele>
        <time>2021-11-18T11:20:04.000Z</time>
      </trkpt>
      <trkpt lat="47.2823" lon="-2.35004">
        <ele>48.599998474121</ele>
        <time>2021-11-18T11:20:11.000Z</time>
      </trkpt>
      <trkpt lat="47.28226" lon="-2.35">
        <ele>48.599998474121</ele>
        <time>2021-11-18T11:20:16.000Z</time>
      </trkpt>
      <trkpt lat="47.28225" lon="-2.34994">
        <ele>48.599998474121</ele>
        <time>2021-11-18T11:20:55.000Z</time>
      </trkpt>
      <trkpt lat="47.28219" lon="-2.34976">
        <ele>48.599998474121</ele>
        <time>2021-11-18T11:21:01.000Z</time>
      </trkpt>
      <trkpt lat="47.28217" lon="-2.34969">
        <ele>48.599998474121</ele>
        <time>2021-11-18T11:21:03.000Z</time>
      </trkpt>
      <trkpt lat="47.28208" lon="-2.34948">
        <ele>48.599998474121</ele>
        <time>2021-11-18T11:21:09.000Z</time>
      </trkpt>
      <trkpt lat="47.28197" lon="-2.34905">
        <ele>48.599998474121</ele>
        <time>2021-11-18T11:21:18.000Z</time>
      </trkpt>
      <trkpt lat="47.28184" lon="-2.34856">
        <ele>48.599998474121</ele>
        <time>2021-11-18T11:21:27.000Z</time>
      </trkpt>
      <trkpt lat="47.28178" lon="-2.34818">
        <ele>48.599998474121</ele>
        <time>2021-11-18T11:21:34.000Z</time>
      </trkpt>
      <trkpt lat="47.28178" lon="-2.34789">
        <ele>48.599998474121</ele>
        <time>2021-11-18T11:21:39.000Z</time>
      </trkpt>
      <trkpt lat="47.28174" lon="-2.3478">
        <ele>48.599998474121</ele>
        <time>2021-11-18T11:21:41.000Z</time>
      </trkpt>
      <trkpt lat="47.2817" lon="-2.34777">
        <ele>48.599998474121</ele>
        <time>2021-11-18T11:21:42.000Z</time>
      </trkpt>
      <trkpt lat="47.28163" lon="-2.34771">
        <ele>48.599998474121</ele>
        <time>2021-11-18T11:21:44.000Z</time>
      </trkpt>
      <trkpt lat="47.28157" lon="-2.34754">
        <ele>48.599998474121</ele>
        <time>2021-11-18T11:21:47.000Z</time>
      </trkpt>
      <trkpt lat="47.28154" lon="-2.34742">
        <ele>48.599998474121</ele>
        <time>2021-11-18T11:21:49.000Z</time>
      </trkpt>
      <trkpt lat="47.28149" lon="-2.34717">
        <ele>48.599998474121</ele>
        <time>2021-11-18T11:21:53.000Z</time>
      </trkpt>
      <trkpt lat="47.28138" lon="-2.34689">
        <ele>48.599998474121</ele>
        <time>2021-11-18T11:21:58.000Z</time>
      </trkpt>
      <trkpt lat="47.28133" lon="-2.34679">
        <ele>48.599998474121</ele>
        <time>2021-11-18T11:22:00.000Z</time>
      </trkpt>
      <trkpt lat="47.28111" lon="-2.34627">
        <ele>48.599998474121</ele>
        <time>2021-11-18T11:22:10.000Z</time>
      </trkpt>
      <trkpt lat="47.28107" lon="-2.34616">
        <ele>49</ele>
        <time>2021-11-18T11:22:12.000Z</time>
      </trkpt>
      <trkpt lat="47.28105" lon="-2.34611">
        <ele>49.400001525879</ele>
        <time>2021-11-18T11:22:13.000Z</time>
      </trkpt>
      <trkpt lat="47.28104" lon="-2.34605">
        <ele>49.799999237061</ele>
        <time>2021-11-18T11:22:14.000Z</time>
      </trkpt>
      <trkpt lat="47.28104" lon="-2.34599">
        <ele>50.200000762939</ele>
        <time>2021-11-18T11:22:15.000Z</time>
      </trkpt>
      <trkpt lat="47.28104" lon="-2.34593">
        <ele>50.599998474121</ele>
        <time>2021-11-18T11:22:16.000Z</time>
      </trkpt>
      <trkpt lat="47.28108" lon="-2.34576">
        <ele>50.599998474121</ele>
        <time>2021-11-18T11:22:19.000Z</time>
      </trkpt>
      <trkpt lat="47.28122" lon="-2.34555">
        <ele>50.599998474121</ele>
        <time>2021-11-18T11:22:24.000Z</time>
      </trkpt>
      <trkpt lat="47.28129" lon="-2.3455">
        <ele>50.599998474121</ele>
        <time>2021-11-18T11:22:26.000Z</time>
      </trkpt>
      <trkpt lat="47.2814" lon="-2.34539">
        <ele>50.599998474121</ele>
        <time>2021-11-18T11:22:29.000Z</time>
      </trkpt>
      <trkpt lat="47.28146" lon="-2.34517">
        <ele>50.599998474121</ele>
        <time>2021-11-18T11:22:33.000Z</time>
      </trkpt>
      <trkpt lat="47.28143" lon="-2.34492">
        <ele>50.599998474121</ele>
        <time>2021-11-18T11:22:37.000Z</time>
      </trkpt>
      <trkpt lat="47.28141" lon="-2.34487">
        <ele>50.599998474121</ele>
        <time>2021-11-18T11:22:38.000Z</time>
      </trkpt>
      <trkpt lat="47.28137" lon="-2.34476">
        <ele>50.599998474121</ele>
        <time>2021-11-18T11:22:40.000Z</time>
      </trkpt>
      <trkpt lat="47.28129" lon="-2.34464">
        <ele>50.599998474121</ele>
        <time>2021-11-18T11:22:43.000Z</time>
      </trkpt>
      <trkpt lat="47.28127" lon="-2.3446">
        <ele>50.599998474121</ele>
        <time>2021-11-18T11:22:44.000Z</time>
      </trkpt>
      <trkpt lat="47.28113" lon="-2.3444">
        <ele>50.599998474121</ele>
        <time>2021-11-18T11:22:50.000Z</time>
      </trkpt>
      <trkpt lat="47.28093" lon="-2.34414">
        <ele>50.599998474121</ele>
        <time>2021-11-18T11:22:57.000Z</time>
      </trkpt>
      <trkpt lat="47.28073" lon="-2.34384">
        <ele>50.599998474121</ele>
        <time>2021-11-18T11:23:04.000Z</time>
      </trkpt>
      <trkpt lat="47.28071" lon="-2.34379">
        <ele>50.599998474121</ele>
        <time>2021-11-18T11:23:05.000Z</time>
      </trkpt>
      <trkpt lat="47.28062" lon="-2.34356">
        <ele>50.599998474121</ele>
        <time>2021-11-18T11:23:09.000Z</time>
      </trkpt>
      <trkpt lat="47.28055" lon="-2.34349">
        <ele>50.599998474121</ele>
        <time>2021-11-18T11:23:11.000Z</time>
      </trkpt>
      <trkpt lat="47.28052" lon="-2.34341">
        <ele>50.599998474121</ele>
        <time>2021-11-18T11:23:13.000Z</time>
      </trkpt>
      <trkpt lat="47.28051" lon="-2.34336">
        <ele>50.599998474121</ele>
        <time>2021-11-18T11:23:14.000Z</time>
      </trkpt>
      <trkpt lat="47.28053" lon="-2.3432">
        <ele>50.599998474121</ele>
        <time>2021-11-18T11:23:17.000Z</time>
      </trkpt>
      <trkpt lat="47.28054" lon="-2.34308">
        <ele>50.599998474121</ele>
        <time>2021-11-18T11:23:19.000Z</time>
      </trkpt>
      <trkpt lat="47.28053" lon="-2.34303">
        <ele>50.599998474121</ele>
        <time>2021-11-18T11:23:20.000Z</time>
      </trkpt>
      <trkpt lat="47.28048" lon="-2.34296">
        <ele>50.599998474121</ele>
        <time>2021-11-18T11:23:22.000Z</time>
      </trkpt>
      <trkpt lat="47.2804" lon="-2.34292">
        <ele>50.599998474121</ele>
        <time>2021-11-18T11:23:24.000Z</time>
      </trkpt>
      <trkpt lat="47.28032" lon="-2.34288">
        <ele>50.599998474121</ele>
        <time>2021-11-18T11:23:26.000Z</time>
      </trkpt>
      <trkpt lat="47.27997" lon="-2.34269">
        <ele>50.599998474121</ele>
        <time>2021-11-18T11:23:35.000Z</time>
      </trkpt>
      <trkpt lat="47.27964" lon="-2.34254">
        <ele>50.599998474121</ele>
        <time>2021-11-18T11:23:43.000Z</time>
      </trkpt>
      <trkpt lat="47.27951" lon="-2.34252">
        <ele>50.599998474121</ele>
        <time>2021-11-18T11:23:46.000Z</time>
      </trkpt>
      <trkpt lat="47.27939" lon="-2.34255">
        <ele>50.599998474121</ele>
        <time>2021-11-18T11:23:49.000Z</time>
      </trkpt>
      <trkpt lat="47.27909" lon="-2.34265">
        <ele>50.599998474121</ele>
        <time>2021-11-18T11:23:57.000Z</time>
      </trkpt>
      <trkpt lat="47.279" lon="-2.34273">
        <ele>50.599998474121</ele>
        <time>2021-11-18T11:24:01.000Z</time>
      </trkpt>
      <trkpt lat="47.27895" lon="-2.34284">
        <ele>50.599998474121</ele>
        <time>2021-11-18T11:24:06.000Z</time>
      </trkpt>
      <trkpt lat="47.27884" lon="-2.34306">
        <ele>50.599998474121</ele>
        <time>2021-11-18T11:24:10.000Z</time>
      </trkpt>
      <trkpt lat="47.27859" lon="-2.34345">
        <ele>50.599998474121</ele>
        <time>2021-11-18T11:24:17.000Z</time>
      </trkpt>
      <trkpt lat="47.27832" lon="-2.34384">
        <ele>50.599998474121</ele>
        <time>2021-11-18T11:24:25.000Z</time>
      </trkpt>
      <trkpt lat="47.27808" lon="-2.34417">
        <ele>50.599998474121</ele>
        <time>2021-11-18T11:24:32.000Z</time>
      </trkpt>
      <trkpt lat="47.27788" lon="-2.34451">
        <ele>50.599998474121</ele>
        <time>2021-11-18T11:24:39.000Z</time>
      </trkpt>
      <trkpt lat="47.27768" lon="-2.34478">
        <ele>50.599998474121</ele>
        <time>2021-11-18T11:24:44.000Z</time>
      </trkpt>
      <trkpt lat="47.27764" lon="-2.34482">
        <ele>50.599998474121</ele>
        <time>2021-11-18T11:24:45.000Z</time>
      </trkpt>
      <trkpt lat="47.27754" lon="-2.3449">
        <ele>50.200000762939</ele>
        <time>2021-11-18T11:24:47.000Z</time>
      </trkpt>
      <trkpt lat="47.2775" lon="-2.34494">
        <ele>49.799999237061</ele>
        <time>2021-11-18T11:24:48.000Z</time>
      </trkpt>
      <trkpt lat="47.27745" lon="-2.34497">
        <ele>49.400001525879</ele>
        <time>2021-11-18T11:24:49.000Z</time>
      </trkpt>
      <trkpt lat="47.2774" lon="-2.345">
        <ele>49</ele>
        <time>2021-11-18T11:24:50.000Z</time>
      </trkpt>
      <trkpt lat="47.27736" lon="-2.34504">
        <ele>48.599998474121</ele>
        <time>2021-11-18T11:24:51.000Z</time>
      </trkpt>
      <trkpt lat="47.27721" lon="-2.34514">
        <ele>48.599998474121</ele>
        <time>2021-11-18T11:24:54.000Z</time>
      </trkpt>
      <trkpt lat="47.27693" lon="-2.34542">
        <ele>48.599998474121</ele>
        <time>2021-11-18T11:25:01.000Z</time>
      </trkpt>
      <trkpt lat="47.27677" lon="-2.34556">
        <ele>48.599998474121</ele>
        <time>2021-11-18T11:25:05.000Z</time>
      </trkpt>
      <trkpt lat="47.27664" lon="-2.34567">
        <ele>48.599998474121</ele>
        <time>2021-11-18T11:25:08.000Z</time>
      </trkpt>
      <trkpt lat="47.27647" lon="-2.34584">
        <ele>48.599998474121</ele>
        <time>2021-11-18T11:25:12.000Z</time>
      </trkpt>
      <trkpt lat="47.27635" lon="-2.34596">
        <ele>48.599998474121</ele>
        <time>2021-11-18T11:25:15.000Z</time>
      </trkpt>
      <trkpt lat="47.27604" lon="-2.34624">
        <ele>48.599998474121</ele>
        <time>2021-11-18T11:25:22.000Z</time>
      </trkpt>
      <trkpt lat="47.27588" lon="-2.34642">
        <ele>48.599998474121</ele>
        <time>2021-11-18T11:25:26.000Z</time>
      </trkpt>
      <trkpt lat="47.27575" lon="-2.34653">
        <ele>48.599998474121</ele>
        <time>2021-11-18T11:25:29.000Z</time>
      </trkpt>
      <trkpt lat="47.27554" lon="-2.34669">
        <ele>48.599998474121</ele>
        <time>2021-11-18T11:25:34.000Z</time>
      </trkpt>
      <trkpt lat="47.27549" lon="-2.34671">
        <ele>48.599998474121</ele>
        <time>2021-11-18T11:25:35.000Z</time>
      </trkpt>
      <trkpt lat="47.27522" lon="-2.34676">
        <ele>48.599998474121</ele>
        <time>2021-11-18T11:25:41.000Z</time>
      </trkpt>
      <trkpt lat="47.27487" lon="-2.34679">
        <ele>48.599998474121</ele>
        <time>2021-11-18T11:25:49.000Z</time>
      </trkpt>
      <trkpt lat="47.27465" lon="-2.34692">
        <ele>48.599998474121</ele>
        <time>2021-11-18T11:25:55.000Z</time>
      </trkpt>
      <trkpt lat="47.27461" lon="-2.34691">
        <ele>48.599998474121</ele>
        <time>2021-11-18T11:25:56.000Z</time>
      </trkpt>
      <trkpt lat="47.27456" lon="-2.34687">
        <ele>48.599998474121</ele>
        <time>2021-11-18T11:25:58.000Z</time>
      </trkpt>
      <trkpt lat="47.27455" lon="-2.34672">
        <ele>48.599998474121</ele>
        <time>2021-11-18T11:26:01.000Z</time>
      </trkpt>
      <trkpt lat="47.27451" lon="-2.34624">
        <ele>48.599998474121</ele>
        <time>2021-11-18T11:26:08.000Z</time>
      </trkpt>
      <trkpt lat="47.27446" lon="-2.34569">
        <ele>48.599998474121</ele>
        <time>2021-11-18T11:26:16.000Z</time>
      </trkpt>
      <trkpt lat="47.27443" lon="-2.34555">
        <ele>48.599998474121</ele>
        <time>2021-11-18T11:26:18.000Z</time>
      </trkpt>
      <trkpt lat="47.27435" lon="-2.34528">
        <ele>48.599998474121</ele>
        <time>2021-11-18T11:26:22.000Z</time>
      </trkpt>
      <trkpt lat="47.27431" lon="-2.34515">
        <ele>48.599998474121</ele>
        <time>2021-11-18T11:26:24.000Z</time>
      </trkpt>
      <trkpt lat="47.27427" lon="-2.34494">
        <ele>48.599998474121</ele>
        <time>2021-11-18T11:26:27.000Z</time>
      </trkpt>
      <trkpt lat="47.27426" lon="-2.34487">
        <ele>48.599998474121</ele>
        <time>2021-11-18T11:26:28.000Z</time>
      </trkpt>
      <trkpt lat="47.27423" lon="-2.34442">
        <ele>48.599998474121</ele>
        <time>2021-11-18T11:26:34.000Z</time>
      </trkpt>
      <trkpt lat="47.27418" lon="-2.34389">
        <ele>48.599998474121</ele>
        <time>2021-11-18T11:26:41.000Z</time>
      </trkpt>
      <trkpt lat="47.27415" lon="-2.34361">
        <ele>48.599998474121</ele>
        <time>2021-11-18T11:26:45.000Z</time>
      </trkpt>
      <trkpt lat="47.27414" lon="-2.34345">
        <ele>48.599998474121</ele>
        <time>2021-11-18T11:26:47.000Z</time>
      </trkpt>
      <trkpt lat="47.27414" lon="-2.34338">
        <ele>48.599998474121</ele>
        <time>2021-11-18T11:26:48.000Z</time>
      </trkpt>
      <trkpt lat="47.27416" lon="-2.34307">
        <ele>48.200000762939</ele>
        <time>2021-11-18T11:26:52.000Z</time>
      </trkpt>
      <trkpt lat="47.27416" lon="-2.343">
        <ele>47.799999237061</ele>
        <time>2021-11-18T11:26:53.000Z</time>
      </trkpt>
      <trkpt lat="47.27416" lon="-2.34292">
        <ele>47.200000762939</ele>
        <time>2021-11-18T11:26:54.000Z</time>
      </trkpt>
      <trkpt lat="47.27416" lon="-2.34284">
        <ele>46.799999237061</ele>
        <time>2021-11-18T11:26:55.000Z</time>
      </trkpt>
      <trkpt lat="47.27415" lon="-2.34277">
        <ele>46.400001525879</ele>
        <time>2021-11-18T11:26:56.000Z</time>
      </trkpt>
      <trkpt lat="47.27415" lon="-2.34256">
        <ele>46.400001525879</ele>
        <time>2021-11-18T11:26:59.000Z</time>
      </trkpt>
      <trkpt lat="47.27412" lon="-2.34247">
        <ele>46.400001525879</ele>
        <time>2021-11-18T11:27:01.000Z</time>
      </trkpt>
      <trkpt lat="47.2741" lon="-2.34243">
        <ele>46.400001525879</ele>
        <time>2021-11-18T11:27:03.000Z</time>
      </trkpt>
      <trkpt lat="47.27408" lon="-2.34242">
        <ele>46.400001525879</ele>
        <time>2021-11-18T11:27:04.000Z</time>
      </trkpt>
      <trkpt lat="47.27406" lon="-2.34243">
        <ele>46.400001525879</ele>
        <time>2021-11-18T11:27:05.000Z</time>
      </trkpt>
      <trkpt lat="47.27402" lon="-2.34234">
        <ele>46.400001525879</ele>
        <time>2021-11-18T11:27:08.000Z</time>
      </trkpt>
      <trkpt lat="47.27402" lon="-2.34228">
        <ele>46.400001525879</ele>
        <time>2021-11-18T11:27:09.000Z</time>
      </trkpt>
      <trkpt lat="47.27396" lon="-2.34206">
        <ele>46.400001525879</ele>
        <time>2021-11-18T11:27:12.000Z</time>
      </trkpt>
      <trkpt lat="47.2738" lon="-2.34184">
        <ele>46.400001525879</ele>
        <time>2021-11-18T11:27:16.000Z</time>
      </trkpt>
      <trkpt lat="47.27376" lon="-2.3418">
        <ele>46.400001525879</ele>
        <time>2021-11-18T11:27:17.000Z</time>
      </trkpt>
      <trkpt lat="47.27351" lon="-2.34165">
        <ele>46.400001525879</ele>
        <time>2021-11-18T11:27:22.000Z</time>
      </trkpt>
      <trkpt lat="47.27313" lon="-2.34142">
        <ele>46.400001525879</ele>
        <time>2021-11-18T11:27:30.000Z</time>
      </trkpt>
      <trkpt lat="47.27289" lon="-2.34125">
        <ele>46.400001525879</ele>
        <time>2021-11-18T11:27:35.000Z</time>
      </trkpt>
      <trkpt lat="47.27285" lon="-2.34121">
        <ele>46.400001525879</ele>
        <time>2021-11-18T11:27:36.000Z</time>
      </trkpt>
      <trkpt lat="47.27278" lon="-2.34101">
        <ele>46.400001525879</ele>
        <time>2021-11-18T11:27:39.000Z</time>
      </trkpt>
      <trkpt lat="47.27276" lon="-2.34094">
        <ele>46.400001525879</ele>
        <time>2021-11-18T11:27:40.000Z</time>
      </trkpt>
      <trkpt lat="47.27269" lon="-2.34061">
        <ele>46.400001525879</ele>
        <time>2021-11-18T11:27:45.000Z</time>
      </trkpt>
      <trkpt lat="47.27257" lon="-2.3404">
        <ele>46.400001525879</ele>
        <time>2021-11-18T11:27:49.000Z</time>
      </trkpt>
      <trkpt lat="47.27254" lon="-2.34019">
        <ele>46.400001525879</ele>
        <time>2021-11-18T11:27:52.000Z</time>
      </trkpt>
      <trkpt lat="47.27253" lon="-2.34013">
        <ele>46.400001525879</ele>
        <time>2021-11-18T11:27:53.000Z</time>
      </trkpt>
      <trkpt lat="47.27242" lon="-2.33997">
        <ele>46.400001525879</ele>
        <time>2021-11-18T11:27:56.000Z</time>
      </trkpt>
      <trkpt lat="47.27208" lon="-2.33965">
        <ele>46.400001525879</ele>
        <time>2021-11-18T11:28:04.000Z</time>
      </trkpt>
      <trkpt lat="47.27185" lon="-2.33944">
        <ele>46.400001525879</ele>
        <time>2021-11-18T11:28:10.000Z</time>
      </trkpt>
      <trkpt lat="47.2718" lon="-2.33945">
        <ele>46.400001525879</ele>
        <time>2021-11-18T11:28:12.000Z</time>
      </trkpt>
      <trkpt lat="47.27177" lon="-2.33948">
        <ele>46.400001525879</ele>
        <time>2021-11-18T11:28:13.000Z</time>
      </trkpt>
      <trkpt lat="47.2716" lon="-2.33974">
        <ele>46.400001525879</ele>
        <time>2021-11-18T11:28:18.000Z</time>
      </trkpt>
      <trkpt lat="47.27151" lon="-2.33982">
        <ele>46.400001525879</ele>
        <time>2021-11-18T11:28:20.000Z</time>
      </trkpt>
      <trkpt lat="47.27146" lon="-2.33983">
        <ele>46</ele>
        <time>2021-11-18T11:28:21.000Z</time>
      </trkpt>
      <trkpt lat="47.27141" lon="-2.33983">
        <ele>45.599998474121</ele>
        <time>2021-11-18T11:28:22.000Z</time>
      </trkpt>
      <trkpt lat="47.27136" lon="-2.33979">
        <ele>45.200000762939</ele>
        <time>2021-11-18T11:28:23.000Z</time>
      </trkpt>
      <trkpt lat="47.27132" lon="-2.33974">
        <ele>44.799999237061</ele>
        <time>2021-11-18T11:28:24.000Z</time>
      </trkpt>
      <trkpt lat="47.27127" lon="-2.33969">
        <ele>44.400001525879</ele>
        <time>2021-11-18T11:28:25.000Z</time>
      </trkpt>
      <trkpt lat="47.27101" lon="-2.33947">
        <ele>44.400001525879</ele>
        <time>2021-11-18T11:28:30.000Z</time>
      </trkpt>
      <trkpt lat="47.27083" lon="-2.33932">
        <ele>44</ele>
        <time>2021-11-18T11:28:33.000Z</time>
      </trkpt>
      <trkpt lat="47.27077" lon="-2.33927">
        <ele>43.599998474121</ele>
        <time>2021-11-18T11:28:34.000Z</time>
      </trkpt>
      <trkpt lat="47.2707" lon="-2.33921">
        <ele>43.200000762939</ele>
        <time>2021-11-18T11:28:35.000Z</time>
      </trkpt>
      <trkpt lat="47.27063" lon="-2.33915">
        <ele>42.799999237061</ele>
        <time>2021-11-18T11:28:36.000Z</time>
      </trkpt>
      <trkpt lat="47.27057" lon="-2.33908">
        <ele>42.400001525879</ele>
        <time>2021-11-18T11:28:37.000Z</time>
      </trkpt>
      <trkpt lat="47.2705" lon="-2.33901">
        <ele>41.799999237061</ele>
        <time>2021-11-18T11:28:38.000Z</time>
      </trkpt>
      <trkpt lat="47.27043" lon="-2.33894">
        <ele>41.400001525879</ele>
        <time>2021-11-18T11:28:39.000Z</time>
      </trkpt>
      <trkpt lat="47.27037" lon="-2.33888">
        <ele>40.400001525879</ele>
        <time>2021-11-18T11:28:40.000Z</time>
      </trkpt>
      <trkpt lat="47.2703" lon="-2.33882">
        <ele>40</ele>
        <time>2021-11-18T11:28:41.000Z</time>
      </trkpt>
      <trkpt lat="47.27011" lon="-2.33866">
        <ele>39.400001525879</ele>
        <time>2021-11-18T11:28:44.000Z</time>
      </trkpt>
      <trkpt lat="47.27004" lon="-2.33862">
        <ele>39</ele>
        <time>2021-11-18T11:28:45.000Z</time>
      </trkpt>
      <trkpt lat="47.26997" lon="-2.33857">
        <ele>38.599998474121</ele>
        <time>2021-11-18T11:28:46.000Z</time>
      </trkpt>
      <trkpt lat="47.2699" lon="-2.33853">
        <ele>38</ele>
        <time>2021-11-18T11:28:47.000Z</time>
      </trkpt>
      <trkpt lat="47.26982" lon="-2.33848">
        <ele>37.599998474121</ele>
        <time>2021-11-18T11:28:48.000Z</time>
      </trkpt>
      <trkpt lat="47.26974" lon="-2.33843">
        <ele>37.200000762939</ele>
        <time>2021-11-18T11:28:49.000Z</time>
      </trkpt>
      <trkpt lat="47.26967" lon="-2.33838">
        <ele>36.599998474121</ele>
        <time>2021-11-18T11:28:50.000Z</time>
      </trkpt>
      <trkpt lat="47.26959" lon="-2.33833">
        <ele>36.200000762939</ele>
        <time>2021-11-18T11:28:51.000Z</time>
      </trkpt>
      <trkpt lat="47.26951" lon="-2.33828">
        <ele>35.599998474121</ele>
        <time>2021-11-18T11:28:52.000Z</time>
      </trkpt>
      <trkpt lat="47.26942" lon="-2.33823">
        <ele>35.200000762939</ele>
        <time>2021-11-18T11:28:53.000Z</time>
      </trkpt>
      <trkpt lat="47.26935" lon="-2.33818">
        <ele>34.799999237061</ele>
        <time>2021-11-18T11:28:54.000Z</time>
      </trkpt>
      <trkpt lat="47.2693" lon="-2.33812">
        <ele>34.400001525879</ele>
        <time>2021-11-18T11:28:55.000Z</time>
      </trkpt>
      <trkpt lat="47.26925" lon="-2.33804">
        <ele>33.799999237061</ele>
        <time>2021-11-18T11:28:56.000Z</time>
      </trkpt>
      <trkpt lat="47.26923" lon="-2.33795">
        <ele>33.400001525879</ele>
        <time>2021-11-18T11:28:57.000Z</time>
      </trkpt>
      <trkpt lat="47.26923" lon="-2.33786">
        <ele>33</ele>
        <time>2021-11-18T11:28:58.000Z</time>
      </trkpt>
      <trkpt lat="47.26926" lon="-2.33769">
        <ele>33</ele>
        <time>2021-11-18T11:29:00.000Z</time>
      </trkpt>
      <trkpt lat="47.26928" lon="-2.33761">
        <ele>33</ele>
        <time>2021-11-18T11:29:01.000Z</time>
      </trkpt>
      <trkpt lat="47.26936" lon="-2.33718">
        <ele>33</ele>
        <time>2021-11-18T11:29:06.000Z</time>
      </trkpt>
      <trkpt lat="47.26933" lon="-2.33684">
        <ele>33</ele>
        <time>2021-11-18T11:29:10.000Z</time>
      </trkpt>
      <trkpt lat="47.26918" lon="-2.33606">
        <ele>32.599998474121</ele>
        <time>2021-11-18T11:29:19.000Z</time>
      </trkpt>
      <trkpt lat="47.26915" lon="-2.33597">
        <ele>32.200000762939</ele>
        <time>2021-11-18T11:29:20.000Z</time>
      </trkpt>
      <trkpt lat="47.26912" lon="-2.33588">
        <ele>31.799999237061</ele>
        <time>2021-11-18T11:29:21.000Z</time>
      </trkpt>
      <trkpt lat="47.26909" lon="-2.3358">
        <ele>31.39999961853</ele>
        <time>2021-11-18T11:29:22.000Z</time>
      </trkpt>
      <trkpt lat="47.26905" lon="-2.33572">
        <ele>31</ele>
        <time>2021-11-18T11:29:23.000Z</time>
      </trkpt>
      <trkpt lat="47.26899" lon="-2.33556">
        <ele>31</ele>
        <time>2021-11-18T11:29:25.000Z</time>
      </trkpt>
      <trkpt lat="47.26882" lon="-2.33534">
        <ele>30.60000038147</ele>
        <time>2021-11-18T11:29:29.000Z</time>
      </trkpt>
      <trkpt lat="47.26876" lon="-2.33533">
        <ele>30</ele>
        <time>2021-11-18T11:29:30.000Z</time>
      </trkpt>
      <trkpt lat="47.26869" lon="-2.33534">
        <ele>29.60000038147</ele>
        <time>2021-11-18T11:29:31.000Z</time>
      </trkpt>
      <trkpt lat="47.26862" lon="-2.33537">
        <ele>29.200000762939</ele>
        <time>2021-11-18T11:29:32.000Z</time>
      </trkpt>
      <trkpt lat="47.26855" lon="-2.33539">
        <ele>28.60000038147</ele>
        <time>2021-11-18T11:29:33.000Z</time>
      </trkpt>
      <trkpt lat="47.26842" lon="-2.33544">
        <ele>28.200000762939</ele>
        <time>2021-11-18T11:29:35.000Z</time>
      </trkpt>
      <trkpt lat="47.26835" lon="-2.33547">
        <ele>27.799999237061</ele>
        <time>2021-11-18T11:29:36.000Z</time>
      </trkpt>
      <trkpt lat="47.26829" lon="-2.3355">
        <ele>27.39999961853</ele>
        <time>2021-11-18T11:29:37.000Z</time>
      </trkpt>
      <trkpt lat="47.26823" lon="-2.33552">
        <ele>27</ele>
        <time>2021-11-18T11:29:38.000Z</time>
      </trkpt>
      <trkpt lat="47.26817" lon="-2.33554">
        <ele>26.60000038147</ele>
        <time>2021-11-18T11:29:39.000Z</time>
      </trkpt>
      <trkpt lat="47.26783" lon="-2.33566">
        <ele>26.60000038147</ele>
        <time>2021-11-18T11:29:45.000Z</time>
      </trkpt>
      <trkpt lat="47.2678" lon="-2.33565">
        <ele>26.60000038147</ele>
        <time>2021-11-18T11:29:46.000Z</time>
      </trkpt>
      <trkpt lat="47.26777" lon="-2.33554">
        <ele>26.60000038147</ele>
        <time>2021-11-18T11:29:48.000Z</time>
      </trkpt>
      <trkpt lat="47.26772" lon="-2.33523">
        <ele>26.60000038147</ele>
        <time>2021-11-18T11:29:52.000Z</time>
      </trkpt>
      <trkpt lat="47.26765" lon="-2.33475">
        <ele>26.60000038147</ele>
        <time>2021-11-18T11:29:58.000Z</time>
      </trkpt>
      <trkpt lat="47.26756" lon="-2.33417">
        <ele>26.60000038147</ele>
        <time>2021-11-18T11:30:05.000Z</time>
      </trkpt>
      <trkpt lat="47.26749" lon="-2.33357">
        <ele>26.60000038147</ele>
        <time>2021-11-18T11:30:13.000Z</time>
      </trkpt>
      <trkpt lat="47.26735" lon="-2.33299">
        <ele>26.60000038147</ele>
        <time>2021-11-18T11:30:21.000Z</time>
      </trkpt>
      <trkpt lat="47.2673" lon="-2.33277">
        <ele>26.60000038147</ele>
        <time>2021-11-18T11:30:24.000Z</time>
      </trkpt>
      <trkpt lat="47.26729" lon="-2.33261">
        <ele>26.60000038147</ele>
        <time>2021-11-18T11:30:26.000Z</time>
      </trkpt>
      <trkpt lat="47.26735" lon="-2.3323">
        <ele>26.60000038147</ele>
        <time>2021-11-18T11:30:30.000Z</time>
      </trkpt>
      <trkpt lat="47.26743" lon="-2.33207">
        <ele>26.60000038147</ele>
        <time>2021-11-18T11:30:33.000Z</time>
      </trkpt>
      <trkpt lat="47.26748" lon="-2.33192">
        <ele>26.60000038147</ele>
        <time>2021-11-18T11:30:35.000Z</time>
      </trkpt>
      <trkpt lat="47.2676" lon="-2.33144">
        <ele>26.60000038147</ele>
        <time>2021-11-18T11:30:41.000Z</time>
      </trkpt>
      <trkpt lat="47.26764" lon="-2.33119">
        <ele>26.60000038147</ele>
        <time>2021-11-18T11:30:44.000Z</time>
      </trkpt>
      <trkpt lat="47.26764" lon="-2.33103">
        <ele>26.60000038147</ele>
        <time>2021-11-18T11:30:46.000Z</time>
      </trkpt>
      <trkpt lat="47.26754" lon="-2.33085">
        <ele>26.60000038147</ele>
        <time>2021-11-18T11:30:49.000Z</time>
      </trkpt>
      <trkpt lat="47.26746" lon="-2.33088">
        <ele>26.60000038147</ele>
        <time>2021-11-18T11:30:51.000Z</time>
      </trkpt>
      <trkpt lat="47.26738" lon="-2.33096">
        <ele>26.60000038147</ele>
        <time>2021-11-18T11:30:53.000Z</time>
      </trkpt>
      <trkpt lat="47.26725" lon="-2.3311">
        <ele>26.60000038147</ele>
        <time>2021-11-18T11:30:56.000Z</time>
      </trkpt>
      <trkpt lat="47.2669" lon="-2.33145">
        <ele>26.60000038147</ele>
        <time>2021-11-18T11:31:03.000Z</time>
      </trkpt>
      <trkpt lat="47.2665" lon="-2.33186">
        <ele>26.60000038147</ele>
        <time>2021-11-18T11:31:11.000Z</time>
      </trkpt>
      <trkpt lat="47.2662" lon="-2.33217">
        <ele>26.60000038147</ele>
        <time>2021-11-18T11:31:17.000Z</time>
      </trkpt>
      <trkpt lat="47.26586" lon="-2.33251">
        <ele>26.60000038147</ele>
        <time>2021-11-18T11:31:24.000Z</time>
      </trkpt>
      <trkpt lat="47.2655" lon="-2.33287">
        <ele>26.60000038147</ele>
        <time>2021-11-18T11:31:32.000Z</time>
      </trkpt>
      <trkpt lat="47.26536" lon="-2.333">
        <ele>26.60000038147</ele>
        <time>2021-11-18T11:31:36.000Z</time>
      </trkpt>
      <trkpt lat="47.26533" lon="-2.33297">
        <ele>26.60000038147</ele>
        <time>2021-11-18T11:31:37.000Z</time>
      </trkpt>
      <trkpt lat="47.26526" lon="-2.33283">
        <ele>26.60000038147</ele>
        <time>2021-11-18T11:31:40.000Z</time>
      </trkpt>
      <trkpt lat="47.26518" lon="-2.33284">
        <ele>26.60000038147</ele>
        <time>2021-11-18T11:31:43.000Z</time>
      </trkpt>
      <trkpt lat="47.26503" lon="-2.33279">
        <ele>26.60000038147</ele>
        <time>2021-11-18T11:31:47.000Z</time>
      </trkpt>
      <trkpt lat="47.26493" lon="-2.3328">
        <ele>26.60000038147</ele>
        <time>2021-11-18T11:31:50.000Z</time>
      </trkpt>
      <trkpt lat="47.26485" lon="-2.33278">
        <ele>26.60000038147</ele>
        <time>2021-11-18T11:31:52.000Z</time>
      </trkpt>
      <trkpt lat="47.2648" lon="-2.33277">
        <ele>26.60000038147</ele>
        <time>2021-11-18T11:31:53.000Z</time>
      </trkpt>
      <trkpt lat="47.26469" lon="-2.33274">
        <ele>26.60000038147</ele>
        <time>2021-11-18T11:31:55.000Z</time>
      </trkpt>
      <trkpt lat="47.26426" lon="-2.33267">
        <ele>26.60000038147</ele>
        <time>2021-11-18T11:32:03.000Z</time>
      </trkpt>
      <trkpt lat="47.26389" lon="-2.33259">
        <ele>26.60000038147</ele>
        <time>2021-11-18T11:32:10.000Z</time>
      </trkpt>
      <trkpt lat="47.2638" lon="-2.33241">
        <ele>26.60000038147</ele>
        <time>2021-11-18T11:32:13.000Z</time>
      </trkpt>
      <trkpt lat="47.26378" lon="-2.3321">
        <ele>26.60000038147</ele>
        <time>2021-11-18T11:32:17.000Z</time>
      </trkpt>
      <trkpt lat="47.26375" lon="-2.33147">
        <ele>26.60000038147</ele>
        <time>2021-11-18T11:32:25.000Z</time>
      </trkpt>
      <trkpt lat="47.26371" lon="-2.3309">
        <ele>26.60000038147</ele>
        <time>2021-11-18T11:32:32.000Z</time>
      </trkpt>
      <trkpt lat="47.26368" lon="-2.33033">
        <ele>26.60000038147</ele>
        <time>2021-11-18T11:32:39.000Z</time>
      </trkpt>
      <trkpt lat="47.26367" lon="-2.33009">
        <ele>26.60000038147</ele>
        <time>2021-11-18T11:32:42.000Z</time>
      </trkpt>
      <trkpt lat="47.26364" lon="-2.32984">
        <ele>26.60000038147</ele>
        <time>2021-11-18T11:32:45.000Z</time>
      </trkpt>
      <trkpt lat="47.26361" lon="-2.32978">
        <ele>26.60000038147</ele>
        <time>2021-11-18T11:32:46.000Z</time>
      </trkpt>
      <trkpt lat="47.26348" lon="-2.32961">
        <ele>26.60000038147</ele>
        <time>2021-11-18T11:32:49.000Z</time>
      </trkpt>
      <trkpt lat="47.26335" lon="-2.32922">
        <ele>26.60000038147</ele>
        <time>2021-11-18T11:32:54.000Z</time>
      </trkpt>
      <trkpt lat="47.26317" lon="-2.32869">
        <ele>26.60000038147</ele>
        <time>2021-11-18T11:33:01.000Z</time>
      </trkpt>
      <trkpt lat="47.26302" lon="-2.32857">
        <ele>26.60000038147</ele>
        <time>2021-11-18T11:33:04.000Z</time>
      </trkpt>
      <trkpt lat="47.26296" lon="-2.32855">
        <ele>26.60000038147</ele>
        <time>2021-11-18T11:33:05.000Z</time>
      </trkpt>
      <trkpt lat="47.26292" lon="-2.32851">
        <ele>26.60000038147</ele>
        <time>2021-11-18T11:33:06.000Z</time>
      </trkpt>
      <trkpt lat="47.26286" lon="-2.32837">
        <ele>26.60000038147</ele>
        <time>2021-11-18T11:33:08.000Z</time>
      </trkpt>
      <trkpt lat="47.26285" lon="-2.32821">
        <ele>26.60000038147</ele>
        <time>2021-11-18T11:33:10.000Z</time>
      </trkpt>
      <trkpt lat="47.26283" lon="-2.32813">
        <ele>26.60000038147</ele>
        <time>2021-11-18T11:33:11.000Z</time>
      </trkpt>
      <trkpt lat="47.26281" lon="-2.32805">
        <ele>26.60000038147</ele>
        <time>2021-11-18T11:33:12.000Z</time>
      </trkpt>
      <trkpt lat="47.26273" lon="-2.32783">
        <ele>26.60000038147</ele>
        <time>2021-11-18T11:33:15.000Z</time>
      </trkpt>
      <trkpt lat="47.26267" lon="-2.3277">
        <ele>26.60000038147</ele>
        <time>2021-11-18T11:33:17.000Z</time>
      </trkpt>
      <trkpt lat="47.26264" lon="-2.32764">
        <ele>26.60000038147</ele>
        <time>2021-11-18T11:33:18.000Z</time>
      </trkpt>
      <trkpt lat="47.26253" lon="-2.32746">
        <ele>26.60000038147</ele>
        <time>2021-11-18T11:33:21.000Z</time>
      </trkpt>
      <trkpt lat="47.26241" lon="-2.32729">
        <ele>26.60000038147</ele>
        <time>2021-11-18T11:33:24.000Z</time>
      </trkpt>
      <trkpt lat="47.26217" lon="-2.32696">
        <ele>26.60000038147</ele>
        <time>2021-11-18T11:33:30.000Z</time>
      </trkpt>
      <trkpt lat="47.26213" lon="-2.32692">
        <ele>26.60000038147</ele>
        <time>2021-11-18T11:33:31.000Z</time>
      </trkpt>
      <trkpt lat="47.26193" lon="-2.32668">
        <ele>27</ele>
        <time>2021-11-18T11:33:36.000Z</time>
      </trkpt>
      <trkpt lat="47.26189" lon="-2.32664">
        <ele>27.799999237061</ele>
        <time>2021-11-18T11:33:37.000Z</time>
      </trkpt>
      <trkpt lat="47.26185" lon="-2.3266">
        <ele>28.200000762939</ele>
        <time>2021-11-18T11:33:38.000Z</time>
      </trkpt>
      <trkpt lat="47.2618" lon="-2.32656">
        <ele>28.60000038147</ele>
        <time>2021-11-18T11:33:39.000Z</time>
      </trkpt>
      <trkpt lat="47.2616" lon="-2.32645">
        <ele>28.60000038147</ele>
        <time>2021-11-18T11:33:43.000Z</time>
      </trkpt>
      <trkpt lat="47.26145" lon="-2.32639">
        <ele>28.60000038147</ele>
        <time>2021-11-18T11:33:46.000Z</time>
      </trkpt>
      <trkpt lat="47.26119" lon="-2.32634">
        <ele>28.60000038147</ele>
        <time>2021-11-18T11:33:51.000Z</time>
      </trkpt>
      <trkpt lat="47.26114" lon="-2.32634">
        <ele>28.60000038147</ele>
        <time>2021-11-18T11:33:52.000Z</time>
      </trkpt>
      <trkpt lat="47.26085" lon="-2.32638">
        <ele>28.60000038147</ele>
        <time>2021-11-18T11:33:58.000Z</time>
      </trkpt>
      <trkpt lat="47.26047" lon="-2.32645">
        <ele>28.60000038147</ele>
        <time>2021-11-18T11:34:05.000Z</time>
      </trkpt>
      <trkpt lat="47.26042" lon="-2.32647">
        <ele>28.60000038147</ele>
        <time>2021-11-18T11:34:06.000Z</time>
      </trkpt>
      <trkpt lat="47.26015" lon="-2.32651">
        <ele>28.60000038147</ele>
        <time>2021-11-18T11:34:11.000Z</time>
      </trkpt>
      <trkpt lat="47.25983" lon="-2.32656">
        <ele>28.60000038147</ele>
        <time>2021-11-18T11:34:17.000Z</time>
      </trkpt>
      <trkpt lat="47.25973" lon="-2.32653">
        <ele>28.60000038147</ele>
        <time>2021-11-18T11:34:19.000Z</time>
      </trkpt>
      <trkpt lat="47.25968" lon="-2.32653">
        <ele>28.200000762939</ele>
        <time>2021-11-18T11:34:20.000Z</time>
      </trkpt>
      <trkpt lat="47.25963" lon="-2.32654">
        <ele>27.60000038147</ele>
        <time>2021-11-18T11:34:21.000Z</time>
      </trkpt>
      <trkpt lat="47.25958" lon="-2.32654">
        <ele>27.200000762939</ele>
        <time>2021-11-18T11:34:22.000Z</time>
      </trkpt>
      <trkpt lat="47.25953" lon="-2.32653">
        <ele>26.799999237061</ele>
        <time>2021-11-18T11:34:23.000Z</time>
      </trkpt>
      <trkpt lat="47.25948" lon="-2.3265">
        <ele>26.39999961853</ele>
        <time>2021-11-18T11:34:24.000Z</time>
      </trkpt>
      <trkpt lat="47.25941" lon="-2.32641">
        <ele>26.39999961853</ele>
        <time>2021-11-18T11:34:26.000Z</time>
      </trkpt>
      <trkpt lat="47.25938" lon="-2.32637">
        <ele>26.39999961853</ele>
        <time>2021-11-18T11:34:27.000Z</time>
      </trkpt>
      <trkpt lat="47.25909" lon="-2.32599">
        <ele>26.39999961853</ele>
        <time>2021-11-18T11:34:35.000Z</time>
      </trkpt>
      <trkpt lat="47.25894" lon="-2.32581">
        <ele>26.39999961853</ele>
        <time>2021-11-18T11:34:39.000Z</time>
      </trkpt>
      <trkpt lat="47.25885" lon="-2.32576">
        <ele>26.39999961853</ele>
        <time>2021-11-18T11:34:41.000Z</time>
      </trkpt>
      <trkpt lat="47.2587" lon="-2.32555">
        <ele>26.39999961853</ele>
        <time>2021-11-18T11:34:45.000Z</time>
      </trkpt>
      <trkpt lat="47.25866" lon="-2.3255">
        <ele>26.39999961853</ele>
        <time>2021-11-18T11:34:46.000Z</time>
      </trkpt>
      <trkpt lat="47.25851" lon="-2.32529">
        <ele>26.39999961853</ele>
        <time>2021-11-18T11:34:50.000Z</time>
      </trkpt>
      <trkpt lat="47.25824" lon="-2.32489">
        <ele>26.39999961853</ele>
        <time>2021-11-18T11:34:58.000Z</time>
      </trkpt>
      <trkpt lat="47.25823" lon="-2.32484">
        <ele>26.39999961853</ele>
        <time>2021-11-18T11:34:59.000Z</time>
      </trkpt>
      <trkpt lat="47.25827" lon="-2.32479">
        <ele>26.39999961853</ele>
        <time>2021-11-18T11:35:01.000Z</time>
      </trkpt>
      <trkpt lat="47.25838" lon="-2.32482">
        <ele>26.39999961853</ele>
        <time>2021-11-18T11:35:04.000Z</time>
      </trkpt>
      <trkpt lat="47.25846" lon="-2.32482">
        <ele>26.39999961853</ele>
        <time>2021-11-18T11:35:06.000Z</time>
      </trkpt>
      <trkpt lat="47.25869" lon="-2.32484">
        <ele>26.39999961853</ele>
        <time>2021-11-18T11:35:11.000Z</time>
      </trkpt>
      <trkpt lat="47.25883" lon="-2.32483">
        <ele>26.39999961853</ele>
        <time>2021-11-18T11:35:14.000Z</time>
      </trkpt>
      <trkpt lat="47.25889" lon="-2.32474">
        <ele>26.39999961853</ele>
        <time>2021-11-18T11:35:16.000Z</time>
      </trkpt>
      <trkpt lat="47.25903" lon="-2.32451">
        <ele>26.39999961853</ele>
        <time>2021-11-18T11:35:21.000Z</time>
      </trkpt>
      <trkpt lat="47.25932" lon="-2.32414">
        <ele>26.39999961853</ele>
        <time>2021-11-18T11:35:29.000Z</time>
      </trkpt>
      <trkpt lat="47.2595" lon="-2.32389">
        <ele>26.39999961853</ele>
        <time>2021-11-18T11:35:34.000Z</time>
      </trkpt>
      <trkpt lat="47.25965" lon="-2.3237">
        <ele>26.39999961853</ele>
        <time>2021-11-18T11:35:38.000Z</time>
      </trkpt>
      <trkpt lat="47.25999" lon="-2.32327">
        <ele>26.39999961853</ele>
        <time>2021-11-18T11:35:47.000Z</time>
      </trkpt>
      <trkpt lat="47.26027" lon="-2.32295">
        <ele>26.39999961853</ele>
        <time>2021-11-18T11:35:54.000Z</time>
      </trkpt>
      <trkpt lat="47.2606" lon="-2.32257">
        <ele>26.39999961853</ele>
        <time>2021-11-18T11:36:02.000Z</time>
      </trkpt>
      <trkpt lat="47.26086" lon="-2.32225">
        <ele>26.39999961853</ele>
        <time>2021-11-18T11:36:09.000Z</time>
      </trkpt>
      <trkpt lat="47.26093" lon="-2.32214">
        <ele>26.39999961853</ele>
        <time>2021-11-18T11:36:11.000Z</time>
      </trkpt>
      <trkpt lat="47.26105" lon="-2.3219">
        <ele>26.39999961853</ele>
        <time>2021-11-18T11:36:15.000Z</time>
      </trkpt>
      <trkpt lat="47.26129" lon="-2.32126">
        <ele>26.39999961853</ele>
        <time>2021-11-18T11:36:25.000Z</time>
      </trkpt>
      <trkpt lat="47.26142" lon="-2.32081">
        <ele>26.39999961853</ele>
        <time>2021-11-18T11:36:32.000Z</time>
      </trkpt>
      <trkpt lat="47.26155" lon="-2.3204">
        <ele>26.39999961853</ele>
        <time>2021-11-18T11:36:39.000Z</time>
      </trkpt>
      <trkpt lat="47.26166" lon="-2.32022">
        <ele>26.39999961853</ele>
        <time>2021-11-18T11:36:43.000Z</time>
      </trkpt>
      <trkpt lat="47.2617" lon="-2.3202">
        <ele>26.39999961853</ele>
        <time>2021-11-18T11:36:44.000Z</time>
      </trkpt>
      <trkpt lat="47.26184" lon="-2.32021">
        <ele>26.39999961853</ele>
        <time>2021-11-18T11:36:48.000Z</time>
      </trkpt>
      <trkpt lat="47.26187" lon="-2.32021">
        <ele>26.39999961853</ele>
        <time>2021-11-18T11:36:49.000Z</time>
      </trkpt>
      <trkpt lat="47.26194" lon="-2.32022">
        <ele>26.39999961853</ele>
        <time>2021-11-18T11:36:52.000Z</time>
      </trkpt>
      <trkpt lat="47.26197" lon="-2.32018">
        <ele>26.39999961853</ele>
        <time>2021-11-18T11:36:54.000Z</time>
      </trkpt>
      <trkpt lat="47.26198" lon="-2.32014">
        <ele>26.39999961853</ele>
        <time>2021-11-18T11:36:55.000Z</time>
      </trkpt>
      <trkpt lat="47.26198" lon="-2.32004">
        <ele>26.39999961853</ele>
        <time>2021-11-18T11:36:58.000Z</time>
      </trkpt>
      <trkpt lat="47.262" lon="-2.32003">
        <ele>26.39999961853</ele>
        <time>2021-11-18T11:36:59.000Z</time>
      </trkpt>
      <trkpt lat="47.26208" lon="-2.31993">
        <ele>26.39999961853</ele>
        <time>2021-11-18T11:37:03.000Z</time>
      </trkpt>
      <trkpt lat="47.2621" lon="-2.3199">
        <ele>26.39999961853</ele>
        <time>2021-11-18T11:37:04.000Z</time>
      </trkpt>
      <trkpt lat="47.26227" lon="-2.31965">
        <ele>26.39999961853</ele>
        <time>2021-11-18T11:37:10.000Z</time>
      </trkpt>
      <trkpt lat="47.26243" lon="-2.31947">
        <ele>26.39999961853</ele>
        <time>2021-11-18T11:37:15.000Z</time>
      </trkpt>
      <trkpt lat="47.26259" lon="-2.31924">
        <ele>26.39999961853</ele>
        <time>2021-11-18T11:37:21.000Z</time>
      </trkpt>
      <trkpt lat="47.26281" lon="-2.319">
        <ele>26.39999961853</ele>
        <time>2021-11-18T11:37:27.000Z</time>
      </trkpt>
      <trkpt lat="47.26298" lon="-2.31881">
        <ele>26.39999961853</ele>
        <time>2021-11-18T11:37:33.000Z</time>
      </trkpt>
      <trkpt lat="47.26297" lon="-2.31863">
        <ele>26.39999961853</ele>
        <time>2021-11-18T11:37:37.000Z</time>
      </trkpt>
      <trkpt lat="47.26297" lon="-2.31859">
        <ele>26.39999961853</ele>
        <time>2021-11-18T11:37:38.000Z</time>
      </trkpt>
      <trkpt lat="47.263" lon="-2.31819">
        <ele>26.39999961853</ele>
        <time>2021-11-18T11:37:45.000Z</time>
      </trkpt>
      <trkpt lat="47.263" lon="-2.31777">
        <ele>26.39999961853</ele>
        <time>2021-11-18T11:37:52.000Z</time>
      </trkpt>
      <trkpt lat="47.26298" lon="-2.31733">
        <ele>26.39999961853</ele>
        <time>2021-11-18T11:37:59.000Z</time>
      </trkpt>
      <trkpt lat="47.26298" lon="-2.31726">
        <ele>26.39999961853</ele>
        <time>2021-11-18T11:38:00.000Z</time>
      </trkpt>
      <trkpt lat="47.26305" lon="-2.31716">
        <ele>26.39999961853</ele>
        <time>2021-11-18T11:38:02.000Z</time>
      </trkpt>
      <trkpt lat="47.2632" lon="-2.31707">
        <ele>26.39999961853</ele>
        <time>2021-11-18T11:38:06.000Z</time>
      </trkpt>
      <trkpt lat="47.26323" lon="-2.31706">
        <ele>26.39999961853</ele>
        <time>2021-11-18T11:38:07.000Z</time>
      </trkpt>
      <trkpt lat="47.26332" lon="-2.31697">
        <ele>26.39999961853</ele>
        <time>2021-11-18T11:38:10.000Z</time>
      </trkpt>
      <trkpt lat="47.26333" lon="-2.31692">
        <ele>26.39999961853</ele>
        <time>2021-11-18T11:38:11.000Z</time>
      </trkpt>
      <trkpt lat="47.2634" lon="-2.31684">
        <ele>26.799999237061</ele>
        <time>2021-11-18T11:38:14.000Z</time>
      </trkpt>
      <trkpt lat="47.26342" lon="-2.31683">
        <ele>27.200000762939</ele>
        <time>2021-11-18T11:38:15.000Z</time>
      </trkpt>
      <trkpt lat="47.26345" lon="-2.31682">
        <ele>27.60000038147</ele>
        <time>2021-11-18T11:38:16.000Z</time>
      </trkpt>
      <trkpt lat="47.26348" lon="-2.3168">
        <ele>28.200000762939</ele>
        <time>2021-11-18T11:38:17.000Z</time>
      </trkpt>
      <trkpt lat="47.26351" lon="-2.31678">
        <ele>28.60000038147</ele>
        <time>2021-11-18T11:38:18.000Z</time>
      </trkpt>
      <trkpt lat="47.26357" lon="-2.31676">
        <ele>28.60000038147</ele>
        <time>2021-11-18T11:38:20.000Z</time>
      </trkpt>
      <trkpt lat="47.26377" lon="-2.31668">
        <ele>28.60000038147</ele>
        <time>2021-11-18T11:38:26.000Z</time>
      </trkpt>
      <trkpt lat="47.26388" lon="-2.3166">
        <ele>29</ele>
        <time>2021-11-18T11:38:30.000Z</time>
      </trkpt>
      <trkpt lat="47.26391" lon="-2.31659">
        <ele>29.39999961853</ele>
        <time>2021-11-18T11:38:31.000Z</time>
      </trkpt>
      <trkpt lat="47.26395" lon="-2.31658">
        <ele>29.799999237061</ele>
        <time>2021-11-18T11:38:32.000Z</time>
      </trkpt>
      <trkpt lat="47.26397" lon="-2.31657">
        <ele>30.60000038147</ele>
        <time>2021-11-18T11:38:33.000Z</time>
      </trkpt>
      <trkpt lat="47.26408" lon="-2.3165">
        <ele>30.60000038147</ele>
        <time>2021-11-18T11:38:37.000Z</time>
      </trkpt>
      <trkpt lat="47.26411" lon="-2.31643">
        <ele>30.60000038147</ele>
        <time>2021-11-18T11:38:39.000Z</time>
      </trkpt>
      <trkpt lat="47.2641" lon="-2.31637">
        <ele>30.60000038147</ele>
        <time>2021-11-18T11:38:41.000Z</time>
      </trkpt>
      <trkpt lat="47.2641" lon="-2.31628">
        <ele>30.60000038147</ele>
        <time>2021-11-18T11:38:43.000Z</time>
      </trkpt>
      <trkpt lat="47.26411" lon="-2.31611">
        <ele>30.60000038147</ele>
        <time>2021-11-18T11:38:47.000Z</time>
      </trkpt>
      <trkpt lat="47.2641" lon="-2.31585">
        <ele>30.60000038147</ele>
        <time>2021-11-18T11:38:53.000Z</time>
      </trkpt>
      <trkpt lat="47.26411" lon="-2.31555">
        <ele>30.60000038147</ele>
        <time>2021-11-18T11:39:00.000Z</time>
      </trkpt>
      <trkpt lat="47.26414" lon="-2.31549">
        <ele>30.60000038147</ele>
        <time>2021-11-18T11:39:02.000Z</time>
      </trkpt>
      <trkpt lat="47.26416" lon="-2.31549">
        <ele>30.60000038147</ele>
        <time>2021-11-18T11:39:04.000Z</time>
      </trkpt>
      <trkpt lat="47.26417" lon="-2.31551">
        <ele>30.60000038147</ele>
        <time>2021-11-18T11:39:06.000Z</time>
      </trkpt>
      <trkpt lat="47.26417" lon="-2.31552">
        <ele>30.60000038147</ele>
        <time>2021-11-18T11:39:07.000Z</time>
      </trkpt>
    </trkseg>
  </trk>
</gpx>